# Wetter Temperatur Luftdruck Luftfeuchtigkeit Sichtweite Windgeschwindigkeit Windrichtung Zeit
1 Clouds 14 1027 58 10000 2.6 100 10:41 08.04.2020
2 Clouds 14 1027 58 10000 2.6 100 10:22 08.04.2020
3 Clouds 12 1027 66 10000 3.1 110 09:59 08.04.2020
4 Clouds 12 1027 66 10000 3.1 110 09:41 08.04.2020
5 Clear 11 1028 66 10000 3.6 90 09:19 08.04.2020
6 Clear 10 1028 66 10000 3.6 90 08:58 08.04.2020
7 Clear 10 1028 66 10000 3.6 90 08:40 08.04.2020
8 Clear 9 1028 65 10000 4.1 90 08:21 08.04.2020
9 Clear 8 1028 70 10000 4.1 90 07:43 08.04.2020
10 Clear 8 1028 70 10000 3.1 100 07:22 08.04.2020
11 Clear 8 1028 65 10000 2.6 100 06:33 08.04.2020
12 Clear 8 1029 61 10000 2.6 100 05:22 08.04.2020
13 Clear 9 1030 65 10000 3.1 80 02:51 08.04.2020
14 Clear 10 1030 61 10000 2.6 70 02:22 08.04.2020
15 Clear 10 1031 61 10000 3.1 90 01:56 08.04.2020
16 Clear 11 1031 57 10000 2.6 100 01:28 08.04.2020
17 Clear 11 1031 57 10000 3.6 90 00:49 08.04.2020
18 Clear 11 1030 57 10000 3.6 90 00:31 08.04.2020
19 Clear 12 1031 58 10000 3.6 90 23:57 07.04.2020
20 Clear 12 1031 58 10000 3.6 90 23:38 07.04.2020
21 Clear 12 1031 62 10000 3.6 90 23:19 07.04.2020
22 Clear 12 1031 66 10000 3.6 90 22:56 07.04.2020
23 Clear 13 1031 66 10000 3.6 90 22:38 07.04.2020
24 Clear 13 1031 62 10000 4.1 90 22:18 07.04.2020
25 Clear 13 1031 58 10000 4.6 90 21:42 07.04.2020
26 Clouds 14 1031 62 10000 3.6 80 21:22 07.04.2020
27 Clouds 15 1031 54 10000 4.1 90 20:59 07.04.2020
28 Clouds 16 1030 51 10000 3.1 80 20:40 07.04.2020
29 Clouds 16 1030 51 10000 3.1 80 20:21 07.04.2020
30 Clouds 18 1030 45 10000 3.6 90 19:57 07.04.2020
31 Clouds 18 1031 42 10000 2.6 90 19:38 07.04.2020
32 Clouds 18 1031 42 10000 2.6 90 19:38 07.04.2020
33 Clouds 18 1031 42 10000 2.6 90 19:20 07.04.2020
34 Clouds 19 1031 39 10000 2.6 70 18:58 07.04.2020
35 Clouds 19 1031 39 10000 2.1 70 18:40 07.04.2020
36 Clouds 19 1031 39 10000 2.6 100 18:20 07.04.2020
37 Clouds 19 1031 39 10000 2.6 100 17:47 07.04.2020
38 Clouds 19 1031 42 10000 2.1 30 17:24 07.04.2020
39 Clouds 19 1031 42 10000 2.6 70 16:55 07.04.2020
40 Clouds 19 1031 42 10000 2.6 70 16:37 07.04.2020
41 Clouds 18 1032 42 10000 3.1 50 16:19 07.04.2020
42 Clouds 18 1032 42 10000 3.1 50 15:42 07.04.2020
43 Clouds 18 1032 45 10000 3.1 340 15:24 07.04.2020
44 Clouds 18 1032 42 10000 2.6 0 14:42 07.04.2020
45 Clouds 17 1032 45 10000 2.1 0 14:23 07.04.2020
46 Clouds 17 1032 45 10000 2.6 350 13:57 07.04.2020
47 Clouds 17 1032 45 10000 2.6 350 13:39 07.04.2020
48 Clouds 17 1032 48 10000 3.1 340 13:19 07.04.2020
49 Clouds 16 1032 51 10000 3.1 70 12:56 07.04.2020
50 Clouds 16 1032 51 10000 3.1 70 12:37 07.04.2020
51 Clouds 16 1032 55 10000 2.6 50 12:18 07.04.2020
52 Clouds 15 1032 62 10000 2.6 340 11:44 07.04.2020
53 Clouds 14 1032 67 10000 3.1 350 11:26 07.04.2020
54 Clouds 14 1032 67 10000 2.6 340 10:59 07.04.2020
55 Clouds 13 1032 67 10000 2.6 340 10:38 07.04.2020
56 Clouds 13 1032 71 10000 2.1 340 10:19 07.04.2020
57 Clouds 12 1031 76 10000 3.6 340 09:46 07.04.2020
58 Clouds 11 1031 87 10000 3.6 330 09:20 07.04.2020
59 Clouds 11 1031 81 10000 3.6 330 08:56 07.04.2020
60 Clouds 11 1031 81 10000 3.6 330 08:38 07.04.2020
61 Clouds 10 1030 87 10000 2.6 310 08:18 07.04.2020
62 Clouds 10 1030 87 10000 2.6 310 07:43 07.04.2020
63 Clouds 10 1029 81 10000 3.6 320 07:25 07.04.2020
64 Clouds 10 1029 87 10000 2.6 310 06:51 07.04.2020
65 Clouds 10 1028 87 10000 1.5 300 06:23 07.04.2020
66 Clouds 10 1028 81 10000 3.1 270 05:43 07.04.2020
67 Clouds 10 1028 81 10000 3.1 260 05:22 07.04.2020
68 Clear 10 1026 81 10000 3.1 270 03:32 07.04.2020
69 Clear 11 1026 76 10000 3.6 270 02:59 07.04.2020
70 Clear 11 1025 66 10000 3.6 260 01:57 07.04.2020
71 Clear 12 1024 58 10000 3.1 260 01:29 07.04.2020
72 Clear 12 1023 54 10000 1 0 00:29 07.04.2020
73 Clear 12 1022 44 10000 1.5 210 23:57 06.04.2020
74 Clear 13 1022 44 10000 1.5 210 23:38 06.04.2020
75 Clear 13 1022 47 10000 1 200 23:19 06.04.2020
76 Clear 14 1022 47 10000 1 0 22:41 06.04.2020
77 Clear 14 1022 47 10000 0.5 220 22:22 06.04.2020
78 Clear 15 1022 41 10000 0.5 200 21:58 06.04.2020
79 Clear 16 1022 41 10000 0.5 200 21:39 06.04.2020
80 Clear 16 1021 44 10000 1 0 21:19 06.04.2020
81 Clear 17 1021 31 9000 1.5 270 20:55 06.04.2020
82 Clear 17 1021 31 9000 1.5 270 20:55 06.04.2020
83 Clear 19 1021 32 10000 2.1 200 20:37 06.04.2020
84 Clear 20 1020 30 10000 2.1 200 20:18 06.04.2020
85 Clear 22 1020 28 10000 2.1 170 19:41 06.04.2020
86 Clear 22 1020 28 10000 2.1 180 19:23 06.04.2020
87 Clear 23 1020 27 10000 1.5 180 18:59 06.04.2020
88 Clear 23 1020 27 10000 1.5 180 18:39 06.04.2020
89 Clear 23 1020 27 10000 1.5 190 18:21 06.04.2020
90 Clear 23 1020 28 10000 3.1 220 17:42 06.04.2020
91 Clear 23 1020 31 10000 3.6 250 17:20 06.04.2020
92 Clear 23 1020 28 10000 2.6 190 16:50 06.04.2020
93 Clear 23 1020 28 10000 4.1 190 16:32 06.04.2020
94 Clear 23 1020 28 10000 4.1 190 16:32 06.04.2020
95 Clear 23 1020 28 10000 4.1 190 16:00 06.04.2020
96 Clear 23 1020 28 10000 4.1 190 16:00 06.04.2020
97 Clear 22 1020 30 10000 3.6 140 14:44 06.04.2020
98 Clear 22 1020 30 10000 3.6 140 14:44 06.04.2020
99 Clear 22 1020 30 10000 3.6 140 14:44 06.04.2020
100 Clear 22 1020 30 10000 3.6 140 14:44 06.04.2020
101 Clear 22 1020 30 10000 3.6 140 14:44 06.04.2020
102 Clear 20 1020 32 10000 3.6 120 13:43 06.04.2020
103 Clear 20 1020 32 10000 3.6 120 13:43 06.04.2020
104 Clear 20 1020 34 10000 3.1 120 13:20 06.04.2020
105 Clear 20 1020 34 10000 3.1 120 13:20 06.04.2020
106 Clear 20 1020 34 10000 3.1 120 13:20 06.04.2020
107 Clear 20 1020 34 10000 3.1 120 13:20 06.04.2020
108 Clear 18 1020 36 10000 3.6 130 12:25 06.04.2020
109 Clear 18 1020 34 10000 3.6 150 12:25 06.04.2020
110 Clear 18 1020 34 10000 3.6 150 12:25 06.04.2020
111 Clear 18 1020 36 10000 3.6 130 12:25 06.04.2020
112 Clear 17 1020 36 10000 3.6 160 11:55 06.04.2020
113 Clear 17 1020 34 10000 3.6 150 11:55 06.04.2020
114 Clear 17 1020 36 10000 3.6 160 11:33 06.04.2020
115 Clear 17 1020 36 10000 3.6 160 11:33 06.04.2020
116 Clear 16 1020 36 10000 3.6 160 11:33 06.04.2020
117 Clear 16 1020 36 10000 3.6 160 11:33 06.04.2020
118 Clear 15 1020 36 10000 4.6 150 10:52 06.04.2020
119 Clear 16 1020 36 10000 4.6 150 10:52 06.04.2020
120 Clear 15 1020 36 10000 4.6 150 10:52 06.04.2020
121 Clear 15 1020 36 10000 4.6 150 10:52 06.04.2020
122 Clear 15 1020 36 10000 4.6 150 10:52 06.04.2020
123 Clear 14 1020 43 10000 5.1 140 10:22 06.04.2020
124 Clear 14 1020 43 10000 5.1 140 10:22 06.04.2020
125 Clear 13 1020 46 10000 4.1 140 09:50 06.04.2020
126 Clear 11 1020 46 10000 4.1 140 09:23 06.04.2020
127 Clear 9 1020 53 10000 2.6 120 08:55 06.04.2020
128 Clear 8 1020 72 10000 2.1 120 08:33 06.04.2020
129 Clear 6 1020 72 10000 3.6 90 07:51 06.04.2020
130 Clear 6 1020 72 10000 3.6 90 07:51 06.04.2020
131 Clear 6 1020 72 10000 3.6 90 07:51 06.04.2020
132 Clear 6 1020 72 10000 3.6 90 07:51 06.04.2020
133 Clear 5 1020 72 10000 3.1 90 06:52 06.04.2020
134 Clear 5 1020 72 10000 3.1 90 06:52 06.04.2020
135 Clear 6 1020 74 10000 2.6 110 06:25 06.04.2020
136 Clear 7 1020 74 10000 2.6 100 04:32 06.04.2020
137 Clear 7 1021 71 10000 2.6 100 03:18 06.04.2020
138 Clear 8 1021 71 10000 3.1 80 02:44 06.04.2020
139 Clear 9 1021 69 10000 3.1 100 01:47 06.04.2020
140 Clear 9 1021 69 10000 3.1 110 00:46 06.04.2020
141 Clear 9 1021 69 10000 3.1 110 00:46 06.04.2020
142 Clear 10 1021 65 10000 3.6 120 00:24 06.04.2020
143 Clear 10 1021 65 10000 3.1 120 23:44 05.04.2020
144 Clear 11 1021 65 10000 3.1 120 23:26 05.04.2020
145 Clear 12 1022 65 10000 3.6 120 22:56 05.04.2020
146 Clear 12 1022 65 10000 4.6 120 22:37 05.04.2020
147 Clear 12 1022 65 10000 4.6 120 22:37 05.04.2020
148 Clear 12 1022 65 10000 4.6 120 22:37 05.04.2020
149 Clear 12 1022 65 10000 4.6 120 22:37 05.04.2020
150 Clear 13 1022 65 10000 5.1 120 22:18 05.04.2020
151 Clear 12 1022 65 10000 5.7 120 21:46 05.04.2020
152 Clear 13 1022 64 10000 5.7 120 21:25 05.04.2020
153 Clear 13 1022 60 10000 5.1 110 20:58 05.04.2020
154 Clear 13 1022 60 10000 5.1 110 20:58 05.04.2020
155 Clear 13 1022 60 10000 5.1 110 20:58 05.04.2020
156 Clear 13 1022 60 10000 5.1 110 20:58 05.04.2020
157 Clear 13 1022 60 10000 5.1 110 20:58 05.04.2020
158 Clear 15 1022 38 10000 5.1 110 20:20 05.04.2020
159 Clear 15 1022 38 10000 5.1 110 20:20 05.04.2020
160 Clear 16 1022 38 10000 5.1 120 19:38 05.04.2020
161 Clear 16 1022 38 10000 6.7 110 19:20 05.04.2020
162 Clear 17 1023 36 10000 7.2 110 18:44 05.04.2020
163 Clear 17 1023 36 10000 7.2 110 18:44 05.04.2020
164 Clear 17 1023 36 10000 7.2 110 18:44 05.04.2020
165 Clear 17 1023 36 10000 7.2 110 18:44 05.04.2020
166 Clear 17 1023 36 10000 7.2 110 18:44 05.04.2020
167 Clear 17 1023 36 10000 7.7 110 17:56 05.04.2020
168 Clear 18 1023 36 10000 7.7 110 17:38 05.04.2020
169 Clear 18 1023 36 10000 7.7 110 17:19 05.04.2020
170 Clear 18 1023 36 10000 7.7 110 17:19 05.04.2020
171 Clear 18 1023 36 10000 7.7 110 17:19 05.04.2020
172 Clear 18 1024 36 10000 6.7 110 16:20 05.04.2020
173 Clear 17 1024 39 10000 5.7 120 15:52 05.04.2020
174 Clear 17 1024 39 10000 5.7 120 15:33 05.04.2020
175 Clear 17 1025 39 10000 4.6 130 14:50 05.04.2020
176 Clear 17 1025 39 10000 4.6 130 14:26 05.04.2020
177 Clear 16 1026 38 10000 5.7 130 13:43 05.04.2020
178 Clear 15 1027 41 10000 4.6 130 12:54 05.04.2020
179 Clear 15 1027 41 10000 4.6 130 12:54 05.04.2020
180 Clear 15 1027 41 10000 4.6 130 12:54 05.04.2020
181 Clear 15 1027 41 10000 4.6 130 12:54 05.04.2020
182 Clear 15 1027 41 10000 4.6 130 12:54 05.04.2020
183 Clear 14 1027 47 10000 4.1 120 11:43 05.04.2020
184 Clear 13 1027 50 10000 4.1 120 11:21 05.04.2020
185 Clear 13 1027 47 10000 4.1 120 11:21 05.04.2020
186 Clear 12 1027 50 10000 4.1 120 10:59 05.04.2020
187 Clear 11 1027 53 10000 3.6 120 10:40 05.04.2020
188 Clear 11 1027 53 10000 3.6 120 10:40 05.04.2020
189 Clear 11 1027 53 10000 3.6 120 10:40 05.04.2020
190 Clear 11 1027 53 10000 3.6 120 10:40 05.04.2020
191 Clear 11 1027 53 10000 3.6 120 10:40 05.04.2020
192 Clear 10 1028 57 10000 4.1 120 10:18 05.04.2020
193 Clear 9 1028 57 10000 3.6 110 09:43 05.04.2020
194 Clear 8 1028 58 10000 3.6 110 09:24 05.04.2020
195 Clear 8 1028 58 10000 3.6 110 09:24 05.04.2020
196 Clear 8 1028 58 10000 3.6 110 09:24 05.04.2020
197 Clear 8 1028 58 10000 3.6 110 09:24 05.04.2020
198 Clear 8 1028 58 10000 3.6 110 09:24 05.04.2020
199 Clear 3 1027 80 10000 3.1 100 07:41 05.04.2020
200 Clear 3 1027 74 10000 3.1 100 04:36 05.04.2020
201 Clear 4 1027 74 10000 3.6 90 03:32 05.04.2020
202 Clear 4 1027 69 10000 2.1 100 02:52 05.04.2020
203 Clouds 5 1027 56 10000 2.1 110 01:48 05.04.2020
204 Clouds 6 1027 56 10000 2.1 110 01:28 05.04.2020
205 Clouds 6 1027 56 10000 2.1 110 01:28 05.04.2020
206 Clouds 6 1027 52 10000 2.6 130 00:44 05.04.2020
207 Clouds 6 1027 52 10000 3.1 120 00:21 05.04.2020
208 Clouds 6 1027 52 10000 3.1 120 23:55 04.04.2020
209 Clouds 6 1027 52 10000 2.6 120 23:37 04.04.2020
210 Clouds 7 1027 52 10000 2.1 120 23:19 04.04.2020
211 Clouds 7 1027 49 10000 2.1 110 22:40 04.04.2020
212 Clouds 7 1027 49 10000 2.1 110 22:21 04.04.2020
213 Clouds 8 1027 49 10000 2.1 110 21:59 04.04.2020
214 Clouds 8 1026 49 10000 2.1 110 21:40 04.04.2020
215 Clear 9 1026 46 10000 2.1 100 21:19 04.04.2020
216 Clear 9 1026 46 10000 2.1 100 20:59 04.04.2020
217 Clear 10 1026 43 10000 2.1 110 20:39 04.04.2020
218 Clear 11 1026 43 10000 2.6 120 20:21 04.04.2020
219 Clear 11 1026 43 10000 2.6 120 19:57 04.04.2020
220 Clear 12 1026 40 10000 2.6 110 19:37 04.04.2020
221 Clear 13 1025 37 10000 2.6 130 19:19 04.04.2020
222 Clear 13 1025 37 10000 2.6 130 18:56 04.04.2020
223 Clear 13 1025 37 10000 3.1 110 18:37 04.04.2020
224 Clear 13 1025 37 10000 1 0 18:19 04.04.2020
225 Clear 13 1025 35 10000 1 0 17:41 04.04.2020
226 Clear 13 1025 35 10000 1 0 17:41 04.04.2020
227 Clear 13 1025 35 10000 1 0 17:21 04.04.2020
228 Clear 14 1025 37 10000 1 0 16:59 04.04.2020
229 Clear 13 1025 37 10000 1.5 0 16:41 04.04.2020
230 Clear 13 1025 37 10000 1.5 0 16:22 04.04.2020
231 Clear 13 1025 37 10000 1.5 0 15:55 04.04.2020
232 Clear 13 1025 37 10000 1.5 0 15:36 04.04.2020
233 Clouds 12 1026 40 10000 1.5 0 15:18 04.04.2020
234 Clouds 12 1026 40 10000 2.1 0 14:42 04.04.2020
235 Clouds 12 1026 40 10000 2.1 0 14:22 04.04.2020
236 Clouds 12 1026 37 10000 1.5 0 13:56 04.04.2020
237 Clouds 11 1026 37 10000 2.1 190 13:37 04.04.2020
238 Clouds 11 1025 37 10000 2.1 210 13:19 04.04.2020
239 Clear 11 1026 46 10000 2.1 0 12:44 04.04.2020
240 Clear 10 1026 46 10000 2.1 0 12:24 04.04.2020
241 Clear 10 1026 57 10000 2.6 250 11:59 04.04.2020
242 Clear 9 1026 57 10000 2.6 270 11:38 04.04.2020
243 Clear 8 1026 57 10000 2.6 250 11:19 04.04.2020
244 Clear 8 1026 57 10000 2.6 250 10:56 04.04.2020
245 Clear 8 1025 61 10000 3.1 250 10:37 04.04.2020
246 Clear 7 1025 65 10000 2.6 260 10:19 04.04.2020
247 Clear 7 1025 65 10000 2.6 260 09:54 04.04.2020
248 Clear 6 1025 70 10000 2.1 270 09:36 04.04.2020
249 Clouds 4 1024 75 10000 1.5 250 09:18 04.04.2020
250 Clouds 4 1024 86 10000 1 0 08:41 04.04.2020
251 Clouds 2 1024 86 10000 1.5 250 08:20 04.04.2020
252 Clouds 2 1023 86 10000 1 0 07:44 04.04.2020
253 Clouds 1 1023 86 10000 1 0 07:26 04.04.2020
254 Clouds 1 1022 86 10000 1 220 06:51 04.04.2020
255 Clouds 2 1022 80 10000 0.5 230 06:19 04.04.2020
256 Clouds 2 1022 80 10000 0.5 290 05:42 04.04.2020
257 Clouds 3 1022 74 10000 1.5 250 05:23 04.04.2020
258 Clouds 4 1022 74 10000 0.5 0 04:30 04.04.2020
259 Clouds 4 1021 74 10000 0.5 240 03:49 04.04.2020
260 Clouds 4 1021 69 10000 1 0 02:51 04.04.2020
261 Clouds 5 1021 88 10000 1.5 270 02:32 04.04.2020
262 Clouds 5 1020 87 10000 2.6 280 01:53 04.04.2020
263 Clouds 5 1020 87 10000 2.6 280 01:25 04.04.2020
264 Clouds 6 1020 87 10000 1.5 230 00:48 04.04.2020
265 Clouds 6 1020 87 10000 1.5 230 00:29 04.04.2020
266 Rain 6 1019 70 10000 2.1 270 23:39 03.04.2020
267 Clouds 7 1019 70 10000 2.1 290 23:21 03.04.2020
268 Clouds 7 1019 70 10000 2.1 290 22:58 03.04.2020
269 Clouds 7 1018 70 10000 1.5 280 22:39 03.04.2020
270 Clouds 7 1018 70 10000 1.5 310 22:18 03.04.2020
271 Clouds 7 1018 79 10000 1.5 330 21:44 03.04.2020
272 Clouds 7 1018 77 10000 1.5 330 21:25 03.04.2020
273 Clouds 8 1017 73 10000 3.1 320 20:57 03.04.2020
274 Rain 8 1017 65 10000 2.1 320 20:37 03.04.2020
275 Clouds 8 1017 73 10000 1.5 330 20:19 03.04.2020
276 Clouds 8 1017 73 10000 1.5 330 19:57 03.04.2020
277 Rain 9 1016 61 10000 2.6 300 19:38 03.04.2020
278 Rain 9 1016 57 10000 3.6 290 19:20 03.04.2020
279 Rain 9 1016 57 10000 3.6 290 18:59 03.04.2020
280 Rain 9 1016 73 10000 4.1 290 18:41 03.04.2020
281 Rain 9 1015 73 10000 4.6 280 18:22 03.04.2020
282 Rain 10 1015 49 10000 5.1 290 17:55 03.04.2020
283 Rain 10 1015 49 10000 5.1 290 17:36 03.04.2020
284 Rain 10 1015 49 10000 6.2 270 17:18 03.04.2020
285 Clouds 10 1015 52 10000 5.7 290 16:43 03.04.2020
286 Clouds 10 1015 52 10000 5.7 270 16:21 03.04.2020
287 Clouds 10 1015 52 10000 5.7 270 15:58 03.04.2020
288 Clouds 10 1015 52 10000 6.2 270 15:39 03.04.2020
289 Clouds 10 1015 49 10000 6.7 290 15:20 03.04.2020
290 Clouds 10 1015 49 8000 6.7 320 14:55 03.04.2020
291 Clouds 9 1015 49 10000 5.7 300 14:37 03.04.2020
292 Clouds 9 1015 51 10000 5.7 300 14:19 03.04.2020
293 Clouds 9 1015 51 10000 5.7 300 13:42 03.04.2020
294 Clouds 9 1015 51 10000 5.7 300 13:24 03.04.2020
295 Clouds 9 1014 51 10000 7.7 300 12:45 03.04.2020
296 Clouds 8 1014 51 10000 6.7 290 12:21 03.04.2020
297 Clouds 8 1014 57 10000 5.7 280 11:57 03.04.2020
298 Clouds 8 1014 57 10000 5.7 280 11:39 03.04.2020
299 Clouds 7 1013 65 10000 5.7 280 11:21 03.04.2020
300 Clouds 8 1014 57 10000 5.7 280 11:21 03.04.2020
301 Clouds 7 1013 65 10000 5.7 280 10:59 03.04.2020
302 Clouds 7 1013 70 10000 5.1 280 10:39 03.04.2020
303 Clouds 7 1013 70 10000 5.7 290 10:20 03.04.2020
304 Clouds 7 1013 70 10000 5.7 290 10:20 03.04.2020
305 Clouds 7 1013 70 10000 5.7 290 09:59 03.04.2020
306 Clouds 6 1012 70 10000 4.6 260 09:40 03.04.2020
307 Clouds 6 1012 70 10000 4.6 260 09:21 03.04.2020
308 Clouds 6 1012 70 10000 4.6 260 09:21 03.04.2020
309 Clouds 6 1012 70 10000 4.6 260 09:21 03.04.2020
310 Clouds 5 1012 70 10000 4.1 260 08:56 03.04.2020
311 Clouds 5 1012 75 10000 3.1 260 08:37 03.04.2020
312 Clouds 5 1011 80 10000 3.1 260 08:19 03.04.2020
313 Clouds 5 1011 80 10000 4.1 260 07:46 03.04.2020
314 Clouds 5 1011 80 10000 4.1 260 07:46 03.04.2020
315 Clouds 5 1011 80 10000 4.1 260 07:28 03.04.2020
316 Clouds 4 1010 80 10000 4.1 280 06:40 03.04.2020
317 Clouds 5 1010 75 10000 4.6 280 06:22 03.04.2020
318 Rain 5 1009 80 10000 3.6 280 05:39 03.04.2020
319 Rain 6 1008 87 7000 4.1 280 03:42 03.04.2020
320 Rain 6 1008 93 7000 5.7 300 02:55 03.04.2020
321 Clouds 7 1008 75 10000 6.2 260 02:18 03.04.2020
322 Clouds 7 1007 75 10000 6.7 260 01:20 03.04.2020
323 Clouds 7 1007 75 10000 6.7 260 01:20 03.04.2020
324 Clouds 8 1007 75 10000 7.2 260 00:34 03.04.2020
325 Rain 8 1008 75 10000 6.2 260 23:58 02.04.2020
326 Rain 8 1008 75 10000 7.7 260 23:39 02.04.2020
327 Rain 8 1008 75 10000 7.7 260 23:39 02.04.2020
328 Clouds 8 1008 65 10000 7.2 260 23:21 02.04.2020
329 Clouds 8 1007 61 10000 6.2 250 22:43 02.04.2020
330 Clouds 8 1007 61 10000 6.2 250 22:25 02.04.2020
331 Clouds 8 1007 61 10000 7.2 240 21:59 02.04.2020
332 Clouds 8 1008 61 10000 6.2 250 21:38 02.04.2020
333 Clouds 8 1008 61 10000 6.2 250 21:38 02.04.2020
334 Clouds 8 1008 61 10000 6.2 250 21:19 02.04.2020
335 Clouds 8 1008 61 10000 6.2 250 20:55 02.04.2020
336 Clouds 8 1008 61 10000 7.2 240 20:37 02.04.2020
337 Clouds 8 1008 61 10000 6.2 240 20:19 02.04.2020
338 Clouds 8 1008 67 10000 6.7 250 19:42 02.04.2020
339 Clouds 9 1008 67 10000 6.2 250 19:20 02.04.2020
340 Clouds 8 1008 67 10000 6.2 250 18:57 02.04.2020
341 Clouds 9 1008 67 10000 6.2 250 18:39 02.04.2020
342 Clouds 9 1008 54 10000 7.2 240 18:20 02.04.2020
343 Clouds 9 1009 54 10000 6.2 260 17:55 02.04.2020
344 Clouds 9 1009 54 10000 6.2 260 17:37 02.04.2020
345 Clouds 9 1009 54 10000 6.7 250 17:18 02.04.2020
346 Clouds 9 1009 54 10000 6.2 250 16:42 02.04.2020
347 Clouds 9 1009 54 10000 6.2 250 16:23 02.04.2020
348 Clouds 9 1010 54 10000 7.2 250 15:59 02.04.2020
349 Clouds 9 1010 54 10000 7.2 250 15:59 02.04.2020
350 Clouds 9 1010 54 10000 7.2 250 15:40 02.04.2020
351 Clouds 8 1010 56 10000 6.7 250 15:20 02.04.2020
352 Clouds 8 1010 56 10000 6.7 250 14:58 02.04.2020
353 Clouds 8 1011 56 10000 7.2 250 14:38 02.04.2020
354 Clouds 8 1011 56 10000 6.7 250 14:19 02.04.2020
355 Clouds 8 1012 52 10000 5.7 260 13:55 02.04.2020
356 Clouds 8 1012 52 10000 5.7 260 13:37 02.04.2020
357 Clouds 8 1012 52 10000 5.7 260 13:37 02.04.2020
358 Clouds 8 1012 61 10000 4.6 250 13:19 02.04.2020
359 Clouds 8 1012 54 10000 5.7 250 12:46 02.04.2020
360 Clouds 8 1013 65 10000 5.7 260 12:20 02.04.2020
361 Clouds 8 1013 65 10000 5.7 260 11:58 02.04.2020
362 Clouds 8 1012 61 10000 6.7 260 11:39 02.04.2020
363 Clouds 7 1012 61 10000 6.7 260 11:20 02.04.2020
364 Clouds 7 1013 61 10000 6.2 260 10:57 02.04.2020
365 Clouds 7 1013 65 10000 6.2 250 10:39 02.04.2020
366 Clear 6 1013 60 10000 4.6 250 10:21 02.04.2020
367 Clear 6 1013 60 10000 4.6 250 09:59 02.04.2020
368 Clear 6 1013 70 10000 4.6 250 09:41 02.04.2020
369 Clouds 4 1013 86 10000 3.1 250 09:21 02.04.2020
370 Clouds 4 1014 86 10000 2.6 250 08:48 02.04.2020
371 Clouds 4 1014 86 10000 2.6 250 08:28 02.04.2020
372 Clouds 4 1014 86 10000 2.1 260 07:59 02.04.2020
373 Clouds 4 1013 80 10000 3.1 240 07:40 02.04.2020
374 Clouds 4 1014 80 10000 2.6 240 07:19 02.04.2020
375 Clouds 3 1014 80 10000 2.6 260 06:25 02.04.2020
376 Clouds 3 1014 75 10000 2.6 250 05:46 02.04.2020
377 Clouds 3 1014 75 10000 2.1 250 04:58 02.04.2020
378 Clouds 4 1016 80 10000 2.1 260 02:21 02.04.2020
379 Clouds 4 1016 75 10000 2.6 260 01:27 02.04.2020
380 Clouds 4 1016 75 10000 1.5 250 00:41 02.04.2020
381 Clouds 5 1016 75 10000 2.1 260 00:19 02.04.2020
382 Clouds 5 1016 75 10000 2.1 270 23:39 01.04.2020
383 Clouds 5 1017 75 10000 2.6 280 23:19 01.04.2020
384 Clouds 5 1017 75 10000 2.6 280 22:56 01.04.2020
385 Clouds 5 1017 70 10000 3.1 280 22:38 01.04.2020
386 Clouds 6 1017 70 10000 3.1 280 22:19 01.04.2020
387 Clouds 6 1017 70 10000 3.1 280 21:41 01.04.2020
388 Clouds 6 1017 75 10000 2.6 280 21:19 01.04.2020
389 Clouds 6 1017 75 10000 2.6 280 20:56 01.04.2020
390 Clouds 7 1017 65 10000 2.6 270 20:38 01.04.2020
391 Clouds 7 1017 65 10000 3.1 270 20:19 01.04.2020
392 Clouds 7 1017 65 10000 3.1 270 19:57 01.04.2020
393 Clouds 7 1017 65 10000 3.1 270 19:57 01.04.2020
394 Clouds 7 1017 65 10000 4.1 270 19:38 01.04.2020
395 Clouds 8 1017 65 10000 3.6 270 19:19 01.04.2020
396 Clouds 8 1018 65 10000 4.1 260 18:42 01.04.2020
397 Clouds 8 1018 65 10000 3.6 280 18:22 01.04.2020
398 Clouds 8 1018 65 10000 4.1 270 17:57 01.04.2020
399 Clouds 8 1018 65 10000 4.1 270 17:37 01.04.2020
400 Clouds 8 1018 61 10000 4.6 280 17:19 01.04.2020
401 Clouds 8 1018 61 10000 4.6 280 16:56 01.04.2020
402 Clouds 8 1019 58 10000 5.1 260 16:38 01.04.2020
403 Clouds 8 1019 61 10000 4.1 260 16:20 01.04.2020
404 Clouds 9 1019 61 10000 4.6 260 15:43 01.04.2020
405 Clouds 9 1019 61 10000 4.6 260 15:24 01.04.2020
406 Clouds 8 1020 55 10000 4.6 270 14:59 01.04.2020
407 Clouds 8 1020 55 10000 5.7 280 14:40 01.04.2020
408 Clouds 8 1020 55 10000 5.7 280 14:40 01.04.2020
409 Clouds 8 1020 55 10000 5.7 260 14:21 01.04.2020
410 Clouds 8 1020 55 10000 5.7 260 13:59 01.04.2020
411 Clouds 8 1020 61 10000 5.7 250 13:39 01.04.2020
412 Clouds 8 1021 55 10000 4.6 260 13:20 01.04.2020
413 Clouds 8 1021 55 10000 4.6 260 12:57 01.04.2020
414 Clouds 7 1021 56 10000 5.1 260 12:37 01.04.2020
415 Clouds 6 1022 60 10000 4.6 250 12:19 01.04.2020
416 Clouds 6 1022 60 10000 4.6 250 11:56 01.04.2020
417 Clouds 6 1022 56 10000 4.6 280 11:37 01.04.2020
418 Clouds 6 1022 56 10000 4.6 280 11:37 01.04.2020
419 Clouds 6 1022 56 10000 4.6 280 11:37 01.04.2020
420 Clouds 5 1022 52 10000 4.1 270 11:18 01.04.2020
421 Clouds 5 1022 56 10000 4.1 260 10:38 01.04.2020
422 Clouds 4 1023 60 10000 3.6 270 10:20 01.04.2020
423 Clouds 4 1023 60 10000 3.6 270 09:58 01.04.2020
424 Clouds 3 1023 59 10000 3.1 260 09:39 01.04.2020
425 Clear 1 1023 69 10000 3.1 250 09:19 01.04.2020
426 Clear 0 1023 91 10000 1 0 08:44 01.04.2020
427 Clear -2 1023 79 10000 1.5 270 08:19 01.04.2020
428 Clear -2 1023 79 10000 1.5 270 07:56 01.04.2020
429 Clear -3 1023 79 10000 1.5 280 07:38 01.04.2020
430 Clear -2 1023 68 10000 1.5 220 07:18 01.04.2020
431 Clear -2 1023 86 10000 1.5 250 06:39 01.04.2020
432 Clear -2 1023 74 10000 1 0 06:20 01.04.2020
433 Clear -3 1024 79 10000 1 200 04:55 01.04.2020
434 Clear -2 1025 79 10000 1 210 03:36 01.04.2020
435 Clear -2 1025 79 10000 0.5 0 02:59 01.04.2020
436 Clear -2 1026 79 10000 1.5 310 02:24 01.04.2020
437 Clear -2 1026 79 10000 0.5 0 01:43 01.04.2020
438 Clear -2 1026 79 10000 0.5 0 01:23 01.04.2020
439 Clear -2 1027 74 10000 0.5 0 00:47 01.04.2020
440 Clear -1 1027 91 10000 1.54 231 00:21 01.04.2020
441 Clear -1 1027 89 10000 0.5 190 23:49 31.03.2020
442 Clear 0 1027 89 10000 0.5 190 23:28 31.03.2020
443 Clear 0 1028 64 10000 0.5 0 22:59 31.03.2020
444 Clear 1 1028 64 10000 0.5 0 22:38 31.03.2020
445 Clear 1 1028 69 10000 0.5 210 22:20 31.03.2020
446 Clear 1 1028 64 10000 0.5 0 21:57 31.03.2020
447 Clear 1 1028 64 10000 0.5 0 21:39 31.03.2020
448 Clouds 2 1028 64 10000 0.5 280 21:20 31.03.2020
449 Clouds 2 1028 64 10000 0.5 280 20:56 31.03.2020
450 Clouds 3 1028 48 10000 1.5 240 20:37 31.03.2020
451 Clouds 4 1028 48 10000 1.5 240 20:18 31.03.2020
452 Clouds 5 1028 45 10000 0.5 0 19:42 31.03.2020
453 Clouds 6 1029 45 10000 0.5 0 19:24 31.03.2020
454 Clouds 6 1029 45 10000 0.5 0 18:59 31.03.2020
455 Clouds 6 1029 45 10000 2.1 20 18:41 31.03.2020
456 Clouds 7 1029 45 10000 1.5 280 18:19 31.03.2020
457 Clouds 7 1029 41 10000 2.1 360 17:55 31.03.2020
458 Clouds 7 1029 41 10000 2.1 360 17:37 31.03.2020
459 Clouds 7 1029 41 10000 2.1 360 17:37 31.03.2020
460 Clouds 7 1029 42 10000 1 0 17:19 31.03.2020
461 Clouds 6 1030 45 10000 2.6 40 16:41 31.03.2020
462 Clouds 6 1030 45 10000 2.1 120 16:20 31.03.2020
463 Clouds 6 1030 45 10000 2.1 120 15:58 31.03.2020
464 Clouds 6 1030 45 10000 3.1 130 15:40 31.03.2020
465 Clouds 6 1030 45 10000 3.1 130 15:22 31.03.2020
466 Clouds 6 1030 42 10000 1.5 90 14:58 31.03.2020
467 Clouds 6 1031 48 10000 3.1 90 14:40 31.03.2020
468 Clouds 6 1031 48 10000 3.1 90 14:21 31.03.2020
469 Clouds 5 1031 52 10000 3.1 80 13:43 31.03.2020
470 Clouds 5 1031 56 10000 3.1 90 13:20 31.03.2020
471 Clouds 5 1031 56 10000 3.1 90 12:59 31.03.2020
472 Clouds 5 1031 60 10000 1.5 60 12:40 31.03.2020
473 Clouds 4 1032 69 8000 2.1 90 12:19 31.03.2020
474 Clouds 4 1032 69 8000 2.1 90 12:19 31.03.2020
475 Clouds 3 1032 76 6000 2.1 90 11:41 31.03.2020
476 Clouds 3 1032 86 6000 1 0 11:20 31.03.2020
477 Clouds 3 1032 86 6000 1 0 11:20 31.03.2020
478 Clouds 3 1032 86 6000 1 0 10:59 31.03.2020
479 Mist 1 1032 76 4000 2.1 130 10:40 31.03.2020
480 Mist 1 1032 92 4000 1.5 80 10:22 31.03.2020
481 Mist 0 1032 92 4000 1.5 80 09:59 31.03.2020
482 Clouds 0 1032 92 7000 1 0 09:40 31.03.2020
483 Clouds -1 1032 92 7000 1 0 09:22 31.03.2020
484 Clouds -1 1031 86 10000 1 0 08:57 31.03.2020
485 Clouds -1 1031 86 10000 0.5 0 08:38 31.03.2020
486 Clear -2 1031 92 10000 1.28 99 08:19 31.03.2020
487 Clear -2 1031 92 10000 1.28 99 08:19 31.03.2020
488 Clear -2 1031 92 10000 1.28 99 07:56 31.03.2020
489 Clear -3 1030 92 10000 0.5 180 07:38 31.03.2020
490 Clear -3 1030 92 10000 0.5 0 07:19 31.03.2020
491 Clear -3 1030 92 10000 0.5 0 06:46 31.03.2020
492 Clear -3 1030 100 10000 1.5 320 06:20 31.03.2020
493 Clear -2 1029 86 10000 0.5 0 05:39 31.03.2020
494 Clear -1 1029 86 10000 0.5 0 03:34 31.03.2020
495 Clouds 0 1028 86 10000 2.1 30 01:59 31.03.2020
496 Clouds 0 1028 96 10000 2.6 30 01:40 31.03.2020
497 Clouds 1 1028 96 10000 3.1 10 00:47 31.03.2020
498 Clouds 1 1028 96 10000 3.1 10 00:25 31.03.2020
499 Clouds 1 1027 90 10000 1.5 320 23:42 30.03.2020
500 Clouds 2 1027 90 10000 1.5 320 23:20 30.03.2020
501 Clouds 2 1027 93 10000 2.6 10 22:59 30.03.2020
502 Clouds 2 1027 93 10000 4.1 50 22:39 30.03.2020
503 Clouds 2 1027 93 10000 3.6 40 22:21 30.03.2020
504 Clouds 2 1027 93 10000 3.6 40 21:58 30.03.2020
505 Snow 2 1026 100 10000 2.1 10 21:39 30.03.2020
506 Clouds 2 1026 100 10000 2.1 10 21:21 30.03.2020
507 Rain 3 1026 100 10000 3.1 20 20:59 30.03.2020
508 Clouds 3 1025 93 10000 3.1 50 20:39 30.03.2020
509 Rain 4 1025 93 10000 2.6 200 20:20 30.03.2020
510 Rain 4 1025 93 10000 2.6 200 19:57 30.03.2020
511 Rain 4 1025 93 10000 3.6 320 19:39 30.03.2020
512 Rain 4 1025 93 10000 3.6 320 19:39 30.03.2020
513 Rain 4 1025 93 10000 1.5 280 19:20 30.03.2020
514 Rain 5 1025 86 10000 2.6 260 18:43 30.03.2020
515 Clouds 5 1025 86 10000 2.6 250 18:25 30.03.2020
516 Clouds 5 1025 86 10000 2.6 250 17:58 30.03.2020
517 Clouds 5 1025 86 10000 3.6 260 17:39 30.03.2020
518 Clouds 4 1025 86 10000 3.6 260 17:39 30.03.2020
519 Clouds 4 1025 86 10000 4.1 260 17:21 30.03.2020
520 Clouds 4 1025 86 10000 4.1 260 16:59 30.03.2020
521 Clouds 4 1025 86 10000 3.6 260 16:40 30.03.2020
522 -273 0 0 0 0 0 16:20 30.03.2020
523 Clouds 3 1025 93 10000 6.7 260 15:56 30.03.2020
524 Clouds 3 1025 86 10000 5.7 260 15:56 30.03.2020
525 Clouds 3 1025 93 10000 6.7 260 15:38 30.03.2020
526 Clouds 3 1025 93 10000 6.7 260 15:38 30.03.2020
527 Snow 3 1025 86 10000 5.7 260 15:20 30.03.2020
528 Snow 3 1025 86 10000 5.7 260 14:56 30.03.2020
529 Snow 2 1026 100 9000 4.6 240 14:37 30.03.2020
530 Snow 2 1026 89 2500 5.7 260 14:18 30.03.2020
531 Snow 2 1026 89 2500 5.7 260 13:55 30.03.2020
532 Snow 2 1026 89 10000 5.1 250 13:37 30.03.2020
533 Clouds 2 1027 89 10000 5.1 250 13:19 30.03.2020
534 Snow 2 1027 89 10000 4.6 250 12:44 30.03.2020
535 Snow 2 1028 80 10000 5.7 250 12:21 30.03.2020
536 Snow 2 1028 80 10000 5.7 250 12:21 30.03.2020
537 Snow 2 1028 80 10000 5.7 250 11:57 30.03.2020
538 Snow 2 1028 80 1200 5.1 260 11:39 30.03.2020
539 Clouds 2 1028 55 10000 5.7 250 11:21 30.03.2020
540 Snow 2 1029 59 10000 4.6 260 10:41 30.03.2020
541 Snow 1 1029 59 10000 4.6 260 10:23 30.03.2020
542 Clouds 1 1028 55 10000 4.1 250 09:59 30.03.2020
543 Clouds 1 1028 55 10000 4.1 250 09:59 30.03.2020
544 Clouds 0 1029 80 10000 5.1 260 09:40 30.03.2020
545 Clouds -1 1029 58 10000 3.6 250 09:19 30.03.2020
546 Clouds -2 1029 63 10000 2.6 250 08:48 30.03.2020
547 Clouds -3 1029 63 10000 3.1 250 08:28 30.03.2020
548 Clouds -3 1029 63 10000 3.1 250 07:58 30.03.2020
549 Clouds -4 1030 63 10000 2.1 250 07:39 30.03.2020
550 Clouds -4 1030 73 10000 3.1 260 07:18 30.03.2020
551 Clouds -5 1030 73 10000 2.6 260 06:37 30.03.2020
552 Clear -4 1030 73 10000 1.5 270 06:18 30.03.2020
553 Clear -5 1030 73 10000 2.1 220 05:38 30.03.2020
554 Clear -4 1031 68 10000 1.5 240 04:27 30.03.2020
555 Clear -4 1032 63 10000 1.5 280 03:50 30.03.2020
556 Clear -3 1032 68 10000 2.1 310 02:43 30.03.2020
557 Clear -3 1032 68 10000 0.5 0 01:52 30.03.2020
558 Clear -3 1033 63 10000 1.5 310 00:56 30.03.2020
559 Clear -2 1033 58 10000 1.5 330 00:25 30.03.2020
560 Clear -1 1033 58 10000 2.1 330 23:43 29.03.2020
561 Clear -1 1033 58 10000 2.1 330 23:24 29.03.2020
562 Clear 0 1033 84 10000 2.6 340 22:59 29.03.2020
563 Clear 0 1032 84 10000 3.1 360 22:39 29.03.2020
564 Clear 1 1032 47 10000 4.1 10 22:20 29.03.2020
565 Clear 1 1032 47 10000 4.1 10 21:58 29.03.2020
566 Clear 1 1032 47 10000 5.7 20 21:37 29.03.2020
567 Clouds 2 1032 47 10000 4.6 20 21:18 29.03.2020
568 Clouds 2 1031 43 10000 4.1 30 20:55 29.03.2020
569 Clouds 2 1031 43 10000 4.1 30 20:55 29.03.2020
570 Clouds 3 1031 43 10000 4.1 30 20:37 29.03.2020
571 Clouds 3 1031 43 10000 4.1 30 20:37 29.03.2020
572 Clouds 3 1031 43 10000 4.1 30 20:37 29.03.2020
573 Clouds 3 1031 40 10000 5.7 30 20:37 29.03.2020
574 Clouds 3 1031 40 10000 5.7 30 20:18 29.03.2020
575 Clouds 3 1030 44 10000 4.1 20 19:54 29.03.2020
576 Clouds 4 1030 44 10000 4.1 20 19:36 29.03.2020
577 Clouds 4 1030 41 10000 7.7 20 19:18 29.03.2020
578 Clouds 4 1030 44 10000 6.2 30 18:54 29.03.2020
579 Clouds 4 1030 44 10000 6.2 30 18:36 29.03.2020
580 Clouds 4 1030 44 10000 6.2 30 18:36 29.03.2020
581 Clouds 4 1029 48 10000 6.2 40 18:18 29.03.2020
582 Clouds 4 1029 48 10000 6.2 40 18:18 29.03.2020
583 Clouds 4 1029 55 10000 6.7 30 17:42 29.03.2020
584 Clouds 4 1029 60 10000 8.7 30 17:22 29.03.2020
585 Clouds 4 1029 60 10000 8.7 30 16:59 29.03.2020
586 Clouds 4 1029 60 10000 7.2 20 16:40 29.03.2020
587 Clouds 4 1028 65 10000 8.7 40 16:21 29.03.2020
588 Clouds 4 1028 65 10000 8.7 40 15:58 29.03.2020
589 Clouds 4 1028 69 10000 8.7 30 15:39 29.03.2020
590 Clouds 4 1028 69 10000 7.7 20 15:19 29.03.2020
591 Clouds 4 1028 69 10000 7.7 20 14:56 29.03.2020
592 Clouds 4 1028 69 10000 7.7 40 14:37 29.03.2020
593 Clouds 4 1027 72 10000 7.2 20 14:18 29.03.2020
594 Clouds 4 1027 72 10000 9.3 30 13:55 29.03.2020
595 Clouds 4 1027 72 10000 9.3 30 13:55 29.03.2020
596 Clouds 3 1027 72 10000 9.3 30 13:36 29.03.2020
597 Clouds 3 1026 72 10000 7.7 30 13:18 29.03.2020
598 Snow 3 1026 80 10000 8.7 30 12:54 29.03.2020
599 Snow 3 1025 86 10000 7.7 30 12:36 29.03.2020
600 Snow 3 1025 86 10000 7.7 30 12:18 29.03.2020
601 Snow 3 1025 86 10000 7.7 30 11:38 29.03.2020
602 Snow 3 1024 90 10000 4.1 330 11:20 29.03.2020
603 Snow 3 1024 93 1800 7.2 350 10:40 29.03.2020
604 Clouds 3 1023 90 10000 6.2 340 10:21 29.03.2020
605 Clouds 4 1023 90 10000 6.2 340 09:59 29.03.2020
606 Clouds 4 1023 69 10000 6.7 330 09:38 29.03.2020
607 Clouds 3 1023 74 10000 3.6 310 09:19 29.03.2020
608 Clouds 3 1023 69 10000 4.1 300 08:45 29.03.2020
609 Clouds 3 1022 69 10000 4.1 300 08:27 29.03.2020
610 Clouds 3 1022 69 10000 3.6 330 07:48 29.03.2020
611 Clouds 3 1022 64 10000 5.1 340 07:24 29.03.2020
612 Clouds 4 1022 60 10000 5.7 340 06:55 29.03.2020
613 Clouds 4 1021 86 10000 3.1 300 04:57 29.03.2020
614 Clouds 4 1021 86 10000 3.1 280 03:41 29.03.2020
615 Clouds 4 1021 86 10000 3.1 270 03:22 29.03.2020
616 Clouds 4 1022 80 10000 3.1 270 01:44 29.03.2020
617 Clouds 4 1022 80 10000 3.1 270 01:23 29.03.2020
618 Clouds 4 1022 80 10000 3.6 290 00:46 29.03.2020
619 Clouds 4 1021 80 10000 4.6 300 00:28 29.03.2020
620 Clouds 4 1022 80 10000 4.6 300 23:41 28.03.2020
621 Clouds 5 1022 80 10000 5.1 300 23:23 28.03.2020
622 Clouds 5 1022 75 10000 5.7 310 22:54 28.03.2020
623 Clouds 5 1022 75 10000 5.7 310 22:36 28.03.2020
624 Clouds 5 1022 75 10000 4.6 300 22:18 28.03.2020
625 Clouds 5 1022 75 10000 4.1 290 21:40 28.03.2020
626 Clouds 5 1022 75 10000 4.1 290 21:40 28.03.2020
627 Clouds 6 1022 75 10000 4.6 290 21:21 28.03.2020
628 Clouds 6 1022 75 10000 4.6 290 20:58 28.03.2020
629 Clouds 6 1022 75 10000 4.6 310 20:38 28.03.2020
630 Clouds 7 1021 75 10000 5.1 310 20:20 28.03.2020
631 Clouds 7 1021 75 10000 5.1 310 19:56 28.03.2020
632 Clouds 7 1021 70 10000 5.1 310 19:36 28.03.2020
633 Clouds 7 1021 70 10000 5.1 310 19:36 28.03.2020
634 Clouds 8 1021 70 10000 6.2 310 19:18 28.03.2020
635 Clouds 9 1020 66 10000 6.2 310 18:42 28.03.2020
636 Clouds 10 1020 57 10000 6.2 320 18:21 28.03.2020
637 Clouds 12 1020 53 10000 7.2 310 17:56 28.03.2020
638 Clouds 12 1020 53 10000 7.2 310 17:36 28.03.2020
639 Clear 13 1020 40 10000 6.2 330 17:18 28.03.2020
640 Clear 13 1020 35 10000 6.2 320 16:40 28.03.2020
641 Clear 13 1020 37 10000 5.7 320 16:20 28.03.2020
642 Clear 13 1020 37 10000 5.7 320 15:55 28.03.2020
643 Clear 13 1020 43 10000 5.7 340 15:37 28.03.2020
644 Clear 14 1021 43 10000 5.1 340 15:18 28.03.2020
645 Clear 13 1021 43 10000 4.1 340 14:41 28.03.2020
646 Clouds 13 1021 47 10000 5.1 310 14:22 28.03.2020
647 Clouds 13 1021 47 10000 5.7 310 13:44 28.03.2020
648 Clouds 13 1021 47 10000 5.7 310 13:25 28.03.2020
649 Clouds 13 1022 47 10000 5.1 330 12:57 28.03.2020
650 Clear 13 1022 43 10000 3.1 30 12:37 28.03.2020
651 Clear 12 1022 46 10000 3.1 20 12:18 28.03.2020
652 Clear 12 1022 46 10000 2.1 0 11:41 28.03.2020
653 Clear 10 1023 55 10000 2.1 0 11:21 28.03.2020
654 Clear 10 1023 53 10000 2.6 30 10:40 28.03.2020
655 Clear 8 1023 55 10000 2.6 10 10:22 28.03.2020
656 Clear 8 1023 55 10000 2.1 50 09:56 28.03.2020
657 Clear 8 1023 55 10000 2.1 50 09:37 28.03.2020
658 Clear 6 1023 70 10000 1 0 09:19 28.03.2020
659 Clear 5 1023 55 10000 1 0 08:42 28.03.2020
660 Clear 3 1023 55 10000 1 0 08:22 28.03.2020
661 Clear 3 1023 86 9000 0.5 0 07:46 28.03.2020
662 Clear 2 1023 86 9000 0.5 0 07:28 28.03.2020
663 Clear 1 1022 79 5000 1.5 30 06:37 28.03.2020
664 Clear 1 1022 79 10000 1 0 06:18 28.03.2020
665 Clear 2 1022 80 10000 1 0 05:23 28.03.2020
666 Clear 3 1022 74 10000 1.5 30 04:42 28.03.2020
667 Clear 3 1022 74 10000 1.5 50 03:55 28.03.2020
668 Clear 5 1022 74 10000 2.1 50 02:26 28.03.2020
669 Clear 5 1022 81 10000 2.6 70 01:45 28.03.2020
670 Clear 6 1022 81 10000 3.6 50 01:20 28.03.2020
671 Clear 6 1022 70 10000 3.6 50 00:46 28.03.2020
672 Clear 7 1022 70 10000 3.6 50 00:20 28.03.2020
673 Clear 7 1022 65 10000 4.1 50 23:42 27.03.2020
674 Clear 8 1022 65 10000 4.1 50 23:22 27.03.2020
675 Clear 8 1022 61 10000 4.1 40 22:56 27.03.2020
676 Clear 8 1022 61 10000 4.1 40 22:38 27.03.2020
677 Clear 9 1022 78 10000 3.6 40 22:20 27.03.2020
678 Clear 9 1022 78 10000 3.1 50 21:45 27.03.2020
679 Clear 9 1022 78 10000 3.1 50 21:26 27.03.2020
680 Clear 10 1021 78 10000 3.6 60 20:59 27.03.2020
681 Clear 10 1021 53 10000 4.1 60 20:41 27.03.2020
682 Clouds 11 1021 67 10000 4.6 60 20:21 27.03.2020
683 Clear 11 1021 69 10000 4.6 60 19:58 27.03.2020
684 Clear 12 1021 46 10000 5.1 70 19:40 27.03.2020
685 Clear 13 1021 43 10000 5.7 60 19:21 27.03.2020
686 Clear 14 1020 41 10000 6.2 70 18:45 27.03.2020
687 Clear 14 1020 41 10000 6.2 70 18:26 27.03.2020
688 Clear 15 1020 41 10000 6.2 60 17:59 27.03.2020
689 Clear 15 1020 38 10000 8.2 70 17:40 27.03.2020
690 Clear 16 1020 36 10000 7.2 70 17:20 27.03.2020
691 Clear 16 1020 36 10000 7.2 60 16:44 27.03.2020
692 Clear 16 1020 36 10000 7.2 60 16:26 27.03.2020
693 Clear 16 1020 36 10000 7.7 60 15:56 27.03.2020
694 Clear 16 1020 36 10000 6.2 70 15:38 27.03.2020
695 Clear 16 1021 50 10000 6.7 70 15:20 27.03.2020
696 Clear 16 1021 50 10000 6.7 70 14:45 27.03.2020
697 Clear 15 1021 33 10000 7.2 80 14:24 27.03.2020
698 Clear 15 1021 33 10000 7.2 80 13:56 27.03.2020
699 Clear 15 1022 49 10000 7.2 90 13:37 27.03.2020
700 Clear 14 1022 35 10000 7.7 80 13:18 27.03.2020
701 Clear 14 1022 35 10000 6.7 80 12:43 27.03.2020
702 Clear 13 1022 35 10000 7.7 80 12:19 27.03.2020
703 Clear 12 1023 37 10000 7.2 90 11:57 27.03.2020
704 Clear 12 1023 37 10000 7.2 90 11:39 27.03.2020
705 Clear 11 1023 40 10000 5.7 80 11:21 27.03.2020
706 Clouds 9 1023 45 10000 5.7 100 10:42 27.03.2020
707 Clouds 8 1023 45 10000 4.6 90 10:23 27.03.2020
708 Clouds 8 1023 45 10000 4.6 90 09:59 27.03.2020
709 Clouds 7 1023 48 10000 5.7 100 09:41 27.03.2020
710 Clouds 6 1023 52 10000 5.1 90 09:23 27.03.2020
711 Clouds 6 1023 52 10000 5.1 90 08:59 27.03.2020
712 Clouds 6 1023 52 10000 5.1 90 08:59 27.03.2020
713 Clouds 5 1023 56 10000 3.6 80 08:40 27.03.2020
714 Clear 3 1023 59 10000 3.1 80 08:22 27.03.2020
715 Clear 3 1023 59 10000 3.1 80 07:59 27.03.2020
716 Clear 2 1023 69 10000 3.1 80 07:41 27.03.2020
717 Clear 1 1023 69 10000 3.1 60 07:21 27.03.2020
718 Clear 1 1023 84 10000 2.6 60 06:40 27.03.2020
719 Clear 2 1023 64 10000 3.1 60 05:51 27.03.2020
720 Clear 3 1023 64 10000 3.6 80 03:34 27.03.2020
721 Clear 3 1023 59 10000 4.1 70 01:56 27.03.2020
722 Clear 4 1024 59 10000 4.1 60 01:19 27.03.2020
723 Clear 3 1024 59 10000 4.1 60 00:41 27.03.2020
724 Clear 3 1024 59 10000 4.1 60 00:41 27.03.2020
725 Clear 3 1024 59 10000 4.1 60 00:19 27.03.2020
726 Clear 4 1024 59 10000 4.1 60 23:37 26.03.2020
727 Clear 4 1024 59 10000 3.6 50 23:18 26.03.2020
728 Clear 5 1024 55 10000 4.1 50 22:56 26.03.2020
729 Clear 5 1024 55 10000 4.1 50 22:36 26.03.2020
730 Clear 5 1024 55 10000 4.6 60 22:18 26.03.2020
731 Clear 4 1024 55 10000 4.1 60 21:40 26.03.2020
732 Clear 5 1024 52 10000 4.1 70 21:21 26.03.2020
733 Clear 5 1024 52 10000 4.1 70 20:59 26.03.2020
734 Clear 5 1024 52 10000 3.6 70 20:39 26.03.2020
735 Clear 6 1024 48 10000 4.1 60 20:21 26.03.2020
736 Clear 6 1024 48 10000 4.1 60 19:58 26.03.2020
737 Clear 7 1024 45 10000 4.1 70 19:39 26.03.2020
738 Clear 9 1024 42 10000 5.1 80 19:21 26.03.2020
739 Clear 9 1024 42 10000 5.1 80 18:58 26.03.2020
740 Clear 10 1024 39 10000 6.7 90 18:40 26.03.2020
741 Clear 10 1024 37 10000 7.2 90 18:21 26.03.2020
742 Clear 10 1024 37 10000 7.7 90 17:44 26.03.2020
743 Clear 11 1024 37 10000 8.2 80 17:20 26.03.2020
744 Clear 11 1024 34 10000 8.2 80 16:57 26.03.2020
745 Clear 11 1024 34 10000 8.2 80 16:38 26.03.2020
746 Clear 11 1024 32 10000 8.2 80 16:18 26.03.2020
747 Clear 11 1024 32 10000 8.2 80 15:42 26.03.2020
748 Clear 11 1024 32 10000 8.2 90 15:22 26.03.2020
749 Clear 11 1024 32 10000 8.2 90 14:59 26.03.2020
750 Clear 10 1025 34 10000 7.7 90 14:41 26.03.2020
751 Clear 10 1025 34 10000 7.7 90 14:23 26.03.2020
752 Clear 9 1025 36 10000 8.2 100 13:54 26.03.2020
753 Clear 9 1025 36 10000 8.2 100 13:36 26.03.2020
754 Clear 9 1025 34 10000 9.8 80 13:18 26.03.2020
755 Clear 9 1026 34 10000 7.2 100 12:38 26.03.2020
756 Clear 8 1026 36 10000 7.2 100 12:20 26.03.2020
757 Clear 7 1026 36 10000 6.7 80 11:46 26.03.2020
758 Clear 6 1027 38 10000 6.7 100 11:22 26.03.2020
759 Clear 6 1027 38 10000 6.7 100 10:56 26.03.2020
760 Clear 5 1027 41 10000 5.7 90 10:38 26.03.2020
761 Clear 5 1027 41 0 5.1 90 10:19 26.03.2020
762 Clear 4 1027 44 10000 5.7 90 09:44 26.03.2020
763 Clear 3 1027 47 10000 5.7 90 09:21 26.03.2020
764 Clear 2 1027 47 10000 5.1 100 08:56 26.03.2020
765 Clear 3 1027 47 10000 5.1 100 08:37 26.03.2020
766 Clear 1 1027 50 10000 5.7 80 08:19 26.03.2020
767 Clear 0 1027 90 10000 4.6 80 07:44 26.03.2020
768 Clear -2 1027 63 10000 4.1 70 07:22 26.03.2020
769 Clear -2 1027 63 10000 4.1 70 06:56 26.03.2020
770 Clear -1 1026 58 10000 3.6 80 05:59 26.03.2020
771 Clear -1 1026 63 10000 4.1 70 04:49 26.03.2020
772 Clear 0 1026 58 10000 3.6 70 03:44 26.03.2020
773 Clear 0 1026 58 10000 4.1 70 02:55 26.03.2020
774 Clouds 2 1027 50 10000 4.1 90 01:50 26.03.2020
775 Clouds 2 1027 50 10000 3.6 90 00:53 26.03.2020
776 Clouds 2 1027 50 10000 4.1 80 00:20 26.03.2020
777 Clouds 2 1027 55 10000 4.6 80 23:40 25.03.2020
778 Clouds 2 1028 47 10000 4.6 90 23:20 25.03.2020
779 Clouds 2 1028 51 10000 4.6 90 22:41 25.03.2020
780 Clouds 2 1027 47 10000 3.6 80 22:21 25.03.2020
781 Clouds 4 1027 47 10000 3.6 80 21:56 25.03.2020
782 Clouds 3 1027 47 10000 4.1 70 21:38 25.03.2020
783 Clouds 3 1027 47 10000 4.1 70 21:38 25.03.2020
784 Clouds 3 1027 47 10000 3.6 70 21:19 25.03.2020
785 Clouds 4 1027 44 10000 4.6 90 20:55 25.03.2020
786 Clouds 4 1027 44 10000 4.6 90 20:37 25.03.2020
787 Clouds 4 1027 41 10000 3.1 70 20:18 25.03.2020
788 Clouds 4 1027 44 10000 4.1 80 19:43 25.03.2020
789 Clouds 5 1027 41 10000 3.6 80 19:23 25.03.2020
790 Clouds 5 1027 41 10000 3.6 80 18:57 25.03.2020
791 Clouds 5 1027 41 10000 3.6 80 18:57 25.03.2020
792 Clouds 7 1027 36 10000 3.6 70 18:39 25.03.2020
793 Clouds 8 1027 31 10000 4.6 90 18:21 25.03.2020
794 Clouds 9 1027 29 10000 5.7 90 17:55 25.03.2020
795 Clouds 9 1027 29 10000 5.7 90 17:37 25.03.2020
796 Clouds 9 1027 29 10000 6.2 90 17:18 25.03.2020
797 Clouds 10 1028 27 10000 7.7 90 16:43 25.03.2020
798 Clouds 10 1028 27 10000 7.7 90 16:43 25.03.2020
799 Clouds 10 1028 25 10000 7.7 90 16:23 25.03.2020
800 Clouds 10 1028 25 10000 7.7 90 15:57 25.03.2020
801 Clouds 9 1029 26 10000 8.2 90 15:38 25.03.2020
802 Clouds 9 1029 26 10000 6.7 100 15:19 25.03.2020
803 Clouds 10 1029 27 10000 6.7 90 14:42 25.03.2020
804 Clouds 9 1029 26 10000 6.2 90 14:21 25.03.2020
805 Clouds 8 1030 28 10000 6.7 100 13:46 25.03.2020
806 Clouds 8 1030 28 10000 6.7 100 13:26 25.03.2020
807 Clouds 9 1030 26 10000 5.7 110 12:57 25.03.2020
808 Clouds 9 1030 28 10000 5.7 90 12:37 25.03.2020
809 Clouds 7 1030 33 10000 5.1 100 12:19 25.03.2020
810 Clouds 6 1031 35 10000 6.2 90 11:43 25.03.2020
811 Clouds 6 1031 38 10000 5.1 90 11:21 25.03.2020
812 Clear 5 1032 41 10000 4.6 100 10:59 25.03.2020
813 Clear 5 1032 41 10000 4.6 100 10:40 25.03.2020
814 Clear 4 1032 41 10000 4.1 80 10:19 25.03.2020
815 Clear 4 1032 41 10000 4.1 80 09:59 25.03.2020
816 Clear 3 1032 47 10000 3.1 70 09:40 25.03.2020
817 Clear 3 1032 47 10000 3.1 70 09:22 25.03.2020
818 Clear 2 1032 47 10000 3.1 100 08:54 25.03.2020
819 Clear 1 1032 50 10000 3.1 100 08:36 25.03.2020
820 Clear 0 1032 86 10000 3.1 90 08:18 25.03.2020
821 Clear -1 1032 63 10000 3.1 90 07:39 25.03.2020
822 Clear -2 1032 68 10000 2.6 60 07:19 25.03.2020
823 Clear -2 1031 63 10000 2.1 100 06:45 25.03.2020
824 Clear -2 1031 58 10000 2.6 110 06:25 25.03.2020
825 Clear -1 1031 54 10000 3.1 110 05:50 25.03.2020
826 Clear -2 1032 63 10000 4.6 90 04:59 25.03.2020
827 Clear -2 1032 63 10000 4.6 90 04:36 25.03.2020
828 Clear -1 1032 63 10000 2.6 100 03:34 25.03.2020
829 Clear 0 1032 85 10000 3.1 90 01:56 25.03.2020
830 Clear 2 1032 43 10000 2.1 130 01:20 25.03.2020
831 Clear 2 1032 43 10000 3.1 110 00:43 25.03.2020
832 Clear 2 1032 43 10000 3.1 120 00:19 25.03.2020
833 Clear 3 1032 44 10000 3.6 110 23:42 24.03.2020
834 Clear 3 1033 44 10000 3.6 110 23:22 24.03.2020
835 Clouds 3 1033 44 10000 2.6 120 22:55 24.03.2020
836 Clouds 3 1033 44 10000 2.6 120 22:37 24.03.2020
837 Clouds 3 1033 44 10000 2.6 120 22:37 24.03.2020
838 Clouds 2 1033 55 10000 3.1 90 22:19 24.03.2020
839 Clouds 2 1033 55 10000 3.1 90 21:54 24.03.2020
840 Clouds 3 1033 47 10000 2.1 90 21:36 24.03.2020
841 Clouds 3 1033 47 10000 2.1 90 21:36 24.03.2020
842 Clouds 4 1033 38 10000 2.6 100 21:18 24.03.2020
843 Clouds 4 1033 44 10000 3.6 90 20:41 24.03.2020
844 Clear 4 1033 44 10000 3.6 90 20:23 24.03.2020
845 Clear 6 1033 30 10000 3.1 120 19:54 24.03.2020
846 Clear 6 1033 30 10000 3.1 120 19:36 24.03.2020
847 Clear 6 1033 33 10000 3.6 120 19:18 24.03.2020
848 Clear 7 1032 30 10000 2.6 110 18:54 24.03.2020
849 Clear 7 1032 30 10000 2.6 110 18:36 24.03.2020
850 Clear 7 1032 28 10000 4.1 100 18:18 24.03.2020
851 Clear 8 1032 28 10000 5.1 100 17:41 24.03.2020
852 Clear 8 1032 31 10000 3.6 110 17:22 24.03.2020
853 Clear 9 1033 33 10000 4.6 100 16:57 24.03.2020
854 Clear 9 1033 33 10000 4.6 100 16:38 24.03.2020
855 Clear 9 1033 33 10000 4.6 110 16:20 24.03.2020
856 Clear 9 1033 33 10000 4.6 110 15:44 24.03.2020
857 Clear 9 1033 33 10000 4.6 110 15:25 24.03.2020
858 Clear 8 1034 33 10000 4.1 110 14:57 24.03.2020
859 Clear 8 1034 33 10000 4.1 110 14:39 24.03.2020
860 Clear 8 1034 31 10000 5.1 120 14:18 24.03.2020
861 Clear 8 1034 31 10000 4.6 120 13:41 24.03.2020
862 Clear 7 1035 33 10000 4.6 130 13:22 24.03.2020
863 Clear 6 1035 35 10000 4.1 130 12:45 24.03.2020
864 Clear 6 1035 33 10000 5.7 140 12:27 24.03.2020
865 Clear 7 1035 33 10000 5.7 140 11:58 24.03.2020
866 Clear 7 1035 38 10000 4.1 140 11:38 24.03.2020
867 Clear 5 1036 38 10000 4.1 130 11:18 24.03.2020
868 Clear 5 1036 38 10000 4.1 120 10:42 24.03.2020
869 Clear 4 1036 38 10000 4.6 110 10:19 24.03.2020
870 Clear 3 1036 44 10000 3.1 110 09:49 24.03.2020
871 Clear 3 1036 44 10000 3.1 110 09:27 24.03.2020
872 Clear 2 1036 47 10000 2.6 120 08:58 24.03.2020
873 Clear 1 1036 55 10000 3.1 100 08:38 24.03.2020
874 Clear 0 1036 48 10000 3.6 80 08:20 24.03.2020
875 Clear -1 1036 58 10000 2.6 90 07:45 24.03.2020
876 Clear -2 1036 68 10000 3.6 90 07:23 24.03.2020
877 Clear -3 1036 73 10000 2.6 70 06:42 24.03.2020
878 Clear -3 1036 68 10000 2.6 80 06:23 24.03.2020
879 Clear -2 1035 63 10000 3.1 100 04:53 24.03.2020
880 Clear -2 1035 63 10000 3.1 90 03:46 24.03.2020
881 Clear -2 1035 58 10000 2.6 100 02:45 24.03.2020
882 Clear -1 1035 51 10000 2.6 110 01:38 24.03.2020
883 Clear -1 1035 49 10000 2.6 110 00:42 24.03.2020
884 Clear 0 1036 50 10000 3.6 110 00:22 24.03.2020
885 Clear 0 1036 50 10000 2.1 110 23:39 23.03.2020
886 Clear 0 1036 47 10000 2.1 110 23:21 23.03.2020
887 Clear 0 1036 47 10000 2.1 120 22:45 23.03.2020
888 Clear 1 1036 47 10000 2.1 120 22:24 23.03.2020
889 Clear 1 1036 47 10000 2.6 130 21:58 23.03.2020
890 Clear 1 1036 40 10000 2.6 120 21:40 23.03.2020
891 Clear 2 1036 40 10000 2.6 110 21:20 23.03.2020
892 Clear 2 1036 40 10000 2.6 110 20:56 23.03.2020
893 Clear 2 1036 40 10000 2.6 110 20:56 23.03.2020
894 Clear 2 1036 40 10000 3.6 110 20:38 23.03.2020
895 Clear 3 1036 38 10000 3.1 110 20:19 23.03.2020
896 Clear 3 1036 38 10000 3.6 120 19:44 23.03.2020
897 Clear 4 1035 35 10000 3.6 120 19:24 23.03.2020
898 Clear 4 1035 35 10000 4.1 110 18:56 23.03.2020
899 Clear 5 1035 35 10000 4.1 110 18:38 23.03.2020
900 Clear 5 1035 33 10000 4.1 120 18:20 23.03.2020
901 Clear 6 1035 30 10000 4.6 120 17:42 23.03.2020
902 Clear 7 1035 30 10000 4.6 130 17:21 23.03.2020
903 Clear 7 1036 28 10000 5.1 130 16:56 23.03.2020
904 Clear 7 1036 28 10000 5.1 130 16:38 23.03.2020
905 Clear 7 1036 28 10000 4.6 120 16:19 23.03.2020
906 Clear 7 1036 30 10000 5.1 110 15:41 23.03.2020
907 Clear 7 1036 33 10000 4.6 120 15:19 23.03.2020
908 Clear 7 1036 35 10000 5.1 110 14:38 23.03.2020
909 Clear 6 1037 33 10000 6.2 100 14:20 23.03.2020
910 Clear 6 1037 33 10000 6.2 100 13:58 23.03.2020
911 Clear 6 1037 30 10000 5.1 120 13:40 23.03.2020
912 Clear 6 1037 30 10000 5.1 120 13:40 23.03.2020
913 Clear 6 1037 32 10000 6.2 100 13:20 23.03.2020
914 Clear 6 1037 32 10000 5.7 110 12:44 23.03.2020
915 Clear 5 1037 32 10000 6.2 110 12:25 23.03.2020
916 Clear 5 1037 32 10000 6.2 110 11:59 23.03.2020
917 Clear 5 1038 30 10000 7.2 140 11:59 23.03.2020
918 Clear 5 1038 30 10000 7.2 140 11:39 23.03.2020
919 Clear 4 1038 35 10000 5.7 130 11:19 23.03.2020
920 Clear 4 1038 34 10000 6.2 130 10:56 23.03.2020
921 Clear 4 1038 34 10000 6.2 130 10:37 23.03.2020
922 Clear 3 1038 37 10000 5.1 120 10:19 23.03.2020
923 Clear 2 1038 37 10000 4.1 120 09:44 23.03.2020
924 Clear 2 1038 40 10000 4.6 110 09:21 23.03.2020
925 Clear 1 1038 40 10000 4.6 110 08:56 23.03.2020
926 Clear 1 1039 47 10000 4.1 100 08:36 23.03.2020
927 Clear 0 1038 43 10000 3.6 110 08:18 23.03.2020
928 Clear -1 1038 54 10000 3.1 100 07:42 23.03.2020
929 Clear -2 1038 58 10000 2.1 100 07:21 23.03.2020
930 Clear -2 1038 63 10000 3.1 90 06:49 23.03.2020
931 Clear -3 1038 68 10000 2.6 100 05:51 23.03.2020
932 Clear -3 1037 54 10000 2.6 110 04:58 23.03.2020
933 Clear -2 1037 68 10000 2.6 90 03:26 23.03.2020
934 Clear -1 1037 45 10000 3.1 100 01:50 23.03.2020
935 Clear 0 1037 42 10000 3.6 90 00:58 23.03.2020
936 Clear 0 1037 42 10000 3.1 100 00:36 23.03.2020
937 Clear 0 1037 50 10000 2.1 100 23:47 22.03.2020
938 Clear 0 1037 50 10000 2.1 100 23:47 22.03.2020
939 Clear 1 1037 50 10000 3.1 100 23:25 22.03.2020
940 Clear 1 1037 55 10000 3.6 90 22:45 22.03.2020
941 Clear 1 1037 51 10000 3.1 100 22:24 22.03.2020
942 Clear 2 1037 51 10000 3.1 100 21:56 22.03.2020
943 Clear 2 1036 51 10000 3.6 100 21:37 22.03.2020
944 Clear 2 1036 44 10000 4.1 100 21:19 22.03.2020
945 Clear 2 1036 44 10000 3.6 100 20:46 22.03.2020
946 Clear 3 1036 44 10000 3.6 100 20:25 22.03.2020
947 Clear 3 1036 44 10000 4.1 90 19:58 22.03.2020
948 Clear 3 1036 41 10000 3.6 100 19:40 22.03.2020
949 Clear 4 1035 38 10000 4.1 100 19:20 22.03.2020
950 Clear 4 1035 38 10000 4.1 100 18:59 22.03.2020
951 Clear 5 1035 41 10000 5.7 100 18:41 22.03.2020
952 Clear 5 1035 38 10000 7.7 90 18:22 22.03.2020
953 Clear 5 1035 38 10000 7.7 90 18:22 22.03.2020
954 Clear 6 1035 38 10000 5.1 110 17:59 22.03.2020
955 Clear 6 1035 38 10000 5.1 110 17:39 22.03.2020
956 Clear 6 1034 39 10000 8.2 90 17:20 22.03.2020
957 Clear 7 1034 39 10000 8.2 90 16:58 22.03.2020
958 Clear 7 1034 39 10000 8.2 90 16:58 22.03.2020
959 Clear 7 1034 36 10000 6.7 100 16:39 22.03.2020
960 Clear 7 1035 36 10000 7.7 100 16:21 22.03.2020
961 Clear 7 1035 36 10000 7.7 100 15:56 22.03.2020
962 Clear 7 1034 39 10000 7.2 90 15:38 22.03.2020
963 Clear 6 1035 41 10000 8.7 90 14:46 22.03.2020
964 Clear 6 1035 38 10000 6.7 110 14:19 22.03.2020
965 Clear 6 1035 38 10000 6.7 110 13:55 22.03.2020
966 Clear 6 1035 38 10000 6.2 110 13:37 22.03.2020
967 Clear 6 1035 35 10000 6.7 110 13:18 22.03.2020
968 Clear 5 1035 41 10000 7.7 100 12:43 22.03.2020
969 Clear 5 1036 41 10000 8.7 100 12:20 22.03.2020
970 Clear 5 1036 44 10000 8.7 100 11:55 22.03.2020
971 Clear 5 1036 44 10000 8.7 100 11:36 22.03.2020
972 Clear 4 1036 44 10000 9.3 100 11:18 22.03.2020
973 Clear 4 1036 47 10000 9.3 100 10:42 22.03.2020
974 Clear 3 1036 47 10000 9.3 100 10:23 22.03.2020
975 Clear 3 1036 59 10000 8.2 100 09:47 22.03.2020
976 Clear 2 1036 59 10000 8.2 100 09:28 22.03.2020
977 Clear 2 1035 64 10000 5.7 100 08:53 22.03.2020
978 Clear 2 1035 64 10000 5.7 100 08:53 22.03.2020
979 Clear 1 1035 64 10000 5.7 100 08:33 22.03.2020
980 Clear 0 1035 62 10000 4.1 100 07:59 22.03.2020
981 Clear -1 1035 68 10000 4.6 100 07:41 22.03.2020
982 Clear -1 1034 74 10000 4.1 100 06:48 22.03.2020
983 Clear -1 1033 68 8000 5.1 100 05:52 22.03.2020
984 Clear -1 1034 74 10000 4.6 80 04:39 22.03.2020
985 Clear 0 1033 68 10000 5.1 70 02:34 22.03.2020
986 Clear 1 1033 59 10000 6.2 80 00:51 22.03.2020
987 Clear 1 1033 59 10000 6.2 80 00:32 22.03.2020
988 Clear 1 1033 59 10000 5.7 80 23:47 21.03.2020
989 Clear 1 1033 59 10000 5.1 80 23:23 21.03.2020
990 Clear 1 1033 59 10000 5.1 80 22:59 21.03.2020
991 Clear 1 1032 64 10000 5.1 70 22:38 21.03.2020
992 Clear 2 1032 64 10000 4.6 70 22:20 21.03.2020
993 Clear 2 1032 64 10000 4.6 70 21:58 21.03.2020
994 Clear 2 1032 64 10000 4.1 60 21:38 21.03.2020
995 Clouds 2 1032 69 10000 3.6 70 21:20 21.03.2020
996 Clouds 2 1032 64 10000 4.1 70 20:43 21.03.2020
997 Clouds 3 1032 59 10000 5.1 70 20:22 21.03.2020
998 Clouds 3 1032 59 10000 5.1 70 19:55 21.03.2020
999 Clouds 4 1031 55 10000 6.2 70 19:37 21.03.2020
1000 Clouds 4 1031 55 10000 6.7 70 19:18 21.03.2020
1001 Clouds 5 1031 52 10000 5.1 90 18:41 21.03.2020
1002 Clouds 5 1031 52 10000 7.2 80 18:21 21.03.2020
1003 Clouds 5 1031 52 10000 8.7 90 17:59 21.03.2020
1004 Clouds 6 1031 52 10000 8.7 90 17:41 21.03.2020
1005 Clouds 6 1031 52 10000 7.7 80 17:22 21.03.2020
1006 Clouds 6 1030 52 10000 8.2 70 16:42 21.03.2020
1007 Clouds 6 1031 48 10000 9.8 80 16:24 21.03.2020
1008 Clouds 6 1031 48 10000 9.8 80 15:59 21.03.2020
1009 Clouds 6 1031 48 10000 9.3 90 15:40 21.03.2020
1010 Clouds 6 1031 48 10000 8.7 90 15:22 21.03.2020
1011 Clouds 6 1031 48 10000 8.7 90 14:57 21.03.2020
1012 Clouds 6 1031 48 10000 8.2 90 14:38 21.03.2020
1013 Clouds 6 1031 48 10000 8.2 90 14:38 21.03.2020
1014 Clouds 6 1031 52 10000 8.2 80 14:19 21.03.2020
1015 Clouds 6 1031 52 10000 8.2 80 13:58 21.03.2020
1016 Clouds 6 1031 52 10000 8.2 70 13:39 21.03.2020
1017 Clouds 6 1031 52 10000 10.3 70 13:21 21.03.2020
1018 Clouds 6 1031 45 10000 8.7 80 12:55 21.03.2020
1019 Clouds 6 1031 45 10000 8.7 80 12:36 21.03.2020
1020 Clouds 6 1031 48 10000 10.8 90 12:18 21.03.2020
1021 Clouds 6 1031 52 10000 8.7 70 11:55 21.03.2020
1022 Clouds 6 1031 52 10000 8.7 70 11:37 21.03.2020
1023 Clouds 6 1031 52 10000 9.8 80 11:18 21.03.2020
1024 Clouds 5 1031 60 10000 8.7 80 10:55 21.03.2020
1025 Clouds 5 1031 60 10000 8.7 80 10:37 21.03.2020
1026 Clouds 5 1031 60 10000 9.8 80 10:18 21.03.2020
1027 Clouds 5 1031 59 10000 8.2 90 09:40 21.03.2020
1028 Clouds 4 1031 59 10000 7.7 80 09:21 21.03.2020
1029 Clouds 4 1031 59 10000 7.7 80 08:56 21.03.2020
1030 Clouds 3 1030 59 10000 5.1 80 08:38 21.03.2020
1031 Clouds 2 1030 83 10000 3.6 70 08:20 21.03.2020
1032 Clouds 2 1030 83 10000 3.6 60 07:39 21.03.2020
1033 Clouds 1 1030 83 10000 3.1 60 07:20 21.03.2020
1034 Clouds 1 1030 83 10000 3.1 60 07:20 21.03.2020
1035 Clouds 0 1030 86 10000 2.6 60 06:45 21.03.2020
1036 Clouds 0 1030 86 10000 3.1 50 06:25 21.03.2020
1037 Clear 0 1029 86 10000 2.6 50 05:41 21.03.2020
1038 Clear 1 1029 64 10000 3.6 30 04:34 21.03.2020
1039 Clear 3 1029 80 10000 3.1 40 02:37 21.03.2020
1040 Clouds 3 1029 72 10000 5.1 40 01:49 21.03.2020
1041 Clouds 4 1029 80 10000 4.6 30 01:26 21.03.2020
1042 Clouds 5 1029 86 10000 3.6 30 00:43 21.03.2020
1043 Clouds 5 1029 86 10000 3.6 30 00:23 21.03.2020
1044 Clouds 5 1029 80 10000 3.1 50 23:44 20.03.2020
1045 Clouds 5 1029 80 10000 3.6 50 23:22 20.03.2020
1046 Clouds 6 1029 75 10000 4.1 50 22:44 20.03.2020
1047 Clouds 6 1029 75 10000 4.1 50 22:44 20.03.2020
1048 Clouds 6 1029 75 10000 4.1 50 22:25 20.03.2020
1049 Clouds 6 1028 75 10000 5.7 50 21:59 20.03.2020
1050 Clouds 6 1028 65 10000 4.6 40 21:40 20.03.2020
1051 Clouds 7 1028 70 10000 3.1 40 21:20 20.03.2020
1052 Clouds 7 1028 70 10000 3.1 40 20:59 20.03.2020
1053 Clouds 7 1028 70 10000 3.1 30 20:41 20.03.2020
1054 Clouds 7 1027 70 10000 3.6 10 20:20 20.03.2020
1055 Clouds 7 1027 70 10000 3.6 350 19:48 20.03.2020
1056 Clouds 8 1027 65 10000 2.6 360 19:21 20.03.2020
1057 Clouds 8 1027 65 10000 2.6 360 18:58 20.03.2020
1058 Clouds 8 1027 61 10000 2.6 350 18:38 20.03.2020
1059 Clouds 8 1027 52 10000 3.1 40 18:20 20.03.2020
1060 Clouds 8 1026 52 10000 5.1 80 17:56 20.03.2020
1061 Clouds 8 1026 52 10000 5.1 80 17:37 20.03.2020
1062 Clouds 8 1026 49 10000 4.1 30 17:18 20.03.2020
1063 Clouds 8 1026 45 10000 4.6 50 16:41 20.03.2020
1064 Clouds 9 1026 57 10000 5.7 30 16:21 20.03.2020
1065 Clouds 9 1026 57 10000 5.1 30 15:45 20.03.2020
1066 Clouds 9 1026 61 10000 5.1 30 15:23 20.03.2020
1067 Clouds 9 1026 61 10000 5.1 30 14:59 20.03.2020
1068 Clouds 9 1026 61 10000 5.1 30 14:59 20.03.2020
1069 Clouds 8 1027 70 10000 4.6 30 14:41 20.03.2020
1070 Clouds 8 1026 66 10000 3.6 50 14:20 20.03.2020
1071 Clouds 8 1026 66 10000 3.6 50 14:20 20.03.2020
1072 Clouds 8 1026 66 10000 4.1 50 13:48 20.03.2020
1073 Clouds 8 1026 66 10000 4.1 50 13:24 20.03.2020
1074 Clouds 8 1026 66 10000 4.1 50 13:24 20.03.2020
1075 Clouds 8 1026 66 10000 3.1 70 12:58 20.03.2020
1076 Clouds 8 1026 66 10000 3.1 40 12:38 20.03.2020
1077 Clouds 8 1027 66 10000 3.1 60 12:19 20.03.2020
1078 Clouds 8 1026 70 10000 3.6 60 11:39 20.03.2020
1079 Clouds 7 1027 75 10000 3.1 40 11:20 20.03.2020
1080 Clouds 7 1027 75 10000 2.6 60 10:55 20.03.2020
1081 Clouds 7 1027 75 10000 2.6 60 10:37 20.03.2020
1082 Clouds 7 1027 81 10000 3.1 80 10:18 20.03.2020
1083 Clouds 7 1026 87 10000 2.6 60 09:44 20.03.2020
1084 Clouds 6 1026 87 10000 3.6 80 09:20 20.03.2020
1085 Clouds 6 1026 87 10000 3.1 70 08:44 20.03.2020
1086 Clouds 6 1026 93 10000 3.6 70 08:23 20.03.2020
1087 Clouds 6 1026 93 10000 3.6 70 07:59 20.03.2020
1088 Clouds 6 1026 93 10000 3.6 40 07:39 20.03.2020
1089 Clouds 6 1026 93 10000 3.6 40 07:39 20.03.2020
1090 Drizzle 7 1026 100 10000 3.1 30 07:21 20.03.2020
1091 Clouds 7 1025 100 10000 3.1 50 06:42 20.03.2020
1092 Clouds 7 1025 100 10000 3.6 60 06:18 20.03.2020
1093 Drizzle 7 1025 93 10000 3.6 60 04:38 20.03.2020
1094 Clouds 7 1025 93 10000 2.6 70 02:50 20.03.2020
1095 Clouds 7 1026 93 10000 2.6 40 01:50 20.03.2020
1096 Clouds 8 1026 93 10000 2.1 60 00:41 20.03.2020
1097 Clouds 8 1025 87 7000 2.1 40 23:59 19.03.2020
1098 Clouds 8 1026 93 10000 2.1 50 23:40 19.03.2020
1099 Clouds 8 1026 87 10000 1.5 50 23:22 19.03.2020
1100 Clouds 8 1026 87 10000 2.6 80 22:40 19.03.2020
1101 Clouds 8 1026 87 10000 2.6 80 22:22 19.03.2020
1102 Clouds 8 1026 87 10000 2.6 80 21:58 19.03.2020
1103 Clouds 8 1026 87 10000 2.6 50 21:38 19.03.2020
1104 Clouds 8 1026 93 10000 2.6 70 21:18 19.03.2020
1105 Clouds 8 1026 93 10000 3.6 50 20:43 19.03.2020
1106 Clouds 8 1026 93 10000 3.6 50 20:43 19.03.2020
1107 Clouds 9 1026 93 10000 3.6 50 20:25 19.03.2020
1108 Clouds 9 1026 87 10000 3.6 40 19:59 19.03.2020
1109 Clouds 9 1026 81 10000 3.1 40 19:38 19.03.2020
1110 Clouds 9 1026 87 10000 4.1 30 19:20 19.03.2020
1111 Clouds 9 1026 87 10000 3.6 30 18:57 19.03.2020
1112 Clouds 10 1026 87 10000 3.6 30 18:38 19.03.2020
1113 Clouds 10 1025 87 10000 4.1 30 18:20 19.03.2020
1114 Clouds 10 1025 81 10000 4.1 30 17:43 19.03.2020
1115 Clouds 11 1025 81 10000 3.6 20 17:20 19.03.2020
1116 Clouds 11 1025 87 10000 3.1 360 16:57 19.03.2020
1117 Clouds 11 1025 87 10000 3.1 360 16:39 19.03.2020
1118 Clouds 11 1025 81 10000 3.6 10 16:20 19.03.2020
1119 Clouds 11 1025 81 10000 3.6 340 15:41 19.03.2020
1120 Clouds 12 1025 81 10000 4.1 340 15:22 19.03.2020
1121 Clouds 12 1025 76 10000 3.6 340 14:43 19.03.2020
1122 Clouds 12 1025 81 10000 3.1 350 14:21 19.03.2020
1123 Clouds 12 1025 76 10000 2.6 340 13:42 19.03.2020
1124 Clouds 12 1026 81 10000 2.1 350 13:21 19.03.2020
1125 Clouds 12 1026 81 10000 2.1 350 13:21 19.03.2020
1126 Clouds 12 1025 81 10000 3.1 30 12:58 19.03.2020
1127 Clouds 12 1025 81 10000 3.1 30 12:40 19.03.2020
1128 Clouds 12 1026 81 10000 3.6 350 12:21 19.03.2020
1129 Clouds 12 1026 81 10000 3.6 330 11:43 19.03.2020
1130 Clouds 11 1026 81 10000 4.1 320 11:24 19.03.2020
1131 Clouds 11 1025 76 10000 3.1 290 10:58 19.03.2020
1132 Clouds 12 1025 76 10000 3.1 290 10:38 19.03.2020
1133 Clouds 11 1025 76 10000 3.1 260 10:19 19.03.2020
1134 Clouds 11 1025 81 10000 2.6 270 09:55 19.03.2020
1135 Clouds 11 1025 81 10000 2.6 270 09:37 19.03.2020
1136 Clouds 10 1025 76 10000 3.1 280 09:18 19.03.2020
1137 Clouds 10 1025 76 10000 2.1 270 08:41 19.03.2020
1138 Clouds 10 1024 76 10000 2.1 250 08:20 19.03.2020
1139 Clouds 10 1024 81 10000 2.1 260 07:44 19.03.2020
1140 Clouds 10 1024 81 10000 1.5 260 07:25 19.03.2020
1141 Clouds 10 1024 81 10000 2.1 290 06:35 19.03.2020
1142 Clouds 10 1023 76 10000 2.1 230 05:48 19.03.2020
1143 Clouds 10 1023 76 10000 1.5 220 04:54 19.03.2020
1144 Clouds 10 1023 76 10000 1.5 220 04:34 19.03.2020
1145 Clouds 11 1024 76 10000 1.5 230 02:37 19.03.2020
1146 Clouds 12 1024 76 10000 1 210 00:58 19.03.2020
1147 Clouds 11 1024 76 10000 1 0 00:22 19.03.2020
1148 Clouds 12 1024 71 10000 1.5 230 23:48 18.03.2020
1149 Clouds 12 1024 71 10000 1 250 23:29 18.03.2020
1150 Clouds 12 1024 71 10000 1.5 260 22:44 18.03.2020
1151 Clouds 12 1024 71 10000 2.1 260 22:24 18.03.2020
1152 Clouds 12 1024 71 10000 2.1 260 21:59 18.03.2020
1153 Clouds 12 1024 71 10000 2.1 230 21:41 18.03.2020
1154 Clouds 12 1024 71 10000 2.6 230 21:21 18.03.2020
1155 Clouds 12 1024 71 10000 2.6 230 20:57 18.03.2020
1156 Clouds 13 1024 71 10000 2.1 240 20:39 18.03.2020
1157 Clouds 13 1024 71 10000 1.5 250 20:20 18.03.2020
1158 Clouds 13 1024 71 10000 1.5 250 19:55 18.03.2020
1159 Clouds 13 1024 67 10000 2.1 240 19:36 18.03.2020
1160 Clouds 14 1024 67 10000 3.1 230 19:18 18.03.2020
1161 Clouds 14 1024 67 10000 3.6 240 18:41 18.03.2020
1162 Clouds 15 1023 62 10000 3.6 240 18:20 18.03.2020
1163 Clouds 15 1023 62 10000 5.1 250 17:57 18.03.2020
1164 Clouds 15 1023 62 10000 5.1 250 17:57 18.03.2020
1165 Clouds 16 1023 62 10000 5.1 250 17:39 18.03.2020
1166 Clouds 16 1024 58 10000 5.1 250 17:21 18.03.2020
1167 Clouds 16 1024 58 10000 5.7 250 16:54 18.03.2020
1168 Clouds 16 1024 58 10000 5.7 250 16:36 18.03.2020
1169 Clouds 16 1024 58 10000 5.7 250 16:18 18.03.2020
1170 Clouds 16 1024 59 10000 6.7 250 15:44 18.03.2020
1171 Clouds 16 1024 58 10000 6.2 250 15:20 18.03.2020
1172 Clouds 16 1024 58 10000 6.7 240 14:45 18.03.2020
1173 Clouds 16 1024 58 10000 6.7 250 14:22 18.03.2020
1174 Clouds 16 1024 58 10000 6.7 250 13:56 18.03.2020
1175 Clouds 15 1025 58 10000 7.2 260 13:36 18.03.2020
1176 Clouds 15 1025 58 10000 7.7 250 13:18 18.03.2020
1177 Clouds 15 1025 58 10000 7.2 250 12:41 18.03.2020
1178 Clouds 14 1025 58 10000 7.7 250 12:19 18.03.2020
1179 Clouds 14 1025 54 10000 7.2 250 11:39 18.03.2020
1180 Clouds 13 1025 54 10000 6.7 250 11:21 18.03.2020
1181 Clouds 13 1026 50 10000 7.2 250 10:58 18.03.2020
1182 Clouds 12 1026 50 10000 7.2 250 10:39 18.03.2020
1183 Clouds 12 1025 54 10000 6.7 250 10:20 18.03.2020
1184 Clouds 11 1025 58 10000 5.1 240 09:43 18.03.2020
1185 Clouds 11 1025 58 10000 5.1 240 09:25 18.03.2020
1186 Clouds 10 1026 61 10000 3.6 240 08:57 18.03.2020
1187 Clouds 9 1026 61 10000 3.6 240 08:39 18.03.2020
1188 Clouds 9 1026 61 10000 3.6 240 08:39 18.03.2020
1189 Clouds 9 1025 66 10000 3.6 230 08:20 18.03.2020
1190 Clouds 8 1025 65 10000 3.1 230 07:46 18.03.2020
1191 Clouds 8 1025 61 10000 3.1 220 07:28 18.03.2020
1192 Clouds 8 1026 84 10000 3.6 210 06:44 18.03.2020
1193 Clouds 8 1026 84 10000 2.6 210 06:22 18.03.2020
1194 Clouds 8 1026 84 10000 3.6 220 05:35 18.03.2020
1195 Clouds 7 1026 71 10000 3.1 230 04:27 18.03.2020
1196 Clouds 8 1026 71 10000 1.5 210 02:48 18.03.2020
1197 Clouds 7 1027 65 10000 2.6 210 01:48 18.03.2020
1198 Clouds 8 1027 60 10000 2.1 210 01:27 18.03.2020
1199 Clouds 8 1027 63 10000 2.1 200 00:25 18.03.2020
1200 Clouds 8 1028 57 10000 1.5 220 23:49 17.03.2020
1201 Clouds 8 1028 75 10000 0.5 200 23:27 17.03.2020
1202 Clouds 9 1028 53 10000 2.1 200 22:59 17.03.2020
1203 Clouds 9 1028 53 10000 2.1 200 22:40 17.03.2020
1204 Clouds 9 1028 53 10000 2.1 190 22:22 17.03.2020
1205 Clouds 9 1028 57 10000 2.1 210 21:40 17.03.2020
1206 Clouds 10 1028 53 10000 1.5 230 21:21 17.03.2020
1207 Clouds 11 1028 53 10000 1.5 220 20:40 17.03.2020
1208 Clouds 11 1028 53 10000 1.5 230 20:22 17.03.2020
1209 Clouds 11 1028 53 10000 1.5 230 19:59 17.03.2020
1210 Clouds 11 1028 50 10000 2.6 250 19:40 17.03.2020
1211 Clouds 12 1028 50 10000 2.6 250 19:18 17.03.2020
1212 Clouds 12 1027 50 10000 3.1 250 18:56 17.03.2020
1213 Clouds 12 1027 50 10000 3.1 250 18:37 17.03.2020
1214 Clouds 13 1027 60 10000 2.1 260 18:19 17.03.2020
1215 Clouds 13 1027 47 10000 3.6 250 17:40 17.03.2020
1216 Clouds 13 1027 47 10000 3.6 250 17:40 17.03.2020
1217 Clouds 13 1027 47 10000 5.1 240 17:21 17.03.2020
1218 Clouds 14 1027 47 10000 4.1 240 16:55 17.03.2020
1219 Clouds 14 1027 47 10000 4.1 240 16:37 17.03.2020
1220 Clouds 14 1028 47 10000 4.6 250 16:18 17.03.2020
1221 Clouds 14 1028 47 10000 4.6 260 15:43 17.03.2020
1222 Clouds 14 1028 47 10000 5.7 260 15:20 17.03.2020
1223 Clouds 14 1028 50 10000 6.2 250 14:42 17.03.2020
1224 Clouds 14 1028 54 10000 6.2 260 14:21 17.03.2020
1225 Clouds 13 1028 50 10000 5.7 240 13:44 17.03.2020
1226 Clouds 13 1028 58 10000 5.1 260 13:26 17.03.2020
1227 Clouds 13 1028 54 10000 6.2 260 12:58 17.03.2020
1228 Clouds 12 1028 54 10000 6.2 260 12:40 17.03.2020
1229 Clouds 12 1028 62 10000 5.1 260 12:22 17.03.2020
1230 Clouds 12 1028 66 10000 5.1 270 11:46 17.03.2020
1231 Clouds 12 1028 66 10000 5.1 270 11:46 17.03.2020
1232 Clouds 11 1028 71 10000 4.6 270 11:28 17.03.2020
1233 Clouds 11 1028 70 10000 5.1 270 10:58 17.03.2020
1234 Clouds 10 1028 70 10000 5.1 270 10:38 17.03.2020
1235 Clouds 10 1028 81 10000 5.1 270 10:20 17.03.2020
1236 Clouds 9 1028 81 10000 5.7 260 09:55 17.03.2020
1237 Clouds 9 1028 81 10000 5.7 260 09:55 17.03.2020
1238 Clouds 9 1028 81 10000 5.7 260 09:36 17.03.2020
1239 Clouds 8 1028 81 10000 5.1 270 09:18 17.03.2020
1240 Clouds 8 1028 81 10000 4.6 280 08:42 17.03.2020
1241 Clouds 8 1027 87 10000 1.5 260 08:21 17.03.2020
1242 Clouds 8 1027 81 10000 2.6 260 07:50 17.03.2020
1243 Clouds 7 1026 87 10000 1.5 250 07:25 17.03.2020
1244 Clouds 7 1026 87 10000 1.5 250 06:56 17.03.2020
1245 Clouds 7 1026 87 10000 3.1 260 06:33 17.03.2020
1246 Clouds 8 1025 87 10000 3.6 260 05:41 17.03.2020
1247 Clouds 7 1025 93 10000 1 0 03:36 17.03.2020
1248 Rain 7 1024 93 10000 0.5 0 02:38 17.03.2020
1249 Clouds 7 1024 87 10000 1 0 01:41 17.03.2020
1250 Clouds 7 1024 87 10000 0.5 180 01:19 17.03.2020
1251 Clear 7 1024 87 10000 0.5 150 00:19 17.03.2020
1252 Clear 7 1024 81 10000 1 120 23:44 16.03.2020
1253 Clear 7 1024 87 10000 1 10 23:23 16.03.2020
1254 Clear 8 1024 81 10000 0.5 310 22:39 16.03.2020
1255 Clear 8 1024 81 10000 1.23 216 22:20 16.03.2020
1256 Clear 8 1023 87 10000 1.23 216 21:55 16.03.2020
1257 Clear 8 1023 87 10000 1.23 216 21:36 16.03.2020
1258 Clear 8 1023 81 10000 0.5 180 21:18 16.03.2020
1259 Clear 9 1023 76 10000 0.5 0 20:42 16.03.2020
1260 Clear 10 1023 76 10000 0.5 0 20:24 16.03.2020
1261 Clouds 10 1022 81 10000 2.1 340 19:47 16.03.2020
1262 Clouds 11 1022 81 10000 2.1 340 19:25 16.03.2020
1263 Clouds 12 1022 76 10000 1.5 310 19:00 16.03.2020
1264 Clouds 12 1021 76 10000 2.6 300 18:40 16.03.2020
1265 Clouds 14 1021 66 10000 3.1 280 18:20 16.03.2020
1266 Clouds 14 1021 58 10000 4.6 280 17:46 16.03.2020
1267 Clouds 15 1021 62 10000 4.6 280 17:26 16.03.2020
1268 Clouds 15 1020 58 10000 4.1 280 16:58 16.03.2020
1269 Clouds 15 1020 58 10000 4.1 280 16:40 16.03.2020
1270 Clouds 15 1020 58 10000 4.1 280 16:40 16.03.2020
1271 Clouds 15 1020 54 10000 4.6 270 16:21 16.03.2020
1272 Clouds 15 1020 58 10000 4.1 280 15:43 16.03.2020
1273 Clouds 15 1020 58 10000 4.1 280 15:24 16.03.2020
1274 Clouds 15 1019 58 10000 4.6 280 14:48 16.03.2020
1275 Clouds 15 1019 58 10000 5.1 270 14:23 16.03.2020
1276 Clouds 15 1019 58 10000 5.1 270 13:51 16.03.2020
1277 Clouds 15 1019 58 10000 5.7 270 13:29 16.03.2020
1278 Clouds 15 1019 62 10000 4.6 280 12:58 16.03.2020
1279 Clouds 14 1019 62 10000 4.1 280 12:39 16.03.2020
1280 Clouds 14 1019 62 10000 4.1 280 12:20 16.03.2020
1281 Clouds 14 1018 62 10000 4.6 270 11:43 16.03.2020
1282 Clouds 13 1018 58 10000 4.1 250 11:25 16.03.2020
1283 Clouds 13 1018 58 10000 4.1 260 10:45 16.03.2020
1284 Clouds 12 1018 58 10000 4.1 260 10:24 16.03.2020
1285 Clouds 12 1018 62 10000 3.6 270 09:56 16.03.2020
1286 Clouds 11 1017 58 10000 3.6 250 09:37 16.03.2020
1287 Clouds 10 1017 61 10000 1.5 200 09:19 16.03.2020
1288 Clouds 9 1016 70 10000 0.5 0 08:41 16.03.2020
1289 Clouds 7 1016 70 10000 1 160 08:21 16.03.2020
1290 Clouds 6 1015 75 10000 0.5 0 07:42 16.03.2020
1291 Clouds 5 1015 80 10000 1.5 300 07:19 16.03.2020
1292 Clouds 5 1014 75 10000 3.1 150 06:41 16.03.2020
1293 Clouds 5 1014 75 10000 2.6 150 06:22 16.03.2020
1294 Clouds 6 1014 70 10000 1.5 170 04:26 16.03.2020
1295 Clouds 8 1013 65 10000 2.1 160 01:46 16.03.2020
1296 Clouds 8 1013 61 10000 3.6 170 00:45 16.03.2020
1297 Clouds 8 1013 61 10000 3.6 170 00:26 16.03.2020
1298 Clouds 9 1013 61 10000 3.6 170 23:40 15.03.2020
1299 Clouds 9 1013 57 10000 3.6 180 23:19 15.03.2020
1300 Clouds 9 1013 57 10000 4.6 180 22:42 15.03.2020
1301 Clouds 9 1013 57 10000 4.1 180 22:20 15.03.2020
1302 Clouds 9 1013 53 10000 3.6 180 21:39 15.03.2020
1303 Clouds 9 1013 53 10000 3.6 170 21:21 15.03.2020
1304 Clouds 10 1013 57 10000 3.1 170 20:55 15.03.2020
1305 Clouds 10 1013 57 10000 3.1 170 20:36 15.03.2020
1306 Clouds 10 1013 53 10000 3.1 180 20:18 15.03.2020
1307 Clouds 10 1013 53 10000 3.1 180 19:55 15.03.2020
1308 Clouds 11 1013 53 10000 3.1 180 19:37 15.03.2020
1309 Clouds 11 1013 50 10000 2.6 180 19:18 15.03.2020
1310 Clouds 12 1013 47 10000 3.6 180 18:41 15.03.2020
1311 Clouds 13 1013 47 10000 4.1 190 18:23 15.03.2020
1312 Clouds 13 1013 47 10000 4.1 190 17:57 15.03.2020
1313 Clouds 13 1013 47 10000 4.6 200 17:38 15.03.2020
1314 Clouds 14 1013 44 10000 6.2 200 17:19 15.03.2020
1315 Clouds 14 1013 47 10000 6.7 190 16:44 15.03.2020
1316 Clouds 14 1013 47 10000 6.7 190 16:44 15.03.2020
1317 Clouds 14 1013 47 10000 6.7 190 16:26 15.03.2020
1318 Clouds 14 1013 44 10000 6.2 190 15:59 15.03.2020
1319 Clouds 14 1013 47 10000 7.2 180 15:41 15.03.2020
1320 Clouds 14 1013 47 10000 6.7 190 15:20 15.03.2020
1321 Clouds 14 1014 50 10000 6.7 200 14:46 15.03.2020
1322 Clouds 14 1014 50 10000 6.7 200 14:25 15.03.2020
1323 Clouds 14 1014 47 10000 6.2 200 13:58 15.03.2020
1324 Clouds 14 1015 50 10000 7.2 190 13:38 15.03.2020
1325 Clouds 14 1015 50 10000 7.2 190 13:38 15.03.2020
1326 Clouds 14 1015 50 10000 7.2 190 13:38 15.03.2020
1327 Clouds 13 1015 50 10000 7.7 200 13:20 15.03.2020
1328 Clouds 13 1015 50 10000 7.7 190 12:44 15.03.2020
1329 Clouds 13 1015 50 10000 7.7 190 12:26 15.03.2020
1330 Clouds 12 1016 53 10000 7.2 180 11:56 15.03.2020
1331 Clouds 12 1016 53 10000 7.2 180 11:38 15.03.2020
1332 Clouds 11 1016 57 10000 6.7 180 11:20 15.03.2020
1333 Clouds 11 1017 61 10000 6.7 180 10:55 15.03.2020
1334 Clouds 11 1017 61 10000 6.7 180 10:36 15.03.2020
1335 Clouds 10 1016 53 10000 7.7 210 10:18 15.03.2020
1336 Clouds 9 1017 65 10000 4.1 170 09:39 15.03.2020
1337 Clouds 8 1017 65 10000 3.6 170 09:20 15.03.2020
1338 Clouds 7 1017 70 10000 4.1 180 08:42 15.03.2020
1339 Clouds 6 1017 70 10000 4.1 180 08:20 15.03.2020
1340 Clouds 6 1017 75 10000 3.6 170 07:51 15.03.2020
1341 Clouds 5 1017 75 10000 3.6 170 07:23 15.03.2020
1342 Clouds 5 1017 70 10000 3.1 180 06:45 15.03.2020
1343 Clouds 5 1017 70 10000 4.1 160 05:50 15.03.2020
1344 Clouds 5 1018 70 10000 4.6 160 04:58 15.03.2020
1345 Clouds 5 1018 70 10000 4.6 170 04:40 15.03.2020
1346 Clouds 5 1018 70 10000 4.1 160 04:21 15.03.2020
1347 Clouds 5 1019 70 10000 4.1 160 03:30 15.03.2020
1348 Clouds 4 1019 70 10000 3.6 150 02:37 15.03.2020
1349 Clouds 4 1020 70 10000 4.1 160 01:20 15.03.2020
1350 Clouds 4 1020 70 10000 3.6 150 00:42 15.03.2020
1351 Clouds 4 1020 70 10000 2.1 140 00:21 15.03.2020
1352 Clouds 4 1020 70 10000 3.1 130 23:41 14.03.2020
1353 Clear 5 1021 64 10000 3.1 140 23:21 14.03.2020
1354 Clear 5 1021 64 10000 2.1 140 22:57 14.03.2020
1355 Clear 5 1021 64 10000 2.1 140 22:38 14.03.2020
1356 Clear 5 1021 64 10000 2.1 120 22:20 14.03.2020
1357 Clear 5 1021 64 10000 2.1 120 21:56 14.03.2020
1358 Clear 5 1021 64 10000 2.6 120 21:36 14.03.2020
1359 Clear 5 1021 70 10000 2.6 130 21:18 14.03.2020
1360 Clear 5 1021 70 10000 2.6 130 20:58 14.03.2020
1361 Clear 5 1021 70 10000 3.1 120 20:39 14.03.2020
1362 Clouds 6 1021 70 10000 3.1 120 20:18 14.03.2020
1363 Clouds 6 1021 65 10000 3.1 130 19:42 14.03.2020
1364 Clouds 7 1021 65 10000 3.1 130 19:24 14.03.2020
1365 Clouds 7 1021 65 10000 4.1 120 18:41 14.03.2020
1366 Clouds 8 1021 49 10000 4.1 130 18:22 14.03.2020
1367 Clouds 8 1021 49 10000 5.1 140 17:55 14.03.2020
1368 Clouds 9 1021 49 10000 5.1 140 17:37 14.03.2020
1369 Clouds 9 1021 58 10000 5.7 150 17:18 14.03.2020
1370 Clouds 10 1022 58 10000 5.1 150 16:40 14.03.2020
1371 Clouds 10 1022 53 10000 4.6 150 16:21 14.03.2020
1372 Clouds 9 1022 53 10000 4.6 150 15:52 14.03.2020
1373 Clouds 9 1022 53 10000 3.6 170 15:25 14.03.2020
1374 Clouds 9 1022 58 10000 4.1 160 14:46 14.03.2020
1375 Clouds 9 1022 58 10000 4.1 160 14:23 14.03.2020
1376 Clouds 9 1022 57 10000 4.1 150 13:57 14.03.2020
1377 Clouds 9 1023 54 10000 3.6 180 13:39 14.03.2020
1378 Clouds 8 1023 54 10000 3.1 0 13:20 14.03.2020
1379 Clouds 8 1023 54 10000 4.1 150 12:45 14.03.2020
1380 Clouds 7 1023 54 10000 3.1 140 12:26 14.03.2020
1381 Clouds 7 1023 54 10000 3.6 110 11:56 14.03.2020
1382 Clouds 7 1023 54 10000 3.6 110 11:38 14.03.2020
1383 Clear 6 1023 62 10000 2.6 120 11:19 14.03.2020
1384 Clear 6 1023 60 10000 3.1 140 10:41 14.03.2020
1385 Clear 5 1023 65 10000 3.6 140 10:23 14.03.2020
1386 Clear 4 1023 62 10000 3.1 130 09:44 14.03.2020
1387 Clear 3 1023 62 10000 1.5 120 09:24 14.03.2020
1388 Clear 3 1023 62 10000 1.5 120 09:24 14.03.2020
1389 Clear 1 1023 80 10000 1 0 08:48 14.03.2020
1390 Clear 0 1023 80 10000 1 0 08:29 14.03.2020
1391 Clear 0 1023 84 10000 0.5 0 07:55 14.03.2020
1392 Clear -1 1022 92 10000 1 0 07:37 14.03.2020
1393 Clear -2 1022 100 10000 0.5 0 07:19 14.03.2020
1394 Clouds -2 1022 100 10000 1 0 06:40 14.03.2020
1395 Clouds -1 1022 100 10000 0.5 90 05:24 14.03.2020
1396 Clear -1 1022 100 10000 0.5 0 03:46 14.03.2020
1397 Clear -1 1022 100 10000 0.5 0 03:24 14.03.2020
1398 Clear 0 1022 85 10000 1 220 02:22 14.03.2020
1399 Clear 2 1021 84 10000 0.5 310 00:46 14.03.2020
1400 Clouds 3 1021 84 10000 1.5 290 23:46 13.03.2020
1401 Clouds 3 1020 84 10000 1.5 310 23:28 13.03.2020
1402 Clouds 4 1020 85 10000 3.1 310 22:49 13.03.2020
1403 Clouds 4 1020 85 10000 3.1 310 22:26 13.03.2020
1404 Clouds 5 1019 80 10000 5.7 310 21:44 13.03.2020
1405 Clouds 5 1019 86 10000 4.1 300 21:21 13.03.2020
1406 Clouds 5 1019 86 10000 4.1 300 20:58 13.03.2020
1407 Clouds 5 1018 86 10000 3.1 290 20:39 13.03.2020
1408 Clouds 5 1018 86 10000 3.1 290 20:39 13.03.2020
1409 Clouds 5 1018 81 10000 2.6 290 20:20 13.03.2020
1410 Clouds 6 1017 86 10000 3.1 300 19:47 13.03.2020
1411 Clouds 5 1017 86 10000 3.1 300 19:47 13.03.2020
1412 Clouds 6 1017 86 10000 3.1 300 19:28 13.03.2020
1413 Clouds 6 1016 81 10000 5.7 300 18:47 13.03.2020
1414 Clouds 6 1016 81 10000 5.7 300 18:29 13.03.2020
1415 Clouds 6 1016 75 10000 3.6 280 17:57 13.03.2020
1416 Clouds 7 1015 81 10000 5.7 280 17:38 13.03.2020
1417 Clouds 7 1015 87 10000 6.2 270 17:19 13.03.2020
1418 Rain 7 1015 81 7000 7.2 300 16:42 13.03.2020
1419 Rain 7 1014 75 10000 8.2 270 16:24 13.03.2020
1420 Rain 8 1014 81 7000 7.2 290 15:56 13.03.2020
1421 Rain 8 1014 75 10000 8.2 270 15:37 13.03.2020
1422 Clouds 7 1013 81 10000 8.2 270 15:19 13.03.2020
1423 Clouds 7 1013 81 10000 7.7 270 14:41 13.03.2020
1424 Clouds 7 1013 81 10000 7.7 270 14:41 13.03.2020
1425 Clouds 7 1013 81 10000 7.7 270 14:22 13.03.2020
1426 Clouds 7 1013 81 10000 7.7 270 14:22 13.03.2020
1427 Rain 7 1013 87 7000 9.8 270 13:57 13.03.2020
1428 Rain 7 1013 87 10000 11.3 280 13:38 13.03.2020
1429 Rain 7 1012 81 10000 8.7 280 13:19 13.03.2020
1430 Rain 7 1012 70 10000 12.9 270 12:40 13.03.2020
1431 Clouds 7 1011 75 10000 11.8 270 12:22 13.03.2020
1432 Clouds 7 1010 75 10000 10.8 260 11:59 13.03.2020
1433 Clouds 7 1010 81 10000 9.3 260 11:41 13.03.2020
1434 Rain 7 1010 81 10000 10.8 260 11:22 13.03.2020
1435 Rain 6 1009 81 10000 11.3 250 10:48 13.03.2020
1436 Rain 6 1009 81 10000 11.3 250 10:28 13.03.2020
1437 Rain 6 1009 75 10000 10.3 250 09:57 13.03.2020
1438 Clouds 6 1009 75 10000 10.8 250 09:57 13.03.2020
1439 Clouds 6 1009 75 10000 10.8 250 09:39 13.03.2020
1440 Clouds 6 1008 75 10000 10.3 240 09:20 13.03.2020
1441 Clouds 6 1008 75 10000 10.8 250 08:45 13.03.2020
1442 Rain 6 1008 75 10000 8.7 240 08:22 13.03.2020
1443 Rain 6 1007 75 10000 9.8 250 07:49 13.03.2020
1444 Clouds 6 1007 65 10000 9.3 240 07:28 13.03.2020
1445 Clouds 6 1007 65 10000 9.8 240 06:47 13.03.2020
1446 Clouds 6 1007 65 10000 8.7 230 06:28 13.03.2020
1447 Rain 6 1007 75 10000 8.7 240 05:53 13.03.2020
1448 Clouds 6 1008 75 10000 7.7 240 05:20 13.03.2020
1449 Clouds 6 1008 75 10000 7.2 230 04:37 13.03.2020
1450 Clouds 6 1008 70 10000 6.2 240 03:31 13.03.2020
1451 Clouds 6 1008 70 10000 6.7 240 01:45 13.03.2020
1452 Clouds 6 1008 70 10000 7.2 240 01:18 13.03.2020
1453 Clouds 6 1008 70 10000 6.7 240 00:47 13.03.2020
1454 Clouds 6 1008 70 10000 6.2 240 00:23 13.03.2020
1455 Clouds 5 1009 70 10000 6.2 240 23:47 12.03.2020
1456 Clouds 5 1008 70 10000 6.7 240 23:26 12.03.2020
1457 Rain 5 1009 70 10000 6.7 250 22:55 12.03.2020
1458 Rain 5 1009 70 10000 6.7 250 22:37 12.03.2020
1459 Rain 5 1009 75 10000 4.6 230 22:19 12.03.2020
1460 Rain 5 1009 75 10000 4.1 230 21:42 12.03.2020
1461 Rain 6 1009 75 10000 4.1 230 21:24 12.03.2020
1462 Clouds 6 1009 70 10000 5.1 250 20:55 12.03.2020
1463 Clouds 6 1009 70 10000 5.1 250 20:37 12.03.2020
1464 Clouds 7 1009 70 10000 7.2 260 20:18 12.03.2020
1465 Clouds 8 1008 49 10000 4.6 240 19:39 12.03.2020
1466 Clouds 8 1008 49 10000 4.6 240 19:19 12.03.2020
1467 Clouds 8 1008 49 10000 4.6 240 19:19 12.03.2020
1468 Clouds 8 1008 49 10000 4.1 250 18:42 12.03.2020
1469 Clouds 9 1008 45 10000 5.7 260 18:23 12.03.2020
1470 Clouds 9 1008 42 10000 7.7 260 17:56 12.03.2020
1471 Clouds 9 1008 42 10000 7.7 260 17:37 12.03.2020
1472 Clouds 10 1008 43 10000 10.3 260 17:18 12.03.2020
1473 Clouds 10 1008 46 10000 8.2 260 16:43 12.03.2020
1474 Clouds 10 1008 45 10000 9.8 270 16:23 12.03.2020
1475 Clouds 10 1008 45 10000 9.8 270 15:59 12.03.2020
1476 Clouds 10 1008 45 10000 10.3 270 15:39 12.03.2020
1477 Clouds 10 1008 49 10000 7.7 270 15:21 12.03.2020
1478 Clouds 10 1008 46 10000 9.3 270 14:38 12.03.2020
1479 Clouds 10 1008 46 10000 9.3 270 14:38 12.03.2020
1480 Clouds 10 1008 49 10000 10.8 280 14:19 12.03.2020
1481 Clouds 10 1008 42 10000 10.8 280 13:40 12.03.2020
1482 Clouds 9 1008 57 10000 10.8 270 13:21 12.03.2020
1483 Clouds 9 1008 57 10000 10.8 270 13:21 12.03.2020
1484 Clouds 9 1007 44 10000 12.3 270 12:55 12.03.2020
1485 Clouds 9 1007 44 10000 12.3 270 12:37 12.03.2020
1486 Clouds 9 1007 44 10000 11.8 270 12:18 12.03.2020
1487 Clouds 9 1006 57 10000 11.3 270 11:56 12.03.2020
1488 Clouds 9 1006 57 10000 11.3 270 11:37 12.03.2020
1489 Clouds 9 1005 69 10000 12.3 270 11:18 12.03.2020
1490 Clouds 9 1005 61 10000 11.3 270 10:44 12.03.2020
1491 Clouds 9 1005 61 10000 11.3 270 10:26 12.03.2020
1492 Clouds 8 1004 75 10000 14.9 290 09:59 12.03.2020
1493 Clouds 9 1003 66 10000 9.8 260 09:41 12.03.2020
1494 Rain 9 1003 70 10000 10.8 260 09:23 12.03.2020
1495 Rain 9 1002 81 10000 13.9 280 08:39 12.03.2020
1496 Rain 10 1002 76 3000 11.3 270 08:19 12.03.2020
1497 Clouds 10 1001 76 10000 8.7 250 07:48 12.03.2020
1498 Rain 10 1001 81 10000 10.3 250 07:22 12.03.2020
1499 Rain 11 1001 81 6000 11.3 260 06:33 12.03.2020
1500 Rain 12 1001 76 10000 9.8 240 05:36 12.03.2020
1501 Clouds 12 1002 76 10000 10.3 240 03:45 12.03.2020
1502 Rain 12 1003 82 10000 9.8 240 02:19 12.03.2020
1503 Rain 12 1004 93 10000 5.7 220 01:24 12.03.2020
1504 Rain 12 1005 87 10000 4.1 210 00:42 12.03.2020
1505 Rain 12 1005 87 10000 5.1 220 23:59 11.03.2020
1506 Clouds 11 1006 81 10000 5.1 220 23:37 11.03.2020
1507 Clouds 11 1007 81 10000 4.1 220 23:18 11.03.2020
1508 Clouds 11 1007 87 10000 4.1 200 22:41 11.03.2020
1509 Clouds 11 1007 87 10000 4.1 200 22:23 11.03.2020
1510 Clouds 11 1007 81 10000 2.6 200 21:58 11.03.2020
1511 Clouds 11 1008 81 10000 3.6 210 21:39 11.03.2020
1512 Rain 11 1008 81 10000 5.1 220 21:21 11.03.2020
1513 Rain 11 1008 81 10000 5.1 220 20:57 11.03.2020
1514 Rain 11 1008 81 10000 5.1 220 20:57 11.03.2020
1515 Clouds 11 1009 81 10000 4.6 220 20:37 11.03.2020
1516 Clouds 11 1009 81 10000 4.1 230 20:19 11.03.2020
1517 Clouds 11 1009 76 10000 3.1 220 19:42 11.03.2020
1518 Clouds 11 1009 76 10000 3.1 220 19:24 11.03.2020
1519 Clouds 11 1010 76 10000 3.6 230 18:57 11.03.2020
1520 Clouds 12 1009 71 10000 4.1 240 18:38 11.03.2020
1521 Clouds 12 1010 71 10000 5.1 240 18:18 11.03.2020
1522 Clouds 12 1009 66 10000 5.1 240 17:55 11.03.2020
1523 Clouds 12 1009 66 10000 5.1 240 17:37 11.03.2020
1524 Clouds 13 1010 66 10000 4.6 240 17:18 11.03.2020
1525 Clouds 13 1010 66 10000 4.6 250 16:43 11.03.2020
1526 Clouds 13 1010 71 10000 4.6 270 16:19 11.03.2020
1527 Clouds 13 1010 66 10000 5.1 280 15:43 11.03.2020
1528 Clouds 13 1010 71 10000 5.7 260 15:23 11.03.2020
1529 Clouds 13 1010 71 10000 5.7 260 14:54 11.03.2020
1530 Clouds 12 1010 71 10000 6.7 270 14:36 11.03.2020
1531 Clouds 12 1010 71 10000 6.7 270 14:36 11.03.2020
1532 Clouds 12 1010 71 10000 6.7 270 14:18 11.03.2020
1533 Clouds 11 1010 76 10000 6.7 260 13:41 11.03.2020
1534 Clouds 11 1010 76 10000 5.1 250 13:22 11.03.2020
1535 Clouds 11 1010 76 10000 5.1 250 12:56 11.03.2020
1536 Clouds 11 1010 76 10000 6.2 250 12:38 11.03.2020
1537 Rain 11 1010 76 10000 6.2 250 12:19 11.03.2020
1538 Rain 11 1010 76 10000 6.2 250 12:19 11.03.2020
1539 Clouds 10 1010 71 10000 5.7 250 11:41 11.03.2020
1540 Clouds 10 1009 66 10000 6.7 250 11:20 11.03.2020
1541 Clouds 10 1009 71 10000 6.7 260 10:47 11.03.2020
1542 Clouds 10 1009 71 10000 5.7 260 10:21 11.03.2020
1543 Clouds 10 1009 71 10000 5.7 260 09:59 11.03.2020
1544 Clouds 9 1009 76 10000 5.1 260 09:40 11.03.2020
1545 Clouds 9 1008 81 10000 4.6 260 09:21 11.03.2020
1546 Clouds 9 1008 81 10000 3.6 250 08:43 11.03.2020
1547 Clouds 9 1008 81 10000 3.6 250 08:24 11.03.2020
1548 Clouds 8 1008 76 10000 4.1 260 07:47 11.03.2020
1549 Clouds 8 1007 81 10000 4.1 270 07:20 11.03.2020
1550 Clouds 8 1007 81 10000 4.1 270 06:50 11.03.2020
1551 Clouds 8 1007 76 10000 5.1 270 06:31 11.03.2020
1552 Clouds 9 1006 81 10000 4.6 270 05:32 11.03.2020
1553 Clouds 9 1004 87 10000 7.2 270 02:45 11.03.2020
1554 Rain 9 1003 81 10000 6.7 270 01:52 11.03.2020
1555 Rain 9 1003 81 10000 6.7 270 01:23 11.03.2020
1556 Rain 11 1002 87 8000 10.3 290 00:37 11.03.2020
1557 Drizzle 11 1001 87 4500 9.3 280 23:50 10.03.2020
1558 Rain 11 1000 93 6000 8.2 260 23:28 10.03.2020
1559 Rain 12 1000 93 6000 7.7 260 22:56 10.03.2020
1560 Rain 12 1000 93 6000 7.7 260 22:37 10.03.2020
1561 Rain 12 1000 93 10000 8.2 250 22:19 10.03.2020
1562 Rain 12 1000 93 10000 8.2 250 21:56 10.03.2020
1563 Rain 12 1000 93 10000 8.7 250 21:37 10.03.2020
1564 Drizzle 12 1000 93 10000 7.2 250 21:18 10.03.2020
1565 Drizzle 11 1000 93 8000 7.2 260 20:42 10.03.2020
1566 Drizzle 11 1000 100 6000 8.2 250 20:19 10.03.2020
1567 Drizzle 11 1000 100 6000 8.2 250 19:58 10.03.2020
1568 Drizzle 11 999 93 5000 7.7 250 19:40 10.03.2020
1569 Drizzle 11 1000 100 7000 8.2 240 19:21 10.03.2020
1570 Drizzle 11 1000 100 7000 8.2 240 18:55 10.03.2020
1571 Clouds 11 1000 87 10000 7.7 240 18:36 10.03.2020
1572 Clouds 11 1000 87 10000 7.7 240 18:36 10.03.2020
1573 Clouds 11 1000 87 10000 8.2 240 18:18 10.03.2020
1574 Rain 11 1000 93 10000 6.2 230 17:41 10.03.2020
1575 Rain 10 1000 93 10000 6.7 230 17:22 10.03.2020
1576 Rain 10 1000 93 10000 6.7 240 16:54 10.03.2020
1577 Rain 10 1000 93 10000 6.7 240 16:36 10.03.2020
1578 Rain 10 1000 93 10000 5.1 230 16:18 10.03.2020
1579 Rain 10 1001 93 10000 5.7 230 15:41 10.03.2020
1580 Rain 10 1001 93 10000 6.2 230 15:19 10.03.2020
1581 Rain 9 1001 93 10000 6.2 230 14:57 10.03.2020
1582 Rain 9 1001 87 10000 6.2 230 14:39 10.03.2020
1583 Rain 9 1001 87 10000 7.7 230 14:18 10.03.2020
1584 Rain 9 1001 87 10000 7.7 230 13:43 10.03.2020
1585 Rain 9 1001 87 10000 7.7 230 13:25 10.03.2020
1586 Clouds 9 1002 93 10000 6.7 230 12:42 10.03.2020
1587 Clouds 8 1002 87 10000 7.7 230 12:21 10.03.2020
1588 Clouds 8 1001 87 10000 8.2 230 11:59 10.03.2020
1589 Clouds 8 1001 87 10000 8.2 230 11:41 10.03.2020
1590 Clouds 7 1001 93 9000 5.1 200 11:23 10.03.2020
1591 Drizzle 7 1001 93 4000 5.7 200 10:54 10.03.2020
1592 Drizzle 7 1001 93 4000 5.7 200 10:36 10.03.2020
1593 Rain 6 1002 93 10000 5.1 210 10:18 10.03.2020
1594 Drizzle 6 1001 87 6000 8.2 230 09:44 10.03.2020
1595 Clouds 6 1002 87 10000 6.2 210 09:19 10.03.2020
1596 Clouds 6 1002 87 10000 6.2 210 08:53 10.03.2020
1597 Clouds 6 1002 81 10000 7.7 200 08:34 10.03.2020
1598 Rain 5 1003 81 10000 6.7 200 07:53 10.03.2020
1599 Rain 6 1003 81 10000 6.7 200 07:34 10.03.2020
1600 Rain 5 1003 86 7000 7.2 210 06:57 10.03.2020
1601 Rain 5 1003 86 7000 7.2 210 06:37 10.03.2020
1602 Rain 6 1005 81 10000 5.1 180 05:42 10.03.2020
1603 Rain 6 1007 70 10000 4.1 200 04:56 10.03.2020
1604 Rain 6 1008 70 10000 4.6 200 04:25 10.03.2020
1605 Clouds 6 1009 81 10000 4.1 190 02:46 10.03.2020
1606 Clouds 6 1010 75 10000 4.1 200 01:31 10.03.2020
1607 Clouds 6 1011 81 10000 3.1 200 00:50 10.03.2020
1608 Clouds 6 1012 81 10000 3.1 200 00:27 10.03.2020
1609 Clouds 6 1012 81 10000 3.6 210 23:41 09.03.2020
1610 Clouds 6 1013 81 10000 3.1 210 23:22 09.03.2020
1611 Clear 6 1013 81 10000 3.1 220 22:56 09.03.2020
1612 Clear 6 1013 81 10000 3.1 220 22:37 09.03.2020
1613 Clouds 6 1013 81 10000 3.1 220 22:18 09.03.2020
1614 Clouds 6 1013 81 10000 3.6 220 21:42 09.03.2020
1615 Clouds 6 1013 81 10000 2.6 220 21:21 09.03.2020
1616 Clouds 6 1013 81 10000 2.6 220 20:58 09.03.2020
1617 Clouds 6 1013 81 10000 2.6 220 20:58 09.03.2020
1618 Clouds 6 1013 81 10000 3.1 230 20:39 09.03.2020
1619 Clouds 6 1013 81 10000 4.1 230 20:20 09.03.2020
1620 Clouds 6 1013 81 10000 4.1 230 20:20 09.03.2020
1621 Clouds 7 1013 75 10000 3.6 240 19:45 09.03.2020
1622 Clouds 7 1013 75 10000 3.6 240 19:26 09.03.2020
1623 Clouds 7 1013 75 10000 3.6 240 18:58 09.03.2020
1624 Clouds 7 1013 75 10000 6.2 280 18:39 09.03.2020
1625 Clouds 8 1012 70 10000 3.6 250 18:20 09.03.2020
1626 Clouds 9 1012 70 10000 3.6 250 17:58 09.03.2020
1627 Clouds 9 1012 66 10000 4.1 240 17:38 09.03.2020
1628 Clouds 9 1012 66 10000 4.1 240 17:38 09.03.2020
1629 Clouds 9 1012 70 10000 5.1 250 17:20 09.03.2020
1630 Clouds 9 1012 70 10000 4.6 250 16:58 09.03.2020
1631 Clouds 9 1012 70 10000 4.6 250 16:40 09.03.2020
1632 Clouds 9 1011 70 10000 5.1 260 16:22 09.03.2020
1633 Clouds 9 1011 70 10000 5.1 260 15:58 09.03.2020
1634 Clouds 10 1011 61 10000 5.1 290 15:38 09.03.2020
1635 Clouds 10 1011 81 10000 3.6 240 15:20 09.03.2020
1636 Rain 10 1011 75 10000 8.2 270 14:55 09.03.2020
1637 Rain 9 1011 76 10000 5.7 280 14:37 09.03.2020
1638 Clouds 9 1011 70 10000 7.2 240 14:18 09.03.2020
1639 Clouds 10 1011 66 10000 5.7 250 13:55 09.03.2020
1640 Clouds 10 1010 61 10000 6.7 250 13:36 09.03.2020
1641 Clouds 10 1011 66 10000 4.6 270 13:18 09.03.2020
1642 Clouds 10 1011 71 10000 5.7 250 12:41 09.03.2020
1643 Clouds 10 1010 71 10000 6.7 260 12:21 09.03.2020
1644 Clouds 10 1010 71 10000 5.1 250 11:41 09.03.2020
1645 Clouds 9 1010 76 10000 5.7 270 11:21 09.03.2020
1646 Clouds 9 1010 76 10000 5.1 270 10:59 09.03.2020
1647 Clouds 9 1010 76 10000 5.1 270 10:40 09.03.2020
1648 Clouds 9 1010 81 10000 5.7 250 10:20 09.03.2020
1649 Clouds 8 1010 81 10000 4.6 250 09:44 09.03.2020
1650 Clouds 8 1009 81 10000 3.6 240 09:24 09.03.2020
1651 Clouds 8 1009 81 10000 3.6 240 09:24 09.03.2020
1652 Clouds 8 1009 81 10000 4.6 250 08:59 09.03.2020
1653 Clouds 8 1009 81 10000 4.6 250 08:41 09.03.2020
1654 Clouds 8 1009 81 10000 4.6 250 08:23 09.03.2020
1655 Clouds 7 1008 81 10000 4.1 240 07:40 09.03.2020
1656 Clouds 7 1008 81 10000 4.1 250 07:21 09.03.2020
1657 Clouds 8 1008 81 10000 3.6 240 06:43 09.03.2020
1658 Clouds 8 1008 81 10000 3.1 230 06:23 09.03.2020
1659 Clouds 8 1008 81 10000 3.1 240 05:47 09.03.2020
1660 Clouds 8 1007 81 10000 3.6 260 05:18 09.03.2020
1661 Clouds 8 1007 81 10000 4.6 240 04:40 09.03.2020
1662 Rain 8 1007 76 10000 4.6 250 04:21 09.03.2020
1663 Clouds 9 1007 81 10000 4.1 220 02:58 09.03.2020
1664 Clouds 9 1007 76 10000 2.1 170 01:18 09.03.2020
1665 Clouds 9 1007 76 10000 3.1 210 00:37 09.03.2020
1666 Clouds 9 1008 76 10000 2.1 140 00:19 09.03.2020
1667 Clouds 9 1008 76 10000 2.6 180 23:42 08.03.2020
1668 Clouds 9 1008 76 10000 2.1 170 23:21 08.03.2020
1669 Clouds 9 1008 76 10000 2.1 170 23:21 08.03.2020
1670 Clouds 9 1009 76 10000 2.6 180 22:55 08.03.2020
1671 Clouds 9 1008 81 10000 4.1 220 22:37 08.03.2020
1672 Clouds 9 1009 81 10000 3.6 210 22:18 08.03.2020
1673 Clouds 9 1009 81 10000 3.6 190 21:42 08.03.2020
1674 Clouds 9 1009 76 10000 2.6 200 21:23 08.03.2020
1675 Clouds 9 1010 71 10000 3.1 190 20:58 08.03.2020
1676 Rain 9 1009 81 10000 6.2 220 20:38 08.03.2020
1677 Clouds 9 1010 76 10000 3.1 200 20:20 08.03.2020
1678 Clouds 9 1010 71 10000 2.6 210 19:40 08.03.2020
1679 Clouds 10 1010 76 10000 2.6 210 19:20 08.03.2020
1680 Clouds 10 1010 76 10000 2.6 210 18:57 08.03.2020
1681 Clouds 10 1010 76 10000 2.6 210 18:38 08.03.2020
1682 Clouds 10 1010 76 10000 2.1 200 18:20 08.03.2020
1683 Clouds 11 1009 62 10000 3.6 230 17:41 08.03.2020
1684 Clouds 11 1010 66 10000 3.6 200 17:22 08.03.2020
1685 Clouds 11 1010 66 10000 3.6 200 16:59 08.03.2020
1686 Clouds 11 1010 66 10000 3.6 200 16:40 08.03.2020
1687 Clouds 11 1010 66 10000 3.6 200 16:22 08.03.2020
1688 Clouds 11 1010 66 10000 4.6 180 15:55 08.03.2020
1689 Clouds 11 1009 58 10000 5.7 210 15:37 08.03.2020
1690 Clouds 11 1010 62 10000 5.1 200 15:18 08.03.2020
1691 Clouds 11 1010 62 10000 7.2 220 14:38 08.03.2020
1692 Clouds 11 1010 66 10000 5.1 190 14:20 08.03.2020
1693 Clouds 11 1011 66 10000 6.2 190 13:42 08.03.2020
1694 Clouds 11 1011 66 10000 6.2 190 13:21 08.03.2020
1695 Clouds 11 1011 62 10000 6.2 200 12:57 08.03.2020
1696 Clouds 11 1012 66 10000 5.7 190 12:37 08.03.2020
1697 Clouds 11 1012 66 10000 5.7 190 12:18 08.03.2020
1698 Clouds 10 1012 62 10000 6.7 210 11:42 08.03.2020
1699 Clouds 10 1013 66 10000 5.1 190 11:23 08.03.2020
1700 Clouds 9 1013 66 10000 5.1 190 10:57 08.03.2020
1701 Clouds 9 1013 66 10000 5.1 190 10:39 08.03.2020
1702 Clouds 9 1013 66 10000 5.1 190 10:21 08.03.2020
1703 Clouds 8 1014 70 10000 3.6 190 09:39 08.03.2020
1704 Clouds 8 1014 70 10000 3.6 190 09:21 08.03.2020
1705 Clouds 7 1014 70 10000 5.1 190 08:46 08.03.2020
1706 Clouds 6 1014 75 10000 3.1 190 08:21 08.03.2020
1707 Clouds 6 1014 75 10000 3.1 190 07:49 08.03.2020
1708 Clouds 6 1014 75 10000 3.1 190 07:28 08.03.2020
1709 Clouds 6 1014 70 10000 3.6 190 06:45 08.03.2020
1710 Clouds 6 1014 70 10000 3.6 190 06:27 08.03.2020
1711 Clouds 6 1015 70 10000 3.6 180 05:43 08.03.2020
1712 Clouds 6 1016 70 10000 3.6 190 03:52 08.03.2020
1713 Clouds 6 1016 79 10000 3.6 180 02:59 08.03.2020
1714 Clouds 5 1017 74 10000 3.6 180 01:38 08.03.2020
1715 Clouds 5 1017 74 10000 3.1 180 01:19 08.03.2020
1716 Clouds 5 1017 73 10000 3.1 180 00:32 08.03.2020
1717 Clouds 4 1018 73 10000 3.1 180 23:58 07.03.2020
1718 Clouds 4 1017 73 10000 5.1 210 23:37 07.03.2020
1719 Clouds 4 1018 80 10000 3.1 180 23:18 07.03.2020
1720 Clouds 3 1018 80 10000 3.1 190 22:38 07.03.2020
1721 Clouds 3 1018 80 10000 3.1 190 22:19 07.03.2020
1722 Clouds 3 1018 80 10000 3.1 190 22:19 07.03.2020
1723 Clouds 3 1018 80 10000 2.6 190 21:45 07.03.2020
1724 Clouds 3 1018 80 10000 3.1 200 21:23 07.03.2020
1725 Clouds 4 1018 80 10000 3.1 200 20:41 07.03.2020
1726 Clear 4 1018 80 10000 2.6 200 20:22 07.03.2020
1727 Clouds 4 1018 70 10000 2.1 210 19:54 07.03.2020
1728 Clouds 5 1018 75 10000 3.1 220 19:36 07.03.2020
1729 Clouds 5 1018 75 10000 1.5 220 19:18 07.03.2020
1730 Clouds 6 1018 70 10000 2.6 250 18:39 07.03.2020
1731 Clouds 7 1018 70 10000 2.1 260 18:21 07.03.2020
1732 Clouds 7 1017 65 10000 3.1 260 17:42 07.03.2020
1733 Clouds 7 1017 61 10000 3.1 280 17:20 07.03.2020
1734 Clouds 8 1017 65 10000 4.1 280 16:57 07.03.2020
1735 Clouds 8 1017 65 10000 4.1 280 16:39 07.03.2020
1736 Clouds 8 1017 65 10000 5.1 270 16:21 07.03.2020
1737 Clouds 8 1017 65 10000 5.1 270 16:21 07.03.2020
1738 Clouds 7 1017 61 10000 6.2 280 15:55 07.03.2020
1739 Clouds 7 1017 61 10000 6.2 280 15:37 07.03.2020
1740 Clouds 7 1017 65 10000 4.6 300 15:37 07.03.2020
1741 Clouds 8 1016 61 10000 5.1 270 15:19 07.03.2020
1742 Clouds 7 1016 70 10000 5.1 280 14:44 07.03.2020
1743 Clouds 7 1016 75 10000 7.2 280 14:23 07.03.2020
1744 Clouds 7 1016 70 10000 6.2 280 13:55 07.03.2020
1745 Clouds 7 1016 70 10000 6.2 280 13:37 07.03.2020
1746 Clouds 7 1016 70 10000 5.1 290 13:18 07.03.2020
1747 Clouds 6 1016 70 10000 5.1 290 12:39 07.03.2020
1748 Clouds 6 1015 70 10000 4.1 270 12:19 07.03.2020
1749 Clouds 6 1015 75 10000 5.1 280 11:56 07.03.2020
1750 Clouds 6 1015 75 10000 6.2 290 11:37 07.03.2020
1751 Clouds 5 1015 80 10000 5.1 290 11:19 07.03.2020
1752 Clouds 5 1014 80 10000 4.1 280 10:39 07.03.2020
1753 Clouds 5 1014 80 10000 5.1 270 10:20 07.03.2020
1754 Clouds 5 1013 80 10000 4.1 280 09:42 07.03.2020
1755 Clouds 4 1013 86 10000 4.1 280 09:20 07.03.2020
1756 Clouds 4 1013 86 10000 4.1 280 09:20 07.03.2020
1757 Clouds 4 1013 93 10000 4.6 280 08:59 07.03.2020
1758 Clouds 4 1013 93 10000 4.6 280 08:41 07.03.2020
1759 Clouds 4 1012 93 9000 4.1 280 08:20 07.03.2020
1760 Clouds 4 1012 93 9000 4.1 280 08:20 07.03.2020
1761 Clouds 4 1011 93 8000 4.6 290 07:48 07.03.2020
1762 Clouds 4 1011 93 8000 5.7 290 07:22 07.03.2020
1763 Clouds 4 1010 94 0 2.24 315 06:54 07.03.2020
1764 Clouds 4 1009 93 7000 5.7 300 06:29 07.03.2020
1765 Clouds 4 1009 93 7000 5.7 300 06:29 07.03.2020
1766 Clouds 4 1009 93 7000 5.7 300 05:46 07.03.2020
1767 Clouds 4 1008 93 8000 5.1 300 04:35 07.03.2020
1768 Clouds 4 1006 93 10000 6.2 300 02:46 07.03.2020
1769 Clouds 4 1005 93 10000 6.2 310 02:23 07.03.2020
1770 Clouds 4 1005 93 10000 6.2 310 01:23 07.03.2020
1771 Rain 4 1004 93 10000 5.1 310 00:38 07.03.2020
1772 Clouds 4 1004 93 10000 5.1 310 00:19 07.03.2020
1773 Clouds 4 1003 93 10000 5.1 310 23:43 06.03.2020
1774 Clouds 4 1002 93 10000 4.6 310 23:24 06.03.2020
1775 Rain 4 1002 93 10000 5.7 310 22:47 06.03.2020
1776 Rain 4 1001 93 6000 5.1 310 22:21 06.03.2020
1777 Rain 4 1001 93 5000 5.1 310 21:50 06.03.2020
1778 Drizzle 3 1001 93 6000 4.1 330 21:21 06.03.2020
1779 Rain 4 1000 93 5000 4.6 300 20:56 06.03.2020
1780 Drizzle 3 1000 93 6000 4.6 320 20:36 06.03.2020
1781 Rain 3 999 93 5000 3.6 280 20:18 06.03.2020
1782 Rain 3 999 93 9000 3.1 290 19:43 06.03.2020
1783 Rain 3 998 93 10000 3.1 300 19:24 06.03.2020
1784 Rain 3 998 100 10000 2.1 300 18:43 06.03.2020
1785 Rain 3 997 100 10000 3.1 310 18:21 06.03.2020
1786 Rain 3 996 100 10000 3.1 310 17:57 06.03.2020
1787 Rain 3 996 100 10000 3.1 310 17:39 06.03.2020
1788 Rain 3 996 100 9000 2.6 320 17:21 06.03.2020
1789 Rain 4 995 93 9000 3.6 330 16:56 06.03.2020
1790 Rain 4 994 93 10000 3.6 340 16:37 06.03.2020
1791 Rain 4 994 93 10000 3.6 340 16:18 06.03.2020
1792 Rain 4 994 93 10000 5.1 330 15:42 06.03.2020
1793 Rain 5 993 93 10000 4.6 330 15:23 06.03.2020
1794 Rain 5 993 100 9000 4.6 340 14:41 06.03.2020
1795 Rain 5 992 93 7000 3.6 360 14:23 06.03.2020
1796 Rain 5 992 93 7000 3.6 360 14:23 06.03.2020
1797 Drizzle 5 992 100 4000 4.1 10 13:57 06.03.2020
1798 Drizzle 5 992 100 4000 4.1 10 13:39 06.03.2020
1799 Rain 5 991 93 10000 4.1 40 13:19 06.03.2020
1800 Rain 5 991 100 10000 3.6 50 12:54 06.03.2020
1801 Drizzle 5 991 93 4500 4.1 40 12:36 06.03.2020
1802 Drizzle 5 991 93 4500 4.1 40 12:18 06.03.2020
1803 Rain 5 990 93 9000 4.6 60 11:42 06.03.2020
1804 Rain 5 990 93 9000 4.6 60 11:20 06.03.2020
1805 Rain 5 989 93 5000 1.5 20 10:56 06.03.2020
1806 Drizzle 5 989 93 4700 4.6 60 10:36 06.03.2020
1807 Rain 5 989 100 8000 5.1 70 10:18 06.03.2020
1808 Drizzle 5 988 100 4000 4.1 70 09:41 06.03.2020
1809 Drizzle 5 988 100 4000 4.6 70 09:23 06.03.2020
1810 Drizzle 4 988 100 2600 6.2 70 08:55 06.03.2020
1811 Drizzle 4 988 100 1600 4.6 80 08:36 06.03.2020
1812 Drizzle 5 988 100 6000 6.2 70 08:18 06.03.2020
1813 Drizzle 4 988 100 8000 6.2 80 07:41 06.03.2020
1814 Drizzle 4 988 100 5000 6.7 80 07:21 06.03.2020
1815 Clouds 4 987 93 8000 6.7 80 06:42 06.03.2020
1816 Clouds 4 987 93 10000 6.7 80 05:59 06.03.2020
1817 Rain 4 987 93 8000 5.1 80 05:37 06.03.2020
1818 Drizzle 4 987 93 8000 5.1 90 05:18 06.03.2020
1819 Rain 4 987 93 10000 5.7 70 04:25 06.03.2020
1820 Rain 5 989 86 10000 6.7 100 01:43 06.03.2020
1821 Rain 5 989 86 10000 5.1 100 01:25 06.03.2020
1822 Rain 5 990 75 10000 5.7 100 00:48 06.03.2020
1823 Rain 6 990 65 10000 7.2 100 00:20 06.03.2020
1824 Clouds 6 990 65 10000 5.7 100 23:43 05.03.2020
1825 Clouds 7 990 70 10000 5.7 110 23:24 05.03.2020
1826 Clouds 7 990 65 10000 6.2 100 22:55 05.03.2020
1827 Clouds 7 990 70 10000 7.7 110 22:36 05.03.2020
1828 Clouds 7 991 65 10000 6.7 100 22:18 05.03.2020
1829 Clouds 7 991 65 10000 6.2 100 21:54 05.03.2020
1830 Clouds 7 991 61 10000 6.2 110 21:36 05.03.2020
1831 Clouds 7 992 61 10000 7.2 100 21:18 05.03.2020
1832 Clouds 7 992 61 10000 7.2 90 20:42 05.03.2020
1833 Clouds 8 993 65 10000 6.7 90 20:20 05.03.2020
1834 Clouds 8 993 61 10000 6.2 100 19:59 05.03.2020
1835 Clouds 8 993 65 10000 4.6 100 19:39 05.03.2020
1836 Clouds 8 994 65 10000 5.7 90 19:21 05.03.2020
1837 Clouds 8 994 65 10000 5.1 90 18:58 05.03.2020
1838 Clouds 8 993 65 10000 5.1 90 18:37 05.03.2020
1839 Clouds 8 994 65 10000 5.7 90 18:18 05.03.2020
1840 Clouds 8 994 65 10000 6.2 90 17:55 05.03.2020
1841 Clouds 8 994 65 10000 6.2 90 17:37 05.03.2020
1842 Clouds 8 994 70 10000 4.6 110 17:18 05.03.2020
1843 Clouds 8 995 70 10000 3.6 100 16:41 05.03.2020
1844 Clouds 8 996 65 10000 4.1 120 16:22 05.03.2020
1845 Clouds 8 996 65 10000 4.1 120 15:54 05.03.2020
1846 Clouds 8 996 65 10000 6.2 130 15:36 05.03.2020
1847 Clouds 8 997 65 10000 4.6 120 15:18 05.03.2020
1848 Clouds 8 997 65 10000 4.1 120 14:41 05.03.2020
1849 Clouds 8 998 65 10000 4.1 120 14:22 05.03.2020
1850 Clouds 8 998 65 10000 3.6 120 13:57 05.03.2020
1851 Clouds 8 998 65 10000 3.6 120 13:39 05.03.2020
1852 Clouds 8 999 65 10000 3.6 120 13:20 05.03.2020
1853 Clouds 8 999 65 10000 4.6 120 12:43 05.03.2020
1854 Clouds 7 1000 70 10000 4.1 120 12:21 05.03.2020
1855 Clouds 8 1001 65 10000 4.1 130 11:58 05.03.2020
1856 Clouds 7 1001 65 10000 4.1 130 11:39 05.03.2020
1857 Clouds 7 1001 70 10000 3.6 140 11:20 05.03.2020
1858 Clouds 6 1002 75 10000 3.6 140 10:58 05.03.2020
1859 Clouds 6 1002 75 10000 3.6 140 10:40 05.03.2020
1860 Clouds 5 1002 75 10000 3.1 130 10:21 05.03.2020
1861 Clouds 5 1003 80 10000 3.6 140 09:59 05.03.2020
1862 Clouds 5 1003 80 10000 3.6 140 09:40 05.03.2020
1863 Clouds 4 1003 86 10000 4.1 170 09:21 05.03.2020
1864 Rain 3 1003 80 10000 3.1 160 08:43 05.03.2020
1865 Clouds 3 1004 86 10000 2.6 150 08:24 05.03.2020
1866 Clouds 2 1004 86 10000 2.1 140 07:44 05.03.2020
1867 Clouds 2 1004 86 10000 2.6 150 07:22 05.03.2020
1868 Clouds 2 1004 93 10000 2.1 140 06:45 05.03.2020
1869 Clouds 2 1004 93 10000 2.1 140 06:45 05.03.2020
1870 Clouds 2 1005 86 10000 2.1 150 06:20 05.03.2020
1871 Clouds 2 1005 93 10000 3.1 170 05:36 05.03.2020
1872 Clouds 2 1006 86 10000 1.5 140 04:25 05.03.2020
1873 Clouds 2 1006 86 10000 2.6 150 03:58 05.03.2020
1874 Clouds 2 1007 86 10000 1 0 02:41 05.03.2020
1875 Clouds 2 1008 86 10000 0.5 0 01:28 05.03.2020
1876 Clouds 2 1008 93 10000 1 150 00:50 05.03.2020
1877 Clouds 2 1008 93 10000 1 0 23:57 04.03.2020
1878 Clouds 2 1008 93 10000 1 0 23:39 04.03.2020
1879 Clouds 2 1009 93 10000 2.1 170 23:21 04.03.2020
1880 Clouds 3 1009 86 10000 2.1 160 22:56 04.03.2020
1881 Clouds 3 1009 86 10000 2.1 160 22:37 04.03.2020
1882 Clouds 3 1009 93 10000 0.5 60 22:18 04.03.2020
1883 Clouds 3 1009 86 10000 1 0 21:55 04.03.2020
1884 Clouds 3 1009 100 10000 3.1 190 21:37 04.03.2020
1885 Clouds 4 1009 86 10000 1 150 21:18 04.03.2020
1886 Clouds 4 1009 93 10000 1.5 160 20:40 04.03.2020
1887 Clouds 4 1009 93 10000 1.5 160 20:40 04.03.2020
1888 Clouds 4 1009 93 10000 1 90 20:21 04.03.2020
1889 Clouds 4 1009 93 10000 0.5 0 19:57 04.03.2020
1890 Clouds 4 1009 93 10000 0.5 0 19:38 04.03.2020
1891 Clouds 4 1009 93 10000 1 0 19:20 04.03.2020
1892 Clouds 5 1009 93 10000 1.5 200 18:42 04.03.2020
1893 Rain 5 1009 86 10000 1.5 210 18:23 04.03.2020
1894 Clouds 6 1009 86 10000 2.1 230 17:59 04.03.2020
1895 Clouds 6 1009 86 10000 2.1 230 17:39 04.03.2020
1896 Rain 6 1009 81 8000 4.1 230 17:20 04.03.2020
1897 Clouds 6 1009 86 10000 3.1 240 16:56 04.03.2020
1898 Clouds 6 1009 86 10000 3.1 240 16:37 04.03.2020
1899 Clouds 7 1009 75 10000 2.6 220 16:19 04.03.2020
1900 Rain 7 1009 75 4000 2.6 260 15:42 04.03.2020
1901 Clouds 7 1009 70 10000 4.6 240 15:24 04.03.2020
1902 Clouds 7 1009 75 10000 5.1 250 14:58 04.03.2020
1903 Clouds 7 1009 75 10000 5.1 250 14:39 04.03.2020
1904 Clouds 7 1009 75 10000 5.1 240 14:19 04.03.2020
1905 Clouds 7 1009 81 10000 4.6 240 13:58 04.03.2020
1906 Clouds 6 1009 81 10000 4.1 260 13:39 04.03.2020
1907 Clouds 6 1009 81 10000 4.6 230 13:20 04.03.2020
1908 Clouds 5 1009 86 10000 5.1 230 12:45 04.03.2020
1909 Clouds 6 1009 81 10000 4.6 220 12:27 04.03.2020
1910 Clouds 5 1009 86 10000 4.6 240 11:59 04.03.2020
1911 Clouds 5 1009 86 10000 4.6 240 11:41 04.03.2020
1912 Clouds 5 1009 86 10000 4.6 240 11:23 04.03.2020
1913 Clouds 5 1009 80 10000 5.1 240 10:57 04.03.2020
1914 Rain 5 1009 80 6000 5.1 250 10:39 04.03.2020
1915 Clouds 5 1009 80 10000 5.1 240 10:18 04.03.2020
1916 Clouds 4 1009 80 10000 4.1 230 09:42 04.03.2020
1917 Clouds 4 1009 86 10000 2.6 250 09:21 04.03.2020
1918 Clouds 3 1009 86 10000 2.6 240 08:47 04.03.2020
1919 Clouds 3 1009 86 10000 2.1 230 08:27 04.03.2020
1920 Clouds 3 1009 86 10000 2.6 220 07:56 04.03.2020
1921 Clouds 3 1008 80 10000 3.6 230 07:37 04.03.2020
1922 Clouds 3 1009 86 10000 2.6 220 07:18 04.03.2020
1923 Clouds 2 1008 86 10000 3.1 210 06:43 04.03.2020
1924 Clouds 2 1008 86 10000 2.6 200 06:23 04.03.2020
1925 Clouds 2 1008 87 10000 1.5 180 05:48 04.03.2020
1926 Clear 2 1008 88 10000 2.1 210 04:30 04.03.2020
1927 Clouds 2 1008 88 10000 2.1 200 03:42 04.03.2020
1928 Clouds 2 1008 88 10000 1.5 230 03:24 04.03.2020
1929 Clouds 2 1008 88 10000 2.6 240 02:55 04.03.2020
1930 Clouds 2 1007 83 0 1.5 260 02:20 04.03.2020
1931 Clouds 1 1007 83 10000 2.6 230 01:52 04.03.2020
1932 Clouds 2 1007 93 10000 2.1 220 00:50 04.03.2020
1933 Clouds 2 1007 93 10000 2.1 220 00:25 04.03.2020
1934 Clouds 2 1006 86 10000 2.1 210 23:46 03.03.2020
1935 Clouds 3 1006 86 10000 1.5 230 23:27 03.03.2020
1936 Clouds 3 1006 86 10000 2.6 230 22:58 03.03.2020
1937 Clouds 3 1006 86 10000 2.6 230 22:58 03.03.2020
1938 Clouds 3 1006 80 10000 3.1 260 22:40 03.03.2020
1939 Clouds 3 1006 86 10000 2.1 240 22:19 03.03.2020
1940 Rain 4 1006 80 10000 2.6 260 21:57 03.03.2020
1941 Rain 4 1006 80 10000 2.6 260 21:38 03.03.2020
1942 Rain 4 1005 80 10000 4.6 290 21:19 03.03.2020
1943 Rain 4 1005 86 10000 3.1 310 20:41 03.03.2020
1944 Clouds 4 1005 80 10000 3.6 310 20:21 03.03.2020
1945 Clouds 4 1005 80 10000 2.6 290 19:59 03.03.2020
1946 Clouds 5 1005 75 10000 5.7 340 19:37 03.03.2020
1947 Clouds 5 1004 80 10000 0.5 0 19:19 03.03.2020
1948 Clouds 5 1004 75 10000 1.5 260 18:59 03.03.2020
1949 Clouds 5 1004 76 10000 1.5 260 18:41 03.03.2020
1950 Rain 6 1003 76 10000 3.1 260 18:21 03.03.2020
1951 Rain 7 1002 75 10000 4.1 270 17:59 03.03.2020
1952 Rain 7 1002 75 10000 4.1 270 17:39 03.03.2020
1953 Rain 7 1002 75 10000 4.1 270 17:39 03.03.2020
1954 Rain 7 1002 76 10000 3.6 280 17:21 03.03.2020
1955 Rain 8 1002 52 10000 5.7 280 16:57 03.03.2020
1956 Clouds 8 1002 52 10000 5.1 300 16:37 03.03.2020
1957 Rain 8 1001 61 10000 4.6 290 16:19 03.03.2020
1958 Rain 8 1001 61 10000 5.7 300 15:44 03.03.2020
1959 Rain 8 1001 57 10000 6.7 260 15:22 03.03.2020
1960 Clouds 8 1000 55 10000 6.7 270 14:57 03.03.2020
1961 Clouds 8 1000 57 10000 6.2 300 14:37 03.03.2020
1962 Clouds 8 1000 57 10000 6.2 280 14:19 03.03.2020
1963 Clouds 8 1000 65 10000 5.7 270 13:55 03.03.2020
1964 Clouds 8 1000 57 10000 6.2 310 13:37 03.03.2020
1965 Clouds 8 1000 70 10000 5.7 270 13:18 03.03.2020
1966 Clouds 8 1000 70 10000 5.7 270 13:18 03.03.2020
1967 Clouds 8 1000 70 10000 5.1 270 12:42 03.03.2020
1968 Clouds 7 1000 75 10000 5.7 270 12:23 03.03.2020
1969 Clouds 7 1000 75 10000 5.7 270 12:23 03.03.2020
1970 Clouds 7 1000 75 10000 4.6 280 11:55 03.03.2020
1971 Clouds 7 1000 75 10000 5.1 290 11:37 03.03.2020
1972 Clouds 6 1000 87 10000 6.2 270 11:18 03.03.2020
1973 Clouds 6 999 81 10000 4.6 280 10:54 03.03.2020
1974 Clouds 6 999 81 10000 6.2 290 10:36 03.03.2020
1975 Clouds 5 999 87 10000 4.1 270 10:18 03.03.2020
1976 Clouds 5 999 87 10000 4.1 270 10:18 03.03.2020
1977 Clouds 5 999 86 10000 5.1 270 09:41 03.03.2020
1978 Clouds 5 998 86 10000 5.7 270 09:21 03.03.2020
1979 Rain 5 998 93 10000 5.7 270 08:42 03.03.2020
1980 Rain 5 998 93 10000 5.7 270 08:22 03.03.2020
1981 Rain 5 997 93 9000 5.7 280 07:56 03.03.2020
1982 Rain 5 997 93 9000 5.7 280 07:56 03.03.2020
1983 Rain 5 997 93 9000 5.7 280 07:56 03.03.2020
1984 Rain 5 997 93 9000 5.7 280 07:38 03.03.2020
1985 Rain 5 997 100 9000 4.1 280 07:18 03.03.2020
1986 Rain 5 996 93 9000 3.6 280 06:40 03.03.2020
1987 Rain 5 996 93 9000 3.6 270 06:21 03.03.2020
1988 Rain 5 995 93 4000 1.5 240 05:43 03.03.2020
1989 Rain 5 995 93 8000 2.6 230 04:56 03.03.2020
1990 Rain 6 994 93 10000 1 0 03:21 03.03.2020
1991 Rain 6 993 75 10000 2.1 140 01:32 03.03.2020
1992 Rain 6 993 75 10000 1 0 00:42 03.03.2020
1993 Rain 6 992 75 10000 2.1 150 00:23 03.03.2020
1994 Clouds 6 992 70 10000 2.1 130 23:51 02.03.2020
1995 Rain 7 992 70 10000 2.1 120 23:23 02.03.2020
1996 Clouds 7 992 70 10000 2.1 110 22:58 02.03.2020
1997 Clouds 7 992 70 10000 2.1 110 22:38 02.03.2020
1998 Clouds 7 992 75 10000 2.6 90 22:20 02.03.2020
1999 Clouds 7 992 75 10000 1.5 100 21:56 02.03.2020
2000 Clouds 7 992 75 10000 1.5 100 21:56 02.03.2020
2001 Clouds 7 992 75 10000 2.6 110 21:38 02.03.2020
2002 Clouds 7 992 75 10000 2.6 110 21:19 02.03.2020
2003 Clouds 7 992 70 10000 2.1 110 20:55 02.03.2020
2004 Clouds 7 991 65 10000 2.6 130 20:37 02.03.2020
2005 Clouds 7 991 70 10000 2.6 100 20:18 02.03.2020
2006 Clouds 8 991 65 10000 3.1 110 19:40 02.03.2020
2007 Clouds 8 991 61 10000 2.6 110 19:22 02.03.2020
2008 Clouds 8 991 61 10000 2.6 120 18:57 02.03.2020
2009 Clouds 8 991 61 10000 2.6 120 18:38 02.03.2020
2010 Clouds 8 991 61 10000 2.6 130 18:18 02.03.2020
2011 Clouds 9 990 57 10000 3.6 130 17:56 02.03.2020
2012 Clouds 9 990 57 10000 3.6 130 17:38 02.03.2020
2013 Clouds 9 990 61 10000 4.1 130 17:20 02.03.2020
2014 Clouds 9 990 57 10000 4.6 120 16:43 02.03.2020
2015 Clouds 10 990 57 10000 4.1 130 16:24 02.03.2020
2016 Clouds 10 990 61 10000 4.1 140 15:57 02.03.2020
2017 Clouds 10 990 61 10000 4.1 140 15:38 02.03.2020
2018 Clouds 10 990 61 10000 3.1 130 15:18 02.03.2020
2019 Clouds 10 991 57 10000 4.1 160 14:39 02.03.2020
2020 Clouds 9 991 61 10000 3.1 140 14:19 02.03.2020
2021 Clouds 9 991 65 10000 4.1 140 13:55 02.03.2020
2022 Clouds 9 991 57 10000 5.1 160 13:36 02.03.2020
2023 Clouds 9 992 66 10000 5.1 160 13:18 02.03.2020
2024 Clouds 9 993 65 10000 4.1 160 12:41 02.03.2020
2025 Clouds 8 993 66 10000 4.6 170 12:19 02.03.2020
2026 Clouds 8 993 65 10000 4.6 180 11:39 02.03.2020
2027 Clouds 8 993 70 10000 5.1 190 11:20 02.03.2020
2028 Clouds 7 993 70 10000 5.1 210 10:57 02.03.2020
2029 Clouds 7 993 70 10000 5.7 220 10:38 02.03.2020
2030 Clouds 6 993 75 10000 4.1 220 10:19 02.03.2020
2031 Clouds 6 993 81 10000 3.6 210 09:49 02.03.2020
2032 Clouds 5 993 81 10000 3.1 220 09:31 02.03.2020
2033 Clouds 5 993 86 10000 2.6 200 08:49 02.03.2020
2034 Clouds 4 993 86 10000 2.6 190 08:23 02.03.2020
2035 Clouds 4 993 86 10000 2.6 220 07:52 02.03.2020
2036 Clouds 4 993 93 10000 2.6 210 07:32 02.03.2020
2037 Clouds 4 993 93 10000 4.1 240 06:51 02.03.2020
2038 Clouds 4 993 86 10000 4.6 240 06:26 02.03.2020
2039 Clouds 5 992 93 10000 3.1 250 05:26 02.03.2020
2040 Clouds 5 991 93 10000 2.6 250 03:57 02.03.2020
2041 Rain 5 991 93 10000 2.1 270 02:57 02.03.2020
2042 Rain 5 991 93 10000 1 0 02:30 02.03.2020
2043 Rain 5 991 93 10000 2.6 220 01:36 02.03.2020
2044 Rain 5 991 93 10000 3.1 170 01:18 02.03.2020
2045 Rain 6 991 70 10000 3.1 180 00:22 02.03.2020
2046 Rain 6 992 70 10000 2.1 180 23:42 01.03.2020
2047 Rain 6 992 65 10000 1.5 150 23:23 01.03.2020
2048 Rain 6 992 65 10000 2.6 170 22:45 01.03.2020
2049 Clouds 6 992 65 10000 2.1 160 22:21 01.03.2020
2050 Clouds 6 992 74 10000 2.1 160 21:59 01.03.2020
2051 Clouds 6 992 74 10000 2.1 160 21:59 01.03.2020
2052 Clouds 6 992 74 10000 2.6 170 21:40 01.03.2020
2053 Clouds 6 992 74 10000 2.1 160 21:22 01.03.2020
2054 Clouds 6 992 74 10000 2.6 160 20:55 01.03.2020
2055 Clouds 6 992 74 10000 1.5 170 20:37 01.03.2020
2056 Clouds 7 993 68 10000 2.1 170 20:19 01.03.2020
2057 Clouds 7 993 68 10000 2.1 190 19:41 01.03.2020
2058 Clouds 7 993 68 10000 2.6 190 19:22 01.03.2020
2059 Clouds 8 993 68 10000 2.6 200 18:57 01.03.2020
2060 Clouds 8 993 68 10000 2.6 200 18:39 01.03.2020
2061 Clouds 8 993 61 10000 4.1 210 18:19 01.03.2020
2062 Clouds 9 993 57 10000 4.1 220 17:55 01.03.2020
2063 Clouds 9 992 68 10000 5.1 240 17:37 01.03.2020
2064 Clouds 9 993 57 10000 5.1 230 17:18 01.03.2020
2065 Clouds 9 993 57 10000 6.7 230 16:40 01.03.2020
2066 Clouds 9 993 57 10000 7.2 230 16:21 01.03.2020
2067 Clouds 9 993 57 10000 6.7 220 15:59 01.03.2020
2068 Clouds 9 993 57 10000 6.7 220 15:41 01.03.2020
2069 Clouds 9 993 57 10000 9.3 230 15:23 01.03.2020
2070 Clouds 9 993 57 10000 7.2 230 14:58 01.03.2020
2071 Clouds 9 993 53 10000 7.2 250 14:39 01.03.2020
2072 Clouds 9 993 57 10000 6.7 240 14:21 01.03.2020
2073 Clouds 9 993 57 10000 7.7 230 13:59 01.03.2020
2074 Clouds 9 993 57 10000 7.7 230 13:41 01.03.2020
2075 Clouds 9 993 65 10000 6.7 230 13:20 01.03.2020
2076 Clouds 9 993 61 10000 6.2 230 12:56 01.03.2020
2077 Clouds 8 993 61 10000 8.7 250 12:38 01.03.2020
2078 Clouds 8 993 61 10000 7.7 230 12:19 01.03.2020
2079 Clouds 8 993 61 10000 8.7 230 11:40 01.03.2020
2080 Clouds 8 993 61 10000 8.2 230 11:20 01.03.2020
2081 Clouds 8 993 61 10000 8.7 220 10:56 01.03.2020
2082 Clouds 8 993 61 10000 8.7 220 10:37 01.03.2020
2083 Clouds 8 993 61 10000 8.7 220 10:37 01.03.2020
2084 Clouds 8 993 61 10000 8.7 220 10:37 01.03.2020
2085 Clouds 8 993 61 10000 8.7 220 10:37 01.03.2020
2086 Clouds 7 993 61 10000 7.2 220 10:18 01.03.2020
2087 Clouds 7 993 65 10000 7.2 220 09:45 01.03.2020
2088 Clouds 7 993 65 10000 6.2 220 09:26 01.03.2020
2089 Clouds 6 993 67 10000 6.2 210 08:51 01.03.2020
2090 Clouds 6 993 67 10000 7.2 230 08:29 01.03.2020
2091 Clouds 6 993 79 10000 6.2 220 07:59 01.03.2020
2092 Clouds 6 993 79 10000 6.2 220 07:40 01.03.2020
2093 Clouds 5 993 79 10000 7.2 220 07:22 01.03.2020
2094 Clouds 5 993 79 10000 7.7 220 06:43 01.03.2020
2095 Clouds 5 993 79 10000 6.7 220 06:21 01.03.2020
2096 Clouds 5 994 75 10000 6.7 220 03:40 01.03.2020
2097 Clouds 6 994 79 10000 7.2 220 02:23 01.03.2020
2098 Clouds 6 993 72 10000 7.7 230 01:46 01.03.2020
2099 Clouds 6 993 71 10000 7.2 230 00:59 01.03.2020
2100 Clouds 6 992 71 10000 7.7 240 00:39 01.03.2020
2101 Clouds 6 993 70 10000 7.2 220 00:18 01.03.2020
2102 Clouds 6 993 65 10000 6.7 220 23:41 29.02.2020
2103 Clouds 7 993 70 10000 6.2 230 23:22 29.02.2020
2104 Clouds 7 993 70 10000 5.1 230 22:39 29.02.2020
2105 Clouds 7 993 70 10000 4.1 230 22:21 29.02.2020
2106 Clouds 7 992 65 10000 6.7 250 21:41 29.02.2020
2107 Clouds 7 992 65 10000 8.7 250 21:21 29.02.2020
2108 Clouds 7 991 70 10000 4.6 250 20:42 29.02.2020
2109 Clouds 8 991 65 10000 6.2 250 20:21 29.02.2020
2110 Clouds 8 990 75 10000 8.2 260 19:56 29.02.2020
2111 Clouds 8 990 70 10000 8.7 260 19:37 29.02.2020
2112 Rain 9 989 70 10000 7.7 250 19:19 29.02.2020
2113 Rain 9 989 81 10000 10.3 250 18:42 29.02.2020
2114 Rain 10 988 76 8000 10.8 260 18:23 29.02.2020
2115 Rain 12 986 58 10000 9.8 200 17:57 29.02.2020
2116 Rain 12 986 58 10000 9.8 200 17:39 29.02.2020
2117 Rain 12 986 58 10000 7.7 190 17:39 29.02.2020
2118 Clouds 13 986 58 10000 7.7 190 17:19 29.02.2020
2119 Clouds 13 987 58 10000 7.2 190 16:45 29.02.2020
2120 Clouds 13 988 58 10000 8.7 200 16:20 29.02.2020
2121 Clouds 13 988 58 10000 8.7 200 15:58 29.02.2020
2122 Clouds 13 988 58 10000 8.7 200 15:38 29.02.2020
2123 Clouds 14 988 58 10000 8.7 190 15:20 29.02.2020
2124 Clouds 13 990 62 10000 6.2 170 14:40 29.02.2020
2125 Clouds 13 990 62 10000 6.2 170 14:22 29.02.2020
2126 Clouds 13 990 66 10000 6.2 140 13:46 29.02.2020
2127 Clouds 12 991 66 10000 6.7 160 13:28 29.02.2020
2128 Clouds 12 992 66 10000 4.6 160 12:58 29.02.2020
2129 Clouds 12 992 66 10000 4.6 160 12:38 29.02.2020
2130 Clouds 11 993 66 10000 6.2 190 12:20 29.02.2020
2131 Clouds 11 994 71 10000 6.2 180 11:45 29.02.2020
2132 Clouds 10 994 76 10000 5.1 190 11:27 29.02.2020
2133 Clouds 10 994 76 10000 5.7 190 10:55 29.02.2020
2134 Clouds 9 993 76 10000 6.2 210 10:36 29.02.2020
2135 Clouds 9 994 81 10000 5.1 200 10:18 29.02.2020
2136 Clouds 8 995 81 10000 5.7 200 09:46 29.02.2020
2137 Clouds 8 995 81 10000 5.7 200 09:18 29.02.2020
2138 Clouds 7 995 87 10000 5.1 200 08:40 29.02.2020
2139 Clouds 7 995 87 10000 5.7 200 08:21 29.02.2020
2140 Clouds 7 996 81 10000 4.6 190 07:53 29.02.2020
2141 Clouds 7 996 87 10000 5.1 190 07:25 29.02.2020
2142 Clouds 7 996 87 10000 4.1 190 06:56 29.02.2020
2143 Clouds 6 997 87 10000 4.6 190 06:29 29.02.2020
2144 Clouds 6 997 93 10000 4.6 190 05:52 29.02.2020
2145 Clouds 5 997 87 10000 6.7 220 05:32 29.02.2020
2146 Rain 5 999 93 10000 4.6 190 04:18 29.02.2020
2147 Rain 4 1000 93 10000 5.1 190 03:24 29.02.2020
2148 Rain 3 1000 93 10000 4.6 180 02:59 29.02.2020
2149 Snow 3 1002 100 10000 3.6 160 01:59 29.02.2020
2150 Snow 2 1003 100 10000 5.7 160 00:52 29.02.2020
2151 Snow 2 1004 90 3800 4.6 140 00:28 29.02.2020
2152 Rain 2 1005 93 10000 5.7 150 23:41 28.02.2020
2153 Rain 3 1006 86 10000 6.7 170 23:23 28.02.2020
2154 Rain 2 1006 86 10000 6.7 170 23:23 28.02.2020
2155 Rain 3 1006 86 10000 6.7 170 23:23 28.02.2020
2156 Rain 3 1008 80 10000 7.7 210 22:43 28.02.2020
2157 Clouds 4 1008 65 10000 5.1 190 22:23 28.02.2020
2158 Clouds 5 1008 65 10000 6.2 190 21:43 28.02.2020
2159 Rain 5 1008 65 10000 5.7 180 21:22 28.02.2020
2160 Rain 5 1009 65 10000 4.1 180 20:59 28.02.2020
2161 Rain 5 1009 65 10000 4.1 180 20:39 28.02.2020
2162 Clouds 5 1009 65 10000 4.6 170 20:20 28.02.2020
2163 Clouds 5 1010 65 10000 3.6 160 19:57 28.02.2020
2164 Clouds 5 1010 65 10000 3.6 160 19:38 28.02.2020
2165 Clouds 5 1011 65 10000 4.1 180 19:20 28.02.2020
2166 Clouds 5 1012 65 10000 3.6 190 18:47 28.02.2020
2167 Clouds 5 1011 60 10000 5.1 220 18:27 28.02.2020
2168 Clouds 5 1013 75 10000 3.6 210 17:57 28.02.2020
2169 Clouds 6 1013 75 10000 3.6 210 17:38 28.02.2020
2170 Clouds 6 1013 65 10000 4.6 230 17:20 28.02.2020
2171 Clouds 6 1013 60 10000 5.1 250 16:41 28.02.2020
2172 Clouds 7 1014 65 10000 5.7 260 16:20 28.02.2020
2173 Clouds 7 1014 56 10000 6.7 240 15:57 28.02.2020
2174 Clouds 7 1014 65 10000 7.2 240 15:38 28.02.2020
2175 Clouds 7 1014 65 10000 7.2 240 15:19 28.02.2020
2176 Clouds 7 1014 65 10000 5.7 260 14:46 28.02.2020
2177 Clouds 7 1014 64 10000 6.2 250 14:20 28.02.2020
2178 Clouds 7 1014 65 10000 7.2 250 13:59 28.02.2020
2179 Clouds 7 1014 65 10000 7.2 250 13:41 28.02.2020
2180 Clouds 7 1015 65 10000 7.2 250 13:20 28.02.2020
2181 Clouds 7 1015 65 10000 7.2 250 13:20 28.02.2020
2182 Clouds 6 1015 70 10000 6.7 260 12:46 28.02.2020
2183 Clouds 6 1015 75 10000 6.2 260 12:28 28.02.2020
2184 Clouds 5 1015 75 10000 5.7 270 11:59 28.02.2020
2185 Clouds 6 1015 75 10000 5.7 270 11:40 28.02.2020
2186 Clouds 5 1015 80 10000 8.2 260 11:21 28.02.2020
2187 Clouds 4 1014 80 10000 7.7 270 10:43 28.02.2020
2188 Clouds 4 1014 86 10000 6.7 260 10:24 28.02.2020
2189 Clouds 4 1014 80 10000 6.2 250 09:59 28.02.2020
2190 Clouds 4 1014 80 10000 6.2 250 09:40 28.02.2020
2191 Clouds 3 1013 86 10000 5.1 260 09:18 28.02.2020
2192 Rain 3 1013 86 10000 5.7 260 08:42 28.02.2020
2193 Rain 3 1012 86 10000 5.7 260 08:20 28.02.2020
2194 Clouds 2 1012 86 10000 6.2 260 07:45 28.02.2020
2195 Clouds 2 1011 85 10000 6.2 260 07:25 28.02.2020
2196 Clouds 2 1011 85 10000 6.2 270 06:51 28.02.2020
2197 Clouds 2 1010 93 10000 6.7 270 06:30 28.02.2020
2198 Clouds 2 1009 93 10000 6.2 270 05:29 28.02.2020
2199 Clouds 2 1008 93 10000 6.7 270 04:31 28.02.2020
2200 Clouds 2 1007 93 10000 5.7 270 02:48 28.02.2020
2201 Rain 2 1006 93 8000 5.1 260 02:28 28.02.2020
2202 Rain 2 1006 93 10000 4.6 270 01:38 28.02.2020
2203 Rain 2 1004 93 10000 3.1 280 00:31 28.02.2020
2204 Snow 2 1004 95 6000 0.5 270 23:45 27.02.2020
2205 Snow 2 1004 71 3000 1.5 290 23:22 27.02.2020
2206 Clouds 2 1002 93 10000 4.1 310 22:56 27.02.2020
2207 Rain 2 1002 93 10000 2.6 310 22:37 27.02.2020
2208 Rain 2 1002 93 10000 4.1 310 22:19 27.02.2020
2209 Clouds 2 1001 93 10000 2.6 270 21:41 27.02.2020
2210 Clouds 2 1000 93 10000 2.6 270 21:22 27.02.2020
2211 Clouds 2 999 93 10000 2.6 320 20:58 27.02.2020
2212 Clouds 2 999 93 10000 2.6 320 20:40 27.02.2020
2213 Clouds 2 999 67 10000 3.6 330 20:21 27.02.2020
2214 Clouds 3 998 67 10000 2.6 320 19:56 27.02.2020
2215 Clouds 3 998 67 10000 2.6 320 19:38 27.02.2020
2216 Clouds 3 998 67 10000 3.1 290 19:19 27.02.2020
2217 Clouds 3 997 67 10000 2.1 290 18:42 27.02.2020
2218 Rain 3 996 67 10000 1.5 50 18:24 27.02.2020
2219 Rain 4 996 69 10000 1.5 120 17:58 27.02.2020
2220 Rain 4 996 69 10000 1.5 120 17:40 27.02.2020
2221 Rain 4 996 59 10000 3.1 120 17:19 27.02.2020
2222 Clouds 5 996 59 10000 2.1 110 16:57 27.02.2020
2223 Clouds 5 996 59 10000 2.1 110 16:38 27.02.2020
2224 Clouds 5 997 65 10000 2.1 120 16:18 27.02.2020
2225 Clouds 5 997 59 10000 2.1 140 15:56 27.02.2020
2226 Clouds 6 997 59 10000 3.1 130 15:37 27.02.2020
2227 Clouds 6 997 59 10000 2.6 140 15:18 27.02.2020
2228 Clouds 6 998 59 10000 2.1 150 14:43 27.02.2020
2229 Clouds 5 998 70 10000 2.6 190 14:24 27.02.2020
2230 Clouds 5 999 63 10000 2.6 190 13:58 27.02.2020
2231 Clouds 5 999 63 10000 2.6 190 13:40 27.02.2020
2232 Clouds 5 999 62 10000 3.1 200 13:20 27.02.2020
2233 Clouds 5 1000 75 10000 3.6 210 12:46 27.02.2020
2234 Clouds 5 1000 75 10000 3.6 200 12:25 27.02.2020
2235 Clouds 4 1001 62 10000 3.1 210 11:58 27.02.2020
2236 Clouds 4 1001 62 10000 5.1 240 11:38 27.02.2020
2237 Clouds 4 1001 81 10000 4.1 230 11:20 27.02.2020
2238 Clouds 4 1001 81 10000 5.1 240 10:43 27.02.2020
2239 Clouds 4 1002 81 10000 4.1 230 10:22 27.02.2020
2240 Clouds 3 1002 81 10000 3.6 240 09:47 27.02.2020
2241 Clouds 3 1002 86 10000 4.1 240 09:29 27.02.2020
2242 Clouds 3 1002 81 10000 4.1 250 08:57 27.02.2020
2243 Clouds 3 1002 81 10000 4.1 250 08:38 27.02.2020
2244 Clouds 3 1002 81 10000 3.6 250 08:38 27.02.2020
2245 Clouds 3 1002 92 10000 4.6 240 08:18 27.02.2020
2246 Clouds 3 1002 86 10000 4.6 250 07:43 27.02.2020
2247 Clouds 3 1002 86 10000 4.6 250 07:24 27.02.2020
2248 Clouds 3 1003 93 10000 4.1 240 06:31 27.02.2020
2249 Clouds 2 1003 93 10000 4.1 250 05:24 27.02.2020
2250 Clouds 3 1003 93 10000 5.1 260 03:21 27.02.2020
2251 Rain 3 1003 93 10000 5.1 260 01:39 27.02.2020
2252 Rain 3 1002 100 10000 4.1 270 00:43 27.02.2020
2253 Rain 3 1002 93 9000 4.1 270 00:19 27.02.2020
2254 Rain 3 1002 93 10000 5.7 280 23:38 26.02.2020
2255 Rain 3 1002 93 10000 5.1 260 23:18 26.02.2020
2256 Rain 3 1001 93 7000 3.6 250 22:55 26.02.2020
2257 Rain 3 1001 93 10000 4.6 280 22:37 26.02.2020
2258 Rain 3 1001 100 8000 4.6 300 22:18 26.02.2020
2259 Rain 3 1001 93 10000 4.6 280 21:39 26.02.2020
2260 Rain 3 1001 93 10000 5.1 260 21:20 26.02.2020
2261 Rain 3 1000 93 8000 3.6 270 20:56 26.02.2020
2262 Rain 3 1000 93 10000 4.6 260 20:38 26.02.2020
2263 Rain 3 1000 93 10000 6.2 280 20:19 26.02.2020
2264 Clouds 3 1000 93 10000 4.6 270 19:56 26.02.2020
2265 Rain 3 1000 86 10000 4.6 280 19:37 26.02.2020
2266 Clouds 3 999 93 10000 5.1 270 19:19 26.02.2020
2267 Rain 3 999 93 10000 4.6 270 18:56 26.02.2020
2268 Rain 3 998 86 10000 5.1 250 18:37 26.02.2020
2269 Rain 3 998 86 10000 5.1 250 18:18 26.02.2020
2270 Clouds 3 998 86 10000 5.1 270 17:40 26.02.2020
2271 Clouds 4 997 86 10000 4.6 260 17:19 26.02.2020
2272 Clouds 4 997 86 10000 4.6 280 16:56 26.02.2020
2273 Rain 3 997 86 10000 4.6 310 16:38 26.02.2020
2274 Rain 4 997 86 10000 4.6 310 16:20 26.02.2020
2275 Clouds 5 996 86 7000 5.7 270 15:44 26.02.2020
2276 Rain 5 996 80 6000 6.2 270 15:26 26.02.2020
2277 Clouds 5 996 75 10000 6.2 260 14:43 26.02.2020
2278 Clouds 5 995 80 10000 6.7 260 14:24 26.02.2020
2279 Clouds 5 995 80 10000 6.2 270 13:57 26.02.2020
2280 Clouds 4 995 80 10000 6.2 270 13:39 26.02.2020
2281 Clouds 4 995 80 10000 6.2 260 13:18 26.02.2020
2282 Clouds 4 994 86 10000 4.6 270 12:38 26.02.2020
2283 Clouds 3 994 86 10000 4.6 270 12:19 26.02.2020
2284 Clouds 3 993 93 10000 3.6 280 11:55 26.02.2020
2285 Clouds 3 993 93 8000 4.1 290 11:36 26.02.2020
2286 Clouds 3 993 93 8000 4.1 290 11:36 26.02.2020
2287 Clouds 3 993 93 10000 4.1 280 11:18 26.02.2020
2288 Clouds 3 993 100 10000 2.6 280 10:40 26.02.2020
2289 Rain 3 992 93 10000 2.1 280 10:21 26.02.2020
2290 Clouds 2 992 93 8000 1 0 09:44 26.02.2020
2291 Snow 2 992 93 10000 1.5 290 09:25 26.02.2020
2292 Clouds 2 991 93 6000 2.1 240 08:59 26.02.2020
2293 Snow 2 991 93 5000 3.23 273 08:37 26.02.2020
2294 Rain 2 991 93 8000 2.1 230 08:19 26.02.2020
2295 Snow 2 991 100 10000 1.5 280 07:43 26.02.2020
2296 Snow 2 991 100 10000 2.1 240 07:25 26.02.2020
2297 Snow 2 991 100 10000 3.1 230 06:52 26.02.2020
2298 Snow 2 990 97 3500 3.1 240 06:34 26.02.2020
2299 Clouds 2 990 93 10000 1.5 170 05:53 26.02.2020
2300 Clouds 2 990 93 10000 1.5 170 05:53 26.02.2020
2301 Rain 2 991 93 10000 4.1 220 05:24 26.02.2020
2302 Clouds 3 991 86 10000 2.1 200 04:34 26.02.2020
2303 Clouds 3 992 93 10000 1.5 270 02:28 26.02.2020
2304 Clouds 3 992 86 10000 4.6 230 01:45 26.02.2020
2305 Clouds 3 992 93 10000 3.6 220 00:48 26.02.2020
2306 Clouds 3 993 86 10000 3.6 230 00:24 26.02.2020
2307 Clouds 4 993 86 10000 3.1 230 23:45 25.02.2020
2308 Clouds 4 993 86 10000 3.6 240 23:27 25.02.2020
2309 Rain 4 993 80 6000 4.6 260 22:59 25.02.2020
2310 Rain 4 993 80 6000 4.6 260 22:41 25.02.2020
2311 Clouds 5 993 80 10000 3.6 240 22:19 25.02.2020
2312 Rain 5 993 80 10000 3.6 240 21:55 25.02.2020
2313 Clouds 5 993 75 10000 4.1 250 21:36 25.02.2020
2314 Clouds 6 994 75 10000 5.1 250 21:18 25.02.2020
2315 Clouds 6 994 75 10000 5.1 250 20:54 25.02.2020
2316 Clouds 5 994 80 10000 3.6 240 20:36 25.02.2020
2317 Clouds 5 994 80 10000 3.6 240 20:18 25.02.2020
2318 Clouds 5 995 80 10000 5.7 250 19:40 25.02.2020
2319 Clouds 5 995 80 10000 5.7 250 19:19 25.02.2020
2320 Rain 6 995 75 10000 7.2 250 18:42 25.02.2020
2321 Rain 6 995 80 10000 4.1 270 18:22 25.02.2020
2322 Rain 7 995 65 10000 8.7 270 17:59 25.02.2020
2323 Rain 7 995 65 10000 8.7 270 17:38 25.02.2020
2324 Clouds 8 994 55 10000 7.7 250 17:20 25.02.2020
2325 Clouds 8 995 55 10000 8.2 250 16:59 25.02.2020
2326 Clouds 8 995 55 10000 8.2 250 16:40 25.02.2020
2327 Clouds 8 995 61 10000 9.3 260 16:22 25.02.2020
2328 Clouds 8 995 61 10000 9.8 250 15:57 25.02.2020
2329 Clouds 8 995 55 10000 9.3 270 15:38 25.02.2020
2330 Clouds 8 995 61 10000 8.7 250 15:18 25.02.2020
2331 Clouds 8 995 61 10000 10.3 260 14:56 25.02.2020
2332 Clouds 8 995 55 10000 10.8 260 14:37 25.02.2020
2333 Clouds 8 995 55 10000 10.8 260 14:37 25.02.2020
2334 Clouds 8 996 65 10000 9.3 250 14:18 25.02.2020
2335 Clouds 8 996 65 10000 9.3 250 14:18 25.02.2020
2336 Clouds 8 996 65 10000 9.3 250 13:55 25.02.2020
2337 Clouds 8 996 65 10000 8.7 260 13:37 25.02.2020
2338 Clouds 8 996 75 10000 9.3 250 13:18 25.02.2020
2339 Clouds 7 996 81 10000 8.7 260 12:41 25.02.2020
2340 Rain 7 997 75 10000 8.7 270 12:21 25.02.2020
2341 Rain 8 996 70 10000 8.2 250 11:56 25.02.2020
2342 Clouds 8 997 61 10000 10.8 250 11:38 25.02.2020
2343 Clouds 8 997 61 10000 10.8 250 11:19 25.02.2020
2344 Clouds 8 997 61 10000 10.8 250 11:19 25.02.2020
2345 Clouds 8 997 70 10000 9.8 260 10:57 25.02.2020
2346 Clouds 8 997 70 10000 9.8 260 10:57 25.02.2020
2347 Clouds 8 997 70 10000 9.8 260 10:39 25.02.2020
2348 Clouds 7 997 70 10000 7.2 260 10:20 25.02.2020
2349 Clouds 7 997 65 10000 7.7 280 09:41 25.02.2020
2350 Clear 7 997 70 10000 7.2 260 09:20 25.02.2020
2351 Clouds 6 998 70 10000 6.7 260 08:45 25.02.2020
2352 Clouds 7 998 75 10000 6.7 270 08:26 25.02.2020
2353 Clouds 6 997 81 10000 4.6 270 07:51 25.02.2020
2354 Clouds 7 998 81 10000 4.6 260 07:25 25.02.2020
2355 Clouds 7 998 81 10000 7.2 270 06:59 25.02.2020
2356 Rain 7 998 75 10000 8.2 280 06:26 25.02.2020
2357 Clouds 9 998 87 10000 9.3 280 05:24 25.02.2020
2358 Rain 10 998 87 10000 7.2 250 02:47 25.02.2020
2359 Clouds 10 999 87 10000 7.7 250 01:28 25.02.2020
2360 Clouds 10 999 87 10000 8.7 260 00:34 25.02.2020
2361 Rain 10 999 87 10000 7.7 240 23:57 24.02.2020
2362 Rain 10 999 87 10000 7.7 240 23:39 24.02.2020
2363 Rain 10 1000 87 10000 8.7 240 23:19 24.02.2020
2364 Rain 10 1000 87 10000 7.7 240 22:38 24.02.2020
2365 Rain 9 1000 87 10000 6.7 250 22:19 24.02.2020
2366 Rain 9 1000 93 10000 7.7 250 21:56 24.02.2020
2367 Rain 9 1000 93 10000 7.7 250 21:38 24.02.2020
2368 Rain 9 1001 87 10000 7.7 240 21:19 24.02.2020
2369 Rain 9 1001 93 10000 6.7 240 20:56 24.02.2020
2370 Rain 9 1001 93 10000 6.7 240 20:37 24.02.2020
2371 Rain 8 1001 100 10000 4.6 240 20:18 24.02.2020
2372 Rain 8 1001 93 10000 3.6 190 19:56 24.02.2020
2373 Rain 7 1001 93 10000 5.7 250 19:37 24.02.2020
2374 Rain 7 1002 100 10000 3.1 210 19:19 24.02.2020
2375 Rain 7 1003 93 10000 4.1 180 18:42 24.02.2020
2376 Rain 6 1003 93 10000 3.6 170 18:23 24.02.2020
2377 Rain 6 1004 93 10000 3.1 170 17:57 24.02.2020
2378 Rain 5 1004 93 10000 3.1 170 17:38 24.02.2020
2379 Drizzle 5 1005 93 4000 6.7 140 17:19 24.02.2020
2380 Rain 5 1006 93 9000 6.7 150 16:55 24.02.2020
2381 Drizzle 5 1005 93 8000 6.7 170 16:37 24.02.2020
2382 Rain 5 1008 80 10000 6.2 150 16:18 24.02.2020
2383 Drizzle 5 1009 80 7000 5.1 150 15:55 24.02.2020
2384 Rain 5 1009 80 10000 7.2 160 15:37 24.02.2020
2385 Drizzle 5 1008 86 7000 3.6 180 15:19 24.02.2020
2386 Rain 5 1012 75 10000 3.6 150 14:41 24.02.2020
2387 Rain 5 1013 75 7000 4.6 170 14:23 24.02.2020
2388 Clouds 6 1014 70 10000 3.6 180 13:58 24.02.2020
2389 Rain 6 1014 70 10000 4.1 180 13:40 24.02.2020
2390 Clouds 6 1015 70 10000 6.2 190 13:22 24.02.2020
2391 Clouds 6 1016 70 10000 4.6 180 12:58 24.02.2020
2392 Clouds 6 1016 70 10000 4.6 180 12:39 24.02.2020
2393 Clouds 6 1017 70 10000 4.6 200 12:21 24.02.2020
2394 Clouds 6 1018 75 10000 4.1 230 11:47 24.02.2020
2395 Clouds 6 1018 75 10000 3.1 220 11:29 24.02.2020
2396 Clouds 6 1019 75 10000 4.1 230 10:51 24.02.2020
2397 Clouds 5 1020 80 10000 4.6 230 10:31 24.02.2020
2398 Clouds 5 1020 80 10000 5.1 240 09:55 24.02.2020
2399 Clouds 5 1020 80 10000 5.7 240 09:37 24.02.2020
2400 Clouds 5 1020 80 10000 4.6 240 09:18 24.02.2020
2401 Clouds 4 1020 80 10000 5.7 240 08:48 24.02.2020
2402 Clouds 4 1020 80 10000 5.1 240 08:28 24.02.2020
2403 Clouds 4 1020 80 10000 5.7 250 07:48 24.02.2020
2404 Clouds 4 1020 75 10000 5.7 250 07:30 24.02.2020
2405 Clouds 5 1020 75 10000 5.1 250 06:45 24.02.2020
2406 Clouds 4 1020 80 10000 5.7 260 06:21 24.02.2020
2407 Clouds 5 1020 80 10000 5.7 260 05:31 24.02.2020
2408 Clouds 4 1020 80 10000 6.2 270 04:48 24.02.2020
2409 Clouds 4 1019 80 10000 6.2 270 02:56 24.02.2020
2410 Clouds 4 1018 80 10000 5.7 260 01:50 24.02.2020
2411 Clouds 4 1018 80 10000 6.7 270 01:28 24.02.2020
2412 Clouds 4 1018 80 10000 6.7 270 01:28 24.02.2020
2413 Clouds 4 1018 75 10000 7.7 290 00:36 24.02.2020
2414 Clouds 4 1017 80 10000 6.7 270 00:18 24.02.2020
2415 Clouds 4 1017 80 10000 8.2 290 23:42 23.02.2020
2416 Clouds 4 1016 80 10000 8.2 280 23:20 23.02.2020
2417 Rain 4 1015 75 10000 9.8 270 22:57 23.02.2020
2418 Rain 5 1015 75 10000 9.8 270 22:39 23.02.2020
2419 Rain 5 1015 80 10000 8.2 280 22:19 23.02.2020
2420 Rain 5 1014 80 10000 8.7 280 21:46 23.02.2020
2421 Rain 5 1014 80 10000 8.7 280 21:46 23.02.2020
2422 Rain 5 1014 80 10000 8.7 280 21:46 23.02.2020
2423 Rain 5 1013 80 10000 7.7 280 21:20 23.02.2020
2424 Clouds 5 1012 86 10000 7.7 290 20:57 23.02.2020
2425 Clouds 5 1012 86 10000 7.7 290 20:57 23.02.2020
2426 Clouds 5 1012 86 10000 7.7 290 20:57 23.02.2020
2427 Clouds 5 1012 86 10000 7.7 290 20:39 23.02.2020
2428 Clouds 6 1013 75 10000 5.7 300 20:20 23.02.2020
2429 Rain 6 1010 87 6000 13.4 300 19:58 23.02.2020
2430 Rain 6 1010 87 6000 13.4 300 19:39 23.02.2020
2431 Rain 7 1008 87 10000 8.7 290 19:19 23.02.2020
2432 Rain 8 1006 87 10000 11.3 290 18:57 23.02.2020
2433 Rain 8 1006 87 10000 11.3 290 18:37 23.02.2020
2434 Clouds 9 1005 87 10000 11.8 300 18:18 23.02.2020
2435 Rain 9 1004 93 10000 12.3 310 17:56 23.02.2020
2436 Rain 10 1004 81 10000 13.4 310 17:37 23.02.2020
2437 Clouds 11 1002 71 10000 14.4 280 17:19 23.02.2020
2438 Rain 11 1001 87 10000 12.3 270 16:46 23.02.2020
2439 Rain 12 1001 87 8000 12.3 260 16:27 23.02.2020
2440 Drizzle 12 1000 87 3500 13.4 270 15:58 23.02.2020
2441 Drizzle 12 1000 87 3500 13.4 270 15:38 23.02.2020
2442 Rain 11 1000 87 10000 11.3 260 15:20 23.02.2020
2443 Rain 11 1000 93 9000 10.3 260 14:57 23.02.2020
2444 Rain 11 1000 93 9000 10.3 260 14:38 23.02.2020
2445 Rain 11 1000 93 9000 10.3 260 14:38 23.02.2020
2446 Rain 11 1001 93 10000 9.8 250 14:20 23.02.2020
2447 Rain 9 1001 93 7000 3.1 220 13:57 23.02.2020
2448 Drizzle 9 1001 100 7000 6.2 260 13:38 23.02.2020
2449 Rain 8 1002 100 4000 1.5 140 13:20 23.02.2020
2450 Rain 8 1004 100 4800 1.5 140 12:42 23.02.2020
2451 Rain 7 1005 93 7000 1.5 150 12:21 23.02.2020
2452 Rain 7 1006 93 10000 2.1 160 11:55 23.02.2020
2453 Drizzle 7 1005 93 6000 3.1 190 11:37 23.02.2020
2454 Rain 7 1007 93 10000 2.6 180 11:18 23.02.2020
2455 Rain 7 1008 93 10000 3.6 230 10:42 23.02.2020
2456 Rain 7 1009 87 10000 5.7 240 10:24 23.02.2020
2457 Rain 7 1011 93 9000 4.1 240 09:59 23.02.2020
2458 Rain 7 1011 100 10000 4.1 240 09:39 23.02.2020
2459 Rain 6 1011 100 10000 4.1 240 09:21 23.02.2020
2460 Rain 6 1012 93 10000 4.1 240 08:51 23.02.2020
2461 Rain 6 1013 93 10000 2.1 220 08:30 23.02.2020
2462 Rain 6 1013 93 10000 3.1 270 07:54 23.02.2020
2463 Drizzle 6 1013 93 7000 3.1 260 07:35 23.02.2020
2464 Rain 7 1014 81 10000 7.2 270 06:39 23.02.2020
2465 Rain 8 1015 81 10000 7.7 260 05:43 23.02.2020
2466 Clouds 8 1015 70 10000 7.7 250 04:26 23.02.2020
2467 Clouds 8 1016 70 10000 7.2 260 02:59 23.02.2020
2468 Clouds 8 1016 75 10000 6.7 260 02:25 23.02.2020
2469 Clouds 8 1016 81 10000 7.2 260 01:23 23.02.2020
2470 Clouds 8 1015 81 10000 7.7 260 00:45 23.02.2020
2471 Rain 8 1016 81 10000 7.7 260 00:24 23.02.2020
2472 Clouds 8 1016 81 10000 6.7 260 23:45 22.02.2020
2473 Clouds 8 1016 81 10000 6.7 260 23:45 22.02.2020
2474 Clouds 8 1015 81 10000 5.7 260 23:26 22.02.2020
2475 Clouds 8 1015 81 10000 6.2 270 22:56 22.02.2020
2476 Clouds 8 1015 81 10000 6.2 270 22:36 22.02.2020
2477 Rain 7 1016 87 9000 10.8 290 22:18 22.02.2020
2478 Rain 7 1015 93 10000 6.7 250 21:40 22.02.2020
2479 Rain 7 1015 93 10000 6.7 250 21:21 22.02.2020
2480 Rain 8 1016 93 10000 6.7 260 20:43 22.02.2020
2481 Rain 8 1016 87 10000 7.2 270 20:24 22.02.2020
2482 Rain 8 1015 81 10000 7.7 270 19:54 22.02.2020
2483 Rain 8 1015 81 10000 7.7 270 19:54 22.02.2020
2484 Rain 8 1015 81 9000 9.3 280 19:36 22.02.2020
2485 Rain 8 1015 81 10000 9.3 270 19:18 22.02.2020
2486 Rain 8 1015 81 10000 9.3 270 19:18 22.02.2020
2487 Rain 9 1015 81 10000 9.8 270 18:39 22.02.2020
2488 Rain 9 1014 81 4000 11.3 270 18:21 22.02.2020
2489 Rain 9 1014 81 4000 11.3 270 18:21 22.02.2020
2490 Rain 9 1014 81 4000 11.3 270 18:21 22.02.2020
2491 Rain 10 1014 71 6000 9.8 260 17:57 22.02.2020
2492 Rain 10 1014 71 6000 9.8 260 17:57 22.02.2020
2493 Clouds 10 1013 66 10000 11.8 260 17:37 22.02.2020
2494 Clouds 10 1013 71 10000 9.8 250 17:19 22.02.2020
2495 Clouds 11 1012 71 10000 11.8 250 16:56 22.02.2020
2496 Clouds 11 1012 71 10000 11.8 250 16:37 22.02.2020
2497 Clouds 10 1013 71 10000 11.3 250 16:19 22.02.2020
2498 Clouds 10 1013 71 10000 12.3 250 15:42 22.02.2020
2499 Clouds 11 1013 66 10000 11.8 250 15:22 22.02.2020
2500 Clouds 11 1013 61 10000 11.3 250 14:43 22.02.2020
2501 Clouds 11 1014 61 10000 11.8 250 14:22 22.02.2020
2502 Clouds 11 1013 53 10000 10.3 250 13:56 22.02.2020
2503 Clouds 11 1013 50 10000 9.3 260 13:38 22.02.2020
2504 Clouds 11 1013 50 10000 9.3 260 13:18 22.02.2020
2505 Clouds 11 1013 63 10000 11.3 250 12:41 22.02.2020
2506 Clouds 11 1012 43 10000 10.8 240 12:23 22.02.2020
2507 Rain 10 1013 40 10000 9.8 250 11:44 22.02.2020
2508 Rain 10 1013 43 10000 9.8 250 11:26 22.02.2020
2509 Rain 10 1013 39 10000 9.8 240 10:56 22.02.2020
2510 Rain 10 1013 39 10000 9.8 240 10:38 22.02.2020
2511 Clouds 9 1014 39 10000 7.2 240 10:19 22.02.2020
2512 Clouds 9 1014 42 10000 7.2 240 09:56 22.02.2020
2513 Clouds 8 1013 39 10000 8.7 260 09:38 22.02.2020
2514 Clouds 8 1014 45 10000 8.7 240 09:19 22.02.2020
2515 Clouds 8 1014 52 10000 7.7 230 08:44 22.02.2020
2516 Clouds 7 1015 55 10000 6.7 240 08:26 22.02.2020
2517 Clouds 7 1015 65 10000 6.7 230 07:43 22.02.2020
2518 Clouds 6 1015 70 10000 7.7 230 07:19 22.02.2020
2519 Clouds 7 1015 70 10000 8.2 230 06:46 22.02.2020
2520 Clouds 7 1017 70 10000 8.7 230 05:54 22.02.2020
2521 Clouds 8 1017 65 10000 7.7 230 04:29 22.02.2020
2522 Clouds 8 1019 65 10000 8.7 240 02:44 22.02.2020
2523 Clouds 8 1019 65 10000 7.2 230 01:57 22.02.2020
2524 Clouds 8 1019 65 10000 7.2 230 01:39 22.02.2020
2525 Clouds 8 1020 65 10000 8.2 230 01:21 22.02.2020
2526 Clouds 8 1020 65 10000 8.2 250 00:39 22.02.2020
2527 Clouds 8 1020 65 10000 6.7 230 00:19 22.02.2020
2528 Clouds 8 1020 65 10000 9.3 250 23:41 21.02.2020
2529 Clouds 8 1021 65 10000 7.2 230 23:20 21.02.2020
2530 Clouds 8 1021 65 10000 7.7 240 22:42 21.02.2020
2531 Clouds 8 1021 65 10000 8.2 230 22:24 21.02.2020
2532 Rain 8 1021 70 10000 6.7 230 21:56 21.02.2020
2533 Rain 8 1021 70 10000 6.7 230 21:37 21.02.2020
2534 Clouds 7 1022 70 10000 7.2 220 21:19 21.02.2020
2535 Rain 7 1022 65 10000 6.2 230 20:46 21.02.2020
2536 Rain 7 1022 70 10000 5.7 230 20:27 21.02.2020
2537 Rain 7 1022 70 10000 5.7 230 20:27 21.02.2020
2538 Clouds 7 1022 65 10000 7.7 250 19:41 21.02.2020
2539 Clouds 7 1022 70 10000 4.6 230 19:23 21.02.2020
2540 Rain 7 1022 70 10000 6.2 240 18:45 21.02.2020
2541 Rain 7 1022 70 10000 6.2 240 18:45 21.02.2020
2542 Rain 7 1022 70 10000 7.7 240 18:25 21.02.2020
2543 Clouds 8 1022 65 10000 7.2 240 17:59 21.02.2020
2544 Clouds 8 1022 65 10000 7.2 240 17:39 21.02.2020
2545 Clouds 8 1022 65 10000 7.2 240 17:20 21.02.2020
2546 Clouds 8 1022 65 10000 6.2 240 16:56 21.02.2020
2547 Clouds 8 1022 65 10000 6.2 240 16:56 21.02.2020
2548 Clouds 8 1022 65 10000 7.2 250 16:38 21.02.2020
2549 Clouds 8 1022 65 10000 6.7 250 16:20 21.02.2020
2550 Clouds 8 1022 65 10000 7.2 250 15:44 21.02.2020
2551 Clouds 8 1022 61 10000 8.7 250 15:19 21.02.2020
2552 Clouds 8 1022 65 10000 8.7 250 14:54 21.02.2020
2553 Clouds 8 1022 61 10000 8.2 270 14:36 21.02.2020
2554 Clouds 8 1022 61 10000 9.3 260 14:18 21.02.2020
2555 Clouds 8 1022 61 10000 9.8 250 13:41 21.02.2020
2556 Clouds 8 1022 65 10000 7.7 250 13:21 21.02.2020
2557 Clouds 7 1022 70 10000 7.7 250 12:46 21.02.2020
2558 Clouds 7 1023 70 10000 7.7 250 12:27 21.02.2020
2559 Clouds 7 1022 75 10000 7.7 250 11:58 21.02.2020
2560 Clouds 6 1022 75 10000 7.7 250 11:38 21.02.2020
2561 Clouds 6 1022 75 10000 7.7 250 11:20 21.02.2020
2562 Clouds 6 1022 75 10000 7.7 260 10:42 21.02.2020
2563 Clouds 6 1021 75 10000 7.7 250 10:22 21.02.2020
2564 Clouds 5 1021 75 10000 7.2 250 09:58 21.02.2020
2565 Clouds 5 1021 75 10000 7.2 250 09:39 21.02.2020
2566 Clouds 5 1021 75 10000 6.2 260 09:20 21.02.2020
2567 Clouds 5 1020 75 10000 7.2 260 08:56 21.02.2020
2568 Clouds 5 1020 75 10000 6.7 270 08:36 21.02.2020
2569 Clouds 5 1019 75 10000 7.2 260 08:18 21.02.2020
2570 Clouds 5 1019 75 10000 7.7 260 07:41 21.02.2020
2571 Clouds 5 1018 75 10000 8.2 250 07:21 21.02.2020
2572 Clouds 5 1018 75 10000 7.2 260 06:56 21.02.2020
2573 Clouds 4 1017 80 10000 6.7 260 06:33 21.02.2020
2574 Clouds 4 1017 80 10000 6.2 260 05:56 21.02.2020
2575 Clouds 4 1016 80 10000 6.7 260 05:30 21.02.2020
2576 Clouds 4 1015 80 10000 7.2 270 04:26 21.02.2020
2577 Rain 4 1014 86 10000 6.2 270 03:46 21.02.2020
2578 Clouds 4 1013 80 10000 7.7 270 02:58 21.02.2020
2579 Rain 5 1011 93 10000 7.7 310 01:32 21.02.2020
2580 Rain 5 1009 93 10000 10.3 290 00:47 21.02.2020
2581 Rain 6 1008 87 7000 7.7 280 00:25 21.02.2020
2582 Rain 6 1007 87 10000 9.8 280 23:58 20.02.2020
2583 Rain 6 1007 87 10000 9.8 280 23:39 20.02.2020
2584 Rain 7 1007 87 10000 10.8 300 23:21 20.02.2020
2585 Rain 7 1007 87 10000 10.8 300 23:21 20.02.2020
2586 Rain 7 1005 81 10000 8.7 240 22:40 20.02.2020
2587 Rain 8 1006 81 10000 7.2 210 22:21 20.02.2020
2588 Rain 8 1006 75 10000 7.7 220 21:57 20.02.2020
2589 Rain 8 1006 75 10000 7.7 220 21:39 20.02.2020
2590 Rain 8 1006 75 10000 7.7 220 21:39 20.02.2020
2591 Rain 8 1006 70 10000 7.2 220 21:19 20.02.2020
2592 Rain 8 1006 70 10000 7.2 220 21:19 20.02.2020
2593 Rain 8 1007 66 10000 6.7 220 20:56 20.02.2020
2594 Rain 8 1007 66 10000 5.7 210 20:38 20.02.2020
2595 Clouds 9 1007 66 10000 5.7 210 20:19 20.02.2020
2596 Clouds 9 1008 70 10000 6.2 200 19:58 20.02.2020
2597 Clouds 9 1008 70 10000 6.2 200 19:40 20.02.2020
2598 Clouds 9 1009 70 10000 6.2 210 19:22 20.02.2020
2599 Clouds 9 1008 61 10000 8.7 240 18:40 20.02.2020
2600 Clouds 9 1009 70 10000 5.7 200 18:21 20.02.2020
2601 Clouds 9 1010 70 10000 6.2 210 17:56 20.02.2020
2602 Clouds 9 1010 70 10000 6.2 210 17:38 20.02.2020
2603 Clouds 9 1010 70 10000 6.2 210 17:18 20.02.2020
2604 Clouds 9 1011 70 10000 4.6 210 16:56 20.02.2020
2605 Clouds 9 1010 66 10000 5.7 230 16:37 20.02.2020
2606 Clouds 9 1011 70 10000 6.7 220 16:18 20.02.2020
2607 Clouds 9 1011 76 10000 5.1 190 15:42 20.02.2020
2608 Clouds 9 1012 76 10000 5.1 190 15:22 20.02.2020
2609 Rain 9 1012 81 10000 4.6 190 14:57 20.02.2020
2610 Rain 9 1012 81 10000 4.6 190 14:39 20.02.2020
2611 Rain 9 1012 76 10000 5.7 220 14:20 20.02.2020
2612 Clouds 8 1013 81 10000 6.2 190 13:46 20.02.2020
2613 Clouds 8 1014 81 10000 5.1 200 13:20 20.02.2020
2614 Clouds 8 1014 81 10000 5.7 190 12:59 20.02.2020
2615 Clouds 8 1014 81 10000 5.7 190 12:40 20.02.2020
2616 Clouds 7 1015 81 10000 5.7 200 12:19 20.02.2020
2617 Clouds 7 1015 87 10000 6.2 200 11:56 20.02.2020
2618 Clouds 7 1015 87 10000 6.2 200 11:37 20.02.2020
2619 Clouds 7 1015 87 10000 5.7 190 11:19 20.02.2020
2620 Clouds 6 1015 87 10000 5.1 190 10:42 20.02.2020
2621 Clouds 6 1015 87 10000 3.6 180 10:22 20.02.2020
2622 Rain 6 1016 93 10000 3.6 180 09:55 20.02.2020
2623 Rain 6 1016 93 10000 3.6 180 09:55 20.02.2020
2624 Rain 5 1016 93 10000 3.6 180 09:37 20.02.2020
2625 Rain 5 1016 93 10000 3.6 180 09:19 20.02.2020
2626 Rain 5 1016 93 10000 4.1 190 08:41 20.02.2020
2627 Rain 5 1016 93 10000 3.6 190 08:22 20.02.2020
2628 Drizzle 5 1016 93 3700 3.1 190 07:47 20.02.2020
2629 Rain 5 1016 86 10000 3.6 180 07:27 20.02.2020
2630 Rain 5 1016 86 10000 4.1 200 06:57 20.02.2020
2631 Rain 4 1016 93 10000 3.6 210 06:31 20.02.2020
2632 Rain 4 1016 86 10000 2.1 180 05:47 20.02.2020
2633 Rain 4 1016 86 10000 3.1 190 05:19 20.02.2020
2634 Rain 4 1017 86 10000 4.1 190 04:29 20.02.2020
2635 Rain 4 1017 80 10000 3.6 200 03:40 20.02.2020
2636 Clouds 3 1018 87 10000 3.1 190 02:45 20.02.2020
2637 Clouds 3 1018 74 10000 2.6 200 01:21 20.02.2020
2638 Clouds 3 1019 74 10000 4.1 230 00:35 20.02.2020
2639 Clouds 3 1019 69 10000 4.1 240 23:55 19.02.2020
2640 Clouds 4 1019 82 10000 4.6 240 23:24 19.02.2020
2641 Clouds 4 1019 73 10000 4.6 240 22:56 19.02.2020
2642 Clouds 4 1019 73 10000 4.6 240 22:38 19.02.2020
2643 Clouds 4 1019 73 10000 3.6 240 22:20 19.02.2020
2644 Clouds 4 1019 73 10000 2.6 240 21:56 19.02.2020
2645 Clouds 5 1019 73 10000 5.1 260 21:38 19.02.2020
2646 Clouds 5 1019 73 10000 2.6 250 21:18 19.02.2020
2647 Clouds 5 1019 73 10000 4.6 260 20:55 19.02.2020
2648 Clouds 5 1019 73 10000 3.6 270 20:36 19.02.2020
2649 Clouds 5 1019 68 10000 4.6 260 20:18 19.02.2020
2650 Clouds 5 1019 68 10000 4.6 270 19:56 19.02.2020
2651 Clouds 6 1018 68 10000 5.1 280 19:37 19.02.2020
2652 Clouds 6 1018 68 10000 7.7 270 19:18 19.02.2020
2653 Clouds 6 1018 70 10000 6.2 270 18:56 19.02.2020
2654 Clouds 6 1018 70 10000 6.2 270 18:37 19.02.2020
2655 Clouds 6 1018 68 10000 7.7 280 18:37 19.02.2020
2656 Clouds 6 1017 75 10000 6.7 270 18:19 19.02.2020
2657 Clouds 6 1017 75 10000 7.2 260 17:42 19.02.2020
2658 Clouds 6 1016 75 10000 8.2 260 17:19 19.02.2020
2659 Clouds 6 1016 75 10000 6.7 260 16:44 19.02.2020
2660 Clouds 6 1016 75 10000 9.3 270 16:20 19.02.2020
2661 Clouds 6 1015 81 10000 6.7 280 15:58 19.02.2020
2662 Clouds 6 1015 81 10000 6.7 280 15:39 19.02.2020
2663 Rain 6 1015 93 9000 4.6 260 15:20 19.02.2020
2664 Rain 6 1014 70 10000 9.3 270 14:42 19.02.2020
2665 Rain 6 1014 70 10000 9.3 260 14:23 19.02.2020
2666 Rain 6 1014 75 7000 6.2 260 13:59 19.02.2020
2667 Rain 6 1014 70 10000 7.7 270 13:40 19.02.2020
2668 Clouds 6 1014 75 10000 7.7 270 13:20 19.02.2020
2669 Clouds 6 1014 75 10000 8.7 270 12:41 19.02.2020
2670 Clouds 6 1013 75 10000 8.7 270 12:19 19.02.2020
2671 Clouds 6 1013 75 10000 8.7 280 11:58 19.02.2020
2672 Clouds 6 1013 70 10000 8.2 280 11:37 19.02.2020
2673 Clouds 6 1013 75 10000 8.2 280 11:19 19.02.2020
2674 Clouds 6 1012 80 10000 7.7 270 10:57 19.02.2020
2675 Clouds 5 1012 75 10000 8.2 280 10:38 19.02.2020
2676 Clouds 5 1012 81 10000 8.2 280 10:19 19.02.2020
2677 Clouds 5 1012 86 10000 6.7 270 09:56 19.02.2020
2678 Clouds 5 1012 86 10000 7.2 280 09:37 19.02.2020
2679 Clouds 5 1011 86 10000 5.1 270 09:18 19.02.2020
2680 Clouds 4 1011 86 10000 6.2 280 08:44 19.02.2020
2681 Rain 4 1010 93 10000 5.1 260 08:23 19.02.2020
2682 Clouds 4 1010 93 10000 5.1 260 07:41 19.02.2020
2683 Rain 4 1010 93 10000 5.1 260 07:20 19.02.2020
2684 Rain 4 1010 93 10000 4.1 260 06:53 19.02.2020
2685 Rain 4 1009 93 10000 5.7 260 06:20 19.02.2020
2686 Clouds 6 1009 75 10000 6.2 220 04:20 19.02.2020
2687 Clouds 7 1011 70 10000 6.7 220 02:54 19.02.2020
2688 Rain 7 1012 70 10000 6.7 220 02:29 19.02.2020
2689 Rain 7 1013 70 10000 7.7 230 01:23 19.02.2020
2690 Rain 7 1013 70 10000 8.2 230 00:47 19.02.2020
2691 Clouds 7 1014 70 10000 7.2 230 00:29 19.02.2020
2692 Clouds 7 1014 70 10000 9.3 240 23:42 18.02.2020
2693 Clouds 7 1015 70 10000 7.2 230 23:20 18.02.2020
2694 Clouds 7 1015 65 10000 8.2 240 22:56 18.02.2020
2695 Clouds 7 1015 65 10000 8.2 240 22:37 18.02.2020
2696 Clouds 7 1015 65 10000 8.2 240 22:37 18.02.2020
2697 Clouds 7 1016 70 10000 7.7 220 22:19 18.02.2020
2698 Clouds 7 1016 70 10000 6.7 220 21:55 18.02.2020
2699 Clouds 7 1016 70 10000 7.7 240 21:37 18.02.2020
2700 Clouds 7 1016 70 10000 5.7 220 21:18 18.02.2020
2701 Clouds 7 1017 70 10000 5.7 220 20:56 18.02.2020
2702 Clouds 7 1017 70 10000 5.7 220 20:37 18.02.2020
2703 Clouds 7 1017 70 10000 6.2 220 20:19 18.02.2020
2704 Clouds 7 1017 70 10000 6.2 250 19:42 18.02.2020
2705 Clouds 7 1017 70 10000 5.1 230 19:20 18.02.2020
2706 Clouds 7 1017 70 10000 6.2 250 18:59 18.02.2020
2707 Clouds 7 1017 70 10000 6.2 250 18:40 18.02.2020
2708 Clouds 7 1017 70 10000 6.2 240 18:20 18.02.2020
2709 Clouds 7 1017 75 10000 6.7 260 17:43 18.02.2020
2710 Rain 7 1017 70 10000 5.7 250 17:20 18.02.2020
2711 Rain 7 1018 70 10000 5.7 260 16:58 18.02.2020
2712 Rain 8 1017 81 10000 5.7 310 16:38 18.02.2020
2713 Clouds 8 1017 65 10000 9.3 250 16:18 18.02.2020
2714 Clouds 8 1018 65 10000 6.2 240 15:40 18.02.2020
2715 Clouds 8 1018 65 10000 7.7 240 15:19 18.02.2020
2716 Clouds 8 1018 61 10000 9.3 250 14:56 18.02.2020
2717 Clouds 8 1018 61 10000 9.8 260 14:38 18.02.2020
2718 Clouds 8 1018 61 10000 9.8 250 14:20 18.02.2020
2719 Clouds 8 1018 65 10000 11.3 250 13:41 18.02.2020
2720 Clouds 8 1018 61 10000 8.7 250 13:22 18.02.2020
2721 Clouds 8 1018 65 10000 10.8 250 12:56 18.02.2020
2722 Clouds 8 1018 65 10000 10.8 250 12:38 18.02.2020
2723 Clouds 7 1019 70 10000 9.8 250 12:19 18.02.2020
2724 Clouds 7 1018 70 10000 8.7 250 11:43 18.02.2020
2725 Clouds 7 1018 70 10000 8.7 250 11:43 18.02.2020
2726 Clouds 7 1018 70 10000 8.2 250 11:25 18.02.2020
2727 Clouds 7 1018 75 10000 9.3 250 10:55 18.02.2020
2728 Clouds 7 1018 70 10000 8.2 260 10:37 18.02.2020
2729 Rain 6 1018 75 10000 7.7 250 10:18 18.02.2020
2730 Clouds 6 1018 75 10000 7.2 250 09:55 18.02.2020
2731 Rain 6 1017 75 10000 7.7 260 09:36 18.02.2020
2732 Clouds 5 1018 75 10000 7.7 250 09:18 18.02.2020
2733 Clouds 5 1017 86 10000 7.2 240 08:42 18.02.2020
2734 Rain 5 1016 80 10000 7.2 240 08:20 18.02.2020
2735 Clouds 4 1016 86 10000 5.7 250 07:56 18.02.2020
2736 Clouds 5 1016 86 10000 6.7 240 07:31 18.02.2020
2737 Rain 5 1015 86 10000 9.3 260 06:56 18.02.2020
2738 Rain 5 1015 86 10000 9.3 260 06:37 18.02.2020
2739 Rain 6 1015 81 10000 7.2 240 05:59 18.02.2020
2740 Clouds 7 1014 81 10000 6.7 260 05:33 18.02.2020
2741 Clouds 6 1014 87 10000 6.7 250 03:59 18.02.2020
2742 Rain 6 1014 87 10000 6.2 240 02:59 18.02.2020
2743 Clouds 6 1013 81 10000 6.2 240 01:59 18.02.2020
2744 Clouds 7 1013 81 10000 7.2 240 00:54 18.02.2020
2745 Rain 7 1013 81 10000 6.7 240 00:22 18.02.2020
2746 Rain 7 1012 81 10000 8.2 240 23:55 17.02.2020
2747 Rain 7 1012 81 10000 8.2 240 23:37 17.02.2020
2748 Clouds 7 1012 81 10000 7.7 240 23:18 17.02.2020
2749 Clouds 7 1012 81 10000 7.2 240 22:41 17.02.2020
2750 Clouds 7 1012 75 10000 8.2 240 22:21 17.02.2020
2751 Rain 7 1012 75 10000 6.2 230 21:58 17.02.2020
2752 Rain 7 1012 75 10000 6.2 230 21:38 17.02.2020
2753 Clouds 7 1012 75 10000 5.7 230 21:18 17.02.2020
2754 Clouds 6 1012 75 10000 5.7 230 20:41 17.02.2020
2755 Clouds 6 1012 87 10000 4.6 220 20:21 17.02.2020
2756 Rain 6 1012 87 10000 3.6 210 19:57 17.02.2020
2757 Clouds 6 1011 81 10000 4.6 230 19:38 17.02.2020
2758 Rain 6 1012 87 10000 3.6 210 19:19 17.02.2020
2759 Rain 7 1011 87 10000 5.1 220 18:37 17.02.2020
2760 Rain 7 1011 87 10000 5.1 220 18:37 17.02.2020
2761 Rain 7 1011 75 10000 8.7 250 18:19 17.02.2020
2762 Rain 7 1011 75 10000 8.7 250 18:19 17.02.2020
2763 Rain 8 1010 53 10000 4.6 230 17:57 17.02.2020
2764 Rain 8 1011 87 8000 8.2 280 17:37 17.02.2020
2765 Clouds 10 1009 54 10000 6.7 240 17:18 17.02.2020
2766 Clouds 10 1009 54 10000 6.7 240 17:18 17.02.2020
2767 Clouds 10 1010 53 10000 6.2 230 16:54 17.02.2020
2768 Clouds 10 1010 53 10000 7.2 230 16:36 17.02.2020
2769 Clouds 11 1010 53 10000 7.2 230 16:18 17.02.2020
2770 Clouds 11 1011 57 10000 7.7 240 15:42 17.02.2020
2771 Clouds 11 1010 61 10000 7.2 230 15:23 17.02.2020
2772 Clouds 11 1011 57 10000 8.7 230 14:46 17.02.2020
2773 Clouds 10 1011 57 10000 8.7 240 14:28 17.02.2020
2774 Clouds 10 1011 57 10000 8.2 240 13:59 17.02.2020
2775 Clouds 10 1011 57 10000 8.2 240 13:40 17.02.2020
2776 Clouds 10 1011 57 10000 9.3 230 13:19 17.02.2020
2777 Clouds 10 1011 61 10000 10.3 240 12:54 17.02.2020
2778 Clouds 10 1011 61 10000 10.3 240 12:54 17.02.2020
2779 Clouds 9 1011 57 10000 10.8 250 12:36 17.02.2020
2780 Clouds 9 1011 57 10000 10.8 250 12:36 17.02.2020
2781 Clouds 9 1011 61 10000 8.2 230 12:18 17.02.2020
2782 Clouds 9 1011 61 10000 7.7 230 11:43 17.02.2020
2783 Clouds 9 1011 61 10000 6.7 230 11:24 17.02.2020
2784 Clouds 9 1011 61 10000 6.7 230 10:56 17.02.2020
2785 Clouds 8 1011 61 10000 6.7 230 10:38 17.02.2020
2786 Clouds 8 1011 61 10000 7.2 230 10:19 17.02.2020
2787 Clouds 8 1011 61 10000 7.7 240 09:55 17.02.2020
2788 Clouds 8 1011 61 10000 6.2 240 09:36 17.02.2020
2789 Clouds 8 1011 61 10000 6.2 240 09:18 17.02.2020
2790 Clouds 8 1011 65 10000 7.2 240 08:41 17.02.2020
2791 Clouds 8 1010 61 10000 7.7 240 08:22 17.02.2020
2792 Clouds 8 1010 61 10000 9.3 250 07:55 17.02.2020
2793 Clouds 8 1009 65 10000 9.3 240 07:26 17.02.2020
2794 Clouds 8 1009 70 10000 7.7 240 06:56 17.02.2020
2795 Clouds 8 1009 61 10000 8.7 250 06:36 17.02.2020
2796 Clouds 9 1008 66 10000 10.3 240 05:59 17.02.2020
2797 Clouds 9 1008 66 10000 10.3 240 05:38 17.02.2020
2798 Clouds 9 1006 76 10000 8.2 240 03:53 17.02.2020
2799 Rain 8 1005 81 10000 7.7 230 02:19 17.02.2020
2800 Rain 8 1005 87 10000 6.7 240 00:55 17.02.2020
2801 Rain 8 1004 87 10000 10.3 250 00:25 17.02.2020
2802 Rain 8 1003 87 10000 8.2 240 23:56 16.02.2020
2803 Rain 9 1003 81 10000 8.7 250 23:34 16.02.2020
2804 Rain 9 1002 87 10000 9.3 240 22:59 16.02.2020
2805 Rain 10 1003 87 9000 6.7 260 22:39 16.02.2020
2806 Rain 10 1001 87 10000 9.3 280 22:21 16.02.2020
2807 Rain 10 1001 87 10000 9.3 280 22:21 16.02.2020
2808 Rain 11 1000 87 10000 13.9 290 21:59 16.02.2020
2809 Rain 13 1000 87 10000 13.9 290 21:41 16.02.2020
2810 Rain 16 998 48 6000 13.9 230 21:23 16.02.2020
2811 Rain 16 996 45 10000 11.8 230 20:58 16.02.2020
2812 Rain 17 996 45 10000 11.8 230 20:40 16.02.2020
2813 Rain 17 996 45 10000 11.8 230 20:40 16.02.2020
2814 Rain 17 996 45 10000 11.8 230 20:40 16.02.2020
2815 Rain 17 996 45 10000 11.8 230 20:40 16.02.2020
2816 Rain 17 996 45 10000 12.3 220 20:22 16.02.2020
2817 Clouds 17 996 48 10000 10.8 220 19:58 16.02.2020
2818 Clouds 17 995 45 10000 13.4 230 19:39 16.02.2020
2819 Clouds 17 997 48 10000 12.3 220 19:19 16.02.2020
2820 Clouds 17 997 52 10000 11.3 220 18:45 16.02.2020
2821 Clouds 16 998 55 10000 10.8 220 18:27 16.02.2020
2822 Clouds 16 998 55 10000 8.7 220 17:59 16.02.2020
2823 Clouds 16 998 55 10000 9.3 210 17:40 16.02.2020
2824 Clouds 16 998 55 10000 9.3 210 17:20 16.02.2020
2825 Clouds 16 998 51 10000 11.8 230 16:56 16.02.2020
2826 Clouds 16 998 51 10000 11.8 230 16:38 16.02.2020
2827 Clouds 16 999 59 10000 7.2 190 16:20 16.02.2020
2828 Clouds 16 1000 55 10000 8.2 220 15:42 16.02.2020
2829 Clouds 16 1000 55 10000 9.8 220 15:23 16.02.2020
2830 Clouds 16 1000 55 10000 9.8 230 14:59 16.02.2020
2831 Clouds 16 1000 51 10000 11.3 240 14:38 16.02.2020
2832 Clouds 16 1001 55 10000 9.8 230 14:19 16.02.2020
2833 Clouds 16 999 51 10000 15.4 240 13:45 16.02.2020
2834 Clouds 15 1002 59 10000 9.3 220 13:24 16.02.2020
2835 Clouds 15 1002 62 10000 9.8 220 12:54 16.02.2020
2836 Clouds 15 1001 55 10000 12.3 230 12:36 16.02.2020
2837 Clouds 14 1002 62 10000 10.3 220 12:18 16.02.2020
2838 Clouds 14 1001 62 10000 13.4 240 11:38 16.02.2020
2839 Clouds 13 1003 71 10000 7.2 210 11:18 16.02.2020
2840 Rain 13 1003 76 10000 7.2 200 10:56 16.02.2020
2841 Rain 13 1003 76 10000 7.2 200 10:37 16.02.2020
2842 Clouds 12 1004 76 10000 7.2 200 10:19 16.02.2020
2843 Rain 12 1004 81 10000 7.7 200 09:54 16.02.2020
2844 Clouds 12 1004 81 10000 8.7 200 09:36 16.02.2020
2845 Clouds 11 1004 81 10000 8.7 200 09:18 16.02.2020
2846 Rain 11 1004 81 10000 7.2 200 08:41 16.02.2020
2847 Rain 11 1005 71 10000 6.2 200 08:20 16.02.2020
2848 Clouds 12 1005 66 10000 5.7 210 07:49 16.02.2020
2849 Clouds 12 1005 62 10000 6.2 200 07:26 16.02.2020
2850 Clouds 12 1004 62 10000 6.7 220 06:33 16.02.2020
2851 Clouds 12 1007 62 10000 6.7 210 04:42 16.02.2020
2852 Clouds 11 1008 62 10000 6.7 210 03:25 16.02.2020
2853 Clouds 11 1009 58 10000 6.7 210 02:31 16.02.2020
2854 Clouds 11 1008 62 10000 7.7 210 01:42 16.02.2020
2855 Clouds 10 1009 62 10000 7.7 190 01:22 16.02.2020
2856 Clouds 10 1009 61 10000 8.2 190 00:52 16.02.2020
2857 Clouds 10 1009 61 10000 7.7 200 00:31 16.02.2020
2858 Clouds 10 1010 61 10000 8.2 200 23:46 15.02.2020
2859 Clouds 10 1011 61 10000 7.7 200 23:26 15.02.2020
2860 Clouds 10 1011 61 10000 7.2 200 22:59 15.02.2020
2861 Clouds 10 1011 61 10000 7.2 200 22:41 15.02.2020
2862 Clouds 9 1012 66 10000 6.7 200 22:21 15.02.2020
2863 Clouds 9 1012 70 10000 4.1 180 21:58 15.02.2020
2864 Clouds 9 1012 70 10000 4.1 180 21:39 15.02.2020
2865 Clouds 9 1013 70 10000 4.6 170 21:21 15.02.2020
2866 Clouds 9 1013 70 10000 5.7 190 20:40 15.02.2020
2867 Clouds 9 1013 70 10000 6.7 190 20:21 15.02.2020
2868 Clouds 9 1014 66 10000 6.2 190 19:44 15.02.2020
2869 Clouds 9 1014 66 10000 6.2 200 19:22 15.02.2020
2870 Clouds 9 1014 66 10000 5.7 190 18:45 15.02.2020
2871 Clouds 9 1014 66 10000 5.1 190 18:25 15.02.2020
2872 Clouds 10 1015 66 10000 4.6 170 18:00 15.02.2020
2873 Clouds 10 1014 66 10000 4.1 180 17:41 15.02.2020
2874 Clouds 11 1015 62 10000 5.1 180 17:22 15.02.2020
2875 Clouds 11 1016 62 10000 4.6 200 16:55 15.02.2020
2876 Clouds 11 1016 58 10000 5.7 190 16:37 15.02.2020
2877 Clouds 12 1016 58 10000 5.7 190 16:18 15.02.2020
2878 Clouds 12 1016 58 10000 6.2 190 15:41 15.02.2020
2879 Clouds 12 1016 58 10000 6.2 180 15:23 15.02.2020
2880 Clouds 12 1015 58 10000 6.7 180 14:45 15.02.2020
2881 Clouds 12 1016 62 10000 4.6 190 14:21 15.02.2020
2882 Clouds 11 1017 66 10000 4.6 190 13:56 15.02.2020
2883 Clouds 11 1016 62 10000 6.7 220 13:38 15.02.2020
2884 Clouds 11 1016 62 10000 6.7 220 13:38 15.02.2020
2885 Clouds 11 1017 71 10000 5.7 190 13:20 15.02.2020
2886 Clouds 10 1018 71 10000 5.7 200 12:42 15.02.2020
2887 Clouds 9 1018 71 10000 5.7 210 12:24 15.02.2020
2888 Clouds 9 1018 70 10000 6.2 200 11:52 15.02.2020
2889 Clouds 9 1019 75 10000 5.1 200 11:33 15.02.2020
2890 Clouds 8 1019 75 10000 5.7 190 10:58 15.02.2020
2891 Clouds 8 1019 75 10000 5.7 190 10:58 15.02.2020
2892 Clouds 8 1019 75 10000 5.7 190 10:39 15.02.2020
2893 Clouds 8 1018 70 10000 7.2 210 10:39 15.02.2020
2894 Clouds 7 1019 75 10000 3.6 180 10:20 15.02.2020
2895 Clouds 7 1019 75 10000 3.1 170 09:44 15.02.2020
2896 Clouds 6 1020 75 10000 3.1 160 09:25 15.02.2020
2897 Clouds 5 1020 81 10000 3.6 180 08:45 15.02.2020
2898 Clouds 5 1020 81 10000 2.6 180 08:26 15.02.2020
2899 Clouds 5 1020 75 10000 3.1 190 07:59 15.02.2020
2900 Clouds 5 1020 75 10000 3.1 190 07:39 15.02.2020
2901 Clouds 5 1020 75 10000 3.6 180 07:18 15.02.2020
2902 Clouds 5 1020 75 10000 3.6 190 06:37 15.02.2020
2903 Clouds 5 1020 80 10000 4.1 180 05:55 15.02.2020
2904 Clouds 4 1021 80 10000 3.1 170 04:48 15.02.2020
2905 Clouds 4 1021 80 10000 2.1 170 03:58 15.02.2020
2906 Clouds 4 1022 86 10000 2.6 180 02:58 15.02.2020
2907 Clouds 4 1022 80 10000 2.1 170 02:24 15.02.2020
2908 Clouds 5 1022 80 10000 2.6 170 01:43 15.02.2020
2909 Clouds 5 1023 75 10000 2.6 180 00:58 15.02.2020
2910 Clouds 6 1023 75 10000 2.6 180 00:27 15.02.2020
2911 Clouds 6 1023 75 10000 2.6 180 23:44 14.02.2020
2912 Clouds 6 1023 75 10000 3.6 200 23:21 14.02.2020
2913 Clouds 6 1023 75 10000 2.6 210 22:54 14.02.2020
2914 Clouds 6 1023 75 10000 2.1 210 22:36 14.02.2020
2915 Clouds 6 1024 75 10000 3.6 240 22:36 14.02.2020
2916 Clouds 6 1024 75 10000 3.6 240 22:18 14.02.2020
2917 Clouds 6 1023 75 10000 4.6 240 21:40 14.02.2020
2918 Clouds 6 1023 87 10000 3.1 220 21:21 14.02.2020
2919 Clouds 6 1023 87 10000 2.1 170 20:44 14.02.2020
2920 Clouds 6 1023 81 10000 1.5 160 20:20 14.02.2020
2921 Clouds 6 1022 81 10000 0.5 0 19:57 14.02.2020
2922 Clouds 5 1022 86 10000 0.5 0 19:38 14.02.2020
2923 Clouds 5 1022 86 10000 0.5 0 19:19 14.02.2020
2924 Clouds 5 1022 81 10000 1 220 18:56 14.02.2020
2925 Clouds 6 1021 81 10000 2.49 249 18:38 14.02.2020
2926 Clouds 6 1021 81 10000 2.49 249 18:18 14.02.2020
2927 Clouds 6 1021 81 10000 1.5 310 17:42 14.02.2020
2928 Clouds 7 1021 81 10000 3.1 300 17:20 14.02.2020
2929 Clouds 7 1020 81 10000 3.6 300 16:57 14.02.2020
2930 Clouds 7 1020 81 10000 3.6 300 16:39 14.02.2020
2931 Clouds 7 1020 75 10000 5.7 300 16:20 14.02.2020
2932 Clouds 7 1020 81 10000 4.6 290 15:55 14.02.2020
2933 Clouds 7 1019 81 10000 5.1 280 15:37 14.02.2020
2934 Clouds 7 1019 81 10000 5.1 280 15:19 14.02.2020
2935 Clouds 7 1019 81 10000 5.1 280 15:19 14.02.2020
2936 Clouds 7 1019 87 10000 4.6 290 14:55 14.02.2020
2937 Clouds 7 1019 75 10000 4.6 290 14:37 14.02.2020
2938 Clouds 7 1018 87 10000 4.6 270 14:18 14.02.2020
2939 Clouds 7 1018 87 10000 3.1 270 13:39 14.02.2020
2940 Clouds 7 1018 87 10000 3.1 270 13:20 14.02.2020
2941 Clouds 7 1018 87 10000 3.6 270 12:58 14.02.2020
2942 Rain 7 1018 87 10000 5.1 270 12:39 14.02.2020
2943 Rain 7 1017 87 10000 5.1 300 12:20 14.02.2020
2944 Rain 7 1017 87 10000 5.1 300 12:20 14.02.2020
2945 Rain 7 1017 87 10000 5.1 300 12:20 14.02.2020
2946 Clouds 7 1017 87 10000 5.7 270 11:58 14.02.2020
2947 Rain 7 1016 87 10000 4.6 280 11:40 14.02.2020
2948 Clouds 7 1016 87 10000 4.6 260 11:20 14.02.2020
2949 Rain 6 1015 87 10000 4.1 260 10:46 14.02.2020
2950 Clouds 6 1015 93 10000 3.6 260 10:28 14.02.2020
2951 Clouds 6 1014 93 10000 3.6 270 09:57 14.02.2020
2952 Clouds 6 1014 93 10000 3.6 270 09:57 14.02.2020
2953 Clouds 6 1014 93 10000 3.6 270 09:38 14.02.2020
2954 Clouds 6 1014 93 7000 3.1 280 09:19 14.02.2020
2955 Clouds 6 1013 93 6000 4.6 270 08:40 14.02.2020
2956 Mist 6 1012 93 5000 4.6 290 08:22 14.02.2020
2957 Clouds 6 1012 93 9000 3.1 260 07:51 14.02.2020
2958 Mist 6 1012 93 4500 4.6 290 07:33 14.02.2020
2959 Mist 6 1010 93 4000 4.6 270 06:55 14.02.2020
2960 Drizzle 5 1009 93 3500 4.6 290 06:23 14.02.2020
2961 Rain 5 1008 100 4000 4.1 270 05:44 14.02.2020
2962 Rain 5 1006 100 7000 4.1 260 03:52 14.02.2020
2963 Clouds 5 1005 93 10000 3.6 250 03:28 14.02.2020
2964 Rain 5 1004 86 10000 1.5 220 02:19 14.02.2020
2965 Clouds 4 1003 86 10000 1 240 01:21 14.02.2020
2966 Rain 4 1002 86 10000 2.1 180 00:37 14.02.2020
2967 Rain 4 1002 86 10000 2.1 180 00:18 14.02.2020
2968 Rain 4 1002 93 10000 2.1 180 23:41 13.02.2020
2969 Rain 4 1001 86 10000 1 0 23:19 13.02.2020
2970 Rain 3 1001 86 10000 2.1 180 22:41 13.02.2020
2971 Rain 3 1000 86 10000 2.6 190 22:20 13.02.2020
2972 Clouds 3 1000 86 10000 2.6 190 21:59 13.02.2020
2973 Clouds 4 1000 86 10000 2.6 190 21:40 13.02.2020
2974 Clouds 4 1000 86 10000 2.6 190 21:21 13.02.2020
2975 Clouds 4 1000 86 10000 2.1 170 20:43 13.02.2020
2976 Clouds 4 999 86 10000 2.6 180 20:23 13.02.2020
2977 Clouds 4 999 86 10000 1.5 150 19:58 13.02.2020
2978 Clouds 4 999 86 10000 3.6 200 19:40 13.02.2020
2979 Clouds 4 999 86 10000 1.5 160 19:21 13.02.2020
2980 Clouds 4 999 86 10000 2.6 180 18:59 13.02.2020
2981 Clouds 4 999 86 10000 2.6 180 18:41 13.02.2020
2982 Clouds 4 999 86 10000 4.1 160 18:22 13.02.2020
2983 Rain 4 999 86 10000 5.7 180 17:58 13.02.2020
2984 Clouds 4 998 86 10000 6.2 180 17:37 13.02.2020
2985 Rain 4 999 86 10000 6.2 170 17:19 13.02.2020
2986 Rain 4 999 86 10000 6.7 160 16:55 13.02.2020
2987 -273 0 0 0 0 0 16:55 13.02.2020
2988 Rain 4 999 86 10000 7.7 170 16:36 13.02.2020
2989 Rain 4 999 86 10000 7.7 170 16:36 13.02.2020
2990 Rain 4 1000 86 10000 7.2 140 16:18 13.02.2020
2991 Rain 3 1000 86 10000 8.2 140 15:54 13.02.2020
2992 Rain 3 1001 93 9000 6.2 130 15:36 13.02.2020
2993 Rain 3 1001 93 9000 6.2 130 15:18 13.02.2020
2994 Rain 3 1002 93 9000 7.2 150 14:54 13.02.2020
2995 Rain 3 1001 93 10000 7.7 150 14:36 13.02.2020
2996 Rain 3 1003 86 9000 7.2 150 14:18 13.02.2020
2997 Rain 4 1004 93 10000 5.1 150 13:41 13.02.2020
2998 Rain 4 1004 93 10000 5.1 160 13:18 13.02.2020
2999 Rain 4 1005 86 7000 6.7 180 12:48 13.02.2020
3000 Clouds 4 1007 68 10000 5.1 150 12:30 13.02.2020
3001 Clouds 4 1007 68 10000 5.7 160 11:58 13.02.2020
3002 Clouds 4 1007 68 10000 5.7 160 11:40 13.02.2020
3003 Clouds 4 1008 75 10000 5.7 160 11:19 13.02.2020
3004 Clouds 4 1008 75 10000 4.1 140 10:43 13.02.2020
3005 Clouds 3 1009 75 10000 4.6 150 10:25 13.02.2020
3006 Clouds 3 1009 75 10000 4.6 160 09:50 13.02.2020
3007 Clouds 3 1010 75 10000 4.6 160 09:26 13.02.2020
3008 Clouds 2 1011 75 10000 4.1 160 08:48 13.02.2020
3009 Clouds 2 1011 88 10000 3.1 150 08:20 13.02.2020
3010 Clouds 2 1011 88 10000 3.1 160 07:46 13.02.2020
3011 Clouds 2 1012 88 10000 3.1 180 07:25 13.02.2020
3012 Clouds 2 1012 88 10000 3.1 180 06:59 13.02.2020
3013 Clouds 2 1012 88 10000 3.1 180 06:41 13.02.2020
3014 Clouds 2 1013 88 10000 3.6 220 05:59 13.02.2020
3015 Clear 2 1013 80 10000 3.6 220 05:20 13.02.2020
3016 Clear 2 1013 80 10000 3.1 210 04:25 13.02.2020
3017 Clear 2 1013 80 10000 3.6 230 03:45 13.02.2020
3018 Clear 3 1014 74 10000 5.1 240 02:59 13.02.2020
3019 Clear 3 1014 74 10000 5.1 240 02:41 13.02.2020
3020 Clear 3 1014 74 10000 5.7 240 02:18 13.02.2020
3021 Clear 3 1013 74 10000 6.2 250 01:27 13.02.2020
3022 Clear 3 1013 77 10000 7.7 260 00:32 13.02.2020
3023 Clear 3 1013 74 10000 7.2 250 23:58 12.02.2020
3024 Clear 3 1013 74 10000 7.2 250 23:37 12.02.2020
3025 Clear 3 1013 74 10000 6.2 250 23:18 12.02.2020
3026 Clear 3 1013 74 10000 7.2 250 22:43 12.02.2020
3027 Clear 4 1013 74 10000 7.2 250 22:24 12.02.2020
3028 Clouds 4 1013 69 10000 6.7 240 21:56 12.02.2020
3029 Clouds 4 1013 69 10000 6.7 240 21:37 12.02.2020
3030 Clouds 4 1013 69 10000 6.7 240 21:37 12.02.2020
3031 Clouds 4 1013 69 10000 6.7 240 21:37 12.02.2020
3032 Clouds 4 1012 69 10000 6.7 250 21:18 12.02.2020
3033 Clouds 4 1012 69 10000 5.7 250 20:55 12.02.2020
3034 Clouds 4 1012 69 10000 6.7 270 20:36 12.02.2020
3035 Clouds 4 1012 69 10000 6.7 260 20:18 12.02.2020
3036 Clouds 4 1012 69 10000 5.1 260 19:43 12.02.2020
3037 Clouds 4 1012 69 10000 7.2 270 19:22 12.02.2020
3038 Clouds 4 1011 70 10000 3.1 270 18:54 12.02.2020
3039 Clouds 4 1011 65 10000 8.2 280 18:36 12.02.2020
3040 Clouds 4 1011 73 10000 5.7 280 18:18 12.02.2020
3041 Rain 4 1011 86 10000 6.7 280 17:40 12.02.2020
3042 Rain 5 1010 80 10000 9.3 300 17:19 12.02.2020
3043 Clouds 5 1010 65 10000 6.7 290 16:57 12.02.2020
3044 Clouds 5 1010 65 10000 6.7 290 16:37 12.02.2020
3045 Rain 5 1009 80 10000 8.7 270 16:18 12.02.2020
3046 Clouds 5 1009 80 10000 8.2 280 15:39 12.02.2020
3047 Clouds 5 1009 86 10000 9.8 280 15:20 12.02.2020
3048 Rain 6 1009 60 3000 12.3 300 14:43 12.02.2020
3049 Clouds 6 1008 60 10000 11.8 260 14:21 12.02.2020
3050 Clouds 6 1008 60 10000 9.8 250 13:59 12.02.2020
3051 Clouds 6 1008 60 10000 9.8 250 13:40 12.02.2020
3052 Clouds 6 1008 60 10000 11.3 250 13:22 12.02.2020
3053 Clouds 6 1008 60 10000 11.3 260 12:58 12.02.2020
3054 Clouds 6 1008 60 10000 11.3 260 12:39 12.02.2020
3055 Clouds 6 1008 59 10000 10.8 260 12:19 12.02.2020
3056 Rain 6 1007 65 10000 10.3 260 11:59 12.02.2020
3057 Rain 5 1007 65 10000 10.3 260 11:40 12.02.2020
3058 Clouds 5 1007 65 10000 11.3 250 11:21 12.02.2020
3059 Clouds 5 1006 65 10000 11.3 250 10:58 12.02.2020
3060 Clouds 5 1007 65 10000 10.3 250 10:40 12.02.2020
3061 Clouds 4 1006 69 10000 10.3 250 10:20 12.02.2020
3062 Clouds 4 1006 65 10000 8.7 250 09:42 12.02.2020
3063 Clouds 3 1006 65 8000 10.8 260 09:24 12.02.2020
3064 Clouds 4 1006 69 10000 9.3 250 08:59 12.02.2020
3065 Clouds 4 1005 69 10000 9.8 250 08:39 12.02.2020
3066 Clouds 4 1005 74 10000 9.3 250 08:20 12.02.2020
3067 Clouds 4 1005 74 10000 9.3 250 08:20 12.02.2020
3068 Clouds 3 1005 74 10000 9.3 240 07:59 12.02.2020
3069 Clouds 3 1005 74 10000 9.3 240 07:41 12.02.2020
3070 Clouds 3 1005 74 10000 8.2 250 07:20 12.02.2020
3071 Clouds 3 1004 74 10000 10.3 240 06:43 12.02.2020
3072 Clouds 3 1004 74 10000 9.3 250 06:19 12.02.2020
3073 Clouds 3 1004 74 10000 9.8 250 05:30 12.02.2020
3074 Clouds 3 1004 74 10000 9.8 240 04:43 12.02.2020
3075 Clouds 3 1004 74 10000 9.8 240 03:58 12.02.2020
3076 Clouds 3 1004 74 10000 8.2 240 03:29 12.02.2020
3077 Snow 3 1004 74 10000 8.2 250 02:44 12.02.2020
3078 Snow 3 1004 74 10000 8.7 250 02:25 12.02.2020
3079 Clouds 3 1003 74 10000 9.3 250 01:30 12.02.2020
3080 Clouds 3 1003 74 10000 9.3 250 00:41 12.02.2020
3081 Snow 3 1003 74 10000 7.2 250 00:22 12.02.2020
3082 Rain 2 1003 93 10000 5.7 240 23:47 11.02.2020
3083 Clouds 2 1002 64 10000 9.3 240 23:29 11.02.2020
3084 Rain 2 1002 67 9000 10.3 240 22:57 11.02.2020
3085 Rain 2 1003 67 10000 9.3 270 22:39 11.02.2020
3086 Clouds 2 1002 67 10000 7.7 240 22:20 11.02.2020
3087 Clouds 2 1003 67 10000 6.2 250 21:57 11.02.2020
3088 Clouds 2 1002 67 10000 8.2 260 21:38 11.02.2020
3089 Rain 2 1003 67 10000 7.2 260 21:18 11.02.2020
3090 Clouds 2 1002 67 8000 10.3 240 20:57 11.02.2020
3091 Rain 2 1002 67 9000 9.8 300 20:38 11.02.2020
3092 Clouds 3 1002 74 3000 9.8 260 20:19 11.02.2020
3093 Clouds 3 1002 74 3000 9.8 260 20:19 11.02.2020
3094 Rain 3 1002 66 9000 10.3 270 19:54 11.02.2020
3095 Rain 3 1002 66 9000 10.3 270 19:36 11.02.2020
3096 Thunderstorm 3 1001 66 10000 9.3 260 19:18 11.02.2020
3097 Rain 4 1001 66 5000 10.3 290 18:43 11.02.2020
3098 Rain 4 1000 80 10000 6.7 280 18:25 11.02.2020
3099 Clouds 4 1001 66 10000 9.8 270 17:55 11.02.2020
3100 Rain 4 1000 66 10000 6.2 280 17:37 11.02.2020
3101 Rain 4 999 62 10000 11.8 260 17:18 11.02.2020
3102 Rain 4 999 62 10000 11.3 270 16:58 11.02.2020
3103 Rain 4 999 62 10000 11.3 270 16:38 11.02.2020
3104 Rain 4 999 62 10000 10.8 260 16:20 11.02.2020
3105 Clouds 5 999 80 10000 7.7 260 15:47 11.02.2020
3106 Rain 4 999 93 10000 8.2 270 15:29 11.02.2020
3107 Rain 5 998 80 8000 10.3 260 14:58 11.02.2020
3108 Rain 5 998 62 10000 8.7 260 14:39 11.02.2020
3109 Rain 6 998 66 10000 11.8 270 14:19 11.02.2020
3110 Rain 6 997 66 10000 10.3 260 13:42 11.02.2020
3111 Rain 6 997 70 10000 9.8 250 13:22 11.02.2020
3112 Clouds 6 997 60 10000 10.8 260 12:59 11.02.2020
3113 Rain 6 997 60 10000 10.8 270 12:40 11.02.2020
3114 Clouds 6 997 60 10000 9.8 260 12:21 11.02.2020
3115 Clouds 6 997 60 10000 10.8 260 11:55 11.02.2020
3116 Clouds 6 997 56 10000 12.9 270 11:37 11.02.2020
3117 Clouds 6 997 56 10000 12.9 270 11:37 11.02.2020
3118 Rain 6 996 60 10000 10.3 250 11:18 11.02.2020
3119 Clouds 6 996 56 10000 11.8 270 10:39 11.02.2020
3120 Clouds 6 996 60 10000 12.3 260 10:20 11.02.2020
3121 Rain 5 996 65 10000 9.3 260 09:57 11.02.2020
3122 Rain 5 996 65 10000 9.3 260 09:39 11.02.2020
3123 Clouds 5 995 65 10000 11.3 260 09:20 11.02.2020
3124 Clouds 5 995 65 10000 10.3 250 08:48 11.02.2020
3125 Clouds 5 995 65 10000 10.3 250 08:25 11.02.2020
3126 Clouds 5 994 65 10000 11.3 270 07:49 11.02.2020
3127 Rain 5 994 65 10000 11.8 250 07:28 11.02.2020
3128 Rain 5 994 65 10000 11.3 250 06:57 11.02.2020
3129 Rain 4 994 65 10000 11.3 250 06:38 11.02.2020
3130 Rain 4 993 69 10000 12.9 240 06:20 11.02.2020
3131 Clouds 4 993 69 10000 9.8 260 05:26 11.02.2020
3132 Clouds 4 993 67 10000 9.3 260 04:54 11.02.2020
3133 Clouds 4 993 67 10000 8.7 280 03:27 11.02.2020
3134 Clouds 4 992 80 10000 8.2 270 02:34 11.02.2020
3135 Rain 3 991 86 10000 6.2 270 01:39 11.02.2020
3136 Clouds 3 990 93 10000 7.7 260 00:58 11.02.2020
3137 Thunderstorm 4 989 93 1500 9.8 280 00:23 11.02.2020
3138 Thunderstorm 4 989 93 10000 9.3 270 23:45 10.02.2020
3139 Clouds 6 988 70 10000 9.8 240 23:26 10.02.2020
3140 Clouds 6 988 75 10000 8.2 230 22:57 10.02.2020
3141 Rain 6 988 81 10000 9.8 250 22:37 10.02.2020
3142 Clouds 5 989 86 10000 7.2 220 22:18 10.02.2020
3143 Rain 5 990 86 8000 7.2 250 21:40 10.02.2020
3144 Rain 5 991 80 10000 6.7 230 21:22 10.02.2020
3145 Rain 5 991 75 4000 8.2 240 20:56 10.02.2020
3146 Rain 5 991 75 4000 8.2 240 20:37 10.02.2020
3147 Clouds 6 993 70 10000 5.1 210 20:19 10.02.2020
3148 Clouds 6 993 70 10000 5.1 220 19:57 10.02.2020
3149 Clouds 6 993 61 10000 4.6 220 19:36 10.02.2020
3150 Rain 6 994 75 10000 4.6 230 19:18 10.02.2020
3151 Clouds 6 995 75 10000 4.6 230 18:55 10.02.2020
3152 Clouds 6 995 70 10000 5.7 250 18:37 10.02.2020
3153 Rain 5 996 80 10000 5.1 250 18:18 10.02.2020
3154 Rain 5 997 70 10000 8.7 260 17:54 10.02.2020
3155 Rain 5 996 75 8000 11.3 300 17:36 10.02.2020
3156 Clouds 6 996 70 10000 8.7 250 17:18 10.02.2020
3157 Clouds 6 995 59 10000 10.3 250 16:41 10.02.2020
3158 Clouds 6 995 70 10000 10.3 260 16:20 10.02.2020
3159 Clouds 6 995 70 10000 10.3 260 16:20 10.02.2020
3160 Clouds 6 995 70 10000 10.3 260 16:20 10.02.2020
3161 Rain 6 995 75 8000 8.2 260 15:59 10.02.2020
3162 Rain 6 995 75 8000 8.2 260 15:59 10.02.2020
3163 Clouds 6 995 65 10000 11.3 270 15:40 10.02.2020
3164 Rain 6 994 65 10000 10.8 270 15:22 10.02.2020
3165 Rain 7 996 70 4800 12.3 290 14:58 10.02.2020
3166 Rain 7 996 70 4800 12.3 290 14:58 10.02.2020
3167 Clouds 7 994 65 10000 12.9 280 14:39 10.02.2020
3168 Rain 7 994 86 10000 7.7 270 14:19 10.02.2020
3169 Clouds 6 992 81 10000 7.7 280 13:44 10.02.2020
3170 Rain 6 994 75 10000 10.3 280 13:26 10.02.2020
3171 Rain 6 993 86 10000 8.7 270 12:59 10.02.2020
3172 Rain 5 993 86 10000 8.7 270 12:41 10.02.2020
3173 Rain 5 993 93 10000 12.3 270 12:22 10.02.2020
3174 Rain 6 992 86 5000 9.8 290 11:46 10.02.2020
3175 Rain 6 992 86 5000 9.8 290 11:46 10.02.2020
3176 Rain 6 990 87 6000 9.3 260 11:21 10.02.2020
3177 Rain 6 989 81 10000 10.3 260 10:58 10.02.2020
3178 Rain 6 989 81 10000 10.3 260 10:39 10.02.2020
3179 Rain 6 989 81 10000 11.3 270 10:20 10.02.2020
3180 Rain 6 988 87 8000 5.7 250 09:42 10.02.2020
3181 Rain 6 987 87 5000 10.8 240 09:23 10.02.2020
3182 Rain 7 987 87 4000 10.8 280 08:41 10.02.2020
3183 Rain 7 986 81 5000 12.3 270 08:22 10.02.2020
3184 Clouds 7 985 87 10000 8.2 240 07:55 10.02.2020
3185 Clouds 7 986 81 10000 9.8 280 07:35 10.02.2020
3186 Rain 8 984 87 10000 5.1 280 06:50 10.02.2020
3187 Rain 9 985 70 10000 10.8 250 05:38 10.02.2020
3188 Clouds 9 984 76 10000 10.8 260 03:55 10.02.2020
3189 Rain 9 984 87 10000 10.3 250 03:23 10.02.2020
3190 Rain 9 984 87 10000 11.8 250 02:44 10.02.2020
3191 Rain 9 985 93 2500 9.8 270 01:25 10.02.2020
3192 Rain 10 985 93 1600 13.9 280 00:40 10.02.2020
3193 Rain 11 984 87 7000 7.7 240 00:22 10.02.2020
3194 Rain 12 984 87 5000 11.8 250 23:42 09.02.2020
3195 Rain 12 985 81 5000 11.3 230 23:24 09.02.2020
3196 Clouds 13 987 66 10000 12.9 220 22:45 09.02.2020
3197 Clouds 12 987 71 10000 14.9 220 22:23 09.02.2020
3198 Clouds 12 988 71 10000 12.9 220 21:59 09.02.2020
3199 Clouds 12 988 71 10000 12.9 220 21:40 09.02.2020
3200 Rain 12 989 76 10000 10.8 220 21:21 09.02.2020
3201 Clouds 13 990 66 10000 8.7 220 20:45 09.02.2020
3202 Rain 13 991 66 10000 9.3 210 20:22 09.02.2020
3203 Rain 13 991 62 10000 9.8 210 19:55 09.02.2020
3204 Rain 13 990 58 10000 14.9 230 19:37 09.02.2020
3205 Clouds 13 992 62 10000 8.7 190 19:18 09.02.2020
3206 Clouds 13 993 58 10000 9.8 200 18:42 09.02.2020
3207 Clouds 13 994 58 10000 12.9 200 18:23 09.02.2020
3208 Clouds 12 995 58 10000 10.3 200 17:58 09.02.2020
3209 Clouds 12 994 54 10000 12.9 220 17:39 09.02.2020
3210 Clouds 12 996 58 10000 11.3 200 17:20 09.02.2020
3211 Clouds 12 997 58 10000 10.8 200 16:41 09.02.2020
3212 Clouds 12 998 58 10000 11.3 200 16:22 09.02.2020
3213 Clouds 12 998 58 10000 11.8 200 15:58 09.02.2020
3214 Clouds 12 998 58 10000 11.8 200 15:40 09.02.2020
3215 Clouds 12 1000 58 10000 9.8 200 15:21 09.02.2020
3216 Clouds 12 1000 58 10000 10.3 200 14:56 09.02.2020
3217 Clouds 12 1000 54 10000 10.8 210 14:37 09.02.2020
3218 Clouds 12 1002 57 10000 9.8 200 14:19 09.02.2020
3219 Clouds 11 1002 62 10000 10.3 190 13:42 09.02.2020
3220 Clouds 11 1004 62 10000 8.7 200 13:24 09.02.2020
3221 Clouds 11 1005 62 10000 7.7 200 12:54 09.02.2020
3222 Clouds 11 1004 62 10000 10.3 210 12:36 09.02.2020
3223 Clouds 11 1007 71 10000 8.2 200 12:18 09.02.2020
3224 Clouds 10 1008 66 10000 7.7 200 11:39 09.02.2020
3225 Clouds 10 1009 70 10000 7.2 200 11:19 09.02.2020
3226 Clouds 10 1009 70 10000 7.2 200 11:19 09.02.2020
3227 Clouds 10 1009 70 10000 8.2 200 10:54 09.02.2020
3228 Clouds 9 1008 70 10000 9.3 220 10:36 09.02.2020
3229 Clouds 9 1010 70 10000 7.2 190 10:18 09.02.2020
3230 Clouds 8 1010 70 10000 7.7 220 09:39 09.02.2020
3231 Clouds 8 1011 70 10000 5.1 180 09:20 09.02.2020
3232 Clouds 7 1012 75 10000 4.6 180 08:42 09.02.2020
3233 Clouds 7 1012 75 10000 6.2 190 08:23 09.02.2020
3234 Clouds 7 1013 75 10000 6.2 190 07:54 09.02.2020
3235 Clouds 7 1014 75 10000 7.2 190 07:30 09.02.2020
3236 Clouds 7 1014 75 10000 5.7 180 06:38 09.02.2020
3237 Clouds 7 1016 75 10000 4.1 180 05:56 09.02.2020
3238 Clouds 7 1015 75 10000 3.6 200 05:34 09.02.2020
3239 Clouds 6 1017 81 10000 3.1 180 04:49 09.02.2020
3240 Clouds 7 1017 75 10000 3.6 190 02:58 09.02.2020
3241 Clouds 7 1017 75 10000 3.6 190 02:38 09.02.2020
3242 Clouds 7 1018 75 10000 3.1 170 01:40 09.02.2020
3243 Clouds 7 1018 70 10000 3.1 190 01:19 09.02.2020
3244 Clouds 7 1019 70 10000 2.1 180 00:31 09.02.2020
3245 Clouds 7 1019 70 10000 3.1 200 23:50 08.02.2020
3246 Clouds 8 1019 75 10000 3.1 200 23:25 08.02.2020
3247 Clouds 8 1019 70 10000 2.6 190 22:59 08.02.2020
3248 Clouds 8 1019 70 10000 4.6 220 22:40 08.02.2020
3249 Clouds 7 1019 70 10000 3.1 170 22:20 08.02.2020
3250 Clouds 7 1019 75 10000 2.6 210 21:47 08.02.2020
3251 Clouds 7 1019 70 10000 3.6 210 21:29 08.02.2020
3252 Clouds 7 1019 75 10000 4.1 200 20:59 08.02.2020
3253 Clouds 7 1019 75 10000 4.1 200 20:59 08.02.2020
3254 Clouds 7 1019 75 10000 4.1 200 20:40 08.02.2020
3255 Clouds 7 1019 75 10000 4.1 200 20:40 08.02.2020
3256 Clouds 7 1019 70 10000 3.6 190 20:20 08.02.2020
3257 Clouds 7 1019 70 10000 2.6 190 19:58 08.02.2020
3258 Clouds 7 1019 70 10000 2.6 190 19:39 08.02.2020
3259 Clouds 7 1019 70 10000 2.6 190 19:20 08.02.2020
3260 Clouds 7 1019 75 10000 2.1 190 18:57 08.02.2020
3261 Clouds 7 1019 75 10000 2.1 190 18:38 08.02.2020
3262 Clouds 7 1019 75 10000 3.1 170 18:19 08.02.2020
3263 Clouds 8 1019 70 10000 3.1 180 17:41 08.02.2020
3264 Clouds 8 1019 70 10000 3.6 180 17:19 08.02.2020
3265 Clouds 8 1019 70 10000 3.6 180 16:42 08.02.2020
3266 Clouds 8 1019 70 10000 3.6 170 16:23 08.02.2020
3267 Clouds 8 1019 70 10000 3.6 180 15:59 08.02.2020
3268 Clouds 8 1019 70 10000 2.6 180 15:39 08.02.2020
3269 Clouds 8 1020 70 10000 3.6 190 15:18 08.02.2020
3270 Clouds 8 1020 65 10000 3.1 180 14:45 08.02.2020
3271 Clouds 8 1020 65 10000 3.1 180 14:22 08.02.2020
3272 Clouds 8 1020 65 10000 2.1 170 13:58 08.02.2020
3273 Clouds 8 1020 65 10000 2.1 170 13:58 08.02.2020
3274 Clouds 8 1020 61 10000 3.6 180 13:40 08.02.2020
3275 Clouds 8 1020 61 10000 3.6 180 13:21 08.02.2020
3276 Clouds 7 1020 66 10000 2.6 170 12:40 08.02.2020
3277 Clouds 7 1020 66 10000 3.1 150 12:22 08.02.2020
3278 Clouds 7 1021 66 10000 2.6 180 11:56 08.02.2020
3279 Clouds 7 1021 66 10000 2.6 180 11:38 08.02.2020
3280 Clouds 6 1021 65 10000 3.1 170 11:19 08.02.2020
3281 Clouds 5 1021 60 10000 4.1 160 10:42 08.02.2020
3282 Clouds 4 1021 65 10000 3.6 180 10:22 08.02.2020
3283 Clouds 4 1021 64 10000 2.1 160 09:51 08.02.2020
3284 Clouds 3 1021 64 10000 1.5 150 09:27 08.02.2020
3285 Clouds 2 1021 69 10000 1.5 110 08:54 08.02.2020
3286 Clouds 2 1020 74 10000 3.1 150 08:36 08.02.2020
3287 Clear 1 1021 74 10000 3.1 170 08:18 08.02.2020
3288 Clear 1 1021 69 10000 4.6 170 07:44 08.02.2020
3289 Clear 1 1021 69 10000 4.1 180 07:19 08.02.2020
3290 Clear 1 1021 74 10000 2.1 140 06:28 08.02.2020
3291 Clear 1 1021 74 10000 3.1 150 05:48 08.02.2020
3292 Clear 1 1021 74 10000 3.1 150 05:48 08.02.2020
3293 Clear 1 1021 69 10000 2.1 120 05:29 08.02.2020
3294 Clear 1 1021 80 10000 3.6 180 04:48 08.02.2020
3295 Clear 1 1022 74 10000 3.1 140 03:51 08.02.2020
3296 Clear 2 1023 74 10000 2.1 120 02:51 08.02.2020
3297 Clear 2 1023 80 10000 4.1 150 01:41 08.02.2020
3298 Clear 2 1024 80 10000 5.7 160 01:22 08.02.2020
3299 Clear 3 1024 82 10000 4.6 150 00:39 08.02.2020
3300 Clear 3 1024 82 10000 2.6 120 00:20 08.02.2020
3301 Clear 3 1024 82 10000 2.6 110 23:43 07.02.2020
3302 Clear 3 1024 77 10000 2.6 120 23:20 07.02.2020
3303 Clear 3 1025 77 10000 3.6 120 22:56 07.02.2020
3304 Clouds 3 1024 77 10000 3.6 140 22:37 07.02.2020
3305 Clear 3 1025 77 10000 2.6 120 22:19 07.02.2020
3306 Clear 4 1025 80 10000 2.6 130 21:42 07.02.2020
3307 Clear 4 1025 75 10000 3.1 140 21:22 07.02.2020
3308 Clouds 4 1026 75 10000 3.1 140 20:54 07.02.2020
3309 Clouds 4 1025 80 10000 4.6 150 20:36 07.02.2020
3310 Clouds 5 1026 70 10000 3.6 150 20:18 07.02.2020
3311 Clouds 5 1026 70 10000 4.1 160 19:40 07.02.2020
3312 Clouds 4 1026 75 10000 3.1 160 19:19 07.02.2020
3313 Clouds 5 1026 75 10000 4.1 160 18:55 07.02.2020
3314 Clouds 5 1026 70 10000 4.1 160 18:37 07.02.2020
3315 Clouds 5 1026 70 10000 4.1 150 18:18 07.02.2020
3316 Clouds 5 1026 75 10000 3.6 130 17:42 07.02.2020
3317 Clouds 6 1026 75 10000 3.6 130 17:21 07.02.2020
3318 Clouds 6 1027 75 10000 4.1 140 16:52 07.02.2020
3319 Clouds 6 1027 75 10000 4.1 130 16:25 07.02.2020
3320 Clouds 6 1027 75 10000 4.1 140 15:56 07.02.2020
3321 Clouds 6 1027 75 10000 4.1 140 15:56 07.02.2020
3322 Clouds 7 1027 65 10000 6.2 140 15:38 07.02.2020
3323 Clouds 7 1027 65 10000 6.2 140 15:20 07.02.2020
3324 Clouds 7 1027 65 10000 6.2 140 15:20 07.02.2020
3325 Clouds 7 1028 75 10000 4.6 130 14:42 07.02.2020
3326 Clouds 7 1028 75 10000 4.1 120 14:24 07.02.2020
3327 Clouds 7 1028 70 10000 4.6 140 13:58 07.02.2020
3328 Clouds 6 1028 70 10000 4.6 140 13:39 07.02.2020
3329 Clouds 6 1028 70 10000 4.6 140 13:39 07.02.2020
3330 Clouds 6 1029 75 10000 3.6 140 13:20 07.02.2020
3331 Clouds 6 1029 65 10000 4.1 130 12:45 07.02.2020
3332 Clouds 6 1029 70 10000 4.1 150 12:26 07.02.2020
3333 Clouds 6 1029 70 10000 3.6 130 11:59 07.02.2020
3334 Clouds 6 1029 70 10000 3.6 130 11:40 07.02.2020
3335 Clouds 6 1030 75 10000 2.6 130 11:19 07.02.2020
3336 Clouds 5 1030 75 10000 1.5 140 10:41 07.02.2020
3337 Clouds 5 1030 81 10000 1.5 120 10:21 07.02.2020
3338 Clouds 5 1030 86 10000 1 100 09:49 07.02.2020
3339 Clouds 4 1030 93 10000 1.5 90 09:27 07.02.2020
3340 Clouds 4 1030 86 10000 1 0 08:58 07.02.2020
3341 Clouds 4 1030 86 10000 1 0 08:40 07.02.2020
3342 Clouds 4 1030 86 10000 0.5 0 08:20 07.02.2020
3343 Clouds 4 1030 86 10000 0.5 0 07:43 07.02.2020
3344 Clouds 4 1030 86 10000 0.5 0 07:24 07.02.2020
3345 Clouds 4 1030 86 10000 0.97 217 06:44 07.02.2020
3346 Clouds 4 1030 86 10000 0.5 140 06:23 07.02.2020
3347 Clouds 4 1030 86 10000 0.5 0 05:43 07.02.2020
3348 Clouds 4 1030 86 10000 0.5 0 04:24 07.02.2020
3349 Clouds 5 1030 80 10000 2.1 260 02:32 07.02.2020
3350 Clouds 5 1030 80 7000 2.1 270 01:35 07.02.2020
3351 Clouds 5 1030 80 7000 2.1 280 00:39 07.02.2020
3352 Clouds 5 1030 86 9000 2.1 260 23:57 06.02.2020
3353 Clouds 5 1030 86 7000 1.5 280 23:37 06.02.2020
3354 Clouds 5 1030 86 9000 2.6 280 23:18 06.02.2020
3355 Clouds 5 1030 86 10000 2.1 280 22:43 06.02.2020
3356 Clouds 5 1029 86 8000 2.6 270 22:24 06.02.2020
3357 Clouds 5 1030 86 10000 2.6 270 21:37 06.02.2020
3358 Clouds 5 1030 86 9000 2.6 270 21:19 06.02.2020
3359 Clouds 5 1030 86 9000 3.1 270 20:56 06.02.2020
3360 Clouds 5 1030 86 9000 3.1 270 20:38 06.02.2020
3361 Clouds 5 1030 86 10000 2.6 270 20:18 06.02.2020
3362 Clouds 5 1030 86 10000 3.1 260 19:58 06.02.2020
3363 Clouds 5 1030 86 10000 3.1 260 19:39 06.02.2020
3364 Clouds 5 1030 86 10000 3.1 260 19:21 06.02.2020
3365 Clouds 5 1030 86 10000 3.1 260 18:57 06.02.2020
3366 Clouds 5 1030 86 10000 3.1 260 18:38 06.02.2020
3367 Clouds 5 1029 80 10000 3.6 260 18:20 06.02.2020
3368 Clouds 5 1029 80 10000 3.6 260 17:42 06.02.2020
3369 Clouds 5 1029 86 10000 3.1 260 17:21 06.02.2020
3370 Clouds 6 1029 86 10000 3.6 250 16:54 06.02.2020
3371 Clouds 6 1029 75 10000 4.1 270 16:36 06.02.2020
3372 Clouds 6 1029 80 10000 4.1 260 16:18 06.02.2020
3373 Clouds 6 1029 75 10000 4.1 260 15:41 06.02.2020
3374 Clouds 6 1029 86 10000 4.1 260 15:21 06.02.2020
3375 Clouds 6 1030 81 10000 3.6 260 14:46 06.02.2020
3376 Clouds 6 1030 86 10000 4.1 260 14:26 06.02.2020
3377 Clouds 6 1030 80 10000 4.1 250 13:46 06.02.2020
3378 Clouds 5 1030 80 10000 5.1 250 13:27 06.02.2020
3379 Clouds 5 1030 80 10000 4.1 250 12:57 06.02.2020
3380 Clouds 5 1030 80 10000 3.6 260 12:37 06.02.2020
3381 Clouds 5 1030 86 10000 4.1 260 12:18 06.02.2020
3382 Clouds 5 1030 80 10000 3.6 270 11:55 06.02.2020
3383 Clouds 5 1030 80 10000 3.1 270 11:37 06.02.2020
3384 Clouds 5 1030 80 10000 3.1 270 11:37 06.02.2020
3385 Clouds 5 1030 80 10000 4.1 270 11:18 06.02.2020
3386 Clouds 4 1030 86 10000 4.1 260 10:41 06.02.2020
3387 Clouds 4 1030 86 10000 4.1 260 10:22 06.02.2020
3388 Clouds 4 1030 86 10000 4.1 270 09:59 06.02.2020
3389 Clouds 4 1030 86 10000 4.1 270 09:40 06.02.2020
3390 Clouds 4 1030 86 10000 4.6 270 09:20 06.02.2020
3391 Clouds 4 1030 86 10000 4.1 270 08:45 06.02.2020
3392 Clouds 4 1030 86 10000 4.1 270 08:45 06.02.2020
3393 Clouds 4 1030 86 10000 4.1 280 08:24 06.02.2020
3394 Clouds 4 1030 86 10000 4.1 280 07:56 06.02.2020
3395 Clouds 4 1030 86 10000 5.1 270 07:32 06.02.2020
3396 Clouds 3 1030 93 10000 4.6 270 06:48 06.02.2020
3397 Clouds 3 1030 86 10000 5.1 260 06:19 06.02.2020
3398 Clouds 3 1031 86 10000 4.6 280 05:33 06.02.2020
3399 Clouds 3 1031 89 10000 3.6 250 03:49 06.02.2020
3400 Clouds 3 1031 89 10000 2.6 250 03:18 06.02.2020
3401 Clouds 3 1032 89 10000 2.6 260 01:56 06.02.2020
3402 Clouds 3 1032 90 10000 3.1 260 01:24 06.02.2020
3403 Clouds 3 1033 90 10000 3.6 260 00:29 06.02.2020
3404 Clouds 3 1033 90 10000 3.6 260 23:57 05.02.2020
3405 Clouds 3 1033 90 10000 3.6 260 23:39 05.02.2020
3406 Clouds 3 1033 90 10000 3.6 260 23:39 05.02.2020
3407 Clouds 3 1033 83 10000 3.6 260 23:20 05.02.2020
3408 Clouds 3 1033 83 10000 3.6 260 22:41 05.02.2020
3409 Clouds 3 1033 83 10000 4.1 250 22:41 05.02.2020
3410 Clouds 3 1033 83 10000 3.1 250 22:23 05.02.2020
3411 Clouds 3 1033 74 10000 3.6 250 21:57 05.02.2020
3412 Clouds 3 1033 74 10000 3.6 250 21:39 05.02.2020
3413 Clouds 3 1033 74 10000 3.6 260 21:20 05.02.2020
3414 Clouds 2 1033 74 10000 2.6 250 20:39 05.02.2020
3415 Clouds 2 1033 74 10000 4.1 270 20:39 05.02.2020
3416 Clouds 2 1033 80 10000 2.6 250 20:21 05.02.2020
3417 Clouds 2 1034 74 10000 2.1 250 19:59 05.02.2020
3418 Clouds 2 1034 74 10000 2.1 250 19:40 05.02.2020
3419 Clouds 2 1034 80 10000 2.1 260 19:19 05.02.2020
3420 Clouds 2 1034 74 10000 1.5 270 18:57 05.02.2020
3421 Clouds 2 1034 74 10000 1.5 270 18:39 05.02.2020
3422 Clouds 2 1033 74 10000 2.6 270 18:19 05.02.2020
3423 Clouds 4 1033 64 10000 2.6 250 17:38 05.02.2020
3424 Clouds 4 1033 64 10000 2.6 250 17:20 05.02.2020
3425 Clear 5 1034 60 10000 3.6 260 16:57 05.02.2020
3426 Clouds 5 1034 56 10000 3.1 280 16:39 05.02.2020
3427 Clear 5 1034 65 10000 3.6 270 16:20 05.02.2020
3428 Clear 5 1034 60 10000 4.1 280 15:46 05.02.2020
3429 Clear 5 1034 60 10000 4.1 250 15:20 05.02.2020
3430 Clear 5 1034 65 10000 4.1 260 14:58 05.02.2020
3431 Clouds 5 1034 56 10000 3.6 280 14:39 05.02.2020
3432 Clear 5 1035 65 10000 4.1 260 14:21 05.02.2020
3433 Clear 5 1035 65 10000 3.1 270 13:43 05.02.2020
3434 Clear 4 1035 69 10000 2.6 260 13:22 05.02.2020
3435 Clouds 4 1035 55 10000 2.6 260 12:57 05.02.2020
3436 Clouds 3 1035 69 10000 2.6 290 12:36 05.02.2020
3437 Clouds 3 1035 74 10000 3.1 280 12:18 05.02.2020
3438 Clouds 3 1035 74 10000 3.1 280 12:18 05.02.2020
3439 Clear 3 1035 74 10000 2.6 290 11:41 05.02.2020
3440 Clear 2 1034 80 10000 3.6 300 11:22 05.02.2020
3441 Clear 1 1034 86 10000 3.6 300 10:44 05.02.2020
3442 Clear 1 1033 80 10000 2.6 290 10:26 05.02.2020
3443 Clear 1 1033 74 10000 2.6 280 09:59 05.02.2020
3444 Clear 0 1033 74 10000 2.6 280 09:39 05.02.2020
3445 Clear 0 1033 74 10000 2.6 280 09:39 05.02.2020
3446 Clear 0 1032 92 10000 2.1 280 09:21 05.02.2020
3447 Clear 0 1032 92 10000 2.6 300 08:46 05.02.2020
3448 Clear 0 1032 92 10000 2.6 300 08:25 05.02.2020
3449 Clear 0 1031 92 10000 2.6 290 07:57 05.02.2020
3450 Clear 0 1031 92 10000 2.6 290 07:57 05.02.2020
3451 Clouds 0 1031 83 10000 2.6 330 07:37 05.02.2020
3452 Clear 0 1030 92 10000 3.1 280 06:58 05.02.2020
3453 Clouds 1 1030 83 10000 3.6 310 06:39 05.02.2020
3454 Clouds 1 1030 83 10000 3.1 290 06:19 05.02.2020
3455 Clouds 2 1029 80 10000 3.6 310 05:20 05.02.2020
3456 Clouds 2 1028 80 10000 4.1 320 04:54 05.02.2020
3457 Clouds 3 1027 74 10000 4.6 340 03:57 05.02.2020
3458 Clouds 3 1024 74 10000 4.6 320 02:31 05.02.2020
3459 Clouds 4 1023 69 10000 5.7 330 01:55 05.02.2020
3460 Clouds 4 1022 84 10000 7.2 330 00:54 05.02.2020
3461 Clouds 5 1021 75 10000 8.7 320 23:59 04.02.2020
3462 Clouds 5 1021 75 10000 8.7 320 23:39 04.02.2020
3463 Rain 5 1020 86 10000 6.7 310 23:19 04.02.2020
3464 Rain 5 1020 80 10000 5.7 290 22:56 04.02.2020
3465 Clouds 5 1020 86 10000 5.7 310 22:38 04.02.2020
3466 Clouds 5 1019 86 10000 6.7 290 22:20 04.02.2020
3467 Clouds 5 1018 80 10000 5.7 290 21:54 04.02.2020
3468 Clouds 5 1018 80 10000 5.7 290 21:54 04.02.2020
3469 Clouds 5 1018 86 10000 5.7 280 21:36 04.02.2020
3470 Clouds 4 1018 86 10000 5.7 280 21:18 04.02.2020
3471 Clouds 4 1018 86 10000 5.7 280 20:42 04.02.2020
3472 Clouds 4 1017 86 10000 5.1 280 20:21 04.02.2020
3473 Clouds 4 1016 86 10000 5.1 270 19:58 04.02.2020
3474 Clouds 4 1016 86 10000 5.1 270 19:40 04.02.2020
3475 Clouds 4 1015 80 10000 4.6 270 19:22 04.02.2020
3476 Clouds 4 1015 80 10000 4.6 270 18:55 04.02.2020
3477 Clouds 4 1015 86 10000 4.1 270 18:37 04.02.2020
3478 Clouds 4 1014 80 10000 4.6 280 18:18 04.02.2020
3479 Clouds 4 1014 80 10000 4.6 280 18:18 04.02.2020
3480 Clouds 5 1013 80 10000 6.7 290 17:42 04.02.2020
3481 Rain 5 1012 80 10000 6.2 280 17:21 04.02.2020
3482 Rain 5 1012 75 0 5.1 280 16:55 04.02.2020
3483 Clouds 5 1011 75 10000 4.1 270 16:36 04.02.2020
3484 Clouds 5 1011 75 10000 4.1 270 16:18 04.02.2020
3485 Clouds 5 1011 75 10000 4.6 270 15:55 04.02.2020
3486 Clouds 5 1011 75 10000 4.6 310 15:37 04.02.2020
3487 Clouds 5 1011 75 10000 6.7 300 15:18 04.02.2020
3488 Rain 5 1010 75 10000 6.7 270 14:42 04.02.2020
3489 Clouds 6 1010 81 10000 4.6 280 14:23 04.02.2020
3490 Rain 5 1010 93 10000 7.2 290 13:57 04.02.2020
3491 Rain 5 1010 93 10000 7.2 290 13:39 04.02.2020
3492 Clouds 5 1009 80 10000 5.7 260 13:19 04.02.2020
3493 Clouds 5 1009 75 10000 7.2 270 12:43 04.02.2020
3494 Clouds 5 1009 75 10000 7.2 270 12:43 04.02.2020
3495 Clouds 5 1009 75 10000 7.7 270 12:25 04.02.2020
3496 Clouds 5 1008 80 10000 4.6 270 11:58 04.02.2020
3497 Rain 5 1008 80 10000 7.2 270 11:39 04.02.2020
3498 Rain 5 1009 80 10000 7.2 280 11:19 04.02.2020
3499 Rain 5 1008 80 10000 7.7 260 10:50 04.02.2020
3500 Clouds 5 1007 80 10000 5.7 260 10:28 04.02.2020
3501 Clouds 4 1007 86 10000 6.2 270 09:58 04.02.2020
3502 Clouds 4 1007 80 10000 6.2 280 09:40 04.02.2020
3503 Clouds 4 1006 86 10000 5.7 270 09:21 04.02.2020
3504 Clouds 4 1006 86 10000 6.2 260 08:49 04.02.2020
3505 Rain 4 1005 86 10000 5.7 270 08:28 04.02.2020
3506 Clouds 4 1005 86 10000 6.2 270 07:57 04.02.2020
3507 Clouds 4 1005 80 10000 6.2 280 07:37 04.02.2020
3508 Clouds 4 1005 80 10000 6.2 280 07:37 04.02.2020
3509 Clouds 4 1004 86 10000 6.2 270 07:18 04.02.2020
3510 Clouds 4 1004 86 10000 6.2 270 07:18 04.02.2020
3511 Clouds 4 1004 93 10000 6.2 270 06:41 04.02.2020
3512 Clouds 4 1003 86 10000 6.2 290 05:37 04.02.2020
3513 Clouds 5 1002 86 10000 5.1 280 04:41 04.02.2020
3514 Clouds 5 1002 86 10000 3.6 270 03:49 04.02.2020
3515 Clouds 5 1002 86 10000 3.6 270 03:30 04.02.2020
3516 Rain 5 1002 100 0 3.6 270 02:48 04.02.2020
3517 Rain 5 1002 100 10000 2.1 260 02:27 04.02.2020
3518 Clouds 6 1002 93 10000 2.1 260 01:46 04.02.2020
3519 Clouds 6 1003 93 10000 1.5 240 01:19 04.02.2020
3520 Rain 6 1004 87 10000 4.6 280 00:23 04.02.2020
3521 Rain 7 1004 81 10000 2.1 260 23:49 03.02.2020
3522 Clouds 7 1005 81 10000 2.1 270 23:30 03.02.2020
3523 Rain 7 1005 81 10000 2.1 250 22:58 03.02.2020
3524 Rain 8 1005 81 10000 2.1 250 22:38 03.02.2020
3525 Rain 8 1006 75 10000 3.6 250 22:19 03.02.2020
3526 Clouds 8 1007 75 10000 3.1 260 21:41 03.02.2020
3527 Rain 8 1007 75 10000 4.1 260 21:20 03.02.2020
3528 Clouds 8 1007 75 10000 3.6 260 20:55 03.02.2020
3529 Clouds 8 1007 75 10000 3.6 260 20:37 03.02.2020
3530 Clouds 8 1008 75 10000 4.1 260 20:18 03.02.2020
3531 Clouds 8 1008 75 10000 4.6 270 19:41 03.02.2020
3532 Clouds 8 1008 87 10000 4.6 260 19:22 03.02.2020
3533 Clouds 8 1009 87 10000 3.6 250 18:57 03.02.2020
3534 Clouds 8 1009 87 10000 3.6 250 18:38 03.02.2020
3535 Rain 9 1009 87 10000 4.1 260 18:20 03.02.2020
3536 Clouds 9 1009 87 10000 5.1 270 17:56 03.02.2020
3537 Clouds 9 1008 81 10000 5.1 280 17:38 03.02.2020
3538 Clouds 9 1009 87 10000 6.7 270 17:19 03.02.2020
3539 Rain 9 1009 87 10000 7.7 280 16:40 03.02.2020
3540 Clouds 9 1009 87 10000 6.2 260 16:21 03.02.2020
3541 Clouds 9 1009 76 10000 7.2 260 15:56 03.02.2020
3542 Rain 9 1009 87 9000 7.2 280 15:38 03.02.2020
3543 Clouds 9 1009 76 10000 8.2 270 15:19 03.02.2020
3544 Clouds 9 1008 93 8000 4.6 260 14:45 03.02.2020
3545 Clouds 9 1008 93 8000 4.6 260 14:45 03.02.2020
3546 Rain 9 1008 87 6000 6.2 250 14:27 03.02.2020
3547 Clouds 9 1008 87 10000 7.2 270 13:59 03.02.2020
3548 Clouds 9 1008 87 10000 7.2 270 13:41 03.02.2020
3549 Rain 9 1009 87 10000 6.7 260 13:20 03.02.2020
3550 Clouds 9 1008 93 10000 5.7 250 12:56 03.02.2020
3551 Clouds 9 1009 93 10000 6.7 280 12:37 03.02.2020
3552 Rain 9 1008 87 7000 7.2 240 12:19 03.02.2020
3553 Rain 9 1009 87 5000 7.7 280 11:40 03.02.2020
3554 Rain 9 1008 87 10000 7.2 240 11:20 03.02.2020
3555 Rain 9 1008 87 10000 7.2 240 11:20 03.02.2020
3556 Rain 9 1008 87 10000 7.2 240 11:20 03.02.2020
3557 Rain 9 1008 93 10000 7.2 260 10:58 03.02.2020
3558 Rain 9 1008 93 10000 7.2 260 10:39 03.02.2020
3559 Rain 9 1008 87 10000 4.6 260 10:20 03.02.2020
3560 Clouds 9 1008 87 10000 5.7 260 09:41 03.02.2020
3561 Clouds 8 1007 93 10000 4.6 260 09:20 03.02.2020
3562 Rain 8 1007 87 10000 5.1 260 08:41 03.02.2020
3563 Rain 8 1007 87 7000 5.1 270 08:23 03.02.2020
3564 Clouds 8 1006 87 10000 5.7 260 07:58 03.02.2020
3565 Clouds 8 1006 87 10000 6.2 280 07:39 03.02.2020
3566 Rain 8 1006 87 10000 7.2 270 07:20 03.02.2020
3567 Rain 8 1006 87 10000 7.2 270 07:20 03.02.2020
3568 Rain 8 1007 87 6000 6.7 270 06:43 03.02.2020
3569 Rain 8 1006 93 10000 4.1 270 06:24 03.02.2020
3570 Rain 8 1006 87 10000 5.1 270 05:36 03.02.2020
3571 Rain 8 1006 93 9000 7.2 270 04:50 03.02.2020
3572 Rain 8 1006 100 10000 3.1 270 02:58 03.02.2020
3573 Rain 7 1006 93 10000 4.6 280 02:33 03.02.2020
3574 Rain 8 1006 87 10000 6.2 270 01:24 03.02.2020
3575 Clouds 8 1006 87 10000 6.7 270 00:37 03.02.2020
3576 Clouds 8 1006 87 10000 6.2 270 00:19 03.02.2020
3577 Clouds 8 1006 87 10000 6.2 280 23:37 02.02.2020
3578 Clouds 8 1006 93 10000 6.7 280 23:19 02.02.2020
3579 Drizzle 8 1006 93 4000 5.7 270 22:40 02.02.2020
3580 Drizzle 8 1006 100 2800 5.1 290 22:22 02.02.2020
3581 Drizzle 8 1005 100 3500 5.1 280 21:59 02.02.2020
3582 Drizzle 7 1005 100 3500 5.1 280 21:39 02.02.2020
3583 Drizzle 7 1005 100 2800 2.1 260 21:21 02.02.2020
3584 Drizzle 7 1005 100 2800 1 280 20:58 02.02.2020
3585 Drizzle 7 1005 100 3300 1.5 300 20:39 02.02.2020
3586 Drizzle 7 1005 100 3000 1 260 20:20 02.02.2020
3587 Drizzle 7 1005 100 2800 1 260 19:59 02.02.2020
3588 Drizzle 6 1005 100 2800 1 260 19:41 02.02.2020
3589 Drizzle 6 1005 100 2800 1 280 19:22 02.02.2020
3590 Drizzle 6 1004 100 3500 1.5 250 18:57 02.02.2020
3591 Drizzle 6 1004 100 2800 0.5 250 18:37 02.02.2020
3592 Drizzle 6 1004 100 3500 1.5 260 18:19 02.02.2020
3593 Drizzle 6 1004 100 3000 1.5 250 17:57 02.02.2020
3594 Drizzle 6 1004 100 3000 2.1 260 17:37 02.02.2020
3595 Drizzle 6 1004 100 3500 1 260 17:18 02.02.2020
3596 Drizzle 6 1004 100 3000 1.75 231 16:57 02.02.2020
3597 Drizzle 6 1004 100 3200 2.1 240 16:38 02.02.2020
3598 Drizzle 6 1004 100 6000 2.1 250 16:18 02.02.2020
3599 Drizzle 7 1004 93 6000 2.1 230 15:56 02.02.2020
3600 Drizzle 7 1004 87 4000 1.5 260 15:37 02.02.2020
3601 Drizzle 7 1004 93 8000 1.5 220 15:19 02.02.2020
3602 Drizzle 7 1004 87 8000 3.1 220 14:44 02.02.2020
3603 Drizzle 7 1004 93 5000 3.1 230 14:19 02.02.2020
3604 Drizzle 7 1005 93 6000 2.6 220 13:59 02.02.2020
3605 Drizzle 7 1005 93 6000 2.6 220 13:59 02.02.2020
3606 Drizzle 7 1005 93 6000 2.6 220 13:41 02.02.2020
3607 Drizzle 7 1005 93 4500 4.1 230 13:20 02.02.2020
3608 Rain 7 1006 93 9000 3.6 230 12:56 02.02.2020
3609 Rain 7 1006 93 8000 4.1 250 12:38 02.02.2020
3610 Rain 7 1006 93 10000 4.6 240 12:18 02.02.2020
3611 Rain 8 1006 93 6000 4.1 250 11:42 02.02.2020
3612 Rain 8 1007 81 10000 5.7 250 11:19 02.02.2020
3613 Clouds 8 1007 81 10000 6.2 250 10:57 02.02.2020
3614 Rain 8 1006 81 10000 6.2 250 10:38 02.02.2020
3615 Clouds 8 1007 81 10000 6.2 250 10:20 02.02.2020
3616 Clouds 8 1007 81 10000 6.7 250 09:57 02.02.2020
3617 Clouds 8 1007 81 10000 6.7 250 09:39 02.02.2020
3618 Clouds 8 1007 81 10000 6.7 250 09:39 02.02.2020
3619 Clouds 8 1007 81 10000 7.2 240 09:20 02.02.2020
3620 Clouds 8 1007 81 10000 7.2 250 08:44 02.02.2020
3621 Clouds 8 1007 81 10000 6.7 250 08:25 02.02.2020
3622 Clouds 8 1007 81 10000 7.2 250 07:47 02.02.2020
3623 Clouds 8 1007 81 10000 6.7 250 07:28 02.02.2020
3624 Rain 8 1007 81 10000 7.7 250 06:45 02.02.2020
3625 Drizzle 8 1007 81 10000 8.2 250 06:27 02.02.2020
3626 Rain 8 1006 81 10000 7.7 260 05:48 02.02.2020
3627 Clouds 8 1006 81 10000 7.2 250 04:52 02.02.2020
3628 Drizzle 8 1006 75 10000 7.7 250 03:30 02.02.2020
3629 Rain 9 1005 70 10000 8.2 260 02:35 02.02.2020
3630 Drizzle 9 1005 70 10000 9.8 260 01:55 02.02.2020
3631 Clouds 9 1005 70 10000 8.7 260 01:23 02.02.2020
3632 Clouds 9 1004 75 10000 7.7 260 00:44 02.02.2020
3633 Drizzle 9 1004 75 10000 7.2 250 00:22 02.02.2020
3634 Clouds 8 1004 70 10000 6.7 250 23:47 01.02.2020
3635 Clouds 8 1004 70 10000 6.2 250 23:23 01.02.2020
3636 Clouds 8 1003 70 10000 6.2 260 22:54 01.02.2020
3637 Clouds 8 1003 66 10000 6.7 270 22:36 01.02.2020
3638 Clouds 8 1003 70 10000 7.7 260 22:18 01.02.2020
3639 Clouds 8 1003 70 10000 6.7 260 21:39 01.02.2020
3640 Clouds 9 1002 70 10000 6.2 260 21:18 01.02.2020
3641 Clouds 9 1002 70 10000 6.7 270 20:41 01.02.2020
3642 Clouds 9 1002 70 10000 5.1 260 20:20 01.02.2020
3643 Clouds 9 1002 70 10000 6.2 270 19:57 01.02.2020
3644 Clouds 9 1002 70 10000 6.2 270 19:39 01.02.2020
3645 Clouds 10 1001 71 10000 8.2 270 19:19 01.02.2020
3646 Clouds 10 1001 66 10000 8.7 260 18:58 01.02.2020
3647 Clouds 10 1001 66 10000 8.7 260 18:40 01.02.2020
3648 Rain 11 1000 76 10000 6.7 250 18:21 01.02.2020
3649 Clouds 11 1000 76 10000 5.7 260 17:57 01.02.2020
3650 Rain 11 1000 71 10000 6.7 270 17:39 01.02.2020
3651 Clouds 11 1000 76 10000 6.7 260 17:19 01.02.2020
3652 Clouds 11 1000 81 10000 5.1 270 16:43 01.02.2020
3653 Clouds 11 999 93 10000 4.6 260 16:24 01.02.2020
3654 Clouds 11 999 93 10000 5.1 260 15:58 01.02.2020
3655 Clouds 11 999 93 10000 5.1 260 15:38 01.02.2020
3656 Clouds 11 999 87 10000 6.2 260 15:19 01.02.2020
3657 Clouds 12 999 87 10000 5.1 260 14:41 01.02.2020
3658 Drizzle 11 999 93 6000 6.7 250 14:21 01.02.2020
3659 Drizzle 12 999 87 8000 5.1 260 13:45 01.02.2020
3660 Clouds 12 999 87 10000 6.2 260 13:24 01.02.2020
3661 Clouds 12 1000 93 10000 5.1 230 12:59 01.02.2020
3662 Clouds 11 1000 93 10000 5.1 230 12:41 01.02.2020
3663 Drizzle 11 1000 100 10000 4.1 220 12:22 01.02.2020
3664 Drizzle 11 1000 93 2500 4.1 210 11:44 01.02.2020
3665 Drizzle 11 1000 93 2500 4.1 210 11:24 01.02.2020
3666 Drizzle 11 1001 93 10000 4.6 210 10:59 01.02.2020
3667 Drizzle 11 1001 93 10000 4.6 210 10:40 01.02.2020
3668 Rain 11 1001 100 5000 4.1 210 10:22 01.02.2020
3669 Rain 11 1001 87 9000 4.6 210 09:59 01.02.2020
3670 Rain 11 1001 87 9000 4.6 210 09:40 01.02.2020
3671 Rain 11 1001 87 10000 4.6 210 09:21 01.02.2020
3672 Rain 11 1002 87 10000 5.1 210 08:49 01.02.2020
3673 Rain 11 1002 76 10000 6.2 230 07:51 01.02.2020
3674 Clouds 11 1002 76 10000 7.2 230 07:28 01.02.2020
3675 Clouds 11 1002 76 10000 7.2 230 07:28 01.02.2020
3676 Clouds 11 1002 76 10000 7.2 230 07:28 01.02.2020
3677 Rain 12 1002 76 10000 6.7 230 06:59 01.02.2020
3678 Rain 12 1002 76 10000 6.7 230 06:40 01.02.2020
3679 Clouds 12 1002 76 10000 6.7 230 05:53 01.02.2020
3680 Clouds 12 1003 76 10000 6.2 230 04:21 01.02.2020
3681 Rain 12 1004 76 10000 7.2 230 03:23 01.02.2020
3682 Clouds 12 1004 76 10000 7.2 230 02:48 01.02.2020
3683 Clouds 12 1004 76 10000 6.7 240 02:30 01.02.2020
3684 Clouds 12 1004 76 10000 7.2 240 01:55 01.02.2020
3685 Clouds 12 1004 71 10000 8.7 250 01:37 01.02.2020
3686 Clouds 12 1005 76 10000 8.2 240 00:31 01.02.2020
3687 Clouds 12 1005 76 10000 6.7 240 23:59 31.01.2020
3688 Clouds 12 1005 76 10000 6.7 240 23:38 31.01.2020
3689 Clouds 13 1005 76 10000 6.7 240 23:18 31.01.2020
3690 Clouds 12 1006 81 10000 6.7 240 22:41 31.01.2020
3691 Clouds 12 1006 81 10000 5.7 240 22:23 31.01.2020
3692 Clouds 12 1005 87 10000 6.7 240 21:59 31.01.2020
3693 Clouds 12 1005 87 10000 6.7 240 21:39 31.01.2020
3694 Clouds 12 1006 76 10000 7.2 250 21:20 31.01.2020
3695 Clouds 12 1006 76 10000 7.2 250 21:20 31.01.2020
3696 Clouds 12 1006 76 10000 7.2 250 21:20 31.01.2020
3697 Clouds 13 1006 76 10000 8.2 250 20:57 31.01.2020
3698 Clouds 13 1006 76 10000 8.2 250 20:57 31.01.2020
3699 Clouds 13 1006 76 10000 8.2 250 20:57 31.01.2020
3700 Clouds 13 1006 76 10000 7.7 250 20:39 31.01.2020
3701 Clouds 13 1006 76 10000 8.2 250 20:39 31.01.2020
3702 Clouds 12 1005 76 10000 8.7 240 20:20 31.01.2020
3703 Clouds 12 1006 81 10000 8.7 240 19:56 31.01.2020
3704 Clouds 12 1006 81 10000 7.2 260 19:38 31.01.2020
3705 Clouds 12 1006 81 10000 8.2 250 19:19 31.01.2020
3706 Clouds 12 1006 81 10000 7.7 260 18:45 31.01.2020
3707 Clouds 11 1006 76 10000 7.7 250 18:27 31.01.2020
3708 Clouds 11 1006 76 10000 8.2 250 17:56 31.01.2020
3709 Clouds 11 1006 71 10000 8.2 250 17:38 31.01.2020
3710 Clouds 11 1006 71 10000 7.7 240 17:19 31.01.2020
3711 Clouds 11 1006 71 10000 6.7 250 16:56 31.01.2020
3712 Clouds 12 1006 71 10000 7.2 260 16:37 31.01.2020
3713 Clouds 12 1006 66 10000 6.7 250 16:18 31.01.2020
3714 Clouds 12 1006 66 10000 7.2 260 15:41 31.01.2020
3715 Clouds 12 1006 66 10000 6.7 250 15:21 31.01.2020
3716 Clouds 12 1006 71 10000 8.7 250 14:59 31.01.2020
3717 Clouds 12 1006 66 10000 5.7 260 14:40 31.01.2020
3718 Clouds 12 1006 71 10000 8.7 240 14:20 31.01.2020
3719 Clouds 11 1006 76 10000 6.7 260 13:45 31.01.2020
3720 Clouds 11 1006 76 10000 7.7 260 13:27 31.01.2020
3721 Clouds 11 1006 76 10000 6.7 260 12:54 31.01.2020
3722 Clouds 11 1006 71 10000 6.7 270 12:36 31.01.2020
3723 Clouds 11 1006 76 10000 7.2 260 12:18 31.01.2020
3724 Clouds 11 1006 76 10000 5.7 270 11:41 31.01.2020
3725 Clouds 10 1006 81 10000 5.7 270 11:23 31.01.2020
3726 Clouds 10 1006 76 10000 6.7 270 10:58 31.01.2020
3727 Clouds 10 1006 81 10000 5.7 280 10:37 31.01.2020
3728 Clouds 10 1006 76 10000 5.1 270 10:19 31.01.2020
3729 Clouds 10 1005 76 10000 6.2 270 09:43 31.01.2020
3730 Clouds 10 1005 76 10000 6.2 270 09:22 31.01.2020
3731 Clouds 10 1004 76 10000 6.7 270 08:59 31.01.2020
3732 Clouds 10 1004 76 10000 6.7 270 08:41 31.01.2020
3733 Clouds 10 1004 76 10000 6.7 270 08:41 31.01.2020
3734 Clouds 10 1004 76 10000 8.7 280 08:22 31.01.2020
3735 Clouds 10 1003 81 10000 8.2 270 07:51 31.01.2020
3736 Clouds 10 1002 81 10000 8.2 280 07:19 31.01.2020
3737 Clouds 11 1002 76 10000 8.2 300 06:38 31.01.2020
3738 Clouds 11 1001 76 10000 9.8 280 05:57 31.01.2020
3739 Clouds 11 1000 81 10000 9.3 270 05:30 31.01.2020
3740 Clouds 11 999 87 10000 8.7 270 04:41 31.01.2020
3741 Drizzle 10 998 100 4500 7.2 260 02:50 31.01.2020
3742 Drizzle 10 997 93 6000 9.3 250 01:32 31.01.2020
3743 Clouds 9 997 87 10000 9.3 250 00:41 31.01.2020
3744 Clouds 9 997 87 10000 8.2 240 00:23 31.01.2020
3745 Clouds 9 998 81 10000 6.7 230 23:42 30.01.2020
3746 Clouds 9 998 81 10000 5.7 220 23:23 30.01.2020
3747 Clouds 8 998 81 10000 9.8 240 22:39 30.01.2020
3748 Clouds 8 999 76 10000 5.7 230 22:21 30.01.2020
3749 Clouds 8 999 81 10000 6.7 210 21:59 30.01.2020
3750 Clouds 8 999 81 10000 6.7 210 21:40 30.01.2020
3751 Clouds 8 1000 81 10000 6.7 200 21:19 30.01.2020
3752 Clouds 8 1000 75 10000 5.1 210 20:57 30.01.2020
3753 Clouds 8 1000 75 10000 7.7 220 20:38 30.01.2020
3754 Rain 8 1001 75 10000 5.1 200 20:20 30.01.2020
3755 Clouds 8 1001 70 10000 6.2 190 19:44 30.01.2020
3756 Clouds 7 1002 70 10000 4.1 190 19:19 30.01.2020
3757 Clouds 7 1002 70 10000 3.1 180 18:59 30.01.2020
3758 Clouds 7 1002 70 10000 3.1 180 18:37 30.01.2020
3759 Clouds 7 1003 70 10000 3.6 200 18:18 30.01.2020
3760 Clouds 8 1003 75 10000 3.6 220 17:42 30.01.2020
3761 Clouds 8 1004 70 10000 7.2 230 17:20 30.01.2020
3762 Clouds 8 1004 70 10000 4.1 220 16:59 30.01.2020
3763 Clouds 8 1004 70 10000 4.1 220 16:40 30.01.2020
3764 Clouds 9 1004 70 10000 4.6 240 16:21 30.01.2020
3765 Clouds 9 1005 70 10000 5.7 240 15:45 30.01.2020
3766 Clouds 9 1006 70 10000 6.7 250 15:21 30.01.2020
3767 Clouds 9 1006 70 10000 5.7 240 14:58 30.01.2020
3768 Clouds 9 1006 70 10000 5.7 240 14:40 30.01.2020
3769 Clouds 9 1006 70 10000 5.1 250 14:21 30.01.2020
3770 Clouds 8 1007 75 0 6.7 250 13:41 30.01.2020
3771 Clouds 8 1007 75 10000 7.2 250 13:23 30.01.2020
3772 Clouds 8 1007 75 10000 7.7 250 12:56 30.01.2020
3773 Clouds 8 1007 75 10000 7.7 250 12:38 30.01.2020
3774 Clouds 8 1007 75 10000 7.7 250 12:19 30.01.2020
3775 Clouds 7 1007 75 10000 7.7 260 11:41 30.01.2020
3776 Clouds 7 1007 81 10000 7.7 250 11:22 30.01.2020
3777 Clouds 7 1007 81 10000 8.2 250 10:59 30.01.2020
3778 Clouds 7 1007 81 10000 8.2 250 10:40 30.01.2020
3779 Clouds 7 1007 81 10000 8.2 250 10:20 30.01.2020
3780 Clouds 7 1007 81 10000 8.2 250 09:45 30.01.2020
3781 Clouds 7 1007 81 10000 8.2 240 09:25 30.01.2020
3782 Clouds 7 1007 81 10000 8.7 250 08:43 30.01.2020
3783 Clouds 7 1007 81 10000 8.7 250 08:22 30.01.2020
3784 Clouds 7 1007 81 10000 8.7 250 07:58 30.01.2020
3785 Rain 7 1007 81 10000 9.3 250 07:39 30.01.2020
3786 Rain 6 1007 81 10000 9.3 250 07:18 30.01.2020
3787 Drizzle 6 1007 81 10000 8.2 260 06:43 30.01.2020
3788 Rain 6 1007 75 10000 9.3 250 06:25 30.01.2020
3789 Rain 6 1007 81 10000 8.7 250 05:29 30.01.2020
3790 Clouds 5 1007 75 10000 7.7 240 04:50 30.01.2020
3791 Clouds 5 1008 80 10000 7.7 230 03:47 30.01.2020
3792 Clouds 5 1008 80 10000 5.7 220 02:56 30.01.2020
3793 Clouds 4 1009 86 10000 5.7 240 01:23 30.01.2020
3794 Clouds 4 1009 80 10000 6.2 240 00:30 30.01.2020
3795 Clouds 4 1009 80 10000 6.7 250 23:56 29.01.2020
3796 Clouds 4 1009 80 10000 7.2 250 23:38 29.01.2020
3797 Clouds 4 1009 80 10000 6.2 250 23:20 29.01.2020
3798 Clouds 3 1009 80 10000 5.7 250 22:55 29.01.2020
3799 Clouds 3 1009 86 10000 5.1 250 22:37 29.01.2020
3800 Clouds 4 1009 86 10000 5.1 250 22:18 29.01.2020
3801 Clouds 4 1009 80 10000 5.1 250 21:54 29.01.2020
3802 Clouds 4 1009 80 10000 6.7 260 21:36 29.01.2020
3803 Clouds 4 1009 80 10000 6.7 260 21:36 29.01.2020
3804 Clouds 4 1008 80 10000 5.7 250 21:18 29.01.2020
3805 Clouds 4 1008 80 10000 5.7 250 21:18 29.01.2020
3806 Clouds 4 1008 80 10000 6.7 270 20:41 29.01.2020
3807 Clouds 4 1008 80 10000 5.7 270 20:22 29.01.2020
3808 Clouds 4 1008 80 10000 5.7 260 19:58 29.01.2020
3809 Clouds 4 1008 80 10000 5.7 260 19:38 29.01.2020
3810 Clouds 4 1008 80 10000 6.7 280 19:38 29.01.2020
3811 Clouds 4 1007 80 10000 6.2 260 19:20 29.01.2020
3812 Clouds 4 1007 86 10000 5.1 260 18:58 29.01.2020
3813 Clouds 4 1006 86 10000 4.6 260 18:38 29.01.2020
3814 Clouds 4 1006 86 10000 4.6 260 18:18 29.01.2020
3815 Clouds 4 1005 93 10000 3.6 270 17:41 29.01.2020
3816 Rain 4 1005 93 10000 3.6 270 17:22 29.01.2020
3817 Rain 4 1005 93 10000 5.7 260 16:54 29.01.2020
3818 Clouds 4 1005 93 10000 4.1 270 16:36 29.01.2020
3819 Rain 4 1004 93 7000 6.7 300 16:18 29.01.2020
3820 Rain 4 1004 86 8000 5.7 280 15:39 29.01.2020
3821 Rain 4 1003 86 10000 8.7 250 15:20 29.01.2020
3822 Rain 5 1003 86 7000 8.2 270 14:45 29.01.2020
3823 Rain 5 1002 80 10000 9.8 250 14:23 29.01.2020
3824 Clouds 5 1002 70 10000 9.8 250 13:57 29.01.2020
3825 Clouds 5 1002 70 10000 9.8 250 13:39 29.01.2020
3826 Clouds 6 1002 70 10000 8.7 250 13:20 29.01.2020
3827 Clouds 6 1001 70 10000 9.3 260 12:56 29.01.2020
3828 Clouds 6 1001 70 10000 9.8 250 12:37 29.01.2020
3829 Clouds 6 1001 70 10000 9.8 250 12:19 29.01.2020
3830 Clouds 6 1001 75 10000 8.7 250 11:45 29.01.2020
3831 Clouds 5 1001 70 10000 9.3 250 11:22 29.01.2020
3832 Clouds 5 1001 75 10000 8.2 250 10:47 29.01.2020
3833 Clouds 5 1000 75 10000 7.7 250 10:28 29.01.2020
3834 Clouds 5 1000 75 10000 7.7 250 09:59 29.01.2020
3835 Clouds 5 1000 75 10000 7.7 250 09:40 29.01.2020
3836 Clouds 5 1000 75 10000 7.7 250 09:21 29.01.2020
3837 Clouds 4 999 75 10000 8.2 240 08:56 29.01.2020
3838 Clouds 5 1000 80 10000 7.2 250 08:38 29.01.2020
3839 Rain 4 999 80 10000 8.7 250 08:20 29.01.2020
3840 Rain 4 999 86 10000 7.7 250 07:44 29.01.2020
3841 Rain 4 999 86 10000 7.2 250 07:24 29.01.2020
3842 Rain 4 998 80 10000 8.2 260 06:39 29.01.2020
3843 Rain 4 998 80 10000 7.7 250 06:21 29.01.2020
3844 Clouds 4 998 80 10000 7.2 240 05:59 29.01.2020
3845 Clouds 4 998 80 10000 6.7 250 05:39 29.01.2020
3846 Clouds 4 998 80 10000 6.7 250 05:21 29.01.2020
3847 Rain 4 997 80 10000 7.2 260 04:37 29.01.2020
3848 Clouds 4 997 80 10000 6.2 250 02:43 29.01.2020
3849 Clouds 4 996 86 10000 6.2 250 01:49 29.01.2020
3850 Clouds 3 996 86 10000 7.2 250 00:41 29.01.2020
3851 Rain 4 996 86 10000 7.7 250 00:23 29.01.2020
3852 Clouds 4 996 78 10000 7.7 250 23:44 28.01.2020
3853 Rain 4 996 80 10000 7.7 250 23:21 28.01.2020
3854 Rain 4 995 75 10000 9.3 250 22:57 28.01.2020
3855 Rain 4 995 75 10000 9.3 250 22:39 28.01.2020
3856 Clouds 4 995 75 10000 9.3 250 22:20 28.01.2020
3857 Clouds 4 995 75 10000 9.3 260 21:42 28.01.2020
3858 Clouds 4 995 75 10000 9.8 250 21:20 28.01.2020
3859 Clouds 4 994 75 10000 8.7 250 20:46 28.01.2020
3860 Clouds 4 994 75 10000 8.7 250 20:46 28.01.2020
3861 Rain 4 994 75 10000 9.3 250 20:28 28.01.2020
3862 Rain 4 994 80 10000 7.7 250 19:59 28.01.2020
3863 Clouds 4 994 71 10000 8.7 260 19:38 28.01.2020
3864 Rain 4 994 80 10000 9.8 250 19:20 28.01.2020
3865 Rain 4 993 80 10000 9.3 250 18:58 28.01.2020
3866 Rain 4 993 80 10000 9.3 250 18:39 28.01.2020
3867 Rain 4 993 80 10000 8.2 240 18:21 28.01.2020
3868 Rain 4 992 80 10000 6.2 250 17:56 28.01.2020
3869 Clouds 4 992 80 10000 7.7 260 17:37 28.01.2020
3870 Rain 4 992 86 10000 7.7 250 17:19 28.01.2020
3871 Rain 4 992 86 10000 8.7 250 16:45 28.01.2020
3872 Rain 5 991 80 10000 10.3 250 16:27 28.01.2020
3873 Rain 5 990 80 10000 10.8 260 15:59 28.01.2020
3874 Rain 5 990 80 10000 10.8 260 15:40 28.01.2020
3875 Rain 6 990 75 10000 9.8 250 15:18 28.01.2020
3876 Clouds 6 990 80 10000 8.7 260 14:44 28.01.2020
3877 Clouds 6 989 70 10000 8.7 240 14:20 28.01.2020
3878 Rain 6 989 75 10000 8.7 240 13:45 28.01.2020
3879 Clouds 6 988 75 10000 8.7 230 13:25 28.01.2020
3880 Clouds 6 988 81 10000 7.7 220 12:58 28.01.2020
3881 Clouds 7 988 81 10000 7.2 250 12:40 28.01.2020
3882 Clouds 7 989 87 10000 5.7 220 12:22 28.01.2020
3883 Rain 6 989 87 10000 4.6 240 11:41 28.01.2020
3884 Rain 6 988 81 9000 6.2 240 11:22 28.01.2020
3885 Clouds 6 989 75 10000 4.1 160 10:55 28.01.2020
3886 Rain 6 988 87 10000 4.1 190 10:37 28.01.2020
3887 Clouds 6 989 87 10000 2.6 170 10:18 28.01.2020
3888 Clouds 6 990 87 10000 3.1 190 09:42 28.01.2020
3889 Rain 6 990 86 10000 3.6 200 09:20 28.01.2020
3890 Clouds 6 991 86 10000 3.1 220 08:46 28.01.2020
3891 Clouds 6 991 86 10000 5.1 220 08:26 28.01.2020
3892 Rain 6 991 93 10000 5.7 230 07:56 28.01.2020
3893 Rain 6 991 81 10000 5.7 240 07:35 28.01.2020
3894 Rain 6 991 87 10000 4.1 200 06:48 28.01.2020
3895 Rain 6 991 87 10000 4.1 200 06:48 28.01.2020
3896 Rain 6 991 81 10000 4.1 220 06:25 28.01.2020
3897 Clouds 6 992 81 10000 6.2 210 05:40 28.01.2020
3898 Clouds 6 992 81 10000 6.2 210 05:40 28.01.2020
3899 Clouds 6 992 81 10000 6.2 200 05:22 28.01.2020
3900 Rain 6 993 87 10000 4.6 180 03:50 28.01.2020
3901 Rain 6 994 93 10000 4.1 160 02:49 28.01.2020
3902 Rain 6 995 87 10000 3.1 160 02:25 28.01.2020
3903 Rain 6 996 81 10000 5.7 190 01:56 28.01.2020
3904 Clouds 6 996 81 10000 4.6 180 01:22 28.01.2020
3905 Clouds 6 997 87 10000 4.6 140 00:45 28.01.2020
3906 Clouds 6 997 87 10000 3.1 150 00:22 28.01.2020
3907 Clouds 6 998 87 10000 3.1 150 23:44 27.01.2020
3908 Clouds 6 999 87 10000 3.6 170 23:20 27.01.2020
3909 Clouds 6 999 81 10000 3.1 180 22:45 27.01.2020
3910 Clouds 6 1000 81 10000 3.6 170 22:20 27.01.2020
3911 Clouds 6 1000 81 10000 3.6 170 22:20 27.01.2020
3912 Clouds 6 1001 81 10000 3.6 190 21:58 27.01.2020
3913 Clouds 6 1000 81 10000 4.1 200 21:39 27.01.2020
3914 Clouds 6 1001 81 10000 4.6 190 21:19 27.01.2020
3915 Rain 6 1001 87 10000 3.6 190 20:57 27.01.2020
3916 Rain 6 1001 87 10000 3.6 190 20:38 27.01.2020
3917 Rain 6 1002 87 10000 3.6 180 20:19 27.01.2020
3918 Rain 7 1002 87 10000 4.1 180 19:56 27.01.2020
3919 Rain 7 1003 87 10000 4.1 190 19:38 27.01.2020
3920 Rain 7 1003 87 10000 4.1 190 19:19 27.01.2020
3921 Clouds 7 1002 81 10000 4.6 220 18:39 27.01.2020
3922 Rain 7 1003 81 10000 4.6 180 18:21 27.01.2020
3923 Clouds 7 1004 81 10000 2.6 170 17:58 27.01.2020
3924 Clouds 7 1003 81 10000 4.6 210 17:38 27.01.2020
3925 Clouds 8 1005 81 10000 4.1 170 17:19 27.01.2020
3926 Clouds 8 1005 81 10000 4.1 170 16:56 27.01.2020
3927 Clouds 8 1004 81 10000 4.1 200 16:37 27.01.2020
3928 Clouds 8 1005 81 10000 3.1 190 16:19 27.01.2020
3929 Rain 8 1005 81 10000 4.6 200 15:41 27.01.2020
3930 Clouds 8 1006 81 10000 4.6 200 15:20 27.01.2020
3931 Clouds 8 1006 76 10000 4.1 200 14:57 27.01.2020
3932 Clouds 8 1005 81 10000 5.7 210 14:39 27.01.2020
3933 Clouds 8 1006 76 10000 4.6 200 14:20 27.01.2020
3934 Clouds 8 1006 76 10000 6.2 210 13:42 27.01.2020
3935 Clouds 8 1007 76 10000 5.7 210 13:22 27.01.2020
3936 Clouds 8 1007 75 10000 5.1 200 12:57 27.01.2020
3937 Clouds 8 1007 75 10000 5.1 200 12:57 27.01.2020
3938 Clouds 8 1007 75 10000 5.1 200 12:57 27.01.2020
3939 Clouds 8 1007 81 10000 7.2 220 12:39 27.01.2020
3940 Clouds 8 1008 75 10000 4.6 200 12:20 27.01.2020
3941 Clouds 7 1008 81 10000 5.1 200 11:42 27.01.2020
3942 Clouds 7 1008 81 10000 5.1 200 11:42 27.01.2020
3943 Clouds 7 1008 81 10000 5.1 200 11:21 27.01.2020
3944 Clouds 7 1008 81 10000 5.1 200 10:55 27.01.2020
3945 Rain 6 1008 87 10000 4.1 190 10:36 27.01.2020
3946 Rain 6 1008 87 10000 4.1 190 10:18 27.01.2020
3947 Rain 6 1009 87 10000 3.6 180 09:39 27.01.2020
3948 Rain 6 1009 87 10000 3.6 180 09:39 27.01.2020
3949 Rain 6 1009 87 10000 4.1 180 09:19 27.01.2020
3950 Rain 5 1009 87 10000 3.1 180 08:48 27.01.2020
3951 Rain 5 1009 86 10000 3.6 170 08:23 27.01.2020
3952 Rain 5 1009 81 10000 4.6 180 07:55 27.01.2020
3953 Rain 5 1009 81 10000 5.7 210 07:36 27.01.2020
3954 Clouds 5 1009 81 10000 5.1 180 07:18 27.01.2020
3955 Clouds 5 1010 86 10000 3.6 170 06:33 27.01.2020
3956 Clouds 4 1010 86 10000 4.1 180 05:37 27.01.2020
3957 Clouds 4 1011 86 10000 3.1 150 04:21 27.01.2020
3958 Clouds 4 1012 86 10000 3.6 180 03:27 27.01.2020
3959 Clouds 3 1013 86 10000 1.5 160 01:42 27.01.2020
3960 Clouds 3 1013 86 10000 2.1 150 01:22 27.01.2020
3961 Clouds 3 1012 86 10000 4.1 180 00:40 27.01.2020
3962 Clouds 3 1013 93 10000 2.1 150 00:19 27.01.2020
3963 Clouds 3 1013 93 10000 2.6 170 23:42 26.01.2020
3964 Clouds 2 1013 93 10000 2.6 170 23:20 26.01.2020
3965 Clouds 2 1014 93 10000 2.6 160 22:57 26.01.2020
3966 Clouds 2 1013 93 10000 4.1 170 22:37 26.01.2020
3967 Clouds 2 1014 86 10000 2.1 160 22:18 26.01.2020
3968 Clouds 2 1014 93 10000 3.1 160 21:57 26.01.2020
3969 Clouds 2 1014 93 10000 3.1 160 21:38 26.01.2020
3970 Clouds 2 1014 86 10000 2.6 170 21:19 26.01.2020
3971 Clouds 2 1014 86 10000 2.6 170 21:19 26.01.2020
3972 Clouds 2 1014 86 10000 3.1 160 20:55 26.01.2020
3973 Clouds 2 1014 93 10000 1.5 180 20:37 26.01.2020
3974 Clouds 2 1014 93 10000 2.1 150 20:18 26.01.2020
3975 Clouds 3 1014 93 10000 2.6 160 19:56 26.01.2020
3976 Clouds 2 1014 86 10000 1.5 150 19:37 26.01.2020
3977 Clouds 3 1014 86 10000 1.5 150 19:37 26.01.2020
3978 Clouds 2 1014 93 10000 2.6 170 19:18 26.01.2020
3979 Clouds 3 1015 86 10000 2.1 170 18:41 26.01.2020
3980 Clouds 3 1014 86 10000 2.1 160 18:22 26.01.2020
3981 Clouds 3 1015 86 10000 2.6 170 17:58 26.01.2020
3982 Clouds 3 1015 86 10000 2.6 170 17:58 26.01.2020
3983 Clouds 3 1015 86 10000 2.6 170 17:39 26.01.2020
3984 Clouds 3 1015 80 10000 4.1 160 17:20 26.01.2020
3985 Clouds 3 1015 81 10000 3.1 150 16:58 26.01.2020
3986 Clouds 4 1014 86 10000 2.6 170 16:39 26.01.2020
3987 Clouds 4 1014 86 10000 2.6 170 16:39 26.01.2020
3988 Clouds 4 1014 86 10000 2.6 170 16:39 26.01.2020
3989 Clouds 4 1015 81 10000 3.1 150 16:39 26.01.2020
3990 Clouds 4 1015 81 10000 3.6 150 16:20 26.01.2020
3991 Clouds 4 1015 81 10000 3.1 170 15:57 26.01.2020
3992 Clouds 4 1015 81 10000 3.1 170 15:39 26.01.2020
3993 Clouds 4 1015 80 10000 3.1 130 15:18 26.01.2020
3994 Clouds 3 1015 80 10000 3.1 130 14:40 26.01.2020
3995 Clouds 3 1016 86 10000 2.6 160 14:20 26.01.2020
3996 Clouds 3 1016 86 10000 2.6 160 13:43 26.01.2020
3997 Clouds 3 1016 93 8000 2.6 140 13:21 26.01.2020
3998 Mist 3 1017 100 3400 2.6 120 12:58 26.01.2020
3999 Mist 3 1017 100 3400 2.6 120 12:40 26.01.2020
4000 Mist 2 1017 100 3400 2.6 120 12:21 26.01.2020
4001 Fog 2 1017 100 800 3.1 140 11:57 26.01.2020
4002 Fog 2 1017 93 450 2.1 130 11:39 26.01.2020
4003 Fog 1 1017 93 450 2.1 130 11:18 26.01.2020
4004 Fog 1 1017 93 450 2.1 130 10:58 26.01.2020
4005 Fog 1 1018 100 800 3.1 150 10:38 26.01.2020
4006 Fog 1 1018 100 800 3.1 150 10:20 26.01.2020
4007 Fog 1 1018 93 700 2.6 140 09:57 26.01.2020
4008 Fog 1 1018 93 700 2.6 140 09:39 26.01.2020
4009 Fog 1 1018 93 700 2.6 140 09:39 26.01.2020
4010 Mist 1 1018 93 1500 3.1 130 09:20 26.01.2020
4011 Mist 1 1018 100 3800 1.5 140 08:43 26.01.2020
4012 Mist 1 1018 100 3000 1.5 180 08:22 26.01.2020
4013 Clouds 1 1018 100 8000 1.5 170 07:56 26.01.2020
4014 Clouds 1 1018 100 8000 1.5 170 07:38 26.01.2020
4015 Clouds 1 1018 72 8000 1 0 07:19 26.01.2020
4016 Mist 1 1018 100 3000 2.1 200 06:29 26.01.2020
4017 Drizzle 1 1019 100 4000 2.1 200 05:30 26.01.2020
4018 Mist 1 1019 100 4500 2.1 200 04:44 26.01.2020
4019 Drizzle 1 1019 65 3500 1.5 190 02:41 26.01.2020
4020 Drizzle 0 1019 65 3500 2.1 170 01:47 26.01.2020
4021 Drizzle 0 1020 65 4000 2.1 180 01:24 26.01.2020
4022 Drizzle 0 1020 65 4500 2.1 170 00:44 26.01.2020
4023 Drizzle 0 1020 65 5000 1.5 200 00:26 26.01.2020
4024 Clouds 0 1020 65 6000 1.5 240 23:40 25.01.2020
4025 Clouds 0 1020 65 6000 1.5 240 23:21 25.01.2020
4026 Clouds 0 1020 65 6000 1.5 240 22:58 25.01.2020
4027 Clouds 0 1020 65 6000 1.5 240 22:39 25.01.2020
4028 Clouds 0 1021 96 0 0.45 248 22:18 25.01.2020
4029 Clouds 0 1021 65 10000 2.1 220 21:56 25.01.2020
4030 Clouds 0 1021 65 10000 2.1 220 21:38 25.01.2020
4031 Clouds 0 1021 65 10000 2.1 220 21:19 25.01.2020
4032 Clouds 0 1021 65 7000 3.6 240 20:43 25.01.2020
4033 Clear 0 1021 64 0 1.35 185 20:25 25.01.2020
4034 Clouds 0 1022 95 0 0.89 225 19:54 25.01.2020
4035 Clear 0 1014 89 0 0.89 139 19:36 25.01.2020
4036 Clear 0 1014 89 0 0.45 180 19:18 25.01.2020
4037 Drizzle 0 1020 64 10000 4.1 230 18:41 25.01.2020
4038 Drizzle 0 1020 64 10000 4.1 230 18:21 25.01.2020
4039 Drizzle 0 1020 64 10000 4.1 230 17:56 25.01.2020
4040 Clouds 0 1020 86 10000 3.6 240 17:37 25.01.2020
4041 Clouds 0 1020 86 10000 3.6 240 17:18 25.01.2020
4042 Clouds 1 1020 86 10000 3.6 240 16:42 25.01.2020
4043 Clouds 1 1020 86 10000 3.6 240 16:23 25.01.2020
4044 Clouds 1 1021 62 10000 3.6 230 15:56 25.01.2020
4045 Clouds 1 1021 62 10000 3.6 230 15:37 25.01.2020
4046 Clouds 1 1021 62 10000 3.6 230 15:19 25.01.2020
4047 Clouds 2 1021 62 10000 3.6 230 14:41 25.01.2020
4048 Clouds 2 1021 62 10000 3.6 240 14:19 25.01.2020
4049 Clouds 2 1021 62 10000 3.6 240 13:44 25.01.2020
4050 Clouds 2 1021 90 0 2.9 232 13:25 25.01.2020
4051 Clouds 2 1022 93 8000 3.1 210 12:50 25.01.2020
4052 Clouds 2 1022 93 8000 3.1 210 12:30 25.01.2020
4053 Clouds 2 1022 93 8000 3.1 210 11:57 25.01.2020
4054 Clouds 2 1022 62 10000 2.6 220 11:38 25.01.2020
4055 Drizzle 1 1022 66 8000 2.6 200 11:19 25.01.2020
4056 Clouds 1 1022 66 8000 2.6 200 10:42 25.01.2020
4057 Clouds 1 1022 66 8000 2.6 210 10:21 25.01.2020
4058 Drizzle 1 1022 66 7000 1.5 240 09:59 25.01.2020
4059 Mist 1 1022 66 4700 3.1 240 09:38 25.01.2020
4060 Drizzle 1 1022 66 5000 1.5 210 09:19 25.01.2020
4061 Drizzle 0 1021 66 4800 1.5 220 08:42 25.01.2020
4062 Drizzle 1 1021 62 4200 2.1 230 07:54 25.01.2020
4063 Drizzle 0 1021 62 3800 2.1 230 07:21 25.01.2020
4064 Drizzle 0 1021 62 3700 2.1 240 06:31 25.01.2020
4065 Drizzle 0 1021 62 3600 1.5 240 05:51 25.01.2020
4066 Drizzle 0 1021 62 4400 1.5 230 05:32 25.01.2020
4067 Clouds 0 1021 86 6000 1.5 240 03:56 25.01.2020
4068 Clouds 0 1021 86 6000 3.1 250 03:37 25.01.2020
4069 Mist 0 1021 86 5000 2.1 260 02:35 25.01.2020
4070 Mist 0 1021 76 5000 1.5 230 01:56 25.01.2020
4071 Clouds 0 1022 77 6000 1.5 220 00:59 25.01.2020
4072 Mist 0 1022 77 5000 3.1 240 00:37 25.01.2020
4073 Clouds 0 1022 77 6000 2.6 220 00:18 25.01.2020
4074 Clouds 0 1022 77 6000 2.6 220 00:18 25.01.2020
4075 Mist 0 1022 77 5000 3.1 240 23:41 24.01.2020
4076 Mist 0 1022 77 5000 3.1 240 23:41 24.01.2020
4077 Clouds 0 1022 77 6000 3.1 220 23:41 24.01.2020
4078 Mist 0 1022 77 5000 3.1 220 23:23 24.01.2020
4079 Mist 0 1022 77 5000 3.1 220 23:23 24.01.2020
4080 Mist 0 1022 77 4000 6.2 230 22:46 24.01.2020
4081 Mist 0 1022 77 3500 3.6 220 22:26 24.01.2020
4082 Mist 0 1022 77 2800 3.1 230 21:57 24.01.2020
4083 Mist 0 1022 77 2800 3.1 230 21:39 24.01.2020
4084 Mist 0 1022 77 2200 3.6 240 21:18 24.01.2020
4085 Mist 0 1022 77 2700 3.6 230 20:43 24.01.2020
4086 Mist 0 1023 81 5000 4.1 240 20:22 24.01.2020
4087 Mist 0 1023 81 5000 4.1 240 19:58 24.01.2020
4088 Mist 0 1023 81 5000 4.1 240 19:39 24.01.2020
4089 Mist 0 1023 81 4500 3.6 270 19:21 24.01.2020
4090 Mist 0 1022 81 5000 3.1 270 18:44 24.01.2020
4091 Mist 0 1022 81 5000 4.6 260 18:25 24.01.2020
4092 Mist 0 1022 81 4500 3.6 270 17:59 24.01.2020
4093 Mist 0 1022 81 4500 3.6 270 17:41 24.01.2020
4094 Mist 0 1022 66 4500 3.1 260 17:20 24.01.2020
4095 Mist 0 1021 66 4500 4.6 240 16:40 24.01.2020
4096 Mist 0 1022 66 4500 4.6 250 16:21 24.01.2020
4097 Mist 0 1022 66 4500 4.6 250 15:56 24.01.2020
4098 Mist 0 1022 86 4000 4.1 250 15:38 24.01.2020
4099 Mist 0 1022 66 4500 5.1 250 15:19 24.01.2020
4100 Mist 0 1022 66 3700 4.6 270 14:41 24.01.2020
4101 Mist 0 1022 62 3800 3.6 270 14:23 24.01.2020
4102 Mist 0 1022 62 3800 3.6 270 14:23 24.01.2020
4103 Mist 0 1023 62 2800 4.1 250 13:45 24.01.2020
4104 Mist 0 1022 64 2000 4.6 240 13:24 24.01.2020
4105 Mist 0 1023 64 2500 3.6 250 12:55 24.01.2020
4106 Mist 0 1023 64 3400 3.6 260 12:37 24.01.2020
4107 Drizzle 0 1023 64 2500 2.6 270 12:18 24.01.2020
4108 Drizzle 0 1023 64 2500 2.6 270 12:18 24.01.2020
4109 Mist 0 1024 64 2200 3.6 270 11:42 24.01.2020
4110 Mist 0 1024 73 1800 4.1 270 11:19 24.01.2020
4111 Mist 0 1024 73 2500 3.6 260 10:43 24.01.2020
4112 Mist -1 1023 100 2400 4.1 280 10:22 24.01.2020
4113 Mist -1 1023 100 3500 3.1 270 09:56 24.01.2020
4114 Mist -1 1023 100 3500 3.1 270 09:38 24.01.2020
4115 Mist -1 1023 100 3500 3.1 270 09:38 24.01.2020
4116 Mist -1 1023 73 2700 3.1 270 09:20 24.01.2020
4117 Mist -2 1023 92 5000 2.1 270 08:40 24.01.2020
4118 Mist -2 1023 100 1300 3.1 270 08:19 24.01.2020
4119 Mist -2 1023 100 3300 1 220 07:49 24.01.2020
4120 Mist -2 1023 100 5000 1 320 07:28 24.01.2020
4121 Mist -2 1022 92 5000 1.5 210 06:48 24.01.2020
4122 Mist -2 1023 92 5000 1 220 06:28 24.01.2020
4123 Mist -2 1023 92 5000 0.5 0 05:57 24.01.2020
4124 Mist -2 1023 100 4500 0.5 310 04:52 24.01.2020
4125 Mist -2 1025 92 5000 0.5 0 02:53 24.01.2020
4126 Clear -2 1025 92 6000 2.1 90 02:23 24.01.2020
4127 Fog -2 1025 100 10000 0.5 220 01:40 24.01.2020
4128 Clear -2 1025 92 6000 0.5 0 01:19 24.01.2020
4129 Clear -1 1026 92 7000 1 90 00:19 24.01.2020
4130 Clear -1 1026 100 10000 1 200 23:45 23.01.2020
4131 Clear -1 1026 100 10000 1 200 23:45 23.01.2020
4132 Clear -1 1027 100 7000 1 160 23:27 23.01.2020
4133 Clear -1 1027 92 8000 0.5 90 22:59 23.01.2020
4134 Clear -1 1027 86 10000 1.5 180 22:37 23.01.2020
4135 Clear -1 1027 100 10000 0.5 0 22:19 23.01.2020
4136 Clear -1 1027 100 10000 0.5 0 22:19 23.01.2020
4137 Clear -1 1028 86 10000 1 60 21:56 23.01.2020
4138 Clear 0 1027 86 10000 0.5 150 21:38 23.01.2020
4139 Clear 0 1028 86 10000 1 100 21:19 23.01.2020
4140 Clear 0 1028 86 10000 0.5 100 20:57 23.01.2020
4141 Clear 0 1028 89 10000 1.5 170 20:38 23.01.2020
4142 Clear 0 1028 89 10000 0.5 30 20:19 23.01.2020
4143 Clear 1 1028 86 10000 0.98 140 19:44 23.01.2020
4144 Clouds 2 1029 89 10000 1.5 180 19:24 23.01.2020
4145 Clouds 2 1029 80 10000 2.1 190 18:59 23.01.2020
4146 Clouds 2 1029 80 10000 2.1 190 18:40 23.01.2020
4147 Clouds 3 1029 89 10000 1.5 220 18:20 23.01.2020
4148 Clouds 3 1029 89 10000 2.1 170 17:57 23.01.2020
4149 Clouds 4 1029 89 10000 2.1 170 17:39 23.01.2020
4150 Clouds 4 1029 82 10000 2.1 180 17:19 23.01.2020
4151 Clouds 5 1029 75 10000 2.6 210 16:39 23.01.2020
4152 Clouds 5 1030 82 10000 2.1 210 16:20 23.01.2020
4153 Clouds 5 1030 70 10000 1.5 220 15:58 23.01.2020
4154 Clouds 5 1030 70 10000 1.5 220 15:40 23.01.2020
4155 Clouds 6 1031 70 10000 2.1 170 15:19 23.01.2020
4156 Clouds 6 1031 70 10000 2.1 170 15:19 23.01.2020
4157 Clouds 6 1031 70 10000 2.1 190 14:59 23.01.2020
4158 Clouds 6 1031 70 10000 2.1 210 14:41 23.01.2020
4159 Clouds 6 1031 70 10000 2.1 210 14:23 23.01.2020
4160 Clouds 6 1032 75 10000 1 0 13:59 23.01.2020
4161 Clouds 5 1032 70 10000 2.1 180 13:38 23.01.2020
4162 Clouds 5 1032 75 10000 0.5 0 13:19 23.01.2020
4163 Clouds 5 1032 93 8000 1.5 0 12:46 23.01.2020
4164 Clouds 5 1033 81 10000 1 0 12:25 23.01.2020
4165 Clouds 5 1034 93 10000 0.5 260 11:57 23.01.2020
4166 Clouds 5 1033 86 10000 1 0 11:38 23.01.2020
4167 Clouds 4 1034 93 10000 0.5 0 11:19 23.01.2020
4168 Clouds 4 1034 93 9000 0.5 0 10:44 23.01.2020
4169 Clouds 4 1034 93 8000 0.5 0 10:22 23.01.2020
4170 Mist 3 1034 100 4200 0.5 0 09:57 23.01.2020
4171 Clouds 3 1034 93 9000 1 270 09:36 23.01.2020
4172 Mist 3 1034 93 3500 0.5 210 09:18 23.01.2020
4173 Mist 3 1034 93 3500 0.5 0 08:41 23.01.2020
4174 Mist 3 1034 100 3500 1 220 08:22 23.01.2020
4175 Clouds 3 1034 100 6000 1.5 270 07:45 23.01.2020
4176 Clouds 3 1034 100 6000 1.5 270 07:26 23.01.2020
4177 Clouds 3 1034 93 6000 1 0 06:52 23.01.2020
4178 Clouds 4 1034 93 6000 1.5 260 06:23 23.01.2020
4179 Mist 4 1034 93 5000 1.5 260 05:57 23.01.2020
4180 Mist 4 1035 100 5000 2.1 270 04:24 23.01.2020
4181 Mist 4 1035 93 5000 2.1 260 02:34 23.01.2020
4182 Mist 4 1035 93 4000 2.1 250 01:33 23.01.2020
4183 Clouds 4 1036 100 6000 2.1 260 00:27 23.01.2020
4184 Clouds 4 1035 100 6000 2.1 270 23:48 22.01.2020
4185 Clouds 4 1036 100 6000 2.1 260 23:30 22.01.2020
4186 Clouds 4 1035 100 6000 2.1 250 22:59 22.01.2020
4187 Mist 4 1035 100 4000 2.1 260 22:40 22.01.2020
4188 Clouds 4 1035 100 6000 2.1 250 22:22 22.01.2020
4189 Clouds 4 1035 100 6000 2.1 250 21:40 22.01.2020
4190 Mist 4 1035 93 5000 2.1 270 21:22 22.01.2020
4191 Mist 4 1035 93 5000 2.6 260 20:57 22.01.2020
4192 Mist 4 1035 93 5000 2.6 260 20:57 22.01.2020
4193 Mist 4 1035 93 4200 3.1 270 20:38 22.01.2020
4194 Mist 4 1035 93 4200 3.1 270 20:38 22.01.2020
4195 Clouds 5 1035 93 6000 2.6 270 20:20 22.01.2020
4196 Clouds 5 1035 93 6000 3.6 270 19:56 22.01.2020
4197 Clouds 5 1035 93 6000 3.6 270 19:38 22.01.2020
4198 Clouds 4 1034 93 6000 3.6 270 19:18 22.01.2020
4199 Clouds 4 1034 93 6000 2.6 270 18:56 22.01.2020
4200 Clouds 5 1034 93 6000 2.6 270 18:38 22.01.2020
4201 Mist 5 1034 93 4400 3.1 280 18:19 22.01.2020
4202 Mist 5 1034 93 4400 3.1 280 18:19 22.01.2020
4203 Clouds 5 1034 93 6000 3.1 270 17:54 22.01.2020
4204 Mist 5 1034 93 4700 3.1 280 17:36 22.01.2020
4205 Mist 5 1033 93 4500 3.6 270 17:18 22.01.2020
4206 Drizzle 5 1033 93 5000 3.6 280 16:42 22.01.2020
4207 Drizzle 5 1033 93 3500 4.1 270 16:22 22.01.2020
4208 Drizzle 5 1033 93 3500 3.6 270 15:58 22.01.2020
4209 Clouds 5 1033 93 6000 4.1 290 15:38 22.01.2020
4210 Drizzle 5 1033 100 3500 3.6 270 15:20 22.01.2020
4211 Mist 4 1034 100 4500 4.1 290 14:40 22.01.2020
4212 Mist 4 1034 100 4500 4.1 290 14:40 22.01.2020
4213 Drizzle 4 1034 100 2800 4.1 270 14:21 22.01.2020
4214 Drizzle 4 1033 100 2800 4.6 270 13:59 22.01.2020
4215 Drizzle 4 1033 100 2800 4.6 270 13:38 22.01.2020
4216 Drizzle 4 1034 100 2800 4.1 270 13:19 22.01.2020
4217 Drizzle 4 1034 100 2000 4.1 270 12:57 22.01.2020
4218 Mist 4 1034 93 2700 4.1 270 12:39 22.01.2020
4219 Drizzle 3 1034 100 1500 3.1 260 12:20 22.01.2020
4220 Mist 3 1034 100 2400 4.6 270 11:58 22.01.2020
4221 Mist 3 1034 100 2700 4.6 280 11:40 22.01.2020
4222 Mist 3 1034 100 1700 5.1 270 11:19 22.01.2020
4223 Mist 3 1034 100 1700 5.1 270 11:19 22.01.2020
4224 Drizzle 3 1034 100 1100 5.7 270 10:54 22.01.2020
4225 Drizzle 3 1034 100 1500 4.1 270 10:36 22.01.2020
4226 Drizzle 3 1034 100 1100 5.1 270 10:18 22.01.2020
4227 Drizzle 3 1034 93 1500 5.1 270 09:41 22.01.2020
4228 Drizzle 2 1034 93 1600 4.1 270 09:23 22.01.2020
4229 Drizzle 2 1033 93 1600 4.1 260 08:57 22.01.2020
4230 Drizzle 2 1033 93 2500 4.6 280 08:38 22.01.2020
4231 Drizzle 3 1033 93 1200 3.6 260 08:20 22.01.2020
4232 Drizzle 2 1033 100 2200 3.1 250 07:46 22.01.2020
4233 Drizzle 3 1033 93 2200 3.6 260 07:27 22.01.2020
4234 Drizzle 3 1033 100 1300 3.6 250 06:38 22.01.2020
4235 Mist 3 1034 93 4000 4.6 280 06:20 22.01.2020
4236 Mist 3 1034 93 4000 4.6 280 06:20 22.01.2020
4237 Mist 3 1034 93 4000 4.6 280 06:20 22.01.2020
4238 Clouds 3 1034 86 10000 4.6 250 05:19 22.01.2020
4239 Clouds 3 1035 86 10000 3.6 250 03:29 22.01.2020
4240 Clouds 3 1035 93 10000 3.1 250 02:49 22.01.2020
4241 Clouds 2 1036 86 10000 3.1 260 01:35 22.01.2020
4242 Clouds 2 1036 87 10000 2.6 240 00:42 22.01.2020
4243 Clouds 2 1037 87 10000 3.1 250 00:23 22.01.2020
4244 Clouds 1 1037 87 10000 3.6 270 23:37 21.01.2020
4245 Clouds 1 1037 79 10000 2.6 250 23:19 21.01.2020
4246 Clouds 1 1037 86 10000 2.6 260 22:42 21.01.2020
4247 Clouds 1 1037 86 10000 2.1 270 22:24 21.01.2020
4248 Clouds 1 1038 79 10000 2.1 290 21:58 21.01.2020
4249 Clouds 1 1037 80 10000 3.1 300 21:39 21.01.2020
4250 Clouds 1 1038 79 10000 3.1 290 21:21 21.01.2020
4251 Clouds 1 1037 80 10000 2.6 260 20:58 21.01.2020
4252 Clouds 2 1037 74 10000 4.6 260 20:39 21.01.2020
4253 Clouds 2 1037 74 10000 4.6 260 20:39 21.01.2020
4254 Clouds 2 1037 74 10000 2.6 270 20:20 21.01.2020
4255 Clouds 2 1037 80 10000 3.6 240 19:58 21.01.2020
4256 Clouds 2 1037 80 10000 3.6 240 19:58 21.01.2020
4257 Clouds 2 1037 80 10000 3.6 240 19:39 21.01.2020
4258 Clouds 2 1037 74 10000 3.1 250 19:21 21.01.2020
4259 Clouds 2 1038 74 10000 3.1 250 18:57 21.01.2020
4260 Clouds 2 1038 74 10000 3.1 250 18:38 21.01.2020
4261 Clouds 3 1038 74 10000 3.1 230 18:20 21.01.2020
4262 Clouds 3 1038 74 10000 2.1 260 17:56 21.01.2020
4263 Clouds 4 1039 69 10000 2.6 270 17:37 21.01.2020
4264 Clouds 4 1039 69 10000 2.6 270 17:18 21.01.2020
4265 Clouds 4 1039 71 10000 2.6 260 16:37 21.01.2020
4266 Clouds 5 1039 71 10000 3.1 250 16:19 21.01.2020
4267 Clouds 5 1039 71 10000 4.1 250 15:57 21.01.2020
4268 Clouds 6 1039 60 10000 4.1 270 15:37 21.01.2020
4269 Clouds 6 1039 71 10000 4.1 250 15:19 21.01.2020
4270 Clouds 6 1039 71 10000 4.6 270 14:39 21.01.2020
4271 Clear 6 1040 70 10000 5.1 250 14:20 21.01.2020
4272 Clear 5 1040 70 10000 4.6 260 13:43 21.01.2020
4273 Clear 5 1041 70 10000 4.1 250 13:20 21.01.2020
4274 Clear 5 1041 69 10000 5.1 260 12:57 21.01.2020
4275 Clouds 4 1041 69 10000 4.1 270 12:39 21.01.2020
4276 Clear 4 1041 69 10000 5.1 260 12:20 21.01.2020
4277 Clear 4 1041 69 10000 3.6 250 11:41 21.01.2020
4278 Clear 3 1041 82 10000 4.1 250 11:22 21.01.2020
4279 Clear 2 1041 82 10000 4.1 250 10:59 21.01.2020
4280 Clear 2 1041 82 10000 4.1 250 10:40 21.01.2020
4281 Clear 1 1041 82 10000 4.1 250 10:21 21.01.2020
4282 Clear 1 1041 82 9000 3.1 260 09:42 21.01.2020
4283 Clear 0 1041 82 7000 3.6 260 09:23 21.01.2020
4284 Mist 0 1041 82 5000 2.6 270 08:55 21.01.2020
4285 Mist 0 1041 82 5000 2.6 270 08:36 21.01.2020
4286 Mist 0 1041 82 5000 2.6 270 08:36 21.01.2020
4287 Clear 0 1041 89 9000 2.6 250 08:18 21.01.2020
4288 Clear 0 1042 89 10000 2.6 260 07:41 21.01.2020
4289 Clear 0 1041 89 10000 3.1 240 07:22 21.01.2020
4290 Clear 0 1042 89 10000 2.6 250 06:49 21.01.2020
4291 Clear 0 1042 89 9000 1.5 240 06:30 21.01.2020
4292 Clear 0 1042 100 6000 1.5 270 05:43 21.01.2020
4293 Clear 0 1042 90 10000 2.6 250 04:41 21.01.2020
4294 Clear 1 1043 90 6000 2.1 220 02:57 21.01.2020
4295 Fog 1 1043 100 4800 1 0 01:56 21.01.2020
4296 Fog 1 1044 100 5000 1 210 01:26 21.01.2020
4297 Fog 1 1044 93 3500 0.5 0 00:37 21.01.2020
4298 Fog 1 1044 100 5000 1 0 23:59 20.01.2020
4299 Clouds 2 1044 93 7000 3.1 240 23:41 20.01.2020
4300 Fog 2 1045 93 4000 1 240 23:19 20.01.2020
4301 Mist 2 1045 100 5000 2.1 250 22:56 20.01.2020
4302 Mist 2 1045 100 5000 2.1 250 22:38 20.01.2020
4303 Mist 2 1045 100 5000 2.1 250 22:38 20.01.2020
4304 Mist 2 1045 93 5000 1.5 240 22:20 20.01.2020
4305 Clear 2 1045 93 8000 1.5 260 21:57 20.01.2020
4306 Clouds 2 1045 93 9000 2.6 280 21:37 20.01.2020
4307 Clear 3 1045 93 9000 1.5 240 21:19 20.01.2020
4308 Clear 3 1045 93 10000 2.1 250 20:56 20.01.2020
4309 Clear 3 1045 93 10000 2.1 250 20:56 20.01.2020
4310 Clouds 3 1045 93 10000 3.1 260 20:38 20.01.2020
4311 Clouds 3 1045 86 10000 2.1 250 20:18 20.01.2020
4312 Clouds 3 1045 93 10000 2.6 260 19:56 20.01.2020
4313 Clouds 4 1045 93 10000 3.1 260 19:37 20.01.2020
4314 Clouds 4 1045 86 10000 2.6 250 19:18 20.01.2020
4315 Clouds 4 1045 86 10000 4.1 250 18:43 20.01.2020
4316 Clouds 4 1045 86 10000 4.1 250 18:22 20.01.2020
4317 Clouds 5 1045 81 10000 3.6 260 17:41 20.01.2020
4318 Clouds 5 1045 81 10000 3.6 260 17:19 20.01.2020
4319 Clouds 5 1045 81 10000 3.1 240 16:58 20.01.2020
4320 Clouds 6 1045 87 10000 4.1 250 16:37 20.01.2020
4321 Clouds 6 1045 81 10000 3.1 240 16:18 20.01.2020
4322 Clouds 6 1045 81 10000 3.1 240 16:18 20.01.2020
4323 Clouds 6 1045 81 10000 3.1 240 16:18 20.01.2020
4324 Clouds 6 1045 81 10000 3.6 230 15:54 20.01.2020
4325 Clouds 6 1045 81 10000 3.1 250 15:36 20.01.2020
4326 Clouds 6 1046 81 10000 3.1 230 15:18 20.01.2020
4327 Clouds 6 1046 81 10000 3.1 260 14:41 20.01.2020
4328 Clouds 6 1046 81 10000 2.1 260 14:22 20.01.2020
4329 Clouds 6 1046 87 10000 3.1 250 13:58 20.01.2020
4330 Clouds 6 1046 87 10000 3.1 250 13:39 20.01.2020
4331 Clouds 6 1047 87 10000 2.1 260 13:20 20.01.2020
4332 Clouds 5 1047 87 10000 2.6 240 12:45 20.01.2020
4333 Clouds 5 1047 87 8000 2.1 240 12:26 20.01.2020
4334 Mist 5 1047 100 5000 2.6 260 11:57 20.01.2020
4335 Mist 4 1047 100 5000 2.6 260 11:38 20.01.2020
4336 Mist 4 1047 93 5000 2.6 260 11:19 20.01.2020
4337 Fog 4 1047 100 800 1.5 240 10:47 20.01.2020
4338 Mist 3 1046 100 4500 2.1 260 10:21 20.01.2020
4339 Mist 3 1046 100 4500 2.1 260 10:21 20.01.2020
4340 Mist 3 1046 93 2500 0.5 260 09:42 20.01.2020
4341 Mist 3 1046 93 2000 1.5 240 09:24 20.01.2020
4342 Mist 3 1046 100 1800 1.5 280 08:59 20.01.2020
4343 Mist 2 1046 100 1800 1.5 280 08:39 20.01.2020
4344 Mist 2 1045 100 2400 1.5 270 08:20 20.01.2020
4345 Mist 2 1045 100 3200 2.1 270 07:42 20.01.2020
4346 Mist 2 1045 100 3500 2.1 260 07:22 20.01.2020
4347 Mist 2 1045 93 3500 2.6 270 06:44 20.01.2020
4348 Drizzle 2 1045 100 4000 2.6 250 06:24 20.01.2020
4349 Mist 2 1045 100 4300 1.5 260 05:41 20.01.2020
4350 Clouds 2 1045 100 8000 1.5 260 05:20 20.01.2020
4351 Clouds 2 1045 100 10000 1 0 04:24 20.01.2020
4352 Fog 1 1044 97 1400 1.5 270 02:33 20.01.2020
4353 Fog 1 1044 100 900 2.1 280 01:40 20.01.2020
4354 Fog 1 1044 96 1900 1.5 280 01:20 20.01.2020
4355 Fog 1 1043 95 5000 2.1 280 00:43 20.01.2020
4356 Fog 1 1043 95 10000 2.1 270 00:21 20.01.2020
4357 Clouds 2 1043 95 10000 2.1 270 23:38 19.01.2020
4358 Clouds 2 1043 93 10000 2.1 280 23:19 19.01.2020
4359 Clouds 2 1043 93 10000 2.1 270 22:56 19.01.2020
4360 Clouds 2 1043 93 10000 2.1 270 22:37 19.01.2020
4361 Clouds 2 1042 93 10000 1.5 270 22:19 19.01.2020
4362 Clouds 2 1042 93 10000 2.1 280 21:56 19.01.2020
4363 Clouds 3 1042 86 10000 3.6 300 21:38 19.01.2020
4364 Clouds 3 1042 93 10000 2.1 280 21:38 19.01.2020
4365 Clouds 3 1041 86 10000 2.1 280 21:19 19.01.2020
4366 Clouds 3 1041 93 10000 1.5 260 20:57 19.01.2020
4367 Clouds 3 1041 86 10000 3.6 300 20:38 19.01.2020
4368 Clouds 3 1041 86 10000 2.1 280 20:20 19.01.2020
4369 Clouds 4 1040 86 10000 3.1 280 19:56 19.01.2020
4370 Clouds 4 1040 75 10000 3.6 300 19:37 19.01.2020
4371 Clouds 4 1040 75 10000 3.6 300 19:37 19.01.2020
4372 Clouds 4 1040 86 10000 3.1 290 19:19 19.01.2020
4373 Clouds 4 1040 86 10000 3.1 290 19:19 19.01.2020
4374 Clouds 4 1040 86 10000 2.1 290 18:55 19.01.2020
4375 Clouds 4 1039 86 10000 2.6 300 18:37 19.01.2020
4376 Clouds 4 1039 86 10000 2.6 300 18:19 19.01.2020
4377 Clouds 5 1039 75 10000 3.1 300 17:57 19.01.2020
4378 Clouds 5 1039 75 10000 3.1 300 17:57 19.01.2020
4379 Clouds 5 1039 70 10000 3.6 330 17:38 19.01.2020
4380 Clouds 5 1038 75 10000 3.1 300 17:20 19.01.2020
4381 Clouds 5 1038 75 10000 3.6 290 16:57 19.01.2020
4382 Clouds 6 1038 81 10000 3.6 300 16:37 19.01.2020
4383 Clouds 6 1038 81 10000 3.6 300 16:37 19.01.2020
4384 Clouds 6 1037 81 10000 3.6 290 16:19 19.01.2020
4385 Clouds 6 1037 81 10000 4.1 300 15:56 19.01.2020
4386 Clouds 6 1037 81 10000 3.1 290 15:37 19.01.2020
4387 Clouds 6 1036 75 10000 4.1 310 15:18 19.01.2020
4388 Clouds 6 1036 81 10000 2.6 280 14:56 19.01.2020
4389 Clouds 6 1036 81 10000 4.1 310 14:37 19.01.2020
4390 Clouds 6 1036 81 10000 3.1 270 14:18 19.01.2020
4391 Clouds 6 1036 81 10000 3.1 270 14:18 19.01.2020
4392 Clouds 5 1036 81 10000 2.6 290 13:54 19.01.2020
4393 Clouds 5 1036 86 10000 4.6 310 13:36 19.01.2020
4394 Clouds 5 1036 86 10000 3.1 280 13:18 19.01.2020
4395 Rain 4 1035 86 10000 3.6 290 12:42 19.01.2020
4396 Rain 4 1035 86 10000 2.6 280 12:23 19.01.2020
4397 Clouds 4 1035 86 10000 4.1 290 11:57 19.01.2020
4398 Clouds 4 1035 86 10000 4.1 290 11:39 19.01.2020
4399 Clouds 3 1035 93 10000 3.6 280 11:18 19.01.2020
4400 Clouds 2 1034 93 10000 3.6 280 10:41 19.01.2020
4401 Clouds 2 1034 100 10000 3.1 280 10:21 19.01.2020
4402 Clouds 2 1033 100 10000 2.6 270 09:58 19.01.2020
4403 Clouds 2 1033 93 10000 4.1 290 09:39 19.01.2020
4404 Clouds 2 1033 90 10000 2.6 280 09:21 19.01.2020
4405 Clouds 2 1032 100 10000 3.1 270 08:56 19.01.2020
4406 Clouds 2 1032 100 10000 3.1 270 08:38 19.01.2020
4407 Rain 2 1031 94 10000 2.1 260 08:19 19.01.2020
4408 Clouds 2 1030 93 10000 3.6 290 07:29 19.01.2020
4409 Clouds 2 1030 94 10000 2.1 260 06:55 19.01.2020
4410 Clouds 2 1030 94 10000 2.1 260 06:23 19.01.2020
4411 Clouds 2 1029 92 10000 3.6 270 04:19 19.01.2020
4412 Clouds 3 1028 86 10000 3.6 280 02:35 19.01.2020
4413 Clouds 3 1027 86 10000 4.1 270 01:45 19.01.2020
4414 Clouds 3 1027 86 10000 3.6 270 01:21 19.01.2020
4415 Clouds 3 1026 86 10000 4.1 270 00:45 19.01.2020
4416 Clouds 3 1026 86 10000 4.1 270 00:25 19.01.2020
4417 Clouds 3 1026 86 10000 4.1 270 23:55 18.01.2020
4418 Clouds 4 1026 86 10000 4.1 280 23:36 18.01.2020
4419 Rain 4 1026 86 10000 4.1 270 23:18 18.01.2020
4420 Clouds 4 1026 86 10000 3.6 270 22:42 18.01.2020
4421 Clouds 4 1025 86 10000 3.6 260 22:24 18.01.2020
4422 Clouds 4 1025 86 10000 3.6 260 21:58 18.01.2020
4423 Clouds 4 1025 86 10000 3.6 270 21:39 18.01.2020
4424 Clouds 3 1025 86 10000 3.6 250 21:20 18.01.2020
4425 Clouds 4 1025 86 10000 2.6 240 20:57 18.01.2020
4426 Clouds 4 1025 86 10000 2.6 240 20:57 18.01.2020
4427 Clouds 4 1025 86 10000 2.6 240 20:39 18.01.2020
4428 Clouds 4 1025 86 10000 2.6 240 20:39 18.01.2020
4429 Clouds 4 1025 80 10000 3.1 260 20:19 18.01.2020
4430 Clouds 4 1024 80 10000 3.6 250 19:43 18.01.2020
4431 Rain 4 1024 80 10000 4.6 250 19:24 18.01.2020
4432 Rain 5 1024 80 10000 4.1 240 18:43 18.01.2020
4433 Clouds 5 1023 80 10000 3.6 250 18:25 18.01.2020
4434 Clouds 5 1023 80 10000 4.1 250 17:59 18.01.2020
4435 Clouds 5 1023 80 10000 4.1 250 17:40 18.01.2020
4436 Clouds 5 1023 80 10000 5.1 250 17:20 18.01.2020
4437 Clouds 5 1023 80 10000 4.6 250 16:57 18.01.2020
4438 Clouds 5 1023 80 10000 4.6 250 16:38 18.01.2020
4439 Clouds 5 1023 80 10000 4.6 250 16:38 18.01.2020
4440 Clouds 5 1022 75 10000 6.2 250 16:19 18.01.2020
4441 Clouds 6 1022 75 10000 4.6 250 15:44 18.01.2020
4442 Clouds 6 1022 75 10000 5.7 250 15:26 18.01.2020
4443 Clouds 6 1022 75 10000 7.7 250 14:59 18.01.2020
4444 Clouds 6 1022 75 10000 7.7 250 14:40 18.01.2020
4445 Clouds 6 1022 75 10000 5.7 240 14:19 18.01.2020
4446 Clouds 6 1022 75 10000 6.7 250 13:56 18.01.2020
4447 Clouds 6 1022 75 10000 6.2 270 13:36 18.01.2020
4448 Clouds 6 1022 75 10000 7.2 250 13:18 18.01.2020
4449 Clouds 6 1022 75 10000 7.2 250 13:18 18.01.2020
4450 Clouds 6 1022 75 10000 7.2 240 12:40 18.01.2020
4451 Clouds 6 1022 75 10000 5.7 240 12:21 18.01.2020
4452 Clouds 6 1022 80 10000 5.7 230 11:45 18.01.2020
4453 Clouds 5 1022 80 10000 5.7 240 11:24 18.01.2020
4454 Clouds 5 1022 80 10000 5.1 230 10:58 18.01.2020
4455 Clouds 5 1021 80 10000 7.7 240 10:39 18.01.2020
4456 Clouds 5 1021 80 10000 4.6 220 10:20 18.01.2020
4457 Clouds 5 1021 80 10000 4.6 220 10:20 18.01.2020
4458 Clouds 5 1021 86 10000 4.1 230 09:49 18.01.2020
4459 Clouds 5 1021 80 10000 5.1 240 09:31 18.01.2020
4460 Clouds 5 1021 80 10000 6.2 230 08:57 18.01.2020
4461 Clouds 4 1021 80 10000 5.7 230 08:39 18.01.2020
4462 Clouds 4 1021 80 10000 5.1 230 08:19 18.01.2020
4463 Clouds 4 1021 80 10000 3.6 230 07:50 18.01.2020
4464 Clouds 4 1020 80 10000 3.6 220 07:31 18.01.2020
4465 Clouds 4 1020 80 10000 3.6 230 06:48 18.01.2020
4466 Clouds 5 1020 75 10000 4.6 250 05:59 18.01.2020
4467 Clouds 5 1019 75 10000 4.1 240 05:24 18.01.2020
4468 Clouds 7 1018 70 10000 6.7 250 02:56 18.01.2020
4469 Clouds 7 1017 75 10000 6.2 250 01:54 18.01.2020
4470 Clouds 7 1017 70 10000 7.2 250 01:35 18.01.2020
4471 Clouds 7 1016 70 10000 5.1 280 00:37 18.01.2020
4472 Clouds 7 1016 70 10000 5.1 280 00:37 18.01.2020
4473 Clouds 7 1016 70 10000 5.1 280 00:37 18.01.2020
4474 Clouds 7 1016 75 10000 6.7 260 00:18 18.01.2020
4475 Clouds 7 1015 81 10000 7.2 240 23:41 17.01.2020
4476 Clouds 8 1015 87 10000 5.7 250 23:20 17.01.2020
4477 Clouds 8 1015 93 9000 4.1 230 22:45 17.01.2020
4478 Clouds 8 1015 87 10000 5.1 240 22:22 17.01.2020
4479 Clouds 8 1015 87 10000 5.1 240 21:59 17.01.2020
4480 Clouds 8 1015 87 10000 5.1 250 21:41 17.01.2020
4481 Mist 8 1014 93 5000 3.6 210 21:22 17.01.2020
4482 Rain 8 1014 93 10000 3.6 230 20:58 17.01.2020
4483 Clouds 8 1014 87 10000 5.7 250 20:38 17.01.2020
4484 Rain 8 1014 93 10000 4.1 230 20:20 17.01.2020
4485 Rain 9 1014 81 8000 5.1 230 19:55 17.01.2020
4486 Rain 9 1014 81 8000 5.1 230 19:55 17.01.2020
4487 Drizzle 9 1014 87 10000 5.7 250 19:37 17.01.2020
4488 Drizzle 9 1014 87 10000 5.7 250 19:37 17.01.2020
4489 Clouds 9 1014 81 10000 4.1 230 19:18 17.01.2020
4490 Rain 9 1014 81 10000 4.1 230 18:47 17.01.2020
4491 Drizzle 9 1014 87 10000 4.6 230 18:29 17.01.2020
4492 Clouds 9 1014 71 10000 3.1 200 17:58 17.01.2020
4493 Clouds 9 1014 71 10000 4.1 230 17:39 17.01.2020
4494 Clouds 9 1014 71 10000 3.1 190 17:20 17.01.2020
4495 Clouds 10 1013 71 10000 3.6 190 16:43 17.01.2020
4496 Clouds 10 1013 71 10000 3.1 210 16:21 17.01.2020
4497 Clouds 10 1013 66 10000 2.6 210 15:55 17.01.2020
4498 Clouds 10 1013 66 10000 3.6 230 15:37 17.01.2020
4499 Clouds 11 1013 66 10000 2.6 180 15:19 17.01.2020
4500 Clouds 11 1014 62 10000 2.1 180 14:43 17.01.2020
4501 Clouds 11 1014 62 10000 3.6 210 14:23 17.01.2020
4502 Clouds 11 1014 66 10000 4.1 200 13:42 17.01.2020
4503 Clouds 11 1014 66 10000 3.1 180 13:22 17.01.2020
4504 Clouds 10 1015 66 10000 3.6 190 12:46 17.01.2020
4505 Clouds 10 1015 66 10000 5.1 160 12:23 17.01.2020
4506 Clouds 9 1015 66 10000 6.2 160 11:41 17.01.2020
4507 Clouds 9 1016 70 10000 4.6 160 11:20 17.01.2020
4508 Clouds 8 1017 70 10000 4.6 170 10:56 17.01.2020
4509 Clouds 7 1017 70 10000 4.6 170 10:38 17.01.2020
4510 Clouds 7 1017 70 10000 4.6 150 10:20 17.01.2020
4511 Clouds 6 1017 75 10000 5.7 160 09:44 17.01.2020
4512 Clouds 6 1017 75 10000 6.2 150 09:21 17.01.2020
4513 Clouds 6 1018 75 10000 3.6 140 08:58 17.01.2020
4514 Clouds 6 1018 75 10000 3.6 140 08:40 17.01.2020
4515 Clouds 5 1018 81 10000 4.1 150 08:21 17.01.2020
4516 Clouds 6 1018 81 10000 3.1 140 07:46 17.01.2020
4517 Clouds 5 1018 75 10000 4.1 160 07:28 17.01.2020
4518 Clouds 5 1018 81 10000 8.2 170 06:51 17.01.2020
4519 Clouds 5 1019 87 10000 3.1 150 06:30 17.01.2020
4520 Clouds 6 1020 81 10000 2.6 130 04:27 17.01.2020
4521 Clouds 5 1021 91 0 4.04 168 02:56 17.01.2020
4522 Clouds 5 1021 81 10000 3.1 150 02:32 17.01.2020
4523 Clouds 5 1021 81 10000 3.1 150 01:44 17.01.2020
4524 Clouds 5 1021 87 10000 4.1 160 01:22 17.01.2020
4525 Clouds 6 1021 87 10000 4.1 160 00:37 17.01.2020
4526 Clouds 6 1023 87 10000 2.1 150 00:00 17.01.2020
4527 Clouds 6 1023 87 10000 2.1 150 23:41 16.01.2020
4528 Clouds 5 1023 87 10000 2.1 150 23:22 16.01.2020
4529 Clouds 5 1023 87 10000 3.1 140 22:41 16.01.2020
4530 Clouds 6 1024 93 10000 2.6 140 22:21 16.01.2020
4531 Clouds 5 1024 93 10000 2.1 150 21:57 16.01.2020
4532 Clouds 5 1023 93 10000 2.1 110 21:38 16.01.2020
4533 Clouds 6 1024 87 10000 2.6 150 21:19 16.01.2020
4534 Clouds 6 1024 87 10000 2.1 140 20:56 16.01.2020
4535 Clouds 6 1024 87 10000 2.6 130 20:38 16.01.2020
4536 Clouds 6 1024 87 10000 2.1 130 20:18 16.01.2020
4537 Clouds 6 1024 87 10000 1.5 130 19:55 16.01.2020
4538 Clouds 7 1024 93 10000 3.6 160 19:37 16.01.2020
4539 Clouds 7 1025 81 10000 2.1 140 19:18 16.01.2020
4540 Clouds 7 1025 81 10000 2.1 140 18:55 16.01.2020
4541 Clouds 7 1024 87 10000 3.1 170 18:36 16.01.2020
4542 Clouds 7 1024 87 10000 3.1 170 18:36 16.01.2020
4543 Clouds 7 1025 81 10000 3.1 150 18:18 16.01.2020
4544 Clouds 7 1024 87 10000 3.6 160 17:41 16.01.2020
4545 Clouds 7 1024 87 10000 3.6 160 17:41 16.01.2020
4546 Clouds 8 1025 76 10000 3.6 150 17:22 16.01.2020
4547 Clouds 8 1025 71 10000 4.1 150 16:57 16.01.2020
4548 Clouds 9 1025 81 10000 4.1 160 16:38 16.01.2020
4549 Clouds 10 1025 62 10000 3.1 150 16:19 16.01.2020
4550 Clouds 10 1025 62 10000 3.6 150 15:44 16.01.2020
4551 Clouds 10 1026 62 10000 3.1 140 15:22 16.01.2020
4552 Clouds 10 1026 62 10000 3.1 150 14:56 16.01.2020
4553 Clouds 11 1026 62 10000 3.1 150 14:37 16.01.2020
4554 Clouds 10 1026 57 10000 3.1 180 14:19 16.01.2020
4555 Clouds 10 1026 57 10000 3.1 170 13:44 16.01.2020
4556 Clouds 10 1027 61 10000 3.1 220 13:25 16.01.2020
4557 Clouds 9 1027 66 10000 2.6 200 12:46 16.01.2020
4558 Clouds 9 1027 70 10000 2.6 210 12:28 16.01.2020
4559 Clouds 8 1027 70 10000 2.6 190 11:57 16.01.2020
4560 Clouds 8 1027 75 10000 2.1 200 11:39 16.01.2020
4561 Clear 7 1027 75 10000 2.1 190 11:21 16.01.2020
4562 Clouds 6 1027 87 10000 3.6 220 10:39 16.01.2020
4563 Clear 5 1027 81 10000 1.5 180 10:21 16.01.2020
4564 Clear 5 1027 86 10000 2.1 200 09:58 16.01.2020
4565 Clear 4 1027 86 10000 2.1 200 09:40 16.01.2020
4566 Clear 4 1026 86 10000 2.1 200 09:21 16.01.2020
4567 -273 0 0 0 0 0 08:52 16.01.2020
4568 Clear 4 1026 93 10000 2.1 190 08:34 16.01.2020
4569 Clear 4 1026 86 10000 2.6 200 07:59 16.01.2020
4570 Clear 4 1026 86 10000 2.6 200 07:39 16.01.2020
4571 Clear 4 1025 86 10000 3.1 210 07:20 16.01.2020
4572 Clouds 5 1025 87 10000 5.1 230 06:43 16.01.2020
4573 Clear 5 1025 86 10000 3.6 220 06:21 16.01.2020
4574 Clear 5 1025 86 10000 3.1 220 05:45 16.01.2020
4575 Clear 5 1024 86 10000 3.1 220 04:40 16.01.2020
4576 Clear 6 1023 81 10000 3.6 240 03:28 16.01.2020
4577 Clear 6 1022 81 10000 3.6 240 02:43 16.01.2020
4578 Rain 8 1020 75 10000 3.6 270 00:54 16.01.2020
4579 Clouds 8 1020 75 10000 5.7 280 00:24 16.01.2020
4580 Clouds 9 1019 81 10000 7.2 290 23:51 15.01.2020
4581 Clouds 10 1018 81 10000 6.7 270 23:23 15.01.2020
4582 Rain 11 1017 76 10000 6.7 260 22:59 15.01.2020
4583 Rain 11 1017 76 10000 6.7 260 22:41 15.01.2020
4584 Clouds 11 1016 76 10000 7.7 250 22:19 15.01.2020
4585 Clouds 11 1016 76 10000 7.7 250 22:19 15.01.2020
4586 Rain 11 1016 71 10000 7.7 250 21:58 15.01.2020
4587 Rain 11 1016 71 10000 7.7 260 21:40 15.01.2020
4588 Rain 12 1015 66 10000 7.7 240 21:21 15.01.2020
4589 Rain 11 1015 66 10000 8.7 250 20:58 15.01.2020
4590 Rain 11 1015 66 10000 8.7 250 20:58 15.01.2020
4591 Rain 12 1015 66 10000 8.7 250 20:40 15.01.2020
4592 Clouds 12 1014 62 10000 4.6 220 20:21 15.01.2020
4593 Clouds 12 1013 62 10000 4.1 200 19:55 15.01.2020
4594 Clouds 12 1013 62 10000 4.1 200 19:55 15.01.2020
4595 Clouds 12 1013 62 10000 4.1 200 19:55 15.01.2020
4596 Rain 12 1013 54 10000 8.2 240 19:37 15.01.2020
4597 Clouds 12 1013 58 10000 4.6 200 19:19 15.01.2020
4598 Clouds 12 1013 58 10000 5.7 210 18:57 15.01.2020
4599 Clouds 12 1013 58 10000 5.7 210 18:38 15.01.2020
4600 Clouds 12 1012 58 10000 5.7 210 18:20 15.01.2020
4601 Clouds 12 1012 58 10000 5.7 210 18:20 15.01.2020
4602 Clouds 12 1012 58 10000 6.2 220 17:58 15.01.2020
4603 Clouds 12 1012 58 10000 6.2 220 17:40 15.01.2020
4604 Clouds 12 1012 58 10000 5.7 230 17:21 15.01.2020
4605 Clouds 12 1011 58 10000 6.7 200 16:42 15.01.2020
4606 Clouds 13 1011 54 10000 6.7 200 16:24 15.01.2020
4607 Clouds 13 1010 54 10000 7.2 190 15:59 15.01.2020
4608 Clouds 13 1010 54 10000 7.2 190 15:41 15.01.2020
4609 Clouds 13 1010 54 10000 7.2 200 15:20 15.01.2020
4610 Clouds 13 1010 58 10000 6.7 200 14:44 15.01.2020
4611 Clouds 13 1010 58 10000 6.7 200 14:21 15.01.2020
4612 Clouds 13 1011 58 10000 8.7 210 13:56 15.01.2020
4613 Clouds 13 1011 58 10000 8.7 210 13:38 15.01.2020
4614 Clouds 13 1011 58 10000 8.7 200 13:20 15.01.2020
4615 Clouds 13 1011 58 10000 9.3 210 12:54 15.01.2020
4616 Clouds 13 1010 54 10000 8.7 230 12:36 15.01.2020
4617 Clouds 13 1011 58 10000 8.7 200 12:18 15.01.2020
4618 Clouds 13 1011 58 10000 9.8 200 11:38 15.01.2020
4619 Clouds 12 1011 58 10000 7.7 200 11:19 15.01.2020
4620 Clouds 12 1010 62 10000 8.7 200 10:47 15.01.2020
4621 Clouds 11 1010 66 10000 7.2 190 10:28 15.01.2020
4622 Clouds 11 1010 66 10000 5.7 200 09:57 15.01.2020
4623 Clouds 11 1010 66 10000 5.7 200 09:57 15.01.2020
4624 Clouds 11 1010 66 10000 6.7 220 09:38 15.01.2020
4625 Clouds 11 1010 71 10000 5.7 200 09:19 15.01.2020
4626 Clouds 11 1010 66 10000 7.7 220 08:44 15.01.2020
4627 Clouds 11 1010 66 10000 7.2 200 08:24 15.01.2020
4628 Clouds 11 1010 66 10000 5.1 200 07:54 15.01.2020
4629 Clouds 11 1009 62 10000 5.7 220 07:33 15.01.2020
4630 Clouds 12 1009 66 10000 5.7 200 06:49 15.01.2020
4631 Clouds 12 1009 71 10000 5.7 200 06:26 15.01.2020
4632 Clouds 12 1008 71 10000 6.2 190 04:46 15.01.2020
4633 Clouds 12 1008 66 10000 6.2 210 02:40 15.01.2020
4634 Clouds 11 1008 71 10000 5.7 200 01:47 15.01.2020
4635 Clouds 11 1008 71 10000 6.2 210 01:20 15.01.2020
4636 Clouds 11 1007 66 10000 8.7 240 00:37 15.01.2020
4637 Clouds 11 1008 71 10000 6.7 210 00:19 15.01.2020
4638 Clouds 11 1007 66 10000 6.7 210 23:46 14.01.2020
4639 Clouds 11 1007 66 10000 6.2 200 23:24 14.01.2020
4640 Clouds 11 1007 66 10000 5.7 210 22:54 14.01.2020
4641 Clouds 11 1007 66 10000 7.7 230 22:36 14.01.2020
4642 Clouds 11 1007 66 10000 5.7 210 22:18 14.01.2020
4643 Clouds 11 1007 66 10000 5.7 210 22:18 14.01.2020
4644 Clouds 11 1007 66 10000 5.7 200 21:55 14.01.2020
4645 Clouds 11 1006 66 10000 9.3 230 21:36 14.01.2020
4646 Clouds 11 1006 66 10000 8.2 230 21:18 14.01.2020
4647 Clouds 11 1006 66 10000 8.2 230 21:18 14.01.2020
4648 Clouds 11 1007 66 10000 6.2 210 20:41 14.01.2020
4649 Clouds 11 1006 71 10000 7.2 210 20:21 14.01.2020
4650 Clouds 11 1006 71 10000 7.2 210 19:56 14.01.2020
4651 Clouds 11 1006 71 10000 7.2 210 19:38 14.01.2020
4652 Clouds 11 1007 66 10000 5.7 190 19:19 14.01.2020
4653 Clouds 11 1007 66 10000 5.1 200 18:56 14.01.2020
4654 Clouds 11 1006 71 10000 6.7 220 18:37 14.01.2020
4655 Clouds 11 1007 66 10000 4.1 200 18:19 14.01.2020
4656 Clouds 11 1007 66 10000 4.1 200 18:19 14.01.2020
4657 Clouds 10 1006 76 10000 6.2 200 17:39 14.01.2020
4658 Clouds 10 1007 76 10000 4.6 200 17:19 14.01.2020
4659 Clouds 10 1007 76 10000 5.1 190 16:56 14.01.2020
4660 Clouds 10 1006 76 10000 4.6 220 16:38 14.01.2020
4661 Clouds 10 1007 76 10000 5.7 190 16:19 14.01.2020
4662 Clouds 10 1007 81 10000 5.1 200 15:43 14.01.2020
4663 Clouds 10 1007 81 10000 5.1 200 15:19 14.01.2020
4664 Clouds 10 1007 81 10000 5.7 200 14:59 14.01.2020
4665 Clouds 10 1006 71 10000 7.7 230 14:41 14.01.2020
4666 Clouds 10 1007 81 10000 5.7 200 14:19 14.01.2020
4667 Clouds 10 1007 81 10000 5.7 200 13:42 14.01.2020
4668 Clouds 10 1007 81 10000 6.2 200 13:20 14.01.2020
4669 Clouds 10 1007 81 10000 7.2 200 12:56 14.01.2020
4670 Clouds 10 1007 81 10000 7.2 200 12:38 14.01.2020
4671 Rain 10 1007 81 10000 6.7 200 12:20 14.01.2020
4672 Clouds 10 1007 81 10000 6.2 200 11:41 14.01.2020
4673 Clouds 10 1006 81 10000 7.2 210 11:22 14.01.2020
4674 Clouds 10 1006 76 10000 7.2 210 10:56 14.01.2020
4675 Rain 10 1005 81 10000 8.2 220 10:38 14.01.2020
4676 Clouds 10 1006 71 10000 6.7 200 10:19 14.01.2020
4677 Clouds 10 1005 71 10000 6.2 200 09:55 14.01.2020
4678 Rain 10 1005 76 10000 7.2 220 09:37 14.01.2020
4679 Clouds 10 1005 76 10000 6.7 200 09:19 14.01.2020
4680 Clouds 9 1005 76 10000 6.2 200 08:41 14.01.2020
4681 Clouds 9 1005 71 10000 6.7 200 08:22 14.01.2020
4682 Clouds 9 1005 76 10000 7.7 190 07:51 14.01.2020
4683 Rain 9 1005 76 10000 7.2 200 07:24 14.01.2020
4684 Clouds 9 1005 76 10000 7.7 200 06:43 14.01.2020
4685 Clouds 9 1006 76 10000 7.2 200 05:58 14.01.2020
4686 Clouds 9 1006 70 10000 6.7 190 04:50 14.01.2020
4687 Clouds 8 1007 75 10000 7.7 180 03:46 14.01.2020
4688 Clouds 7 1007 75 10000 6.7 210 02:39 14.01.2020
4689 Clouds 7 1009 81 10000 7.2 180 01:21 14.01.2020
4690 Clouds 6 1009 75 10000 6.7 190 00:48 14.01.2020
4691 Clouds 6 1010 75 10000 5.7 180 00:21 14.01.2020
4692 Clouds 6 1010 75 10000 5.1 180 23:44 13.01.2020
4693 Clouds 5 1011 81 10000 4.1 170 23:19 13.01.2020
4694 Clouds 5 1011 81 10000 4.6 170 22:57 13.01.2020
4695 Clouds 5 1011 81 10000 4.6 170 22:39 13.01.2020
4696 Clouds 5 1012 75 10000 4.1 180 22:19 13.01.2020
4697 Clouds 5 1012 86 10000 3.6 170 21:55 13.01.2020
4698 Clouds 5 1012 86 10000 5.1 180 21:36 13.01.2020
4699 Clouds 5 1012 86 10000 4.6 180 21:18 13.01.2020
4700 Clouds 5 1013 81 10000 3.6 170 20:55 13.01.2020
4701 Clouds 5 1013 86 10000 5.1 180 20:37 13.01.2020
4702 Clouds 5 1014 86 10000 4.1 170 20:18 13.01.2020
4703 Clouds 5 1014 86 10000 5.1 180 19:41 13.01.2020
4704 Clouds 5 1015 80 10000 3.6 170 19:20 13.01.2020
4705 Clouds 5 1015 81 10000 2.6 180 18:58 13.01.2020
4706 Clouds 5 1015 81 10000 2.6 180 18:38 13.01.2020
4707 Clouds 5 1015 81 10000 2.1 160 18:19 13.01.2020
4708 Clouds 5 1015 81 10000 2.1 160 18:19 13.01.2020
4709 Clouds 6 1015 81 10000 2.1 160 17:58 13.01.2020
4710 Clouds 6 1015 86 10000 3.1 150 17:38 13.01.2020
4711 Clouds 6 1016 81 10000 3.1 170 17:20 13.01.2020
4712 Clouds 6 1015 81 10000 2.1 180 16:41 13.01.2020
4713 Clouds 7 1016 75 10000 2.6 210 16:22 13.01.2020
4714 Clouds 7 1015 79 0 2.48 196 15:56 13.01.2020
4715 Clouds 8 1016 83 0 2.48 196 15:38 13.01.2020
4716 Clouds 8 1016 83 0 2.48 196 15:19 13.01.2020
4717 Clouds 8 1017 81 10000 3.6 220 14:42 13.01.2020
4718 Clouds 8 1017 81 10000 3.6 220 14:24 13.01.2020
4719 Clouds 8 1017 81 10000 3.6 220 13:58 13.01.2020
4720 Clouds 8 1017 81 10000 3.6 220 13:39 13.01.2020
4721 Clouds 8 1017 90 0 0.45 180 13:21 13.01.2020
4722 Mist 7 1019 93 5000 3.6 230 12:55 13.01.2020
4723 Rain 7 1019 87 10000 3.1 220 12:36 13.01.2020
4724 Rain 7 1019 87 10000 3.1 220 12:18 13.01.2020
4725 Rain 7 1020 87 10000 3.1 220 11:39 13.01.2020
4726 Rain 7 1020 87 10000 3.1 220 11:19 13.01.2020
4727 Clouds 6 1019 87 10000 2.1 200 10:57 13.01.2020
4728 Rain 6 1019 87 10000 4.1 240 10:38 13.01.2020
4729 Clouds 6 1019 87 10000 4.1 230 10:20 13.01.2020
4730 Rain 6 1019 87 10000 4.1 240 09:56 13.01.2020
4731 Rain 6 1019 87 10000 4.1 240 09:38 13.01.2020
4732 Clouds 6 1019 93 10000 2.6 210 09:19 13.01.2020
4733 Clouds 6 1019 87 10000 4.6 240 08:39 13.01.2020
4734 Rain 6 1019 87 10000 2.6 230 08:20 13.01.2020
4735 Rain 6 1019 87 10000 2.6 230 08:20 13.01.2020
4736 Clouds 6 1019 87 10000 3.1 220 07:46 13.01.2020
4737 Clouds 6 1019 87 10000 1.5 220 07:27 13.01.2020
4738 Clouds 6 1020 93 10000 2.6 210 06:40 13.01.2020
4739 Rain 6 1020 93 10000 1.5 190 06:18 13.01.2020
4740 Clouds 5 1020 93 10000 1 0 05:20 13.01.2020
4741 Clouds 6 1020 86 10000 2.1 250 03:47 13.01.2020
4742 Clouds 6 1020 81 10000 3.6 260 02:51 13.01.2020
4743 Clouds 6 1020 81 10000 4.6 270 02:31 13.01.2020
4744 Clouds 7 1020 75 10000 5.1 290 01:33 13.01.2020
4745 Clouds 7 1020 81 10000 5.7 260 00:55 13.01.2020
4746 Clouds 7 1020 81 10000 5.1 280 00:36 13.01.2020
4747 Clouds 7 1020 81 10000 6.2 270 00:18 13.01.2020
4748 Rain 8 1019 81 10000 7.7 250 23:40 12.01.2020
4749 Rain 8 1019 81 10000 7.7 250 23:22 12.01.2020
4750 Clouds 8 1018 76 10000 7.7 240 22:57 12.01.2020
4751 Clouds 7 1018 81 10000 8.2 260 22:39 12.01.2020
4752 Clouds 7 1018 76 10000 7.2 240 22:19 12.01.2020
4753 Rain 7 1018 81 10000 7.7 240 21:54 12.01.2020
4754 Rain 7 1018 81 10000 7.7 230 21:36 12.01.2020
4755 Rain 7 1018 81 10000 7.7 230 21:18 12.01.2020
4756 Clouds 7 1017 81 10000 6.7 230 20:54 12.01.2020
4757 Clouds 7 1017 81 10000 6.7 230 20:36 12.01.2020
4758 Clouds 7 1017 81 10000 6.7 230 20:18 12.01.2020
4759 Clouds 7 1017 81 10000 7.7 230 19:54 12.01.2020
4760 Clouds 7 1017 87 10000 7.7 250 19:36 12.01.2020
4761 Clouds 6 1017 81 10000 7.7 230 19:18 12.01.2020
4762 Clouds 6 1017 81 10000 7.7 230 19:18 12.01.2020
4763 Clouds 6 1017 87 10000 8.2 230 18:54 12.01.2020
4764 Clouds 6 1017 81 10000 8.7 240 18:36 12.01.2020
4765 Clouds 6 1017 87 10000 7.2 220 18:18 12.01.2020
4766 Clouds 6 1017 87 10000 6.7 220 17:42 12.01.2020
4767 Clouds 6 1017 87 10000 6.7 220 17:20 12.01.2020
4768 Clouds 6 1017 87 10000 6.2 220 16:57 12.01.2020
4769 Clouds 6 1017 81 10000 8.2 240 16:37 12.01.2020
4770 Clouds 6 1017 81 10000 5.7 210 16:19 12.01.2020
4771 Drizzle 6 1017 86 6000 5.1 210 15:43 12.01.2020
4772 Clouds 6 1017 75 10000 6.7 220 15:25 12.01.2020
4773 Clouds 6 1017 70 10000 7.7 220 14:57 12.01.2020
4774 Clouds 6 1017 70 10000 7.7 220 14:38 12.01.2020
4775 Clouds 6 1017 70 10000 5.1 210 14:20 12.01.2020
4776 Clouds 6 1017 75 10000 5.1 210 13:55 12.01.2020
4777 Clouds 6 1017 70 10000 7.2 230 13:36 12.01.2020
4778 Clouds 6 1018 75 10000 4.6 210 13:18 12.01.2020
4779 Clouds 6 1018 75 10000 4.6 210 13:18 12.01.2020
4780 Clouds 6 1018 75 10000 4.6 210 13:18 12.01.2020
4781 Clouds 6 1018 70 10000 6.7 240 12:43 12.01.2020
4782 Clouds 5 1019 75 10000 6.7 230 12:21 12.01.2020
4783 Clouds 5 1019 75 10000 9.8 230 11:59 12.01.2020
4784 Clouds 5 1019 75 10000 9.8 230 11:39 12.01.2020
4785 Clouds 5 1019 70 10000 9.3 240 11:21 12.01.2020
4786 Clouds 5 1020 75 10000 9.8 240 10:42 12.01.2020
4787 Clouds 4 1020 70 10000 5.7 240 10:22 12.01.2020
4788 Clouds 4 1020 75 10000 6.7 220 09:59 12.01.2020
4789 Clouds 4 1019 70 10000 8.7 240 09:41 12.01.2020
4790 Clouds 4 1020 75 10000 5.7 230 09:20 12.01.2020
4791 Clouds 4 1020 75 10000 7.2 240 08:45 12.01.2020
4792 Clouds 4 1020 75 10000 6.2 230 08:21 12.01.2020
4793 Clouds 4 1020 75 10000 7.7 240 07:44 12.01.2020
4794 Clouds 4 1021 75 10000 6.2 220 07:25 12.01.2020
4795 Clouds 4 1021 75 10000 5.7 230 06:49 12.01.2020
4796 Clouds 4 1021 75 10000 6.2 220 06:30 12.01.2020
4797 Clouds 4 1021 75 10000 6.7 230 05:47 12.01.2020
4798 Clouds 4 1022 75 10000 6.7 240 04:51 12.01.2020
4799 Clouds 4 1023 75 10000 6.2 230 03:29 12.01.2020
4800 Clouds 4 1023 75 10000 6.2 240 02:34 12.01.2020
4801 Clouds 4 1024 75 10000 5.7 240 01:58 12.01.2020
4802 Clouds 4 1024 75 10000 4.1 230 01:30 12.01.2020
4803 Clouds 4 1024 75 10000 6.7 240 00:44 12.01.2020
4804 Clouds 5 1025 75 10000 4.6 220 00:21 12.01.2020
4805 Clouds 5 1025 75 10000 4.1 210 23:55 11.01.2020
4806 Clouds 4 1025 70 10000 6.7 240 23:37 11.01.2020
4807 Clouds 4 1025 79 10000 4.1 210 23:18 11.01.2020
4808 Clouds 4 1026 79 10000 4.1 210 22:42 11.01.2020
4809 Clouds 4 1026 79 10000 4.1 210 22:21 11.01.2020
4810 Clouds 4 1026 79 10000 3.6 200 21:59 11.01.2020
4811 Clouds 4 1026 79 10000 3.6 200 21:41 11.01.2020
4812 Clouds 4 1026 79 10000 3.6 200 21:18 11.01.2020
4813 Clouds 5 1026 75 10000 5.1 230 20:42 11.01.2020
4814 Clouds 5 1027 75 10000 5.1 210 20:22 11.01.2020
4815 Clouds 5 1027 75 10000 5.7 210 19:59 11.01.2020
4816 Clouds 5 1027 75 10000 5.7 210 19:40 11.01.2020
4817 Clouds 5 1027 75 10000 5.1 210 19:40 11.01.2020
4818 Clouds 5 1027 75 10000 5.1 210 19:22 11.01.2020
4819 Clouds 5 1027 75 10000 4.1 210 18:59 11.01.2020
4820 Clouds 5 1027 70 10000 6.2 230 18:39 11.01.2020
4821 Clouds 5 1028 75 10000 4.1 210 18:20 11.01.2020
4822 Clouds 5 1028 75 10000 3.1 210 17:58 11.01.2020
4823 Clouds 5 1028 75 10000 3.1 210 17:40 11.01.2020
4824 Clouds 5 1028 75 10000 3.1 210 17:20 11.01.2020
4825 Clouds 5 1028 75 10000 3.6 230 16:46 11.01.2020
4826 Clouds 6 1028 70 10000 5.7 240 16:46 11.01.2020
4827 Clouds 6 1028 70 10000 4.1 230 16:28 11.01.2020
4828 Clouds 6 1029 70 10000 4.6 240 15:59 11.01.2020
4829 Clouds 6 1029 70 10000 4.6 240 15:41 11.01.2020
4830 Clouds 6 1028 70 10000 5.7 230 15:22 11.01.2020
4831 Clouds 6 1029 70 10000 6.7 230 14:57 11.01.2020
4832 Clouds 6 1028 70 10000 6.2 240 14:38 11.01.2020
4833 Clouds 6 1029 65 10000 6.7 230 14:20 11.01.2020
4834 Clouds 6 1029 70 10000 5.7 230 13:41 11.01.2020
4835 Clouds 6 1030 75 10000 4.6 220 13:20 11.01.2020
4836 Clouds 6 1030 75 10000 5.1 230 12:58 11.01.2020
4837 Clouds 6 1030 75 10000 5.7 250 12:40 11.01.2020
4838 Clouds 5 1031 75 10000 6.2 220 12:21 11.01.2020
4839 Clouds 5 1031 80 10000 4.6 220 11:48 11.01.2020
4840 Clouds 4 1031 86 10000 4.1 210 11:26 11.01.2020
4841 Clouds 4 1031 86 10000 3.6 190 10:51 11.01.2020
4842 Clouds 3 1031 93 10000 2.6 230 10:30 11.01.2020
4843 Clouds 3 1031 93 10000 2.6 220 09:57 11.01.2020
4844 Clouds 3 1030 93 6000 5.1 240 09:37 11.01.2020
4845 Clouds 2 1030 93 6000 5.1 240 09:19 11.01.2020
4846 Clouds 2 1030 93 10000 1.5 220 08:41 11.01.2020
4847 Clouds 2 1030 93 10000 2.1 210 08:21 11.01.2020
4848 Clouds 2 1030 100 10000 2.1 240 07:44 11.01.2020
4849 Clouds 2 1030 93 10000 2.6 240 07:25 11.01.2020
4850 Clouds 2 1030 100 10000 2.1 240 06:48 11.01.2020
4851 Clouds 3 1030 93 10000 3.1 280 05:34 11.01.2020
4852 Clouds 3 1030 93 10000 2.6 250 04:46 11.01.2020
4853 Clouds 3 1029 100 10000 3.1 260 04:27 11.01.2020
4854 Clouds 4 1029 93 10000 4.1 270 02:49 11.01.2020
4855 Clouds 4 1028 86 10000 4.6 270 01:57 11.01.2020
4856 Clouds 4 1028 86 10000 5.1 280 01:38 11.01.2020
4857 Clouds 4 1028 93 10000 5.1 280 01:18 11.01.2020
4858 Clouds 4 1027 86 10000 4.6 290 00:38 11.01.2020
4859 Clouds 4 1026 93 10000 5.7 270 23:59 10.01.2020
4860 Clouds 5 1027 86 10000 4.6 290 23:40 10.01.2020
4861 Clouds 5 1026 93 10000 5.7 280 23:21 10.01.2020
4862 Clouds 5 1025 86 10000 5.7 270 22:55 10.01.2020
4863 Clouds 4 1025 86 10000 6.2 290 22:37 10.01.2020
4864 Clouds 4 1025 86 10000 4.6 270 22:18 10.01.2020
4865 Clouds 4 1024 86 10000 5.1 270 21:55 10.01.2020
4866 Clouds 5 1024 86 10000 5.7 290 21:36 10.01.2020
4867 Clouds 5 1024 86 10000 4.1 280 21:18 10.01.2020
4868 Rain 5 1023 80 10000 6.7 300 20:42 10.01.2020
4869 Rain 5 1023 86 10000 6.2 300 20:24 10.01.2020
4870 Clouds 5 1022 86 10000 4.1 280 19:54 10.01.2020
4871 Clouds 5 1022 93 10000 6.2 320 19:36 10.01.2020
4872 Rain 5 1022 75 10000 6.7 300 19:18 10.01.2020
4873 Rain 6 1021 75 10000 7.7 290 18:41 10.01.2020
4874 Rain 6 1020 81 10000 7.2 300 18:19 10.01.2020
4875 Rain 6 1020 81 10000 7.2 300 18:19 10.01.2020
4876 Clouds 6 1019 81 10000 8.7 320 17:57 10.01.2020
4877 Clouds 7 1020 87 10000 6.7 320 17:38 10.01.2020
4878 Rain 7 1018 81 10000 8.2 300 17:20 10.01.2020
4879 Clouds 7 1017 87 10000 6.2 290 16:55 10.01.2020
4880 Clouds 8 1017 93 10000 8.2 320 16:37 10.01.2020
4881 Rain 8 1016 76 7000 5.7 250 16:18 10.01.2020
4882 Clouds 8 1016 76 10000 6.7 270 15:55 10.01.2020
4883 Rain 9 1015 76 10000 5.1 260 15:36 10.01.2020
4884 Rain 9 1015 76 10000 5.1 260 15:18 10.01.2020
4885 Clouds 9 1015 76 10000 6.7 280 14:42 10.01.2020
4886 Clouds 9 1014 81 10000 6.2 260 14:20 10.01.2020
4887 Clouds 9 1014 81 10000 5.7 250 13:58 10.01.2020
4888 Clouds 9 1014 81 10000 5.7 250 13:58 10.01.2020
4889 Clouds 9 1014 81 10000 6.2 260 13:40 10.01.2020
4890 Clouds 9 1014 76 10000 6.7 240 13:22 10.01.2020
4891 Clouds 9 1014 76 10000 5.1 250 12:57 10.01.2020
4892 Clouds 10 1014 76 10000 5.1 250 12:38 10.01.2020
4893 Rain 9 1014 81 10000 5.1 230 12:18 10.01.2020
4894 Rain 10 1014 81 10000 5.7 230 11:54 10.01.2020
4895 Clouds 9 1013 87 10000 5.7 240 11:36 10.01.2020
4896 Clouds 9 1013 81 10000 6.2 250 11:18 10.01.2020
4897 Clouds 9 1013 81 10000 6.7 250 10:39 10.01.2020
4898 Rain 9 1013 81 10000 5.7 240 10:21 10.01.2020
4899 Rain 8 1012 81 10000 5.1 240 09:56 10.01.2020
4900 Clouds 8 1012 81 10000 5.7 250 09:37 10.01.2020
4901 Clouds 8 1012 81 10000 4.1 250 09:19 10.01.2020
4902 Clouds 9 1011 81 10000 4.1 250 08:41 10.01.2020
4903 Rain 9 1011 81 10000 5.7 240 08:22 10.01.2020
4904 Clouds 9 1011 81 10000 7.7 240 07:44 10.01.2020
4905 Clouds 10 1010 81 10000 6.2 240 07:23 10.01.2020
4906 Clouds 10 1010 81 10000 6.7 240 06:45 10.01.2020
4907 Clouds 10 1010 81 10000 6.2 240 06:25 10.01.2020
4908 Clouds 10 1009 81 10000 6.7 250 05:46 10.01.2020
4909 Rain 11 1009 93 10000 4.6 220 03:35 10.01.2020
4910 Clouds 11 1009 81 10000 4.1 200 02:59 10.01.2020
4911 Rain 11 1008 81 10000 5.7 230 02:38 10.01.2020
4912 Clouds 12 1008 87 10000 3.6 190 01:38 10.01.2020
4913 Clouds 12 1009 87 10000 3.6 200 01:19 10.01.2020
4914 Clouds 11 1009 87 10000 4.1 200 00:39 10.01.2020
4915 Clouds 12 1009 87 10000 3.6 190 23:58 09.01.2020
4916 Clouds 12 1008 87 10000 3.6 210 23:38 09.01.2020
4917 Rain 12 1009 87 10000 3.1 200 23:20 09.01.2020
4918 Drizzle 12 1009 87 10000 3.6 200 22:57 09.01.2020
4919 Drizzle 12 1009 87 10000 3.6 200 22:57 09.01.2020
4920 Drizzle 11 1009 87 10000 3.6 190 22:37 09.01.2020
4921 Drizzle 11 1009 87 10000 3.6 190 22:19 09.01.2020
4922 Drizzle 11 1009 87 10000 3.6 190 22:19 09.01.2020
4923 Clouds 11 1009 87 10000 2.6 180 21:56 09.01.2020
4924 Rain 11 1009 93 10000 3.1 200 21:37 09.01.2020
4925 Clouds 11 1010 93 10000 2.6 170 21:18 09.01.2020
4926 Drizzle 11 1010 93 10000 3.1 180 20:56 09.01.2020
4927 Drizzle 11 1010 93 10000 3.1 180 20:38 09.01.2020
4928 Drizzle 12 1010 93 8000 2.6 190 20:19 09.01.2020
4929 Drizzle 12 1010 93 8000 2.6 190 20:19 09.01.2020
4930 Drizzle 12 1010 93 10000 3.1 220 19:55 09.01.2020
4931 Drizzle 12 1010 93 10000 3.1 220 19:36 09.01.2020
4932 Clouds 12 1010 87 10000 4.1 230 19:18 09.01.2020
4933 Clouds 12 1010 87 10000 4.1 220 18:54 09.01.2020
4934 Clouds 12 1010 87 10000 4.1 220 18:54 09.01.2020
4935 Clouds 12 1010 87 10000 4.1 220 18:36 09.01.2020
4936 Clouds 12 1010 81 10000 4.6 230 18:18 09.01.2020
4937 Clouds 12 1010 81 10000 6.2 220 17:41 09.01.2020
4938 Clouds 12 1010 81 10000 4.6 210 17:18 09.01.2020
4939 Clouds 12 1010 81 10000 4.6 210 17:18 09.01.2020
4940 Clouds 12 1010 81 10000 4.1 220 16:47 09.01.2020
4941 Clouds 11 1010 81 10000 4.1 220 16:23 09.01.2020
4942 Clouds 11 1010 81 10000 4.1 220 16:23 09.01.2020
4943 Clouds 11 1010 81 10000 4.1 220 15:56 09.01.2020
4944 Clouds 11 1010 81 10000 4.1 200 15:38 09.01.2020
4945 Clouds 11 1010 81 10000 5.1 210 15:18 09.01.2020
4946 Rain 11 1010 81 10000 3.1 200 14:41 09.01.2020
4947 Rain 11 1011 81 10000 4.1 190 14:21 09.01.2020
4948 Rain 11 1011 81 10000 4.1 190 13:57 09.01.2020
4949 Rain 11 1011 81 10000 4.6 200 13:39 09.01.2020
4950 Rain 11 1011 87 10000 5.1 220 13:20 09.01.2020
4951 Rain 11 1012 87 10000 5.1 190 12:58 09.01.2020
4952 Rain 11 1012 87 10000 5.1 190 12:58 09.01.2020
4953 Rain 11 1012 87 10000 5.1 200 12:38 09.01.2020
4954 Rain 10 1012 87 10000 5.7 200 12:19 09.01.2020
4955 Rain 10 1013 81 10000 4.6 190 11:43 09.01.2020
4956 Rain 10 1013 81 10000 4.6 190 11:25 09.01.2020
4957 Clouds 10 1013 87 10000 4.6 180 10:59 09.01.2020
4958 Clouds 9 1013 87 10000 4.1 170 10:41 09.01.2020
4959 Clouds 9 1013 87 10000 4.6 190 10:22 09.01.2020
4960 Clouds 9 1014 87 10000 4.1 170 09:49 09.01.2020
4961 Clouds 9 1014 93 10000 4.1 180 09:25 09.01.2020
4962 Clouds 9 1015 93 10000 3.1 170 08:59 09.01.2020
4963 Clouds 9 1015 93 10000 4.1 160 08:40 09.01.2020
4964 Clouds 8 1015 93 10000 3.6 180 08:22 09.01.2020
4965 Clouds 8 1015 100 10000 2.6 170 07:55 09.01.2020
4966 Clouds 8 1016 100 10000 3.6 160 07:35 09.01.2020
4967 Rain 8 1017 93 10000 3.1 160 06:54 09.01.2020
4968 Rain 8 1017 93 10000 3.1 160 06:32 09.01.2020
4969 Clouds 8 1018 100 10000 2.6 170 05:52 09.01.2020
4970 Clouds 8 1018 100 10000 2.6 170 05:28 09.01.2020
4971 Rain 8 1019 100 0 3.1 170 04:41 09.01.2020
4972 Rain 9 1020 93 10000 3.1 180 03:28 09.01.2020
4973 Rain 9 1021 93 8000 2.6 170 02:47 09.01.2020
4974 Rain 9 1021 100 8000 2.1 200 01:53 09.01.2020
4975 Rain 9 1021 100 8000 2.1 200 01:33 09.01.2020
4976 Rain 9 1022 93 8000 2.1 180 00:39 09.01.2020
4977 Rain 9 1022 93 8000 1.5 200 00:19 09.01.2020
4978 Clouds 9 1022 93 10000 2.1 210 23:41 08.01.2020
4979 Clouds 9 1022 93 10000 2.6 230 23:23 08.01.2020
4980 Clouds 9 1022 93 10000 2.1 240 22:56 08.01.2020
4981 Clouds 9 1022 93 10000 2.1 240 22:38 08.01.2020
4982 Clouds 9 1022 93 10000 2.6 240 22:19 08.01.2020
4983 Clouds 9 1022 93 10000 2.6 240 21:55 08.01.2020
4984 Clouds 9 1022 93 10000 1.5 200 21:37 08.01.2020
4985 Clouds 9 1022 93 10000 1.5 210 21:18 08.01.2020
4986 Clouds 9 1022 93 10000 1.5 210 20:55 08.01.2020
4987 Clouds 9 1022 93 10000 2.6 200 20:36 08.01.2020
4988 Clouds 9 1022 100 10000 2.1 190 20:18 08.01.2020
4989 Clouds 9 1022 93 10000 1.5 200 19:38 08.01.2020
4990 Clouds 9 1022 93 10000 2.1 190 19:20 08.01.2020
4991 Clouds 9 1022 93 10000 2.1 190 18:58 08.01.2020
4992 Clouds 9 1022 100 10000 3.1 190 18:39 08.01.2020
4993 Clouds 9 1022 100 10000 2.6 190 18:19 08.01.2020
4994 Clouds 9 1022 100 10000 2.6 190 17:57 08.01.2020
4995 Clouds 9 1022 93 10000 2.6 220 17:38 08.01.2020
4996 Clouds 9 1021 93 10000 4.6 240 17:19 08.01.2020
4997 Clouds 9 1021 93 10000 4.6 240 17:19 08.01.2020
4998 Clouds 9 1021 93 10000 4.6 240 16:56 08.01.2020
4999 Clouds 9 1021 100 10000 5.7 240 16:38 08.01.2020
5000 Clouds 9 1021 93 10000 5.1 240 16:19 08.01.2020
5001 Clouds 9 1021 93 10000 5.7 250 15:45 08.01.2020
5002 Clouds 9 1021 87 10000 6.2 250 15:22 08.01.2020
5003 Clouds 9 1021 87 10000 6.2 250 14:59 08.01.2020
5004 Clouds 9 1020 93 10000 6.2 240 14:40 08.01.2020
5005 Clouds 9 1020 93 10000 5.1 240 14:21 08.01.2020
5006 Drizzle 9 1020 93 10000 6.7 250 13:42 08.01.2020
5007 Clouds 9 1020 93 10000 5.7 240 13:22 08.01.2020
5008 Drizzle 9 1020 93 10000 7.7 250 12:55 08.01.2020
5009 Drizzle 9 1020 93 10000 7.7 250 12:37 08.01.2020
5010 Rain 9 1021 87 10000 5.7 230 12:18 08.01.2020
5011 Rain 9 1021 93 10000 4.1 220 11:48 08.01.2020
5012 Rain 9 1021 93 10000 4.1 220 11:48 08.01.2020
5013 Clouds 9 1021 93 10000 3.6 210 11:19 08.01.2020
5014 Clouds 8 1021 93 10000 3.6 210 10:59 08.01.2020
5015 Drizzle 8 1021 100 4000 4.1 210 10:40 08.01.2020
5016 Clouds 8 1020 93 10000 7.7 240 10:21 08.01.2020
5017 Clouds 8 1020 93 10000 7.7 240 10:21 08.01.2020
5018 Clouds 8 1021 93 10000 4.1 230 09:43 08.01.2020
5019 Clouds 8 1020 93 10000 3.1 210 09:20 08.01.2020
5020 Clouds 8 1020 93 10000 3.1 210 08:59 08.01.2020
5021 Clouds 7 1020 87 10000 7.7 240 08:40 08.01.2020
5022 Drizzle 7 1020 93 6000 7.2 230 08:21 08.01.2020
5023 Rain 7 1020 100 4500 3.6 220 07:52 08.01.2020
5024 Rain 7 1020 87 10000 3.1 230 07:33 08.01.2020
5025 Rain 7 1020 87 10000 3.6 220 06:58 08.01.2020
5026 Clouds 8 1020 75 10000 3.6 230 06:40 08.01.2020
5027 Clouds 8 1020 70 10000 7.2 230 05:55 08.01.2020
5028 Rain 7 1020 70 10000 3.6 230 05:25 08.01.2020
5029 Rain 7 1020 65 10000 4.6 210 04:36 08.01.2020
5030 Rain 7 1021 75 10000 3.6 190 02:46 08.01.2020
5031 Rain 7 1021 75 10000 3.6 190 02:28 08.01.2020
5032 Clouds 7 1022 75 10000 4.1 200 01:54 08.01.2020
5033 Clouds 7 1022 75 10000 3.6 190 01:29 08.01.2020
5034 Clouds 7 1023 75 10000 3.6 190 00:42 08.01.2020
5035 Clouds 7 1023 75 10000 3.1 200 00:21 08.01.2020
5036 Rain 6 1024 81 10000 3.1 200 23:45 07.01.2020
5037 Clouds 6 1024 75 10000 3.6 210 23:20 07.01.2020
5038 Clouds 6 1024 75 10000 4.6 200 22:41 07.01.2020
5039 Clouds 6 1024 81 10000 5.1 200 22:21 07.01.2020
5040 Clouds 6 1024 81 10000 5.1 200 21:59 07.01.2020
5041 Clouds 5 1024 81 10000 3.6 190 21:41 07.01.2020
5042 Clouds 5 1024 75 10000 3.6 210 21:21 07.01.2020
5043 Clouds 5 1024 75 10000 3.6 210 20:57 07.01.2020
5044 Clouds 5 1024 81 10000 4.1 190 20:39 07.01.2020
5045 Clouds 5 1025 81 10000 4.1 190 20:21 07.01.2020
5046 Clouds 5 1025 81 10000 4.1 190 19:56 07.01.2020
5047 Clouds 5 1025 81 10000 3.1 180 19:37 07.01.2020
5048 Clouds 5 1026 81 10000 3.1 180 19:18 07.01.2020
5049 Clouds 5 1026 81 10000 3.1 180 19:18 07.01.2020
5050 Clouds 5 1026 81 10000 3.1 180 18:55 07.01.2020
5051 Clouds 6 1026 81 10000 3.1 210 18:37 07.01.2020
5052 Clouds 5 1026 81 10000 3.1 210 18:18 07.01.2020
5053 Clouds 5 1026 81 10000 3.1 210 18:18 07.01.2020
5054 Clouds 6 1026 81 10000 3.6 210 17:40 07.01.2020
5055 Clouds 6 1026 81 10000 2.6 220 17:22 07.01.2020
5056 Clouds 6 1026 81 10000 2.6 220 16:57 07.01.2020
5057 Clouds 6 1026 75 10000 3.1 230 16:38 07.01.2020
5058 Clouds 6 1026 75 10000 3.1 230 16:38 07.01.2020
5059 Clouds 6 1026 75 10000 3.1 230 16:38 07.01.2020
5060 Clouds 6 1026 75 10000 3.1 230 16:38 07.01.2020
5061 Clouds 7 1026 81 10000 5.1 250 16:19 07.01.2020
5062 Clouds 7 1026 81 10000 5.1 250 15:59 07.01.2020
5063 Clouds 7 1026 81 10000 5.1 260 15:40 07.01.2020
5064 Clouds 7 1026 81 10000 4.6 250 15:22 07.01.2020
5065 Clouds 7 1026 75 10000 4.1 240 15:22 07.01.2020
5066 Clouds 7 1026 75 10000 4.1 240 14:55 07.01.2020
5067 Clouds 7 1025 75 10000 4.1 250 14:37 07.01.2020
5068 Clouds 7 1025 87 10000 5.1 240 14:18 07.01.2020
5069 Clouds 7 1025 87 10000 6.2 260 13:39 07.01.2020
5070 Clouds 7 1025 87 10000 5.7 250 13:19 07.01.2020
5071 Clouds 6 1025 87 7000 5.1 240 12:41 07.01.2020
5072 Clouds 6 1025 87 9000 4.6 240 12:20 07.01.2020
5073 Clouds 6 1025 87 9000 4.6 240 11:57 07.01.2020
5074 Clouds 6 1025 93 8000 4.1 240 11:38 07.01.2020
5075 Clouds 5 1025 93 8000 4.1 260 11:20 07.01.2020
5076 Clouds 5 1025 93 8000 3.6 250 10:42 07.01.2020
5077 Clouds 5 1024 93 8000 3.6 250 10:24 07.01.2020
5078 Clouds 5 1024 93 8000 3.6 250 09:58 07.01.2020
5079 Clouds 5 1024 93 8000 3.6 250 09:38 07.01.2020
5080 Clouds 4 1024 93 8000 4.6 260 09:20 07.01.2020
5081 Clouds 4 1023 93 8000 4.1 250 08:43 07.01.2020
5082 Clouds 4 1022 93 8000 4.6 250 08:25 07.01.2020
5083 Clouds 4 1022 93 8000 5.7 260 07:54 07.01.2020
5084 Clouds 4 1022 93 8000 5.7 260 07:28 07.01.2020
5085 Clouds 4 1022 93 8000 5.7 260 07:28 07.01.2020
5086 Clouds 3 1021 100 8000 5.1 250 06:53 07.01.2020
5087 Clouds 3 1021 100 8000 5.1 250 06:34 07.01.2020
5088 Drizzle 3 1021 93 3500 5.7 250 05:55 07.01.2020
5089 Clouds 3 1020 93 10000 4.6 250 04:39 07.01.2020
5090 Clouds 3 1020 75 10000 5.1 260 03:26 07.01.2020
5091 Clouds 2 1019 79 10000 6.2 250 02:22 07.01.2020
5092 Clouds 2 1019 86 10000 1.5 200 01:52 07.01.2020
5093 Clouds 1 1019 86 10000 1.5 200 01:28 07.01.2020
5094 Clouds 1 1019 80 10000 2.1 200 00:37 07.01.2020
5095 Clouds 1 1019 80 10000 2.1 170 00:18 07.01.2020
5096 Clouds 1 1019 80 10000 2.6 160 23:39 06.01.2020
5097 Clouds 1 1019 80 10000 2.6 160 23:39 06.01.2020
5098 Clouds 1 1019 84 10000 2.1 150 23:21 06.01.2020
5099 Clouds 1 1019 84 10000 2.1 150 22:58 06.01.2020
5100 Clouds 1 1019 84 10000 3.6 160 22:38 06.01.2020
5101 Clouds 1 1020 84 10000 3.6 160 22:20 06.01.2020
5102 Clouds 1 1020 84 10000 3.6 160 21:56 06.01.2020
5103 Clouds 1 1020 84 10000 2.6 150 21:56 06.01.2020
5104 Clouds 1 1020 84 10000 2.6 150 21:37 06.01.2020
5105 Clouds 1 1020 84 10000 3.1 160 21:19 06.01.2020
5106 Clouds 1 1021 80 10000 2.6 170 20:56 06.01.2020
5107 Clouds 1 1021 80 10000 2.6 170 20:37 06.01.2020
5108 Clouds 1 1021 80 10000 2.1 150 20:19 06.01.2020
5109 Clouds 2 1021 80 10000 2.1 150 19:55 06.01.2020
5110 Clouds 2 1022 84 10000 1.5 150 19:37 06.01.2020
5111 Clouds 2 1022 84 10000 2.1 150 19:18 06.01.2020
5112 Clouds 3 1022 84 10000 3.1 160 18:44 06.01.2020
5113 Clouds 4 1022 84 10000 3.6 180 18:21 06.01.2020
5114 Clouds 4 1023 75 10000 4.1 190 17:40 06.01.2020
5115 Clouds 5 1023 75 10000 4.1 190 17:20 06.01.2020
5116 Clouds 5 1023 75 10000 4.1 190 16:58 06.01.2020
5117 Clouds 5 1023 75 10000 3.6 190 16:40 06.01.2020
5118 Clouds 5 1024 75 10000 4.1 190 16:22 06.01.2020
5119 Clouds 5 1024 75 10000 4.1 190 15:59 06.01.2020
5120 Clouds 6 1024 75 10000 3.6 190 15:36 06.01.2020
5121 Clouds 6 1024 75 10000 3.1 200 15:18 06.01.2020
5122 Clouds 6 1025 75 10000 3.1 210 14:41 06.01.2020
5123 Clouds 6 1025 75 10000 3.1 210 14:41 06.01.2020
5124 Clouds 6 1025 81 10000 3.6 210 14:22 06.01.2020
5125 Clouds 6 1025 81 10000 3.6 210 13:59 06.01.2020
5126 Clouds 6 1025 81 10000 3.6 210 13:39 06.01.2020
5127 Clouds 6 1026 81 10000 3.1 210 13:20 06.01.2020
5128 Clouds 6 1026 81 10000 3.1 210 12:55 06.01.2020
5129 Clouds 6 1026 81 10000 3.6 210 12:37 06.01.2020
5130 Clouds 6 1026 81 10000 3.1 210 12:18 06.01.2020
5131 Clouds 6 1027 81 10000 3.1 210 11:41 06.01.2020
5132 Clouds 6 1027 81 10000 3.6 210 11:23 06.01.2020
5133 Clouds 6 1027 81 10000 3.6 210 10:59 06.01.2020
5134 Clouds 6 1027 75 10000 2.6 210 10:40 06.01.2020
5135 Clouds 5 1028 81 10000 3.1 210 10:20 06.01.2020
5136 Clouds 5 1028 75 10000 4.1 210 09:39 06.01.2020
5137 Clouds 5 1028 81 10000 4.1 220 09:20 06.01.2020
5138 Clouds 5 1028 75 10000 4.1 230 08:52 06.01.2020
5139 Clouds 5 1028 75 10000 4.1 230 08:34 06.01.2020
5140 Clouds 5 1028 75 10000 4.1 230 07:57 06.01.2020
5141 Clouds 5 1028 75 10000 4.1 240 07:36 06.01.2020
5142 Clouds 5 1028 75 10000 2.6 230 06:46 06.01.2020
5143 Clouds 5 1028 75 10000 2.6 230 06:23 06.01.2020
5144 Clouds 5 1028 80 10000 2.6 230 05:45 06.01.2020
5145 Clouds 5 1029 80 10000 3.6 230 04:52 06.01.2020
5146 Clouds 5 1029 75 10000 4.1 230 04:19 06.01.2020
5147 Clouds 5 1029 75 10000 4.1 230 02:56 06.01.2020
5148 Clouds 5 1030 75 10000 3.6 240 02:24 06.01.2020
5149 Clouds 6 1030 75 10000 4.1 240 01:45 06.01.2020
5150 Clouds 5 1030 75 10000 4.1 240 01:26 06.01.2020
5151 Clouds 5 1030 75 10000 3.6 230 00:42 06.01.2020
5152 Clouds 5 1031 75 10000 3.6 230 00:23 06.01.2020
5153 Clouds 6 1031 75 10000 3.6 230 23:43 05.01.2020
5154 Clouds 6 1031 75 10000 3.6 220 23:23 05.01.2020
5155 Clouds 5 1031 75 10000 3.6 220 22:57 05.01.2020
5156 Clouds 5 1031 75 10000 3.6 220 22:38 05.01.2020
5157 Clouds 6 1031 75 10000 4.1 230 22:20 05.01.2020
5158 Clouds 6 1031 75 10000 4.1 230 21:55 05.01.2020
5159 Clouds 5 1031 81 10000 4.1 230 21:37 05.01.2020
5160 Clouds 5 1032 81 10000 3.6 240 21:19 05.01.2020
5161 Clouds 5 1032 81 10000 3.6 240 21:19 05.01.2020
5162 Clouds 5 1032 87 10000 4.1 240 20:55 05.01.2020
5163 Clouds 5 1032 87 10000 4.1 240 20:36 05.01.2020
5164 Clouds 5 1032 87 10000 4.6 240 20:18 05.01.2020
5165 Clouds 5 1032 87 10000 4.1 240 19:56 05.01.2020
5166 Clouds 5 1032 87 10000 4.1 240 19:37 05.01.2020
5167 Clouds 5 1032 87 10000 3.1 230 19:18 05.01.2020
5168 Clouds 5 1032 93 10000 2.1 220 18:54 05.01.2020
5169 Clouds 5 1032 93 10000 2.1 220 18:36 05.01.2020
5170 Clouds 5 1032 93 10000 2.6 200 18:18 05.01.2020
5171 Clouds 5 1032 93 10000 2.6 200 18:18 05.01.2020
5172 Clouds 5 1032 93 10000 2.1 210 17:40 05.01.2020
5173 Clouds 5 1032 93 10000 2.1 200 17:21 05.01.2020
5174 Clouds 5 1032 93 10000 2.1 200 17:21 05.01.2020
5175 Clouds 5 1032 93 10000 2.1 200 16:58 05.01.2020
5176 Clouds 5 1032 93 10000 2.1 230 16:40 05.01.2020
5177 Clouds 5 1032 93 10000 2.6 230 16:21 05.01.2020
5178 Clouds 5 1032 93 10000 2.1 210 15:41 05.01.2020
5179 Clouds 5 1032 93 10000 3.1 210 15:23 05.01.2020
5180 Clouds 5 1032 93 10000 3.1 210 14:58 05.01.2020
5181 Clouds 5 1032 93 10000 2.6 200 14:40 05.01.2020
5182 Clouds 5 1033 93 10000 2.1 190 14:22 05.01.2020
5183 Clouds 5 1033 93 10000 2.1 190 13:59 05.01.2020
5184 Clouds 5 1033 93 10000 1.5 210 13:39 05.01.2020
5185 Clouds 5 1033 93 10000 2.1 200 13:20 05.01.2020
5186 Drizzle 4 1033 86 7000 2.1 210 12:57 05.01.2020
5187 Drizzle 4 1033 86 7000 2.1 210 12:38 05.01.2020
5188 Drizzle 4 1033 86 10000 2.1 200 12:20 05.01.2020
5189 Clouds 3 1034 86 10000 1 0 11:55 05.01.2020
5190 Clouds 3 1034 86 10000 1 0 11:37 05.01.2020
5191 Clouds 3 1034 86 10000 1 0 11:37 05.01.2020
5192 Clouds 3 1034 86 10000 1 0 11:19 05.01.2020
5193 Clouds 3 1034 86 10000 1 0 11:19 05.01.2020
5194 Clouds 3 1034 86 10000 1 0 11:19 05.01.2020
5195 Clouds 2 1034 93 10000 1 190 10:42 05.01.2020
5196 Clouds 2 1034 86 10000 1 0 10:20 05.01.2020
5197 Clouds 1 1034 86 10000 1 0 09:59 05.01.2020
5198 Clouds 1 1034 86 10000 1 0 09:41 05.01.2020
5199 Clouds 1 1034 86 10000 2.1 250 09:21 05.01.2020
5200 Clouds 1 1033 86 10000 2.1 240 08:45 05.01.2020
5201 Clouds 1 1033 88 10000 2.6 250 08:25 05.01.2020
5202 Clouds 1 1033 88 10000 2.1 250 07:50 05.01.2020
5203 Clouds 1 1033 88 10000 2.6 260 07:29 05.01.2020
5204 Clouds 1 1033 88 10000 2.1 260 06:56 05.01.2020
5205 Clouds 2 1033 93 10000 1.5 250 05:52 05.01.2020
5206 Clouds 3 1033 93 10000 2.6 230 04:57 05.01.2020
5207 Clouds 3 1033 93 10000 2.6 250 04:19 05.01.2020
5208 Clouds 3 1033 93 10000 2.6 250 04:19 05.01.2020
5209 Clouds 3 1033 86 10000 2.6 270 03:40 05.01.2020
5210 Clouds 3 1032 86 10000 2.6 280 02:36 05.01.2020
5211 Clouds 3 1032 86 10000 2.6 280 02:36 05.01.2020
5212 Clouds 3 1032 93 10000 2.1 290 02:18 05.01.2020
5213 Clouds 2 1031 86 10000 3.1 280 01:20 05.01.2020
5214 Clouds 2 1031 86 10000 3.1 280 00:58 05.01.2020
5215 Clouds 2 1031 86 10000 3.1 280 00:39 05.01.2020
5216 Clouds 2 1030 86 10000 3.6 280 00:20 05.01.2020
5217 Clouds 2 1030 93 10000 2.1 280 23:57 04.01.2020
5218 Clouds 3 1030 93 10000 2.1 280 23:38 04.01.2020
5219 Rain 3 1030 93 10000 3.6 280 23:18 04.01.2020
5220 Clouds 3 1030 93 10000 4.1 280 22:39 04.01.2020
5221 Clouds 3 1029 93 10000 4.6 280 22:20 04.01.2020
5222 Clouds 3 1029 93 10000 4.6 280 21:56 04.01.2020
5223 Clouds 3 1029 86 10000 4.1 270 21:37 04.01.2020
5224 Clouds 3 1028 93 10000 4.1 270 21:19 04.01.2020
5225 Clouds 3 1028 93 10000 4.1 270 20:55 04.01.2020
5226 Clouds 3 1028 93 10000 3.6 270 20:36 04.01.2020
5227 Clouds 3 1027 93 10000 4.1 280 20:18 04.01.2020
5228 Rain 3 1027 93 10000 3.1 280 19:41 04.01.2020
5229 Clouds 4 1026 93 10000 4.1 290 19:23 04.01.2020
5230 Clouds 4 1026 93 10000 4.1 290 18:58 04.01.2020
5231 Clouds 4 1026 93 10000 5.1 290 18:38 04.01.2020
5232 Clouds 4 1025 100 10000 3.6 290 18:20 04.01.2020
5233 Clouds 4 1024 100 10000 3.6 280 17:55 04.01.2020
5234 Clouds 4 1024 100 10000 3.6 280 17:37 04.01.2020
5235 Clouds 4 1024 93 10000 3.6 280 17:18 04.01.2020
5236 Rain 4 1023 93 10000 4.6 300 16:41 04.01.2020
5237 Rain 5 1023 93 10000 4.6 300 16:23 04.01.2020
5238 Rain 5 1023 93 10000 7.7 320 15:57 04.01.2020
5239 Rain 5 1022 93 8000 9.8 330 15:38 04.01.2020
5240 Rain 5 1022 93 8000 9.8 330 15:38 04.01.2020
5241 Rain 6 1020 93 9000 9.3 270 15:19 04.01.2020
5242 Rain 6 1020 93 9000 9.3 270 14:56 04.01.2020
5243 Rain 6 1020 93 9000 9.3 270 14:37 04.01.2020
5244 Rain 6 1021 93 9000 8.7 270 14:19 04.01.2020
5245 Rain 6 1021 93 9000 8.7 270 13:55 04.01.2020
5246 Rain 6 1021 87 10000 8.7 270 13:36 04.01.2020
5247 Rain 6 1021 93 7000 9.8 270 13:18 04.01.2020
5248 Rain 6 1021 87 10000 8.7 270 12:41 04.01.2020
5249 Rain 6 1021 87 10000 8.7 260 12:19 04.01.2020
5250 Rain 6 1021 87 10000 8.7 260 11:57 04.01.2020
5251 Rain 6 1021 87 10000 8.2 260 11:38 04.01.2020
5252 Rain 6 1021 87 10000 7.7 260 11:19 04.01.2020
5253 Rain 6 1022 87 10000 8.7 260 10:42 04.01.2020
5254 Rain 5 1022 87 10000 8.7 260 10:23 04.01.2020
5255 Rain 5 1022 81 10000 8.2 270 09:58 04.01.2020
5256 Clouds 5 1022 86 10000 7.7 260 09:39 04.01.2020
5257 Clouds 5 1022 86 10000 6.7 260 09:21 04.01.2020
5258 Clouds 5 1022 86 10000 6.2 260 08:41 04.01.2020
5259 Clouds 5 1022 86 10000 6.2 260 08:21 04.01.2020
5260 Clouds 5 1022 86 10000 6.7 260 07:42 04.01.2020
5261 Clouds 5 1022 80 10000 6.2 260 07:20 04.01.2020
5262 Clouds 4 1022 86 10000 6.2 260 06:33 04.01.2020
5263 Clouds 4 1023 86 10000 5.7 260 05:20 04.01.2020
5264 Clouds 4 1023 86 10000 4.6 260 04:34 04.01.2020
5265 Clouds 4 1023 86 10000 5.1 260 03:52 04.01.2020
5266 Clouds 4 1023 86 10000 4.6 260 03:18 04.01.2020
5267 Clouds 4 1023 80 10000 5.1 270 02:21 04.01.2020
5268 Clouds 4 1023 80 10000 5.1 270 01:55 04.01.2020
5269 Clouds 5 1023 80 10000 6.2 270 01:31 04.01.2020
5270 Clouds 5 1023 86 10000 5.7 270 00:44 04.01.2020
5271 Clouds 5 1023 93 10000 5.7 270 00:23 04.01.2020
5272 Clouds 5 1022 93 10000 5.1 270 23:46 03.01.2020
5273 Clouds 5 1022 93 10000 5.1 270 23:25 03.01.2020
5274 Clouds 5 1021 93 10000 4.1 280 22:41 03.01.2020
5275 Clouds 5 1020 93 10000 5.7 280 22:20 03.01.2020
5276 Clouds 5 1020 93 10000 5.7 280 21:59 03.01.2020
5277 Clouds 5 1020 100 10000 4.6 300 21:39 03.01.2020
5278 Clouds 6 1019 100 10000 7.2 310 21:19 03.01.2020
5279 Clouds 6 1019 100 10000 7.2 310 20:59 03.01.2020
5280 Drizzle 6 1018 93 10000 8.2 320 20:41 03.01.2020
5281 Drizzle 6 1018 93 10000 8.2 320 20:41 03.01.2020
5282 Drizzle 7 1016 93 10000 10.3 320 20:19 03.01.2020
5283 Drizzle 7 1016 93 10000 10.3 320 19:57 03.01.2020
5284 Drizzle 7 1015 100 10000 7.2 280 19:38 03.01.2020
5285 Drizzle 8 1014 100 8000 4.6 260 19:20 03.01.2020
5286 Drizzle 8 1013 100 3500 4.6 230 18:44 03.01.2020
5287 Drizzle 8 1013 93 3000 5.7 250 18:25 03.01.2020
5288 Drizzle 8 1013 87 6000 4.6 230 17:56 03.01.2020
5289 Clouds 8 1013 87 10000 4.1 230 17:38 03.01.2020
5290 Clouds 8 1013 87 10000 5.1 230 17:19 03.01.2020
5291 Drizzle 8 1013 87 10000 6.2 230 16:42 03.01.2020
5292 Drizzle 8 1013 93 4000 6.7 230 16:24 03.01.2020
5293 Drizzle 8 1013 93 4000 6.7 230 15:57 03.01.2020
5294 Drizzle 8 1013 87 10000 7.2 250 15:39 03.01.2020
5295 Drizzle 8 1013 87 5000 7.2 240 15:18 03.01.2020
5296 Rain 8 1013 81 10000 6.2 240 14:38 03.01.2020
5297 Rain 8 1013 81 10000 6.2 240 14:38 03.01.2020
5298 Rain 8 1013 81 10000 7.2 240 14:19 03.01.2020
5299 Clouds 8 1013 81 10000 7.7 250 13:44 03.01.2020
5300 Clouds 7 1013 81 10000 7.7 250 13:44 03.01.2020
5301 Clouds 8 1013 81 10000 7.7 250 13:44 03.01.2020
5302 Clouds 7 1014 87 10000 5.7 230 13:24 03.01.2020
5303 Clouds 8 1014 87 10000 5.7 230 12:59 03.01.2020
5304 Drizzle 7 1014 87 6000 7.2 250 12:39 03.01.2020
5305 Drizzle 7 1014 87 8000 7.7 250 12:21 03.01.2020
5306 Clouds 7 1015 75 10000 6.2 220 11:45 03.01.2020
5307 Clouds 7 1015 81 10000 5.7 210 11:21 03.01.2020
5308 Clouds 7 1015 81 10000 3.6 200 10:46 03.01.2020
5309 Clouds 7 1015 81 10000 3.6 200 10:27 03.01.2020
5310 Clouds 6 1016 87 10000 3.6 190 09:58 03.01.2020
5311 Clouds 6 1016 81 10000 3.1 200 09:40 03.01.2020
5312 Clouds 6 1015 75 10000 5.1 230 09:22 03.01.2020
5313 Clouds 6 1016 81 10000 4.1 200 08:57 03.01.2020
5314 Clouds 6 1016 81 10000 5.1 200 08:38 03.01.2020
5315 Clouds 6 1016 75 10000 4.1 190 08:19 03.01.2020
5316 Clouds 5 1016 80 10000 5.1 190 07:40 03.01.2020
5317 Clouds 5 1016 80 10000 5.1 190 07:40 03.01.2020
5318 Clouds 5 1016 80 10000 4.1 180 07:18 03.01.2020
5319 Clouds 5 1016 80 10000 4.6 190 06:49 03.01.2020
5320 Clouds 5 1016 80 10000 4.6 190 06:49 03.01.2020
5321 Clouds 5 1016 80 10000 4.6 190 06:31 03.01.2020
5322 Clouds 5 1017 80 10000 5.7 190 05:45 03.01.2020
5323 Clouds 4 1018 86 10000 4.6 190 04:22 03.01.2020
5324 Clouds 4 1019 86 10000 3.6 200 02:56 03.01.2020
5325 Clouds 4 1019 86 10000 3.6 200 02:33 03.01.2020
5326 Clouds 4 1020 80 10000 3.6 200 01:44 03.01.2020
5327 Clouds 3 1021 80 10000 4.1 210 00:50 03.01.2020
5328 Clouds 3 1021 80 10000 4.1 210 00:31 03.01.2020
5329 Clouds 3 1021 80 10000 3.1 180 23:56 02.01.2020
5330 Clouds 3 1021 80 10000 3.1 180 23:38 02.01.2020
5331 Clouds 3 1021 80 10000 2.1 160 23:19 02.01.2020
5332 Clouds 3 1021 80 10000 4.1 190 22:45 02.01.2020
5333 Clouds 3 1022 86 10000 4.1 190 22:22 02.01.2020
5334 Clouds 3 1022 86 10000 4.1 190 22:00 02.01.2020
5335 Clouds 3 1022 86 10000 3.6 190 21:41 02.01.2020
5336 Clouds 2 1022 86 10000 3.1 200 21:23 02.01.2020
5337 Clouds 2 1022 86 10000 3.1 200 20:59 02.01.2020
5338 Clouds 2 1022 88 10000 3.1 180 20:39 02.01.2020
5339 Clouds 2 1023 84 10000 2.1 220 20:21 02.01.2020
5340 Clouds 1 1023 86 10000 2.6 210 19:55 02.01.2020
5341 Clouds 1 1023 86 10000 2.6 210 19:37 02.01.2020
5342 Clouds 1 1023 86 10000 2.1 180 19:19 02.01.2020
5343 Clouds 1 1023 86 10000 2.1 180 18:57 02.01.2020
5344 Clouds 1 1024 80 10000 1.5 180 18:38 02.01.2020
5345 Clouds 1 1023 86 10000 4.1 220 18:20 02.01.2020
5346 Clouds 1 1024 86 10000 1.5 190 17:56 02.01.2020
5347 Clouds 1 1024 80 10000 2.1 210 17:37 02.01.2020
5348 Clouds 0 1024 80 8000 0.5 180 17:18 02.01.2020
5349 Clouds 0 1024 74 10000 3.1 230 16:56 02.01.2020
5350 Clouds 0 1024 74 10000 2.6 240 16:38 02.01.2020
5351 Clouds 1 1024 74 6000 3.6 250 16:19 02.01.2020
5352 Clouds 1 1024 86 10000 4.1 250 15:44 02.01.2020
5353 Clear 2 1025 86 10000 4.1 260 15:24 02.01.2020
5354 Clear 2 1024 86 10000 3.1 270 14:58 02.01.2020
5355 Clear 2 1024 86 10000 3.1 270 14:38 02.01.2020
5356 Clouds 2 1024 80 6000 5.1 260 14:20 02.01.2020
5357 Clear 3 1025 80 10000 3.6 270 13:58 02.01.2020
5358 Clear 3 1025 80 10000 3.6 270 13:39 02.01.2020
5359 Clear 3 1025 63 10000 3.6 280 13:18 02.01.2020
5360 Clouds 3 1025 63 7000 5.1 300 12:42 02.01.2020
5361 Clear 2 1026 74 10000 2.1 230 12:21 02.01.2020
5362 Clear 2 1026 74 10000 2.1 230 11:42 02.01.2020
5363 Clear 1 1026 80 10000 0.5 0 11:21 02.01.2020
5364 Clear 0 1027 80 10000 0.5 0 10:46 02.01.2020
5365 Clear -1 1027 80 10000 0.5 0 10:28 02.01.2020
5366 Clear -2 1027 67 10000 0.5 0 09:57 02.01.2020
5367 Clear -3 1027 86 10000 0.5 0 09:35 02.01.2020
5368 Clear -3 1027 86 10000 0.5 0 08:59 02.01.2020
5369 Clear -3 1027 92 10000 0.5 0 08:39 02.01.2020
5370 Clear -4 1027 86 10000 0.5 0 08:19 02.01.2020
5371 Clear -4 1027 85 10000 1 0 07:47 02.01.2020
5372 Clear -4 1027 85 10000 1 0 07:26 02.01.2020
5373 Clear -4 1027 92 10000 0.5 0 06:41 02.01.2020
5374 Clear -4 1027 92 10000 0.5 0 05:40 02.01.2020
5375 Clear -3 1028 92 10000 1 0 04:35 02.01.2020
5376 Clear -3 1028 92 10000 1 0 03:29 02.01.2020
5377 Clear -3 1029 92 10000 1 110 02:21 02.01.2020
5378 Clear -3 1029 100 10000 1 70 01:53 02.01.2020
5379 Clear -3 1029 100 10000 1 70 01:53 02.01.2020
5380 Clear -3 1029 100 10000 1 70 01:25 02.01.2020
5381 Clear -3 1029 92 10000 0.5 0 00:45 02.01.2020
5382 Clear -3 1029 92 10000 0.5 0 00:26 02.01.2020
5383 Clear -2 1029 92 10000 1 360 23:43 01.01.2020
5384 Clear -2 1029 100 10000 0.5 0 23:21 01.01.2020
5385 Clear -2 1029 92 10000 0.5 0 22:39 01.01.2020
5386 Clear -2 1029 92 10000 0.5 0 22:39 01.01.2020
5387 Clear -2 1029 92 10000 0.5 0 22:39 01.01.2020
5388 Clear -2 1029 92 10000 0.5 0 22:20 01.01.2020
5389 Clear -2 1029 92 10000 0.5 0 22:20 01.01.2020
5390 Clear -2 1029 92 10000 0.5 0 21:58 01.01.2020
5391 Clear -1 1030 92 10000 0.5 0 21:39 01.01.2020
5392 Clear -2 1030 86 10000 1 300 21:20 01.01.2020
5393 Clear -2 1030 86 10000 1 300 21:20 01.01.2020
5394 Clear -1 1030 86 10000 1 300 20:57 01.01.2020
5395 Clear -1 1030 68 10000 2.1 160 20:38 01.01.2020
5396 Clear -1 1030 72 10000 0.5 0 20:20 01.01.2020
5397 Clear -1 1030 71 10000 1.5 150 19:56 01.01.2020
5398 Clear -1 1030 71 10000 1.5 150 19:37 01.01.2020
5399 Clear -1 1030 71 10000 2.1 150 19:19 01.01.2020
5400 Clear -1 1030 71 10000 2.1 150 18:56 01.01.2020
5401 Clear -1 1031 71 10000 1.5 160 18:37 01.01.2020
5402 Clear -1 1031 71 10000 1.5 160 18:37 01.01.2020
5403 Clear -1 1031 71 10000 1 0 18:19 01.01.2020
5404 Clear 0 1031 71 10000 1 0 17:57 01.01.2020
5405 Clear 0 1031 80 10000 2.1 160 17:39 01.01.2020
5406 Clear 0 1031 86 10000 1 0 17:19 01.01.2020
5407 Clear 1 1031 86 10000 1 0 16:56 01.01.2020
5408 Clear 1 1031 74 10000 1 0 16:37 01.01.2020
5409 Clear 2 1031 74 10000 2.6 150 16:18 01.01.2020
5410 Clear 2 1031 74 10000 2.6 160 15:54 01.01.2020
5411 Clear 3 1031 74 10000 2.6 160 15:36 01.01.2020
5412 Clear 3 1031 74 10000 2.6 160 15:18 01.01.2020
5413 Clear 3 1032 74 10000 2.1 160 14:41 01.01.2020
5414 Clouds 3 1032 73 10000 2.6 150 14:22 01.01.2020
5415 Clouds 3 1032 73 10000 2.6 150 13:56 01.01.2020
5416 Clouds 3 1032 73 10000 2.6 150 13:56 01.01.2020
5417 Clouds 3 1032 73 10000 2.6 150 13:56 01.01.2020
5418 Clear 2 1032 72 10000 3.1 140 13:37 01.01.2020
5419 Clear 2 1033 72 10000 2.1 140 13:19 01.01.2020
5420 Clear 2 1033 72 10000 2.1 140 12:57 01.01.2020
5421 Clear 2 1033 72 10000 2.6 140 12:39 01.01.2020
5422 Fog 1 1033 100 10000 0.5 0 12:19 01.01.2020
5423 Fog 1 1033 100 10000 0.5 0 11:55 01.01.2020
5424 Fog 0 1034 100 700 1.5 90 11:36 01.01.2020
5425 Fog -1 1034 100 100 2.6 90 11:18 01.01.2020
5426 Fog -2 1034 100 100 2.1 90 10:41 01.01.2020
5427 Fog -2 1034 92 50 1.5 100 10:21 01.01.2020
5428 Fog -2 1034 92 50 1.5 100 09:59 01.01.2020
5429 Clouds -2 1034 100 50 0.5 30 09:38 01.01.2020
5430 Clouds -2 1034 100 50 0.5 30 09:38 01.01.2020
5431 Fog -3 1034 92 50 0.5 350 09:19 01.01.2020
5432 Fog -3 1034 92 50 0.5 0 08:55 01.01.2020
5433 Fog -3 1034 92 50 0.5 0 08:36 01.01.2020
5434 Fog -3 1034 100 50 0.5 0 08:18 01.01.2020
5435 Fog -2 1034 92 50 1 80 07:54 01.01.2020
5436 Fog -2 1034 92 50 1 80 07:36 01.01.2020
5437 Fog -2 1034 92 50 0.5 0 06:45 01.01.2020
5438 Fog -2 1034 100 50 1 223 06:21 01.01.2020
5439 Fog -1 1034 100 50 0.5 0 05:22 01.01.2020
5440 Fog -1 1034 100 50 1.97 243 03:45 01.01.2020
5441 Clouds -1 1034 100 2300 2.6 250 03:23 01.01.2020
5442 Fog -1 1034 92 50 0.5 0 02:57 01.01.2020
5443 Fog -1 1034 92 50 1.97 243 02:35 01.01.2020
5444 Fog -1 1035 100 50 0.5 0 01:56 01.01.2020
5445 Fog 0 1035 100 200 0.5 0 01:38 01.01.2020
5446 Fog 0 1035 96 800 1 0 01:19 01.01.2020
5447 Fog 0 1035 100 1200 0.5 0 00:44 01.01.2020
5448 Fog 0 1035 100 2000 1.5 230 00:25 01.01.2020
5449 Clear 1 1035 93 6000 0.5 0 23:41 31.12.2019
5450 Clear 1 1035 93 8000 1 0 23:21 31.12.2019
5451 Clear 1 1035 93 8000 1 0 22:57 31.12.2019
5452 Clear 2 1035 100 10000 1.5 280 22:39 31.12.2019
5453 Clouds 2 1035 100 10000 2.1 280 22:20 31.12.2019
5454 Clouds 3 1035 100 10000 2.1 280 21:57 31.12.2019
5455 Clouds 3 1035 93 10000 2.1 260 21:38 31.12.2019
5456 Clouds 4 1035 86 10000 2.1 260 21:20 31.12.2019
5457 Clouds 4 1035 86 10000 2.1 260 20:55 31.12.2019
5458 Clouds 4 1035 80 10000 2.6 260 20:36 31.12.2019
5459 Clouds 4 1035 80 10000 2.1 260 20:18 31.12.2019
5460 Clouds 5 1035 80 10000 1.5 280 19:42 31.12.2019
5461 Clouds 5 1034 80 10000 2.6 290 19:24 31.12.2019
5462 Clouds 5 1034 80 10000 2.6 290 18:59 31.12.2019
5463 Clouds 5 1034 81 10000 2.1 280 18:40 31.12.2019
5464 Clouds 5 1034 81 10000 2.1 270 18:20 31.12.2019
5465 Clouds 5 1034 81 10000 2.1 270 17:57 31.12.2019
5466 Clouds 5 1034 81 10000 3.1 310 17:38 31.12.2019
5467 Clouds 6 1033 81 10000 3.1 290 17:19 31.12.2019
5468 Clouds 6 1033 81 10000 3.1 290 16:57 31.12.2019
5469 Clouds 7 1033 81 10000 3.1 290 16:38 31.12.2019
5470 Clouds 7 1033 81 10000 4.6 280 16:19 31.12.2019
5471 Clouds 7 1033 81 10000 4.6 280 15:57 31.12.2019
5472 Clouds 7 1033 81 10000 4.6 290 15:38 31.12.2019
5473 Clouds 7 1032 81 10000 3.6 280 15:20 31.12.2019
5474 Clouds 7 1032 81 10000 3.6 280 14:58 31.12.2019
5475 Clouds 7 1032 81 10000 4.1 270 14:38 31.12.2019
5476 Clouds 7 1032 81 10000 4.6 270 14:19 31.12.2019
5477 Clouds 7 1032 81 10000 4.6 270 13:57 31.12.2019
5478 Clouds 7 1032 81 10000 4.6 270 13:39 31.12.2019
5479 Clouds 7 1032 81 10000 4.6 270 13:21 31.12.2019
5480 Clouds 7 1032 81 10000 4.6 270 12:58 31.12.2019
5481 Clouds 6 1032 87 10000 3.6 270 12:40 31.12.2019
5482 Clouds 6 1032 93 10000 4.1 270 12:20 31.12.2019
5483 Clouds 6 1032 93 10000 4.1 270 11:56 31.12.2019
5484 Clouds 6 1031 93 10000 4.1 270 11:38 31.12.2019
5485 Clouds 5 1031 93 6000 4.6 270 11:20 31.12.2019
5486 Clouds 5 1031 93 6000 4.6 270 10:57 31.12.2019
5487 Clouds 5 1031 93 6000 4.6 270 10:57 31.12.2019
5488 Mist 5 1031 100 5000 4.6 270 10:38 31.12.2019
5489 Mist 5 1031 100 3200 4.1 270 10:20 31.12.2019
5490 Mist 5 1031 100 3200 4.1 270 09:58 31.12.2019
5491 Mist 5 1030 100 3200 4.1 270 09:39 31.12.2019
5492 Mist 5 1030 93 1400 3.6 270 09:20 31.12.2019
5493 Mist 4 1030 93 1400 3.6 270 08:57 31.12.2019
5494 Mist 5 1029 100 3600 3.6 260 08:37 31.12.2019
5495 Mist 5 1029 100 4000 3.1 260 08:19 31.12.2019
5496 Clouds 5 1029 100 6000 3.6 280 07:42 31.12.2019
5497 Clouds 5 1029 100 6000 4.1 280 07:20 31.12.2019
5498 Drizzle 5 1028 100 4000 4.6 270 06:49 31.12.2019
5499 Drizzle 4 1027 93 2500 3.6 270 05:57 31.12.2019
5500 Clouds 5 1026 80 10000 5.1 270 04:28 31.12.2019
5501 Clouds 5 1025 70 10000 5.7 260 03:27 31.12.2019
5502 Clouds 5 1025 60 10000 5.1 260 02:54 31.12.2019
5503 Clouds 5 1025 85 10000 5.1 260 02:54 31.12.2019
5504 Clouds 5 1025 85 10000 5.1 260 02:54 31.12.2019
5505 Clouds 5 1025 60 10000 5.1 260 01:58 31.12.2019
5506 Clouds 5 1024 56 10000 5.1 260 01:40 31.12.2019
5507 Clear 5 1025 45 10000 4.6 260 01:22 31.12.2019
5508 Clear 5 1024 41 10000 4.6 260 00:45 31.12.2019
5509 Clear 5 1025 38 10000 5.1 260 00:22 31.12.2019
5510 Clear 5 1025 38 10000 5.1 260 23:56 30.12.2019
5511 Clear 5 1025 36 10000 5.1 260 23:38 30.12.2019
5512 Clear 6 1025 33 10000 5.1 260 23:19 30.12.2019
5513 Clear 5 1025 33 10000 5.1 260 22:56 30.12.2019
5514 Clear 5 1024 38 10000 5.1 280 22:37 30.12.2019
5515 Clear 5 1024 38 10000 5.1 280 22:37 30.12.2019
5516 Clear 5 1024 28 10000 4.6 250 22:18 30.12.2019
5517 Clear 5 1024 28 10000 4.6 250 21:56 30.12.2019
5518 Clear 5 1024 26 10000 5.1 250 21:38 30.12.2019
5519 Clear 5 1024 26 10000 5.7 250 21:18 30.12.2019
5520 Clear 5 1024 26 10000 5.7 250 20:56 30.12.2019
5521 Clear 5 1024 26 10000 5.7 240 20:56 30.12.2019
5522 Clear 5 1024 26 10000 5.7 240 20:38 30.12.2019
5523 Clouds 6 1024 28 10000 4.6 240 20:19 30.12.2019
5524 Clouds 6 1024 28 10000 4.6 240 19:56 30.12.2019
5525 Clouds 6 1025 30 10000 4.6 230 19:37 30.12.2019
5526 Clouds 6 1025 30 10000 4.6 230 19:37 30.12.2019
5527 Clouds 6 1025 26 10000 3.1 240 19:18 30.12.2019
5528 Clouds 6 1025 28 10000 3.1 230 18:56 30.12.2019
5529 Clouds 6 1025 28 10000 3.1 230 18:36 30.12.2019
5530 Clouds 6 1025 28 10000 3.1 230 18:36 30.12.2019
5531 Clouds 6 1025 28 10000 3.1 220 18:18 30.12.2019
5532 Clouds 6 1026 30 10000 2.1 230 17:54 30.12.2019
5533 Clouds 6 1026 30 10000 2.1 230 17:36 30.12.2019
5534 Clouds 7 1026 28 10000 2.6 220 17:18 30.12.2019
5535 Clouds 7 1026 31 10000 3.1 240 16:41 30.12.2019
5536 Clouds 8 1026 29 10000 3.6 220 16:20 30.12.2019
5537 Clouds 8 1026 29 10000 3.6 220 15:57 30.12.2019
5538 Clouds 8 1026 34 10000 3.6 230 15:39 30.12.2019
5539 Clouds 8 1027 34 10000 2.6 220 15:19 30.12.2019
5540 Clouds 8 1027 34 10000 2.6 220 14:55 30.12.2019
5541 Clouds 8 1027 34 10000 3.1 230 14:37 30.12.2019
5542 Clouds 9 1027 29 10000 4.6 240 14:18 30.12.2019
5543 Clouds 9 1027 25 10000 5.7 250 13:42 30.12.2019
5544 Clouds 8 1027 25 10000 5.7 250 13:24 30.12.2019
5545 Clouds 9 1028 25 10000 4.6 240 12:58 30.12.2019
5546 Clouds 9 1028 27 10000 3.6 240 12:40 30.12.2019
5547 Clouds 7 1028 29 10000 3.6 230 12:19 30.12.2019
5548 Clouds 7 1028 29 10000 3.6 230 11:56 30.12.2019
5549 Clouds 7 1029 33 10000 2.6 230 11:37 30.12.2019
5550 Clouds 6 1029 33 10000 3.6 220 11:18 30.12.2019
5551 Clouds 6 1029 36 10000 3.6 210 10:42 30.12.2019
5552 Clouds 4 1029 44 10000 3.1 190 10:20 30.12.2019
5553 Clouds 4 1029 44 10000 3.6 180 09:44 30.12.2019
5554 Clouds 4 1030 48 10000 2.1 180 09:22 30.12.2019
5555 Clouds 4 1030 48 10000 2.1 180 08:58 30.12.2019
5556 Clouds 4 1030 51 10000 2.6 170 08:39 30.12.2019
5557 Clouds 4 1030 48 10000 1.5 190 08:21 30.12.2019
5558 Clouds 4 1030 48 10000 2.1 210 07:49 30.12.2019
5559 Clouds 3 1030 51 10000 1.5 180 07:25 30.12.2019
5560 Clouds 3 1030 51 10000 1.5 180 06:39 30.12.2019
5561 Clouds 3 1031 51 10000 1.5 150 04:32 30.12.2019
5562 Clouds 3 1031 59 10000 3.11 237 03:51 30.12.2019
5563 Clouds 3 1032 69 10000 1 0 02:47 30.12.2019
5564 Clouds 3 1032 69 10000 1 0 02:27 30.12.2019
5565 Clouds 3 1032 64 10000 1.5 160 01:39 30.12.2019
5566 Clouds 3 1032 55 10000 1 0 01:19 30.12.2019
5567 Clouds 2 1033 59 10000 2.6 170 00:42 30.12.2019
5568 Clouds 3 1033 59 10000 1 150 23:58 29.12.2019
5569 Clouds 3 1033 59 10000 1 0 23:37 29.12.2019
5570 Clouds 3 1034 59 10000 2.1 170 23:19 29.12.2019
5571 Clouds 2 1034 55 10000 1 0 22:41 29.12.2019
5572 Clouds 2 1034 59 10000 0.5 0 22:22 29.12.2019
5573 Clouds 2 1034 59 10000 0.5 0 21:56 29.12.2019
5574 Clouds 2 1034 64 10000 1.5 140 21:38 29.12.2019
5575 Clouds 2 1034 69 10000 1 0 21:19 29.12.2019
5576 Clouds 2 1034 69 10000 1 0 20:55 29.12.2019
5577 Clouds 2 1035 64 10000 0.5 0 20:37 29.12.2019
5578 Clouds 2 1035 59 10000 0.5 0 20:18 29.12.2019
5579 Clouds 2 1035 59 10000 0.5 0 19:56 29.12.2019
5580 Clouds 2 1035 64 10000 2.6 180 19:37 29.12.2019
5581 Clouds 2 1034 69 10000 2.1 150 19:19 29.12.2019
5582 Clouds 2 1034 69 10000 2.1 150 18:55 29.12.2019
5583 Clouds 2 1034 69 10000 2.1 150 18:55 29.12.2019
5584 Clouds 2 1035 69 10000 2.1 160 18:37 29.12.2019
5585 Clouds 2 1035 69 10000 2.1 160 18:18 29.12.2019
5586 Clouds 1 1035 69 10000 1.5 160 17:56 29.12.2019
5587 Clouds 2 1035 69 10000 1.5 160 17:37 29.12.2019
5588 Clouds 2 1036 69 10000 1 0 17:19 29.12.2019
5589 Clouds 2 1036 69 10000 1.5 150 16:55 29.12.2019
5590 Clouds 2 1036 69 10000 1.5 150 16:36 29.12.2019
5591 Clouds 2 1036 74 10000 1.5 180 16:18 29.12.2019
5592 Clouds 2 1036 69 10000 1 0 15:55 29.12.2019
5593 Clouds 2 1036 69 10000 1 0 15:37 29.12.2019
5594 Clouds 2 1036 69 10000 1 0 15:18 29.12.2019
5595 Clouds 2 1036 69 10000 1 0 14:55 29.12.2019
5596 Clouds 2 1036 69 10000 0.5 0 14:37 29.12.2019
5597 Clouds 2 1036 74 10000 2.6 160 14:18 29.12.2019
5598 Clouds 2 1036 74 10000 2.6 150 13:40 29.12.2019
5599 Clouds 2 1036 74 10000 2.6 150 13:40 29.12.2019
5600 Clouds 2 1037 74 10000 2.1 140 13:22 29.12.2019
5601 Clouds 2 1037 74 10000 2.1 140 12:58 29.12.2019
5602 Clouds 2 1037 74 10000 2.1 150 12:40 29.12.2019
5603 Clouds 1 1038 69 10000 1.5 180 12:22 29.12.2019
5604 Clouds 1 1038 69 10000 1.5 180 12:22 29.12.2019
5605 Clouds 1 1038 74 10000 2.6 160 11:43 29.12.2019
5606 Clouds 1 1038 69 10000 2.6 160 11:23 29.12.2019
5607 Clouds 0 1038 69 10000 2.6 160 11:00 29.12.2019
5608 Clouds 0 1038 74 10000 1.5 140 10:41 29.12.2019
5609 Clouds -1 1038 68 10000 1 0 10:19 29.12.2019
5610 Clouds -2 1038 86 10000 1.5 130 09:47 29.12.2019
5611 Clouds -2 1038 86 10000 1.5 130 09:28 29.12.2019
5612 Clouds -3 1038 92 10000 0.5 0 08:59 29.12.2019
5613 Clouds -3 1038 86 10000 1 0 08:41 29.12.2019
5614 Clouds -3 1038 86 10000 1.5 110 08:23 29.12.2019
5615 Clouds -3 1038 86 10000 1.53 176 07:49 29.12.2019
5616 Clouds -3 1038 86 10000 1.53 176 07:27 29.12.2019
5617 Clouds -3 1038 86 10000 1 0 06:52 29.12.2019
5618 Clouds -3 1038 86 10000 2.1 150 06:22 29.12.2019
5619 Clouds -3 1039 86 10000 2.1 150 05:45 29.12.2019
5620 Clouds -3 1039 86 0 1 0 04:33 29.12.2019
5621 Clouds -2 1039 80 10000 1.5 160 03:39 29.12.2019
5622 Clouds -2 1039 80 10000 2.6 140 02:36 29.12.2019
5623 Clouds -2 1039 80 10000 2.1 150 02:18 29.12.2019
5624 Clouds -1 1039 86 10000 1 0 01:31 29.12.2019
5625 Clouds -1 1039 77 10000 3.1 160 00:51 29.12.2019
5626 Clouds -1 1039 77 10000 3.1 160 00:25 29.12.2019
5627 Clouds -1 1040 77 10000 2.6 160 23:56 28.12.2019
5628 Clouds -1 1040 77 10000 2.6 160 23:56 28.12.2019
5629 Clouds -1 1041 77 10000 2.1 150 23:37 28.12.2019
5630 Clouds -1 1041 76 10000 2.1 150 23:18 28.12.2019
5631 Clouds -1 1041 76 10000 2.1 150 23:18 28.12.2019
5632 Clouds -1 1041 76 10000 2.1 150 23:18 28.12.2019
5633 Clouds -1 1041 76 10000 2.1 150 22:38 28.12.2019
5634 Clouds -1 1041 76 10000 2.6 150 22:19 28.12.2019
5635 Clouds -1 1041 76 10000 2.6 150 21:57 28.12.2019
5636 Clouds -1 1041 76 10000 2.6 140 21:38 28.12.2019
5637 Clouds -1 1041 76 10000 2.1 130 21:19 28.12.2019
5638 Clouds -1 1041 76 10000 2.1 130 20:54 28.12.2019
5639 Clouds -1 1041 76 10000 2.1 130 20:54 28.12.2019
5640 Clouds -1 1041 76 10000 2.1 110 20:36 28.12.2019
5641 Clouds -1 1042 78 10000 0.5 0 20:18 28.12.2019
5642 Clouds -1 1041 78 10000 1 0 19:43 28.12.2019
5643 Clouds -1 1041 78 10000 1 0 19:24 28.12.2019
5644 Clouds -1 1041 78 10000 1 0 18:59 28.12.2019
5645 Clouds -1 1041 78 10000 1.5 130 18:41 28.12.2019
5646 Clouds 0 1041 78 10000 1.5 110 18:20 28.12.2019
5647 Clouds -1 1041 78 10000 1.5 110 17:59 28.12.2019
5648 Clouds 0 1041 78 10000 1.5 110 17:39 28.12.2019
5649 Clouds 0 1042 77 10000 2.6 110 17:21 28.12.2019
5650 Clouds 0 1042 80 10000 2.1 110 16:49 28.12.2019
5651 Clouds 0 1042 80 10000 2.1 110 16:27 28.12.2019
5652 Clouds 0 1042 80 10000 2.1 110 15:57 28.12.2019
5653 Clouds 0 1042 80 10000 2.1 110 15:57 28.12.2019
5654 Clouds 1 1042 80 10000 1.5 100 15:39 28.12.2019
5655 Clouds 1 1041 74 10000 2.1 120 15:21 28.12.2019
5656 Clouds 1 1041 74 10000 2.1 120 15:21 28.12.2019
5657 Clouds 1 1041 74 10000 2.6 120 14:46 28.12.2019
5658 Clouds 1 1041 74 10000 2.6 120 14:24 28.12.2019
5659 Clouds 1 1041 74 10000 2.6 120 13:58 28.12.2019
5660 Clouds 1 1042 74 10000 2.6 120 13:39 28.12.2019
5661 Clouds 1 1042 74 10000 2.6 130 13:19 28.12.2019
5662 Clouds 1 1042 74 10000 2.6 130 12:55 28.12.2019
5663 Clouds 1 1042 74 10000 2.6 110 12:36 28.12.2019
5664 Clouds 1 1042 86 10000 2.1 110 12:18 28.12.2019
5665 Clouds 0 1042 80 10000 2.1 110 11:39 28.12.2019
5666 Clouds 0 1042 86 10000 1.5 100 11:20 28.12.2019
5667 Clouds -1 1042 92 10000 1 0 10:46 28.12.2019
5668 Clouds -1 1042 92 10000 1 0 10:23 28.12.2019
5669 Clouds -2 1042 92 10000 2.1 90 09:58 28.12.2019
5670 Clouds -2 1042 92 10000 2.1 90 09:40 28.12.2019
5671 Clouds -2 1041 100 9000 1.5 90 09:21 28.12.2019
5672 Clouds -3 1041 100 6000 1.5 0 08:45 28.12.2019
5673 Clouds -3 1041 100 6000 1.5 0 08:27 28.12.2019
5674 Clouds -2 1041 100 9000 1.5 100 07:57 28.12.2019
5675 Clouds -2 1040 100 9000 2.6 80 07:39 28.12.2019
5676 Clouds -2 1040 100 7000 1.5 80 06:42 28.12.2019
5677 Clouds -1 1040 100 10000 2.6 90 05:19 28.12.2019
5678 Clouds -1 1040 94 10000 1.5 100 03:47 28.12.2019
5679 Clouds 0 1040 94 10000 1.5 80 02:49 28.12.2019
5680 Clouds 0 1039 89 10000 1.5 40 02:19 28.12.2019
5681 Clouds 0 1039 89 10000 1.5 60 01:42 28.12.2019
5682 Clouds 0 1038 87 10000 2.6 60 01:18 28.12.2019
5683 Clouds 0 1038 87 10000 3.1 70 00:40 28.12.2019
5684 Clouds 1 1038 87 10000 2.6 60 00:21 28.12.2019
5685 Clouds 1 1038 87 10000 2.6 80 23:45 27.12.2019
5686 Clouds 1 1038 100 10000 1 0 23:20 27.12.2019
5687 Clouds 1 1038 100 10000 1 0 22:58 27.12.2019
5688 Clouds 1 1038 100 10000 2.1 90 22:39 27.12.2019
5689 Clouds 1 1038 100 10000 2.1 60 22:20 27.12.2019
5690 Clouds 2 1038 100 10000 2.1 60 21:58 27.12.2019
5691 Clouds 2 1037 79 10000 0.5 0 21:38 27.12.2019
5692 Clouds 2 1037 79 10000 1 90 21:19 27.12.2019
5693 Clouds 2 1037 79 10000 0.5 30 20:42 27.12.2019
5694 Clouds 2 1037 81 10000 0.5 30 20:23 27.12.2019
5695 Rain 2 1036 82 10000 1.5 60 19:54 27.12.2019
5696 Rain 2 1036 82 10000 1.5 20 19:36 27.12.2019
5697 Rain 2 1036 82 10000 1.5 310 19:18 27.12.2019
5698 Rain 2 1035 82 10000 1.5 340 18:40 27.12.2019
5699 Clouds 2 1035 82 10000 1 350 18:22 27.12.2019
5700 Clouds 2 1035 82 10000 1 350 17:58 27.12.2019
5701 Clouds 2 1034 82 10000 2.1 60 17:40 27.12.2019
5702 Clouds 2 1033 80 10000 2.1 60 17:19 27.12.2019
5703 Clouds 3 1033 80 10000 2.1 60 16:59 27.12.2019
5704 Clouds 3 1033 74 10000 2.6 60 16:39 27.12.2019
5705 Clouds 3 1033 74 10000 3.1 70 16:20 27.12.2019
5706 Clouds 3 1032 80 10000 3.1 30 15:45 27.12.2019
5707 Clouds 3 1032 80 10000 3.1 40 15:23 27.12.2019
5708 Clouds 3 1032 80 10000 3.1 40 14:58 27.12.2019
5709 Clouds 3 1032 74 10000 3.6 30 14:40 27.12.2019
5710 Clouds 4 1031 79 10000 3.6 40 14:21 27.12.2019
5711 Clouds 4 1031 79 10000 3.6 40 13:57 27.12.2019
5712 Clouds 4 1031 79 10000 5.1 60 13:38 27.12.2019
5713 Clouds 4 1031 79 10000 5.1 60 13:38 27.12.2019
5714 Clouds 4 1030 80 10000 5.1 40 13:20 27.12.2019
5715 Clouds 4 1030 86 10000 3.1 60 12:42 27.12.2019
5716 Clouds 4 1030 86 10000 3.6 60 12:23 27.12.2019
5717 Clouds 4 1030 86 10000 2.6 60 11:46 27.12.2019
5718 Clouds 3 1030 86 10000 2.6 60 11:26 27.12.2019
5719 Clouds 3 1030 93 10000 2.6 60 10:59 27.12.2019
5720 Clouds 3 1029 93 10000 3.1 60 10:40 27.12.2019
5721 Clouds 2 1028 100 10000 3.1 70 10:22 27.12.2019
5722 Clouds 2 1028 93 10000 3.1 50 09:46 27.12.2019
5723 Clouds 1 1027 100 10000 3.1 50 09:22 27.12.2019
5724 Clouds 1 1027 100 10000 3.1 50 08:59 27.12.2019
5725 Clouds 1 1026 92 10000 2.6 70 08:37 27.12.2019
5726 Clouds 1 1025 89 10000 3.1 70 07:53 27.12.2019
5727 Clouds 1 1025 89 10000 3.1 70 07:34 27.12.2019
5728 Clouds 1 1024 89 10000 3.1 70 06:39 27.12.2019
5729 Fog 1 1024 100 8000 2.1 70 05:52 27.12.2019
5730 Clouds 2 1023 93 10000 1.5 100 03:47 27.12.2019
5731 Clouds 3 1023 100 10000 2.1 80 02:25 27.12.2019
5732 Clouds 3 1023 100 10000 3.1 80 01:42 27.12.2019
5733 Clouds 4 1023 93 10000 3.1 80 01:20 27.12.2019
5734 Clouds 4 1023 93 10000 3.1 90 00:46 27.12.2019
5735 Clouds 4 1023 93 10000 2.1 90 00:24 27.12.2019
5736 Clouds 4 1023 93 10000 2.1 90 00:24 27.12.2019
5737 Clouds 4 1023 93 10000 1.5 100 23:42 26.12.2019
5738 Clouds 4 1023 93 10000 1 0 23:24 26.12.2019
5739 Clouds 4 1023 93 10000 1 0 22:58 26.12.2019
5740 Clouds 4 1023 93 10000 1 100 22:37 26.12.2019
5741 Clouds 4 1023 86 10000 1 110 22:18 26.12.2019
5742 Clouds 4 1023 93 10000 1 90 21:39 26.12.2019
5743 Clouds 4 1023 93 10000 1 100 21:21 26.12.2019
5744 Clouds 4 1023 93 10000 1 100 21:21 26.12.2019
5745 Clouds 4 1023 86 10000 1 100 20:47 26.12.2019
5746 Clouds 4 1023 86 10000 1 0 20:24 26.12.2019
5747 Clouds 4 1023 86 10000 1 0 19:59 26.12.2019
5748 Clouds 4 1023 86 10000 1 0 19:40 26.12.2019
5749 Clouds 4 1023 86 10000 1 0 19:40 26.12.2019
5750 Clouds 4 1023 86 10000 1 170 19:22 26.12.2019
5751 Clouds 4 1023 86 10000 1 170 18:59 26.12.2019
5752 Clouds 4 1023 86 10000 0.5 160 18:40 26.12.2019
5753 Clouds 4 1023 93 10000 0.5 0 18:20 26.12.2019
5754 Clouds 5 1023 93 10000 0.5 0 17:57 26.12.2019
5755 Clouds 5 1023 86 10000 1 0 17:39 26.12.2019
5756 Clouds 5 1023 86 10000 0.5 0 17:19 26.12.2019
5757 Clouds 5 1023 81 10000 1 260 16:45 26.12.2019
5758 Clouds 6 1023 81 10000 1 260 16:24 26.12.2019
5759 Clouds 6 1023 81 10000 1.5 240 15:56 26.12.2019
5760 Clouds 6 1023 81 10000 1.5 210 15:56 26.12.2019
5761 Clouds 6 1023 81 10000 1.5 240 15:38 26.12.2019
5762 Clouds 6 1023 81 10000 2.1 270 15:18 26.12.2019
5763 Clouds 6 1023 81 10000 2.6 280 14:40 26.12.2019
5764 Clouds 6 1024 81 10000 2.6 260 14:22 26.12.2019
5765 Clouds 6 1024 75 10000 3.1 260 13:44 26.12.2019
5766 Clouds 6 1024 75 10000 3.1 260 13:44 26.12.2019
5767 Clouds 6 1024 81 10000 2.6 260 13:22 26.12.2019
5768 Clouds 6 1024 81 10000 2.6 260 12:58 26.12.2019
5769 Clouds 6 1024 81 10000 2.6 260 12:58 26.12.2019
5770 Rain 6 1024 81 10000 3.1 260 12:39 26.12.2019
5771 Rain 6 1024 87 10000 2.6 250 12:20 26.12.2019
5772 Rain 6 1024 87 10000 2.6 250 11:57 26.12.2019
5773 Clouds 5 1024 87 10000 3.1 260 11:39 26.12.2019
5774 Clouds 5 1024 87 10000 2.6 250 11:20 26.12.2019
5775 Rain 5 1024 93 10000 2.6 250 10:49 26.12.2019
5776 Rain 5 1024 93 10000 2.6 250 10:19 26.12.2019
5777 Rain 5 1024 93 10000 2.6 250 10:19 26.12.2019
5778 Rain 5 1024 93 10000 2.6 250 10:19 26.12.2019
5779 Clouds 5 1024 100 10000 1 0 09:50 26.12.2019
5780 Clouds 4 1024 100 10000 1 0 09:32 26.12.2019
5781 Clouds 4 1024 100 10000 2.6 260 08:55 26.12.2019
5782 Clouds 4 1024 100 10000 2.6 240 08:36 26.12.2019
5783 Clouds 4 1024 100 8000 1.5 250 08:18 26.12.2019
5784 Clouds 4 1024 93 8000 2.1 270 07:30 26.12.2019
5785 Clouds 4 1024 100 8000 2.1 260 06:54 26.12.2019
5786 Clouds 4 1024 100 8000 2.6 260 06:54 26.12.2019
5787 Clouds 4 1024 100 8000 2.6 260 06:32 26.12.2019
5788 Rain 4 1024 100 10000 2.6 250 05:46 26.12.2019
5789 Rain 4 1024 93 10000 2.1 260 04:59 26.12.2019
5790 Clouds 4 1023 93 10000 2.6 260 04:30 26.12.2019
5791 Clouds 5 1024 93 10000 3.1 270 03:18 26.12.2019
5792 Clouds 5 1024 93 10000 2.1 260 02:38 26.12.2019
5793 Clouds 5 1024 93 10000 2.6 260 02:19 26.12.2019
5794 Clouds 5 1023 100 10000 2.6 260 01:41 26.12.2019
5795 Clouds 5 1024 93 10000 3.6 270 01:22 26.12.2019
5796 Rain 5 1023 93 10000 4.1 280 00:41 26.12.2019
5797 Clouds 5 1023 100 10000 2.6 270 00:22 26.12.2019
5798 Rain 5 1023 100 10000 2.6 280 23:42 25.12.2019
5799 Clouds 5 1023 100 10000 3.1 270 23:21 25.12.2019
5800 Clouds 5 1023 100 10000 3.1 270 22:59 25.12.2019
5801 Clouds 5 1023 93 10000 2.6 270 22:40 25.12.2019
5802 Rain 6 1023 93 10000 3.1 270 22:22 25.12.2019
5803 Rain 6 1023 93 10000 3.1 270 21:59 25.12.2019
5804 Clouds 6 1022 93 10000 3.1 280 21:40 25.12.2019
5805 Clouds 6 1022 93 10000 2.6 270 21:21 25.12.2019
5806 Clouds 6 1022 93 10000 2.6 270 20:57 25.12.2019
5807 Clouds 6 1022 100 10000 3.1 290 20:39 25.12.2019
5808 Clouds 6 1022 93 10000 3.6 280 20:18 25.12.2019
5809 Clouds 6 1021 93 10000 3.6 270 19:43 25.12.2019
5810 Clouds 6 1021 93 10000 3.6 270 19:43 25.12.2019
5811 Clouds 6 1021 93 10000 3.6 280 19:25 25.12.2019
5812 Clouds 6 1021 93 10000 3.6 280 18:58 25.12.2019
5813 Clouds 6 1021 93 10000 3.6 290 18:37 25.12.2019
5814 Clouds 6 1020 93 10000 3.1 290 18:19 25.12.2019
5815 Clouds 6 1020 93 10000 3.1 280 17:42 25.12.2019
5816 Clouds 6 1020 93 10000 3.6 280 17:20 25.12.2019
5817 Clouds 6 1020 93 10000 3.6 280 16:58 25.12.2019
5818 Clouds 7 1019 100 10000 3.1 280 16:38 25.12.2019
5819 Clouds 7 1019 100 10000 3.1 290 16:19 25.12.2019
5820 Clouds 7 1019 100 10000 3.1 290 15:57 25.12.2019
5821 Drizzle 7 1019 93 6000 4.1 300 15:39 25.12.2019
5822 Drizzle 7 1019 93 6000 4.1 300 15:39 25.12.2019
5823 Drizzle 7 1018 93 6000 3.1 280 15:20 25.12.2019
5824 Drizzle 7 1018 93 6000 3.1 280 14:57 25.12.2019
5825 Drizzle 7 1018 93 6000 3.6 280 14:39 25.12.2019
5826 Clouds 7 1017 100 7000 4.1 280 14:20 25.12.2019
5827 Drizzle 7 1017 100 4800 3.6 290 13:45 25.12.2019
5828 Drizzle 6 1017 93 8000 4.1 280 13:21 25.12.2019
5829 Drizzle 6 1017 93 8000 4.1 280 12:57 25.12.2019
5830 Clouds 6 1016 93 10000 4.6 290 12:38 25.12.2019
5831 Clouds 6 1016 93 10000 5.1 290 12:20 25.12.2019
5832 Clouds 6 1015 93 10000 3.6 280 11:43 25.12.2019
5833 Clouds 6 1015 93 8000 3.1 290 11:23 25.12.2019
5834 Clouds 6 1015 93 8000 3.1 290 10:59 25.12.2019
5835 Drizzle 6 1015 93 7000 3.1 320 10:37 25.12.2019
5836 Clouds 6 1014 93 8000 3.1 310 10:19 25.12.2019
5837 Clouds 6 1013 100 8000 2.6 300 09:45 25.12.2019
5838 Clouds 6 1013 100 8000 2.6 300 09:27 25.12.2019
5839 Rain 6 1012 93 7000 2.6 310 08:47 25.12.2019
5840 Rain 6 1012 93 7000 2.6 310 08:28 25.12.2019
5841 Rain 6 1011 93 9000 3.1 320 07:49 25.12.2019
5842 Rain 6 1011 93 9000 3.1 320 07:31 25.12.2019
5843 Clouds 6 1010 100 10000 4.1 320 06:49 25.12.2019
5844 Rain 7 1010 93 9000 2.6 290 06:22 25.12.2019
5845 Clouds 7 1010 93 10000 3.6 270 05:18 25.12.2019
5846 Clouds 7 1009 93 10000 3.6 270 04:38 25.12.2019
5847 Clouds 7 1009 93 10000 4.1 280 04:18 25.12.2019
5848 Rain 7 1009 93 10000 4.6 270 03:40 25.12.2019
5849 Clouds 7 1008 93 10000 4.1 270 02:39 25.12.2019
5850 Clouds 7 1008 93 10000 4.1 280 01:59 25.12.2019
5851 Clouds 7 1008 93 10000 4.1 270 01:25 25.12.2019
5852 Clouds 7 1007 93 10000 4.6 280 00:50 25.12.2019
5853 Clouds 7 1007 93 10000 4.6 280 00:29 25.12.2019
5854 Clouds 7 1007 93 10000 3.6 270 23:56 24.12.2019
5855 Clouds 7 1007 93 10000 4.6 270 23:37 24.12.2019
5856 Clouds 7 1006 87 10000 5.1 270 23:19 24.12.2019
5857 Clouds 7 1006 93 10000 5.1 270 22:40 24.12.2019
5858 Rain 7 1006 93 10000 5.1 270 22:21 24.12.2019
5859 Clouds 8 1005 93 10000 4.1 270 21:43 24.12.2019
5860 Rain 8 1005 100 10000 4.1 280 21:22 24.12.2019
5861 Rain 8 1005 100 10000 3.6 280 20:54 24.12.2019
5862 Rain 8 1005 100 10000 3.6 280 20:36 24.12.2019
5863 Rain 8 1005 93 10000 4.1 270 20:18 24.12.2019
5864 Rain 8 1005 93 10000 4.1 270 20:18 24.12.2019
5865 Rain 8 1004 93 10000 5.1 270 19:43 24.12.2019
5866 Rain 8 1004 87 10000 6.2 270 19:19 24.12.2019
5867 Drizzle 7 1004 93 10000 4.1 270 18:43 24.12.2019
5868 Drizzle 7 1003 100 4000 5.7 270 18:24 24.12.2019
5869 Drizzle 7 1003 100 4000 5.7 270 17:58 24.12.2019
5870 Drizzle 7 1003 93 2500 3.6 260 17:37 24.12.2019
5871 Drizzle 6 1003 93 4000 2.6 180 17:19 24.12.2019
5872 Drizzle 6 1003 100 4000 2.1 160 16:55 24.12.2019
5873 Drizzle 6 1003 100 4000 2.1 160 16:36 24.12.2019
5874 Drizzle 6 1003 100 4000 4.1 140 16:18 24.12.2019
5875 Rain 6 1003 93 8000 3.6 140 15:54 24.12.2019
5876 Rain 6 1003 93 8000 3.6 140 15:36 24.12.2019
5877 Rain 6 1004 87 10000 3.1 150 15:18 24.12.2019
5878 Rain 6 1004 87 10000 3.1 160 14:54 24.12.2019
5879 Rain 6 1004 87 10000 3.1 160 14:36 24.12.2019
5880 Rain 6 1004 87 10000 3.1 160 14:36 24.12.2019
5881 Rain 6 1005 93 8000 4.1 180 14:18 24.12.2019
5882 Rain 7 1005 93 8000 4.1 180 13:54 24.12.2019
5883 Rain 7 1006 81 10000 4.6 200 13:36 24.12.2019
5884 Rain 7 1006 81 10000 2.6 170 13:18 24.12.2019
5885 Rain 7 1007 75 10000 4.6 180 12:54 24.12.2019
5886 Rain 7 1007 75 10000 4.6 180 12:36 24.12.2019
5887 Rain 7 1007 81 10000 3.1 160 12:18 24.12.2019
5888 Rain 7 1007 81 10000 3.1 160 11:54 24.12.2019
5889 Clouds 7 1008 81 10000 3.1 160 11:36 24.12.2019
5890 Clouds 7 1009 81 10000 2.6 160 11:18 24.12.2019
5891 Clouds 7 1009 81 10000 3.6 160 10:54 24.12.2019
5892 Clouds 7 1009 81 10000 3.6 160 10:54 24.12.2019
5893 Clouds 7 1009 81 10000 3.6 160 10:36 24.12.2019
5894 Clouds 6 1010 81 10000 2.6 160 10:18 24.12.2019
5895 Clouds 6 1010 87 10000 3.1 170 09:54 24.12.2019
5896 Clouds 6 1010 87 10000 3.1 170 09:36 24.12.2019
5897 Clouds 6 1010 87 10000 2.6 180 09:18 24.12.2019
5898 Clouds 6 1011 87 10000 2.1 210 08:42 24.12.2019
5899 Clouds 6 1011 87 10000 2.6 210 08:19 24.12.2019
5900 Clouds 6 1011 87 10000 3.1 210 07:44 24.12.2019
5901 Clouds 6 1011 87 10000 3.6 220 07:21 24.12.2019
5902 Clouds 6 1012 93 10000 3.1 230 06:41 24.12.2019
5903 Clouds 6 1012 87 10000 3.6 230 06:22 24.12.2019
5904 Clouds 6 1012 81 10000 4.1 240 05:55 24.12.2019
5905 Clouds 7 1012 87 10000 3.6 230 05:20 24.12.2019
5906 Clouds 6 1012 81 10000 3.6 240 04:22 24.12.2019
5907 Clouds 6 1012 81 10000 5.1 240 03:50 24.12.2019
5908 Clouds 6 1012 87 10000 4.6 240 02:37 24.12.2019
5909 Clouds 6 1012 87 10000 3.6 250 02:18 24.12.2019
5910 Clouds 6 1012 87 10000 3.6 240 01:42 24.12.2019
5911 Clouds 6 1012 87 10000 4.6 240 01:19 24.12.2019
5912 Clouds 6 1011 87 10000 4.1 240 00:40 24.12.2019
5913 Clouds 6 1011 87 10000 3.6 240 00:20 24.12.2019
5914 Clouds 7 1011 87 10000 3.6 240 23:43 23.12.2019
5915 Clouds 7 1011 87 10000 3.6 240 23:24 23.12.2019
5916 Clouds 7 1010 93 10000 3.6 240 22:57 23.12.2019
5917 Clouds 7 1010 87 10000 3.6 260 22:38 23.12.2019
5918 Clouds 7 1010 93 10000 3.1 250 22:20 23.12.2019
5919 Clouds 7 1010 93 10000 3.1 250 21:57 23.12.2019
5920 Clouds 7 1010 93 10000 3.1 250 21:57 23.12.2019
5921 Rain 7 1010 93 10000 5.7 270 21:37 23.12.2019
5922 Clouds 7 1009 87 10000 6.2 270 21:19 23.12.2019
5923 Clouds 7 1009 87 10000 6.2 270 20:59 23.12.2019
5924 Rain 7 1009 93 7000 6.7 280 20:40 23.12.2019
5925 Clouds 7 1009 81 10000 5.1 250 20:19 23.12.2019
5926 Clouds 7 1009 81 10000 5.1 250 19:58 23.12.2019
5927 Clouds 7 1008 87 10000 5.1 250 19:39 23.12.2019
5928 Rain 8 1008 81 10000 5.7 250 19:21 23.12.2019
5929 Rain 8 1008 81 10000 5.7 250 18:58 23.12.2019
5930 Rain 7 1007 81 10000 5.7 240 18:39 23.12.2019
5931 Rain 7 1007 81 10000 5.7 240 18:20 23.12.2019
5932 Rain 7 1007 81 10000 5.7 240 17:59 23.12.2019
5933 Clouds 7 1007 81 10000 5.1 240 17:40 23.12.2019
5934 Clouds 7 1007 81 10000 4.6 250 17:19 23.12.2019
5935 Clouds 8 1007 81 10000 4.6 250 16:57 23.12.2019
5936 Clouds 8 1006 81 10000 6.2 250 16:39 23.12.2019
5937 Clouds 8 1006 81 10000 5.1 250 16:18 23.12.2019
5938 Clouds 8 1005 81 10000 5.1 260 15:57 23.12.2019
5939 Clouds 8 1005 81 10000 5.1 260 15:37 23.12.2019
5940 Clouds 8 1005 75 10000 4.6 270 15:19 23.12.2019
5941 Clouds 8 1005 75 10000 4.6 270 14:56 23.12.2019
5942 Clouds 8 1005 81 10000 5.7 260 14:56 23.12.2019
5943 Clouds 8 1005 75 10000 4.6 270 14:56 23.12.2019
5944 Clouds 8 1005 81 10000 5.7 260 14:37 23.12.2019
5945 Clouds 8 1004 81 10000 4.1 260 14:18 23.12.2019
5946 Clouds 8 1004 87 10000 5.1 260 13:55 23.12.2019
5947 Clouds 8 1004 87 10000 5.1 260 13:37 23.12.2019
5948 Clouds 8 1003 87 10000 5.1 260 13:19 23.12.2019
5949 Rain 8 1003 87 10000 5.7 260 12:41 23.12.2019
5950 Rain 8 1002 87 10000 5.1 250 12:21 23.12.2019
5951 Rain 8 1002 87 10000 5.1 250 11:59 23.12.2019
5952 Rain 8 1002 87 10000 5.1 250 11:59 23.12.2019
5953 Rain 8 1002 87 10000 5.7 260 11:41 23.12.2019
5954 Clouds 7 1002 87 10000 4.1 250 11:22 23.12.2019
5955 Clouds 7 1001 87 10000 3.6 260 10:55 23.12.2019
5956 Clouds 7 1001 87 10000 3.6 260 10:37 23.12.2019
5957 Clouds 7 1001 87 10000 3.6 260 10:37 23.12.2019
5958 Clouds 7 1001 87 10000 4.1 250 10:18 23.12.2019
5959 Clouds 7 1000 87 10000 3.6 250 09:54 23.12.2019
5960 Clouds 7 1000 87 10000 3.6 250 09:36 23.12.2019
5961 Clouds 7 1000 87 10000 3.6 240 09:18 23.12.2019
5962 Clouds 7 1000 87 10000 4.1 230 08:41 23.12.2019
5963 Clouds 7 999 87 10000 4.6 240 08:22 23.12.2019
5964 Clouds 7 999 87 10000 4.6 240 07:56 23.12.2019
5965 Clouds 7 998 87 10000 4.1 240 07:37 23.12.2019
5966 Clouds 7 998 87 10000 5.1 260 07:18 23.12.2019
5967 Clouds 7 997 87 10000 5.1 260 06:39 23.12.2019
5968 Clouds 7 997 87 10000 5.7 260 06:21 23.12.2019
5969 Clouds 7 996 87 10000 5.1 260 05:44 23.12.2019
5970 Rain 7 995 93 10000 6.2 260 04:40 23.12.2019
5971 Clouds 7 994 93 10000 5.7 270 03:58 23.12.2019
5972 Rain 7 992 93 10000 7.2 270 02:46 23.12.2019
5973 Drizzle 7 992 93 7000 6.7 270 02:19 23.12.2019
5974 Drizzle 7 991 93 6000 7.2 260 01:46 23.12.2019
5975 Drizzle 7 991 93 6000 7.2 260 01:27 23.12.2019
5976 Rain 7 990 93 10000 4.6 240 00:46 23.12.2019
5977 Rain 8 990 93 10000 4.6 240 00:27 23.12.2019
5978 Rain 8 989 93 10000 2.6 230 23:56 22.12.2019
5979 Rain 8 989 93 10000 2.1 230 23:37 22.12.2019
5980 Rain 8 988 93 10000 3.1 210 23:19 22.12.2019
5981 Rain 8 988 87 10000 2.1 200 22:42 22.12.2019
5982 Rain 8 988 87 10000 2.1 200 22:42 22.12.2019
5983 Rain 8 987 93 10000 3.1 220 22:23 22.12.2019
5984 Rain 8 988 87 10000 2.6 180 21:59 22.12.2019
5985 Rain 8 987 87 10000 3.1 190 21:41 22.12.2019
5986 Clouds 8 987 87 10000 3.1 180 21:22 22.12.2019
5987 Clouds 8 987 87 10000 3.1 180 20:59 22.12.2019
5988 Clouds 8 987 87 10000 2.1 150 20:40 22.12.2019
5989 Clouds 8 986 87 10000 2.6 150 20:19 22.12.2019
5990 Clouds 8 986 87 10000 2.6 150 19:57 22.12.2019
5991 Clouds 8 986 87 10000 2.6 160 19:39 22.12.2019
5992 Clouds 8 986 81 10000 2.1 160 19:20 22.12.2019
5993 Clouds 8 986 81 10000 3.6 160 18:44 22.12.2019
5994 Clouds 8 986 76 10000 3.1 150 18:25 22.12.2019
5995 Clouds 8 986 76 10000 3.1 150 17:57 22.12.2019
5996 Clouds 8 986 76 10000 3.1 150 17:57 22.12.2019
5997 Clouds 8 985 76 10000 3.6 160 17:39 22.12.2019
5998 Clouds 8 985 76 10000 3.6 160 17:19 22.12.2019
5999 Clouds 8 985 76 10000 3.6 160 16:59 22.12.2019
6000 Clouds 8 985 76 10000 3.6 160 16:41 22.12.2019
6001 Clouds 8 985 76 10000 3.1 150 16:22 22.12.2019
6002 Clouds 8 985 76 10000 3.1 150 15:57 22.12.2019
6003 Clouds 8 985 81 10000 3.1 140 15:39 22.12.2019
6004 Clouds 8 985 81 10000 3.6 150 15:20 22.12.2019
6005 Clouds 8 985 81 10000 3.6 150 14:56 22.12.2019
6006 Clouds 8 985 81 10000 2.6 130 14:38 22.12.2019
6007 Clouds 8 985 81 10000 3.1 150 14:18 22.12.2019
6008 Clouds 8 985 81 10000 3.1 150 13:55 22.12.2019
6009 Clouds 8 985 81 10000 3.6 140 13:37 22.12.2019
6010 Clouds 7 985 81 10000 3.1 140 13:19 22.12.2019
6011 Clouds 7 985 81 10000 3.1 140 13:19 22.12.2019
6012 Clouds 7 985 81 10000 3.1 140 12:56 22.12.2019
6013 Rain 7 985 81 10000 3.6 150 12:38 22.12.2019
6014 Clouds 7 985 81 10000 3.6 160 12:19 22.12.2019
6015 Clouds 7 985 81 10000 3.6 160 11:56 22.12.2019
6016 Clouds 7 985 81 10000 3.6 160 11:56 22.12.2019
6017 Clouds 6 985 81 10000 3.1 150 11:38 22.12.2019
6018 Clouds 6 985 87 10000 3.6 170 11:19 22.12.2019
6019 Clouds 6 985 87 10000 3.6 170 10:55 22.12.2019
6020 Clouds 5 985 87 10000 5.1 170 10:37 22.12.2019
6021 Clouds 5 985 81 10000 3.1 160 10:18 22.12.2019
6022 Clouds 5 985 81 10000 3.1 160 09:57 22.12.2019
6023 Clouds 5 985 86 10000 3.1 160 09:38 22.12.2019
6024 Clouds 5 985 86 10000 4.1 150 09:20 22.12.2019
6025 Rain 5 985 87 10000 4.6 160 08:42 22.12.2019
6026 Rain 5 985 93 10000 2.6 130 08:21 22.12.2019
6027 Rain 5 984 93 10000 4.1 140 07:42 22.12.2019
6028 Rain 5 984 86 10000 3.6 120 07:21 22.12.2019
6029 Rain 5 985 86 10000 3.1 110 06:52 22.12.2019
6030 Rain 4 984 80 10000 4.1 110 06:25 22.12.2019
6031 Rain 4 985 80 10000 3.6 130 05:32 22.12.2019
6032 Clouds 4 985 86 10000 3.6 120 04:46 22.12.2019
6033 Clouds 4 985 86 10000 3.6 120 04:46 22.12.2019
6034 Clouds 4 985 86 10000 3.6 120 04:24 22.12.2019
6035 Clouds 4 986 81 10000 3.6 110 02:43 22.12.2019
6036 Clouds 4 986 81 10000 3.6 110 02:43 22.12.2019
6037 Clouds 5 986 86 10000 3.6 150 01:59 22.12.2019
6038 Clouds 4 986 86 10000 4.1 160 01:31 22.12.2019
6039 Clouds 4 987 86 10000 3.1 140 00:48 22.12.2019
6040 Clouds 4 987 86 10000 3.1 140 00:29 22.12.2019
6041 Clouds 5 987 86 10000 3.1 140 23:59 21.12.2019
6042 Clouds 5 988 86 10000 2.1 120 23:40 21.12.2019
6043 Clouds 4 988 93 10000 2.6 110 23:20 21.12.2019
6044 Clouds 4 988 80 10000 2.1 130 22:47 21.12.2019
6045 Clouds 5 988 93 10000 1.5 160 22:20 21.12.2019
6046 Clouds 5 988 93 10000 1.5 160 21:58 21.12.2019
6047 Clear 5 988 81 10000 0.5 0 21:40 21.12.2019
6048 Clear 5 988 93 10000 2.6 80 21:21 21.12.2019
6049 Clear 5 988 93 10000 2.6 80 20:59 21.12.2019
6050 Clear 6 989 75 10000 2.1 140 20:41 21.12.2019
6051 Clouds 6 989 75 10000 2.6 150 20:22 21.12.2019
6052 Clouds 6 989 75 10000 2.6 150 19:58 21.12.2019
6053 Clouds 6 989 81 10000 3.6 170 19:40 21.12.2019
6054 Clouds 6 989 81 10000 3.6 170 19:20 21.12.2019
6055 Clouds 6 989 81 10000 3.6 170 18:56 21.12.2019
6056 Clouds 6 989 81 10000 4.1 160 18:38 21.12.2019
6057 Clouds 6 990 81 10000 4.1 170 18:20 21.12.2019
6058 Clouds 6 990 81 10000 4.1 170 17:55 21.12.2019
6059 Clouds 6 990 81 10000 4.1 170 17:55 21.12.2019
6060 Clouds 7 990 81 10000 4.6 170 17:55 21.12.2019
6061 Clouds 7 990 81 10000 4.6 170 17:37 21.12.2019
6062 Clouds 7 990 81 10000 4.6 160 17:18 21.12.2019
6063 Clouds 7 990 81 10000 4.6 160 17:18 21.12.2019
6064 Clouds 7 991 75 10000 4.1 160 16:41 21.12.2019
6065 Clouds 8 991 75 10000 3.1 170 16:19 21.12.2019
6066 Clouds 8 991 75 10000 3.1 170 15:58 21.12.2019
6067 Clouds 8 991 70 10000 4.1 180 15:39 21.12.2019
6068 Clouds 9 991 70 0 4.6 180 15:20 21.12.2019
6069 Clouds 9 991 70 0 4.6 180 14:57 21.12.2019
6070 Clouds 9 991 70 10000 5.7 190 14:39 21.12.2019
6071 Clouds 9 991 70 10000 5.7 190 14:39 21.12.2019
6072 Clouds 9 992 70 10000 5.1 190 14:20 21.12.2019
6073 Clouds 9 992 70 10000 5.1 200 13:56 21.12.2019
6074 Clouds 9 992 70 10000 5.1 200 13:38 21.12.2019
6075 Clouds 9 992 71 10000 6.2 180 13:18 21.12.2019
6076 Clouds 9 992 71 10000 5.7 200 12:55 21.12.2019
6077 Clouds 9 992 71 10000 5.7 200 12:37 21.12.2019
6078 Clouds 9 992 70 10000 5.1 190 12:18 21.12.2019
6079 Clouds 9 993 76 10000 4.6 200 11:44 21.12.2019
6080 Clouds 8 993 76 10000 4.6 200 11:26 21.12.2019
6081 Clouds 8 993 70 10000 3.1 180 10:57 21.12.2019
6082 Clouds 8 993 70 10000 3.1 180 10:39 21.12.2019
6083 Clouds 7 993 75 10000 2.1 190 10:21 21.12.2019
6084 Clouds 7 993 75 10000 2.1 190 09:56 21.12.2019
6085 Clouds 7 992 75 10000 3.1 190 09:37 21.12.2019
6086 Clouds 7 992 81 10000 2.1 190 09:18 21.12.2019
6087 Clouds 7 992 81 10000 3.1 200 08:44 21.12.2019
6088 Clouds 7 992 81 10000 3.1 200 08:25 21.12.2019
6089 Clouds 8 992 75 10000 3.1 210 07:46 21.12.2019
6090 Clouds 8 992 75 10000 4.6 210 07:22 21.12.2019
6091 Clouds 8 992 75 10000 3.1 210 06:46 21.12.2019
6092 Clouds 7 992 75 10000 3.1 210 06:26 21.12.2019
6093 Clouds 8 992 75 10000 3.1 210 05:55 21.12.2019
6094 Clouds 8 992 70 10000 3.6 210 04:58 21.12.2019
6095 Clouds 8 992 75 10000 4.1 220 03:59 21.12.2019
6096 Clouds 8 991 75 10000 4.1 230 03:37 21.12.2019
6097 Clouds 8 991 76 10000 4.1 230 02:18 21.12.2019
6098 Clouds 9 990 76 10000 4.6 230 01:41 21.12.2019
6099 Clouds 9 990 76 10000 4.6 230 01:22 21.12.2019
6100 Clouds 9 990 81 10000 3.6 230 00:37 21.12.2019
6101 Clouds 9 989 76 10000 5.1 240 00:18 21.12.2019
6102 Clouds 10 989 76 10000 5.7 230 23:38 20.12.2019
6103 Rain 10 989 81 10000 5.1 220 23:19 20.12.2019
6104 Rain 10 989 87 10000 4.1 220 22:43 20.12.2019
6105 Rain 10 989 87 10000 5.1 220 22:22 20.12.2019
6106 Rain 10 989 87 10000 5.1 220 21:59 20.12.2019
6107 Rain 10 988 87 10000 3.6 180 21:40 20.12.2019
6108 Rain 10 988 87 10000 3.6 190 21:20 20.12.2019
6109 Rain 10 988 87 10000 3.6 190 21:20 20.12.2019
6110 Rain 10 988 87 10000 3.6 190 20:55 20.12.2019
6111 Rain 10 987 87 10000 4.1 190 20:36 20.12.2019
6112 Rain 10 987 87 10000 2.6 180 20:18 20.12.2019
6113 Rain 10 987 81 10000 3.1 170 19:41 20.12.2019
6114 Rain 10 987 76 10000 2.6 180 19:20 20.12.2019
6115 Rain 10 987 76 10000 2.6 180 18:58 20.12.2019
6116 Rain 10 987 71 10000 4.6 160 18:38 20.12.2019
6117 Rain 10 987 71 10000 4.6 160 18:20 20.12.2019
6118 Rain 10 986 66 10000 6.7 180 17:54 20.12.2019
6119 Rain 10 987 71 10000 4.1 150 17:36 20.12.2019
6120 Clouds 10 987 71 10000 4.1 150 17:18 20.12.2019
6121 Clouds 10 987 71 10000 3.6 150 16:40 20.12.2019
6122 Clouds 10 988 66 10000 2.6 140 16:20 20.12.2019
6123 Clouds 10 988 66 10000 2.1 150 15:57 20.12.2019
6124 Rain 9 987 62 10000 6.2 190 15:39 20.12.2019
6125 Clouds 10 989 70 10000 2.6 130 15:20 20.12.2019
6126 Clouds 10 989 70 10000 2.6 130 14:58 20.12.2019
6127 Clouds 10 988 54 10000 6.2 180 14:39 20.12.2019
6128 Clouds 10 989 70 10000 2.6 130 14:21 20.12.2019
6129 Clouds 10 990 66 10000 4.1 110 13:42 20.12.2019
6130 Clouds 9 990 70 10000 2.6 110 13:21 20.12.2019
6131 Clouds 9 990 70 10000 3.1 140 12:59 20.12.2019
6132 Clouds 9 990 70 10000 3.1 140 12:41 20.12.2019
6133 Clouds 9 990 66 10000 3.1 110 12:19 20.12.2019
6134 Clouds 9 991 70 10000 3.1 100 11:59 20.12.2019
6135 Clouds 9 990 57 5000 8.2 140 11:40 20.12.2019
6136 Clouds 8 991 70 10000 4.1 120 11:21 20.12.2019
6137 Clouds 6 992 75 10000 3.1 110 10:59 20.12.2019
6138 Clouds 6 992 61 5000 6.2 140 10:41 20.12.2019
6139 Clouds 6 993 86 10000 2.1 130 10:20 20.12.2019
6140 Clouds 5 993 93 10000 4.6 90 09:56 20.12.2019
6141 Clouds 5 993 61 10000 7.2 150 09:38 20.12.2019
6142 Clouds 4 994 93 10000 2.6 100 09:19 20.12.2019
6143 Clouds 4 995 93 10000 3.6 100 08:43 20.12.2019
6144 Clouds 4 995 86 10000 3.6 100 08:24 20.12.2019
6145 Clouds 4 996 93 10000 2.1 80 07:58 20.12.2019
6146 Clouds 3 996 93 10000 5.1 90 07:40 20.12.2019
6147 Clouds 3 996 93 10000 5.1 90 07:19 20.12.2019
6148 Clouds 3 996 93 10000 4.6 90 06:51 20.12.2019
6149 Mist 4 997 100 4500 3.6 80 06:31 20.12.2019
6150 Fog 4 998 100 800 4.1 80 05:53 20.12.2019
6151 Clouds 4 998 86 10000 2.6 110 05:34 20.12.2019
6152 Clear 4 999 93 10000 2.6 100 04:30 20.12.2019
6153 Clear 4 1001 100 10000 2.6 100 03:30 20.12.2019
6154 Clouds 5 1000 81 10000 3.6 130 02:42 20.12.2019
6155 Clouds 5 1002 93 10000 2.6 110 01:47 20.12.2019
6156 Clouds 5 1003 93 10000 2.6 100 01:29 20.12.2019
6157 Clouds 5 1004 93 10000 2.6 100 00:42 20.12.2019
6158 Clouds 5 1004 93 10000 3.6 100 00:20 20.12.2019
6159 Clouds 5 1004 87 10000 2.1 110 23:43 19.12.2019
6160 Clouds 6 1004 87 10000 3.6 110 23:24 19.12.2019
6161 Clouds 6 1005 87 10000 3.1 100 22:59 19.12.2019
6162 Clouds 6 1005 87 10000 3.1 100 22:59 19.12.2019
6163 Clouds 6 1005 87 10000 3.6 80 22:36 19.12.2019
6164 Clouds 7 1005 87 10000 3.6 80 22:18 19.12.2019
6165 Clouds 7 1006 81 10000 3.1 100 21:55 19.12.2019
6166 Clouds 7 1006 87 10000 3.6 100 21:37 19.12.2019
6167 Clouds 7 1007 81 10000 3.1 100 21:18 19.12.2019
6168 Clouds 7 1007 81 10000 3.1 100 20:55 19.12.2019
6169 Clouds 7 1006 71 10000 4.1 140 20:36 19.12.2019
6170 Clouds 8 1007 76 10000 3.1 100 20:18 19.12.2019
6171 Clouds 8 1007 76 10000 3.1 100 19:54 19.12.2019
6172 Clouds 8 1007 76 10000 3.1 100 19:54 19.12.2019
6173 Clouds 8 1008 76 10000 2.1 130 19:36 19.12.2019
6174 Clouds 8 1008 76 10000 2.1 130 19:18 19.12.2019
6175 Clouds 8 1007 71 10000 4.6 160 18:41 19.12.2019
6176 Clouds 9 1009 66 10000 3.1 160 18:21 19.12.2019
6177 Clouds 9 1009 62 10000 3.6 160 17:57 19.12.2019
6178 Clouds 9 1008 76 10000 4.1 160 17:39 19.12.2019
6179 Clouds 9 1009 76 10000 3.1 140 17:19 19.12.2019
6180 Clouds 9 1009 81 10000 2.1 80 16:57 19.12.2019
6181 Clouds 9 1009 71 10000 5.7 150 16:39 19.12.2019
6182 Clouds 9 1009 71 10000 2.6 120 16:20 19.12.2019
6183 Clouds 9 1010 62 10000 3.1 140 15:58 19.12.2019
6184 Clouds 10 1009 66 10000 6.2 160 15:39 19.12.2019
6185 Clouds 10 1010 66 10000 4.1 140 15:19 19.12.2019
6186 Clouds 11 1010 66 10000 2.6 150 14:58 19.12.2019
6187 Clouds 11 1010 71 10000 5.1 150 14:40 19.12.2019
6188 Clear 11 1011 66 10000 1 0 14:18 19.12.2019
6189 Clear 11 1011 71 10000 1 0 13:56 19.12.2019
6190 Clouds 11 1011 71 10000 6.2 150 13:37 19.12.2019
6191 Clear 10 1012 76 10000 2.6 110 13:18 19.12.2019
6192 Clear 11 1012 71 10000 4.6 130 12:54 19.12.2019
6193 Clouds 10 1011 76 10000 5.7 150 12:36 19.12.2019
6194 Clear 10 1013 66 10000 3.6 140 12:18 19.12.2019
6195 Clear 10 1013 66 10000 3.6 140 12:18 19.12.2019
6196 Clear 10 1013 66 10000 3.6 140 12:18 19.12.2019
6197 Clear 10 1013 66 10000 3.6 140 12:18 19.12.2019
6198 Clouds 9 1013 81 10000 4.6 140 11:42 19.12.2019
6199 Clear 8 1014 76 10000 4.6 140 11:20 19.12.2019
6200 Clear 8 1014 76 10000 4.6 140 11:20 19.12.2019
6201 Clear 7 1014 76 10000 4.6 150 10:59 19.12.2019
6202 Clouds 7 1013 81 10000 5.1 150 10:39 19.12.2019
6203 Clear 6 1014 81 10000 4.1 150 10:20 19.12.2019
6204 Clear 5 1014 87 10000 4.6 160 09:59 19.12.2019
6205 Clouds 5 1013 87 10000 4.6 140 09:38 19.12.2019
6206 Clear 5 1014 81 10000 4.1 140 09:20 19.12.2019
6207 Clear 5 1015 87 10000 3.6 140 08:56 19.12.2019
6208 Clear 5 1014 87 10000 4.6 150 08:37 19.12.2019
6209 Clouds 5 1014 87 10000 4.6 150 08:18 19.12.2019
6210 Clouds 4 1015 93 10000 3.1 140 07:54 19.12.2019
6211 Clouds 4 1014 87 10000 5.1 170 07:36 19.12.2019
6212 Clouds 4 1015 93 10000 2.6 140 07:18 19.12.2019
6213 Clouds 4 1014 93 10000 4.6 150 06:42 19.12.2019
6214 Clouds 4 1015 93 10000 3.1 90 06:24 19.12.2019
6215 Clouds 4 1015 100 10000 2.1 100 05:47 19.12.2019
6216 Clouds 4 1015 93 10000 2.6 130 05:27 19.12.2019
6217 Clouds 4 1016 93 10000 2.6 120 03:58 19.12.2019
6218 Clouds 3 1017 93 10000 2.6 110 02:30 19.12.2019
6219 Clouds 3 1017 93 10000 2.6 90 01:27 19.12.2019
6220 Clouds 3 1018 93 10000 3.1 110 00:59 19.12.2019
6221 Clouds 2 1017 86 10000 4.1 130 00:39 19.12.2019
6222 Clouds 2 1017 86 10000 4.1 130 00:39 19.12.2019
6223 Clouds 2 1018 93 10000 2.1 100 00:19 19.12.2019
6224 Clouds 2 1018 93 10000 2.1 100 00:19 19.12.2019
6225 Clouds 3 1018 93 10000 2.6 120 23:45 18.12.2019
6226 Clouds 3 1018 93 10000 1.5 110 23:19 18.12.2019
6227 Clouds 3 1018 93 10000 1.5 110 23:19 18.12.2019
6228 Clouds 3 1018 93 10000 1.5 110 23:19 18.12.2019
6229 Clouds 2 1019 93 10000 1.5 100 22:58 18.12.2019
6230 Clouds 2 1018 93 10000 3.1 140 22:40 18.12.2019
6231 Clouds 2 1018 93 10000 3.1 140 22:40 18.12.2019
6232 Clouds 3 1019 93 10000 1.5 110 22:22 18.12.2019
6233 Clouds 3 1019 93 10000 1.5 120 21:59 18.12.2019
6234 Fog 3 1018 93 10000 2.6 130 21:40 18.12.2019
6235 Clouds 3 1019 93 10000 2.1 110 21:20 18.12.2019
6236 Clouds 3 1018 100 9000 2.1 100 20:57 18.12.2019
6237 Fog 3 1018 93 10000 2.6 140 20:39 18.12.2019
6238 Fog 3 1018 93 9000 2.1 100 20:20 18.12.2019
6239 Clouds 3 1018 93 9000 1.5 110 19:57 18.12.2019
6240 Fog 4 1018 100 10000 3.1 150 19:39 18.12.2019
6241 Clouds 4 1018 93 9000 1.5 100 19:19 18.12.2019
6242 Mist 4 1018 100 9000 2.6 90 18:56 18.12.2019
6243 Fog 4 1018 100 10000 2.1 130 18:37 18.12.2019
6244 Fog 4 1019 100 9000 1.5 80 18:18 18.12.2019
6245 Clouds 4 1019 100 10000 0.5 0 17:55 18.12.2019
6246 Fog 5 1018 93 10000 1.5 120 17:37 18.12.2019
6247 Fog 5 1018 93 10000 1.5 120 17:37 18.12.2019
6248 Clouds 6 1018 93 10000 1 0 17:18 18.12.2019
6249 Clouds 6 1018 93 10000 1 0 16:42 18.12.2019
6250 Clouds 7 1018 81 10000 1 0 16:24 18.12.2019
6251 Clouds 8 1018 81 10000 1 0 15:57 18.12.2019
6252 Clouds 8 1018 81 10000 2.6 260 15:39 18.12.2019
6253 Clouds 9 1017 76 10000 3.6 260 15:21 18.12.2019
6254 Clouds 9 1017 76 10000 3.6 260 14:56 18.12.2019
6255 Clouds 9 1017 76 10000 3.6 260 14:56 18.12.2019
6256 Clouds 9 1017 76 10000 3.6 250 14:38 18.12.2019
6257 Clouds 9 1017 76 10000 4.6 250 14:19 18.12.2019
6258 Clouds 9 1017 76 10000 6.2 250 13:55 18.12.2019
6259 Clouds 9 1017 76 10000 6.2 250 13:36 18.12.2019
6260 Clouds 9 1016 81 10000 5.1 250 13:18 18.12.2019
6261 Clouds 9 1016 81 10000 5.1 250 13:18 18.12.2019
6262 Clouds 9 1016 76 10000 4.6 250 12:40 18.12.2019
6263 Clouds 8 1016 76 10000 4.6 240 12:21 18.12.2019
6264 Clouds 8 1016 76 10000 4.6 240 11:57 18.12.2019
6265 Clouds 7 1016 81 10000 2.6 240 11:39 18.12.2019
6266 Clouds 7 1016 87 10000 2.6 240 11:20 18.12.2019
6267 Clouds 7 1016 87 10000 2.6 240 10:58 18.12.2019
6268 Clouds 7 1016 81 10000 3.6 250 10:39 18.12.2019
6269 Clouds 6 1015 87 10000 2.6 240 10:20 18.12.2019
6270 Clouds 6 1015 87 10000 2.6 240 09:58 18.12.2019
6271 Clouds 6 1014 93 10000 1.5 240 09:20 18.12.2019
6272 Clouds 6 1014 87 10000 2.6 210 08:43 18.12.2019
6273 Clouds 6 1013 87 10000 2.1 210 08:25 18.12.2019
6274 Clouds 6 1013 87 10000 2.1 210 08:25 18.12.2019
6275 Clouds 6 1013 87 10000 2.1 210 07:57 18.12.2019
6276 Clouds 6 1013 87 10000 2.1 210 07:57 18.12.2019
6277 Clouds 6 1013 93 10000 2.6 200 07:39 18.12.2019
6278 Clouds 6 1012 87 10000 2.1 220 07:20 18.12.2019
6279 Clouds 7 1012 87 10000 3.1 250 06:52 18.12.2019
6280 Clouds 7 1011 93 10000 4.6 270 06:25 18.12.2019
6281 Clouds 8 1011 93 10000 3.6 260 05:36 18.12.2019
6282 Clouds 9 1009 81 10000 6.2 270 04:31 18.12.2019
6283 Rain 11 1006 87 10000 7.7 250 02:47 18.12.2019
6284 Rain 11 1006 87 10000 7.7 250 02:28 18.12.2019
6285 Rain 11 1004 87 10000 3.6 230 01:45 18.12.2019
6286 Rain 11 1004 87 10000 3.6 230 01:27 18.12.2019
6287 Rain 11 1004 87 10000 5.7 230 00:55 18.12.2019
6288 Rain 12 1004 87 10000 5.7 230 00:36 18.12.2019
6289 Rain 12 1004 81 10000 5.1 210 00:18 18.12.2019
6290 Rain 13 1003 71 10000 7.2 200 23:43 17.12.2019
6291 Rain 13 1002 62 10000 5.7 190 23:23 17.12.2019
6292 Rain 13 1002 62 10000 5.7 190 22:57 17.12.2019
6293 Rain 13 1002 62 10000 4.6 190 22:39 17.12.2019
6294 Rain 13 1002 62 10000 5.7 200 22:19 17.12.2019
6295 Rain 13 1002 62 10000 5.7 200 21:57 17.12.2019
6296 Rain 13 1003 66 10000 5.7 190 21:39 17.12.2019
6297 Rain 12 1003 66 10000 4.1 180 21:20 17.12.2019
6298 Rain 13 1003 66 10000 4.1 180 20:59 17.12.2019
6299 Rain 12 1003 66 10000 2.6 150 20:39 17.12.2019
6300 Clouds 12 1003 66 10000 2.6 150 20:19 17.12.2019
6301 Clouds 12 1003 66 10000 2.6 150 19:57 17.12.2019
6302 Clouds 12 1003 66 10000 3.6 170 19:39 17.12.2019
6303 Clouds 12 1003 62 10000 3.6 180 19:19 17.12.2019
6304 Clouds 12 1003 62 10000 4.1 180 18:57 17.12.2019
6305 Clouds 12 1003 62 10000 3.6 180 18:57 17.12.2019
6306 Clouds 12 1003 62 10000 4.1 180 18:57 17.12.2019
6307 Clouds 12 1003 62 10000 4.1 180 18:37 17.12.2019
6308 Clouds 12 1003 62 10000 4.1 180 18:37 17.12.2019
6309 Clouds 12 1003 62 10000 5.1 190 18:19 17.12.2019
6310 Clouds 12 1003 62 10000 4.1 190 17:54 17.12.2019
6311 Clouds 12 1003 62 10000 4.1 190 17:36 17.12.2019
6312 Clouds 12 1003 62 10000 4.1 190 17:18 17.12.2019
6313 Clouds 12 1003 62 10000 4.6 180 16:54 17.12.2019
6314 Clouds 13 1003 62 10000 4.6 180 16:36 17.12.2019
6315 Clouds 13 1003 58 10000 3.6 180 16:18 17.12.2019
6316 Clouds 13 1003 62 10000 4.1 200 15:38 17.12.2019
6317 Clouds 14 1003 58 10000 4.6 200 15:20 17.12.2019
6318 Clouds 14 1003 58 10000 4.6 200 14:56 17.12.2019
6319 Clouds 14 1002 58 10000 6.2 200 14:38 17.12.2019
6320 Clouds 14 1002 62 10000 5.7 190 14:19 17.12.2019
6321 Clouds 14 1002 62 10000 5.7 190 14:19 17.12.2019
6322 Clouds 14 1002 62 10000 5.7 190 13:56 17.12.2019
6323 Clouds 14 1002 62 10000 4.6 200 13:38 17.12.2019
6324 Clouds 14 1002 62 10000 4.1 200 13:19 17.12.2019
6325 Clouds 14 1002 62 10000 4.1 200 12:58 17.12.2019
6326 Clouds 13 1002 58 10000 5.7 200 12:38 17.12.2019
6327 Clouds 14 1002 58 10000 5.7 200 12:38 17.12.2019
6328 Clouds 13 1002 58 10000 4.6 200 12:18 17.12.2019
6329 Clouds 13 1002 62 10000 5.7 200 11:56 17.12.2019
6330 Clouds 13 1002 62 10000 5.7 200 11:36 17.12.2019
6331 Clouds 13 1002 62 10000 5.7 200 11:36 17.12.2019
6332 Clouds 12 1003 66 10000 5.7 190 11:18 17.12.2019
6333 Clouds 12 1002 66 10000 5.1 190 10:56 17.12.2019
6334 Clouds 11 1002 66 10000 5.1 190 10:37 17.12.2019
6335 Clouds 11 1002 66 10000 5.7 190 10:19 17.12.2019
6336 Clouds 10 1002 71 10000 5.7 190 09:42 17.12.2019
6337 Clouds 10 1002 71 10000 3.6 190 09:22 17.12.2019
6338 Clouds 9 1002 71 10000 3.6 190 08:58 17.12.2019
6339 Clouds 9 1002 76 10000 3.6 180 08:40 17.12.2019
6340 Clouds 8 1001 76 10000 1.5 150 08:21 17.12.2019
6341 Clouds 8 1001 76 10000 1.5 150 07:58 17.12.2019
6342 Clouds 8 1001 81 10000 1.5 120 07:39 17.12.2019
6343 Clouds 7 1001 81 10000 3.6 80 07:20 17.12.2019
6344 Clouds 7 1001 87 10000 1.5 130 06:41 17.12.2019
6345 Clouds 7 1001 81 10000 2.1 140 06:22 17.12.2019
6346 Clouds 7 1001 93 10000 2.6 70 05:40 17.12.2019
6347 Clouds 6 1002 93 10000 2.6 80 04:48 17.12.2019
6348 Mist 6 1002 100 3500 4.1 90 03:31 17.12.2019
6349 Clouds 6 1003 100 8000 1.5 110 01:59 17.12.2019
6350 Clouds 6 1003 100 8000 3.1 100 01:21 17.12.2019
6351 Clouds 6 1004 93 6000 2.6 110 00:39 17.12.2019
6352 Clouds 6 1004 93 6000 2.6 110 00:39 17.12.2019
6353 Mist 6 1004 100 4500 2.6 90 00:21 17.12.2019
6354 Mist 6 1004 100 3500 2.1 70 23:43 16.12.2019
6355 Clouds 6 1004 93 10000 0.5 0 23:20 16.12.2019
6356 Clouds 7 1004 93 10000 0.5 0 22:58 16.12.2019
6357 Clouds 7 1004 93 10000 1.5 140 22:38 16.12.2019
6358 Clouds 7 1004 93 10000 2.6 150 22:20 16.12.2019
6359 Clouds 7 1004 93 10000 2.6 150 21:57 16.12.2019
6360 Clouds 7 1004 93 10000 2.6 150 21:57 16.12.2019
6361 Clouds 7 1005 93 10000 2.6 140 21:38 16.12.2019
6362 Clouds 8 1005 87 10000 2.6 140 21:20 16.12.2019
6363 Clouds 8 1005 87 10000 2.6 140 20:58 16.12.2019
6364 Clouds 8 1005 87 10000 1.5 140 20:39 16.12.2019
6365 Clouds 8 1005 87 10000 2.1 170 20:19 16.12.2019
6366 Clouds 8 1005 87 10000 2.1 170 19:56 16.12.2019
6367 Clouds 8 1005 87 10000 2.1 180 19:37 16.12.2019
6368 Clouds 8 1006 87 10000 2.1 180 19:19 16.12.2019
6369 Clouds 8 1005 87 10000 3.1 180 18:58 16.12.2019
6370 Clouds 8 1006 87 10000 2.1 180 18:58 16.12.2019
6371 Clouds 8 1005 87 10000 3.1 180 18:40 16.12.2019
6372 Clouds 8 1005 87 10000 3.1 180 18:40 16.12.2019
6373 Clouds 8 1006 87 10000 2.6 160 18:20 16.12.2019
6374 Clouds 8 1006 87 10000 2.6 160 17:57 16.12.2019
6375 Clouds 8 1006 87 10000 2.6 160 17:57 16.12.2019
6376 Clouds 8 1006 87 10000 2.6 160 17:57 16.12.2019
6377 Clouds 8 1006 87 10000 2.6 160 17:39 16.12.2019
6378 Rain 8 1005 81 10000 2.1 150 17:21 16.12.2019
6379 Rain 8 1006 87 10000 1 120 16:57 16.12.2019
6380 Rain 8 1006 87 10000 1 120 16:38 16.12.2019
6381 Rain 8 1006 87 10000 0.5 0 16:19 16.12.2019
6382 Rain 8 1006 87 10000 0.5 0 15:58 16.12.2019
6383 Rain 9 1006 81 10000 2.1 160 15:38 16.12.2019
6384 Clouds 9 1006 81 10000 2.1 170 15:20 16.12.2019
6385 Clouds 9 1006 81 10000 2.1 170 14:57 16.12.2019
6386 Rain 9 1006 81 10000 2.6 170 14:37 16.12.2019
6387 Clouds 9 1006 81 10000 2.1 140 14:19 16.12.2019
6388 Rain 9 1006 81 10000 2.6 170 13:56 16.12.2019
6389 Rain 9 1006 81 10000 2.6 170 13:37 16.12.2019
6390 Rain 9 1006 81 10000 2.1 180 13:19 16.12.2019
6391 Rain 9 1006 81 10000 2.1 180 12:57 16.12.2019
6392 Rain 8 1007 81 10000 2.6 180 12:39 16.12.2019
6393 Rain 8 1007 81 10000 2.1 170 12:18 16.12.2019
6394 Clouds 8 1007 81 10000 2.6 170 11:57 16.12.2019
6395 Clouds 8 1007 81 10000 2.6 170 11:39 16.12.2019
6396 Clouds 8 1007 81 10000 3.1 170 11:19 16.12.2019
6397 Clouds 7 1007 81 10000 4.1 170 10:55 16.12.2019
6398 Clouds 7 1007 81 10000 4.1 170 10:36 16.12.2019
6399 Clouds 7 1007 81 10000 4.6 180 10:18 16.12.2019
6400 Clouds 7 1007 81 10000 4.1 190 09:44 16.12.2019
6401 Clouds 6 1007 81 10000 3.6 180 09:26 16.12.2019
6402 Clouds 6 1007 81 10000 3.1 180 08:41 16.12.2019
6403 Clouds 5 1006 87 10000 4.1 180 08:20 16.12.2019
6404 Clouds 5 1006 86 10000 2.6 160 07:53 16.12.2019
6405 Clouds 5 1006 86 10000 2.6 160 07:33 16.12.2019
6406 Clouds 5 1006 80 10000 3.6 160 06:59 16.12.2019
6407 Clouds 5 1007 80 10000 3.6 170 06:40 16.12.2019
6408 Clouds 4 1007 80 10000 3.1 160 06:21 16.12.2019
6409 Clouds 5 1007 75 10000 2.6 180 05:41 16.12.2019
6410 Clouds 5 1007 75 10000 3.6 170 05:23 16.12.2019
6411 Clouds 5 1007 78 10000 4.1 180 03:33 16.12.2019
6412 Clouds 5 1007 70 10000 4.1 210 01:52 16.12.2019
6413 Clouds 5 1007 70 10000 4.1 210 01:33 16.12.2019
6414 Clouds 5 1007 70 10000 3.6 210 00:41 16.12.2019
6415 Clouds 6 1007 70 10000 4.6 230 00:21 16.12.2019
6416 Clouds 6 1007 70 10000 4.6 230 23:57 15.12.2019
6417 Clouds 6 1006 70 10000 5.7 230 23:37 15.12.2019
6418 Clouds 6 1006 70 10000 5.7 230 23:37 15.12.2019
6419 Clouds 6 1006 65 10000 5.7 230 23:19 15.12.2019
6420 Clouds 6 1006 65 10000 6.7 230 22:54 15.12.2019
6421 Clouds 6 1006 65 10000 6.7 230 22:36 15.12.2019
6422 Clouds 7 1005 65 10000 6.2 230 22:18 15.12.2019
6423 Clouds 7 1005 65 10000 7.2 230 21:54 15.12.2019
6424 Clouds 7 1005 65 10000 7.2 230 21:36 15.12.2019
6425 Clouds 7 1005 70 10000 6.2 230 21:18 15.12.2019
6426 Clouds 7 1004 70 10000 6.7 230 20:54 15.12.2019
6427 Clouds 7 1004 70 10000 6.7 230 20:36 15.12.2019
6428 Clouds 7 1004 65 10000 6.2 240 20:18 15.12.2019
6429 Clouds 7 1003 65 10000 6.7 240 19:54 15.12.2019
6430 Clouds 7 1003 65 10000 6.7 240 19:36 15.12.2019
6431 Rain 7 1003 65 10000 7.2 230 19:18 15.12.2019
6432 Clear 7 1002 65 10000 8.2 230 18:54 15.12.2019
6433 Clear 7 1002 65 10000 8.2 230 18:36 15.12.2019
6434 Rain 8 1002 65 10000 7.2 230 18:18 15.12.2019
6435 Clouds 8 1001 65 10000 6.2 230 17:54 15.12.2019
6436 Clouds 7 1001 65 10000 6.2 230 17:36 15.12.2019
6437 Clouds 8 1001 65 10000 6.7 220 17:18 15.12.2019
6438 Clouds 8 1001 61 10000 6.7 230 16:42 15.12.2019
6439 Clouds 8 1000 61 10000 7.2 240 16:22 15.12.2019
6440 Clouds 8 1000 61 10000 7.2 240 15:57 15.12.2019
6441 Clouds 8 1000 61 10000 7.7 240 15:38 15.12.2019
6442 Clouds 8 999 61 10000 7.2 240 15:19 15.12.2019
6443 Clouds 8 999 61 10000 7.2 240 15:19 15.12.2019
6444 Clouds 8 999 61 10000 7.2 240 14:56 15.12.2019
6445 Clouds 9 999 57 10000 8.7 240 14:37 15.12.2019
6446 Clouds 9 998 57 10000 9.3 240 14:18 15.12.2019
6447 Clouds 9 998 57 10000 9.3 240 13:58 15.12.2019
6448 Clouds 9 998 61 10000 9.8 250 13:38 15.12.2019
6449 Clouds 9 997 61 10000 9.8 250 13:19 15.12.2019
6450 Clouds 9 997 61 10000 9.8 250 12:57 15.12.2019
6451 Clouds 9 997 66 10000 10.3 250 12:39 15.12.2019
6452 Clouds 9 997 66 10000 10.3 250 12:39 15.12.2019
6453 Clouds 9 996 66 10000 9.8 250 12:20 15.12.2019
6454 Clouds 9 996 66 10000 9.8 250 12:20 15.12.2019
6455 Clouds 9 995 66 10000 9.3 240 11:56 15.12.2019
6456 Clouds 9 995 66 10000 9.3 240 11:37 15.12.2019
6457 Clouds 8 995 70 10000 9.3 240 11:18 15.12.2019
6458 Clouds 8 994 76 10000 9.3 250 10:55 15.12.2019
6459 Clouds 8 994 76 10000 9.3 250 10:37 15.12.2019
6460 Clouds 8 993 76 10000 7.7 240 10:18 15.12.2019
6461 Clouds 8 993 81 10000 6.2 240 09:41 15.12.2019
6462 Rain 8 993 87 10000 4.1 230 09:20 15.12.2019
6463 Rain 7 993 87 10000 4.1 230 08:58 15.12.2019
6464 Rain 7 992 93 10000 3.6 220 08:39 15.12.2019
6465 Rain 7 992 87 10000 4.6 190 08:21 15.12.2019
6466 Rain 7 991 81 10000 5.7 180 07:56 15.12.2019
6467 Rain 7 991 81 10000 5.7 180 07:34 15.12.2019
6468 Rain 6 993 81 10000 5.1 160 06:51 15.12.2019
6469 Rain 5 993 80 10000 4.1 160 06:20 15.12.2019
6470 Rain 4 994 80 10000 5.1 160 05:26 15.12.2019
6471 Clouds 4 995 80 10000 3.6 160 04:47 15.12.2019
6472 Clouds 4 996 80 10000 2.1 140 03:29 15.12.2019
6473 Clouds 4 997 79 10000 3.6 200 02:34 15.12.2019
6474 Clouds 4 998 76 10000 4.1 210 01:47 15.12.2019
6475 Clouds 4 998 74 10000 4.1 210 01:28 15.12.2019
6476 Clouds 4 998 74 10000 5.7 230 00:57 15.12.2019
6477 Clouds 4 998 74 10000 6.2 240 00:38 15.12.2019
6478 Clouds 4 998 74 10000 7.2 250 00:20 15.12.2019
6479 Clouds 4 997 80 10000 8.2 250 23:39 14.12.2019
6480 Rain 4 997 80 10000 6.7 240 23:19 14.12.2019
6481 Rain 4 996 93 10000 6.2 240 22:57 14.12.2019
6482 Rain 4 996 93 10000 6.2 240 22:57 14.12.2019
6483 Rain 3 996 93 10000 6.2 240 22:39 14.12.2019
6484 Clouds 3 996 93 10000 4.1 240 22:20 14.12.2019
6485 Clouds 3 996 93 10000 4.1 240 21:55 14.12.2019
6486 Clouds 3 995 93 10000 3.6 250 21:37 14.12.2019
6487 Rain 3 995 93 10000 5.7 260 21:18 14.12.2019
6488 Rain 3 995 93 10000 5.7 260 20:55 14.12.2019
6489 Rain 3 995 93 10000 5.7 260 20:55 14.12.2019
6490 Rain 4 994 93 9000 10.8 290 20:37 14.12.2019
6491 Rain 4 994 93 9000 10.8 290 20:37 14.12.2019
6492 Rain 4 991 81 10000 7.7 230 20:19 14.12.2019
6493 Rain 5 991 75 10000 6.2 200 19:40 14.12.2019
6494 Rain 5 991 86 10000 3.6 220 19:21 14.12.2019
6495 Rain 5 991 86 10000 3.6 220 18:58 14.12.2019
6496 Rain 5 991 75 10000 7.7 230 18:39 14.12.2019
6497 Rain 6 991 70 10000 6.2 230 18:21 14.12.2019
6498 Rain 5 991 70 10000 6.2 230 17:59 14.12.2019
6499 Rain 6 991 70 10000 5.7 230 17:41 14.12.2019
6500 Clouds 6 990 70 10000 7.7 240 17:22 14.12.2019
6501 Clouds 6 990 70 10000 7.2 250 16:42 14.12.2019
6502 Clouds 6 990 75 10000 6.7 250 16:19 14.12.2019
6503 Clouds 6 990 75 10000 6.7 250 15:57 14.12.2019
6504 Clouds 6 989 75 10000 9.8 250 15:38 14.12.2019
6505 Clouds 6 989 75 10000 9.3 240 15:19 14.12.2019
6506 Clouds 6 989 75 10000 9.3 240 14:57 14.12.2019
6507 Clouds 6 988 81 10000 8.7 240 14:37 14.12.2019
6508 Rain 6 988 93 8000 7.2 260 14:18 14.12.2019
6509 Rain 6 987 81 3000 8.2 260 13:44 14.12.2019
6510 Clouds 5 987 81 10000 8.7 240 13:19 14.12.2019
6511 Clouds 5 987 81 10000 8.7 240 12:58 14.12.2019
6512 Clouds 5 986 81 10000 8.7 240 12:39 14.12.2019
6513 Rain 5 986 86 10000 6.7 250 12:20 14.12.2019
6514 Clouds 5 986 86 10000 6.7 260 11:58 14.12.2019
6515 Rain 4 986 86 10000 6.7 240 11:39 14.12.2019
6516 Rain 4 985 93 10000 6.2 240 11:19 14.12.2019
6517 Rain 4 985 93 10000 6.7 240 10:56 14.12.2019
6518 Rain 4 985 93 10000 6.7 240 10:38 14.12.2019
6519 Rain 4 984 93 10000 3.6 250 10:20 14.12.2019
6520 Rain 4 983 93 10000 2.6 230 09:43 14.12.2019
6521 Rain 4 983 93 10000 2.6 210 09:23 14.12.2019
6522 Rain 4 983 93 10000 2.6 210 08:59 14.12.2019
6523 Rain 4 983 93 10000 2.6 210 08:59 14.12.2019
6524 Rain 4 982 93 10000 3.1 200 08:40 14.12.2019
6525 Rain 4 982 86 10000 5.1 210 08:19 14.12.2019
6526 Rain 4 982 80 10000 3.6 200 07:41 14.12.2019
6527 Clouds 4 982 80 10000 3.1 210 07:21 14.12.2019
6528 Rain 4 982 80 10000 5.1 200 06:55 14.12.2019
6529 Rain 4 982 80 10000 5.1 200 06:36 14.12.2019
6530 Clouds 5 982 86 10000 4.1 200 05:52 14.12.2019
6531 Clouds 4 983 86 10000 3.6 210 04:29 14.12.2019
6532 Clouds 4 983 93 10000 3.6 230 02:24 14.12.2019
6533 Clouds 3 983 93 10000 2.1 200 01:44 14.12.2019
6534 Clouds 3 983 93 10000 2.1 200 01:22 14.12.2019
6535 Clouds 3 983 100 10000 2.1 200 00:43 14.12.2019
6536 Rain 2 983 93 10000 2.6 230 00:22 14.12.2019
6537 Drizzle 2 983 100 5000 3.1 250 23:42 13.12.2019
6538 Drizzle 2 983 93 9000 4.1 260 23:20 13.12.2019
6539 Drizzle 2 983 93 9000 4.1 260 22:59 13.12.2019
6540 Drizzle 2 983 93 3700 2.1 210 22:40 13.12.2019
6541 Drizzle 2 982 93 3000 0.5 190 22:19 13.12.2019
6542 Drizzle 2 983 93 8000 3.1 250 21:55 13.12.2019
6543 Drizzle 2 982 93 9000 2.1 220 21:36 13.12.2019
6544 Rain 2 982 86 10000 1.5 200 21:18 13.12.2019
6545 Clouds 2 982 86 10000 1.5 190 20:40 13.12.2019
6546 Clouds 2 982 86 10000 1.5 190 20:40 13.12.2019
6547 Clouds 2 981 93 10000 1.5 120 20:21 13.12.2019
6548 Clouds 2 981 93 10000 1.5 120 19:57 13.12.2019
6549 Clouds 2 981 86 10000 2.1 150 19:39 13.12.2019
6550 Clouds 2 981 87 10000 2.1 110 19:20 13.12.2019
6551 Clouds 2 980 93 10000 2.1 100 18:56 13.12.2019
6552 Clouds 2 980 86 10000 3.1 130 18:38 13.12.2019
6553 Clouds 2 980 86 10000 3.1 130 18:38 13.12.2019
6554 Clouds 2 980 93 10000 3.1 100 18:18 13.12.2019
6555 Clouds 2 980 93 10000 3.1 100 18:18 13.12.2019
6556 Clouds 2 980 86 10000 3.1 130 17:41 13.12.2019
6557 Clouds 2 980 93 10000 3.6 90 17:19 13.12.2019
6558 Clouds 2 980 93 10000 3.6 90 17:19 13.12.2019
6559 Clouds 2 979 92 10000 3.1 110 16:58 13.12.2019
6560 Clouds 2 979 92 10000 3.6 120 16:39 13.12.2019
6561 Clouds 2 979 92 10000 3.6 110 16:20 13.12.2019
6562 Clouds 2 978 92 10000 4.6 110 15:43 13.12.2019
6563 Clouds 2 978 92 10000 4.1 130 15:23 13.12.2019
6564 Snow 2 978 92 10000 4.1 120 14:58 13.12.2019
6565 Clouds 3 978 92 10000 5.1 130 14:39 13.12.2019
6566 Clouds 3 978 67 10000 4.6 130 14:20 13.12.2019
6567 Snow 3 978 67 10000 4.6 110 13:56 13.12.2019
6568 Snow 3 978 67 10000 4.1 120 13:37 13.12.2019
6569 Snow 3 978 69 10000 4.1 120 13:18 13.12.2019
6570 Snow 3 978 69 10000 4.6 110 12:42 13.12.2019
6571 Snow 3 978 80 10000 4.6 110 12:19 13.12.2019
6572 Snow 2 978 80 10000 4.1 120 11:57 13.12.2019
6573 Snow 2 977 69 10000 6.2 120 11:39 13.12.2019
6574 Snow 2 978 72 5000 6.2 140 11:19 13.12.2019
6575 Snow 2 978 80 10000 5.7 120 10:41 13.12.2019
6576 Snow 2 979 86 9000 3.6 110 10:21 13.12.2019
6577 Snow 1 978 72 8000 6.2 130 09:43 13.12.2019
6578 Snow 1 979 80 10000 3.6 100 09:22 13.12.2019
6579 Clouds 1 980 80 10000 3.1 110 08:59 13.12.2019
6580 Clouds 1 979 74 10000 8.2 150 08:40 13.12.2019
6581 Clouds 1 980 80 10000 3.6 100 08:22 13.12.2019
6582 Clouds 1 980 80 10000 3.6 110 07:43 13.12.2019
6583 Clouds 1 981 80 10000 4.1 110 07:20 13.12.2019
6584 Clouds 1 981 80 10000 4.6 110 06:50 13.12.2019
6585 Clouds 1 982 80 10000 3.1 110 06:28 13.12.2019
6586 Clouds 1 982 80 10000 3.6 110 05:43 13.12.2019
6587 Clear 1 983 74 10000 4.6 120 05:20 13.12.2019
6588 Clear 2 984 74 10000 6.2 130 04:33 13.12.2019
6589 Clear 2 986 80 10000 4.1 130 03:29 13.12.2019
6590 Clear 2 987 74 10000 4.1 140 02:31 13.12.2019
6591 Clear 2 988 74 10000 4.6 150 01:39 13.12.2019
6592 Clouds 2 990 74 10000 5.7 160 00:51 13.12.2019
6593 Clouds 2 990 74 10000 4.6 150 00:29 13.12.2019
6594 Clear 2 991 75 10000 4.1 150 23:46 12.12.2019
6595 Clear 2 992 75 10000 4.6 150 23:27 12.12.2019
6596 Clear 2 992 83 10000 5.1 140 22:57 12.12.2019
6597 Clear 3 992 80 10000 5.7 170 22:39 12.12.2019
6598 Clouds 3 993 83 10000 4.1 150 22:21 12.12.2019
6599 Clouds 3 994 83 10000 2.6 140 21:56 12.12.2019
6600 Clouds 3 993 80 10000 3.6 160 21:38 12.12.2019
6601 Clouds 3 994 83 10000 3.6 150 21:20 12.12.2019
6602 Clouds 3 994 83 10000 3.6 150 21:20 12.12.2019
6603 Clouds 3 995 83 10000 3.1 150 20:59 12.12.2019
6604 Clouds 3 994 83 10000 6.7 190 20:40 12.12.2019
6605 Clouds 3 996 80 10000 3.6 160 20:22 12.12.2019
6606 Clouds 3 996 80 10000 3.1 150 19:56 12.12.2019
6607 Clouds 3 996 80 10000 3.1 190 19:38 12.12.2019
6608 Clouds 3 997 80 10000 3.1 160 19:20 12.12.2019
6609 Clouds 3 997 86 10000 3.6 160 18:56 12.12.2019
6610 Clouds 3 997 86 10000 3.6 160 18:56 12.12.2019
6611 Clouds 4 996 93 10000 3.6 170 18:38 12.12.2019
6612 Clouds 4 997 86 10000 3.6 150 18:19 12.12.2019
6613 Clouds 4 998 86 10000 3.6 170 17:57 12.12.2019
6614 Clouds 4 997 93 10000 3.1 200 17:38 12.12.2019
6615 Clouds 4 998 80 10000 4.1 190 17:19 12.12.2019
6616 Clouds 4 998 80 10000 4.1 190 16:55 12.12.2019
6617 Clouds 5 998 86 10000 3.1 180 16:36 12.12.2019
6618 Clouds 5 999 80 10000 3.1 190 16:18 12.12.2019
6619 Clouds 5 998 86 10000 3.6 180 15:42 12.12.2019
6620 Clouds 5 999 80 10000 3.6 170 15:20 12.12.2019
6621 Clouds 5 999 80 10000 4.1 180 14:59 12.12.2019
6622 Clouds 5 999 86 10000 4.1 190 14:38 12.12.2019
6623 Clouds 5 1000 80 10000 4.1 190 14:19 12.12.2019
6624 Clouds 5 1000 86 10000 4.1 200 13:56 12.12.2019
6625 Clouds 5 1000 86 10000 4.6 210 13:38 12.12.2019
6626 Clouds 5 1000 80 10000 3.6 190 13:20 12.12.2019
6627 Clouds 5 1000 86 10000 4.1 200 12:57 12.12.2019
6628 Clouds 5 1000 86 10000 4.1 210 12:38 12.12.2019
6629 Clouds 5 1001 80 10000 4.1 200 12:19 12.12.2019
6630 Clouds 5 1001 80 10000 4.1 200 12:19 12.12.2019
6631 Clouds 5 1001 86 10000 3.6 180 11:54 12.12.2019
6632 Clouds 4 1001 86 10000 6.2 210 11:36 12.12.2019
6633 Clouds 4 1001 86 10000 3.1 180 11:18 12.12.2019
6634 Clouds 4 1001 86 10000 5.1 210 10:41 12.12.2019
6635 Clouds 4 1001 86 10000 3.6 190 10:23 12.12.2019
6636 Clouds 4 1001 86 10000 3.6 190 10:23 12.12.2019
6637 Clouds 4 1001 86 10000 3.1 180 09:59 12.12.2019
6638 Clouds 4 1001 86 10000 3.1 180 09:59 12.12.2019
6639 Clouds 4 1001 86 10000 3.1 180 09:41 12.12.2019
6640 Clouds 4 1001 86 10000 3.1 170 09:23 12.12.2019
6641 Clouds 3 1001 86 10000 3.1 180 08:55 12.12.2019
6642 Clouds 3 1001 93 10000 2.6 180 08:37 12.12.2019
6643 Clouds 3 1001 93 10000 3.1 170 08:18 12.12.2019
6644 Clouds 3 1001 93 10000 2.6 180 07:41 12.12.2019
6645 Clouds 3 1001 93 10000 2.6 170 07:23 12.12.2019
6646 Clouds 3 1001 93 10000 3.1 150 06:44 12.12.2019
6647 Clouds 3 1001 93 9000 2.1 160 06:24 12.12.2019
6648 Clouds 3 1001 93 5000 2.6 220 05:36 12.12.2019
6649 Clouds 3 1002 93 9000 2.6 170 04:51 12.12.2019
6650 Clouds 3 1002 93 9000 2.1 200 03:20 12.12.2019
6651 Clouds 3 1003 100 7000 2.6 230 02:37 12.12.2019
6652 Clouds 3 1003 100 7000 2.6 230 02:19 12.12.2019
6653 Clouds 3 1003 93 4800 4.1 240 01:37 12.12.2019
6654 Clouds 3 1003 100 8000 2.6 240 01:18 12.12.2019
6655 Clouds 3 1003 100 8000 2.6 240 00:40 12.12.2019
6656 Clouds 3 1003 93 8000 1.5 230 00:18 12.12.2019
6657 Rain 3 1003 93 5000 3.6 240 23:42 11.12.2019
6658 Drizzle 2 1004 93 9000 1.5 200 23:20 11.12.2019
6659 Drizzle 3 1004 93 9000 2.1 190 22:57 11.12.2019
6660 Rain 2 1003 93 7000 3.1 230 22:38 11.12.2019
6661 Drizzle 2 1004 93 10000 2.1 180 22:19 11.12.2019
6662 Drizzle 2 1004 93 10000 2.1 170 21:57 11.12.2019
6663 Drizzle 2 1004 93 10000 2.1 220 21:37 11.12.2019
6664 Drizzle 2 1004 93 10000 2.1 220 21:37 11.12.2019
6665 Drizzle 2 1004 93 9000 2.1 180 21:19 11.12.2019
6666 Drizzle 2 1004 93 9000 2.1 180 21:19 11.12.2019
6667 Drizzle 2 1004 93 10000 1.5 190 20:55 11.12.2019
6668 Rain 2 1004 93 10000 3.6 210 20:37 11.12.2019
6669 Rain 3 1004 93 10000 4.1 220 20:18 11.12.2019
6670 Drizzle 3 1005 93 10000 2.6 190 19:55 11.12.2019
6671 Rain 3 1004 93 10000 4.6 220 19:36 11.12.2019
6672 Drizzle 3 1005 93 10000 3.1 190 19:18 11.12.2019
6673 Drizzle 3 1005 93 10000 2.6 180 18:40 11.12.2019
6674 Drizzle 3 1005 93 10000 3.1 190 18:21 11.12.2019
6675 Drizzle 3 1005 93 10000 2.6 190 17:57 11.12.2019
6676 Rain 3 1005 93 10000 2.6 180 17:38 11.12.2019
6677 Drizzle 3 1005 93 10000 3.1 190 17:18 11.12.2019
6678 Rain 3 1005 93 10000 2.6 180 16:56 11.12.2019
6679 Rain 3 1006 93 10000 2.6 190 16:37 11.12.2019
6680 Rain 3 1006 93 10000 2.6 190 16:37 11.12.2019
6681 Rain 3 1006 93 10000 2.6 180 16:19 11.12.2019
6682 Rain 3 1006 93 10000 2.6 180 15:57 11.12.2019
6683 Rain 3 1006 93 10000 3.6 210 15:37 11.12.2019
6684 Rain 4 1006 93 10000 2.1 180 15:19 11.12.2019
6685 Rain 4 1006 93 10000 3.6 180 14:55 11.12.2019
6686 Rain 4 1006 93 10000 4.6 200 14:37 11.12.2019
6687 Rain 4 1007 93 10000 3.6 200 14:18 11.12.2019
6688 Rain 4 1007 93 10000 4.1 200 13:43 11.12.2019
6689 Rain 4 1007 93 10000 3.1 190 13:23 11.12.2019
6690 Rain 4 1008 93 10000 3.6 190 12:58 11.12.2019
6691 Rain 4 1007 93 10000 4.6 200 12:39 11.12.2019
6692 Rain 4 1008 93 10000 4.1 180 12:21 11.12.2019
6693 Rain 4 1008 93 10000 4.6 190 11:58 11.12.2019
6694 Rain 4 1008 93 10000 4.6 200 11:39 11.12.2019
6695 Rain 4 1008 93 10000 4.6 200 11:39 11.12.2019
6696 Rain 4 1009 86 10000 4.6 190 11:19 11.12.2019
6697 Rain 4 1009 86 9000 4.6 180 10:59 11.12.2019
6698 Rain 4 1008 86 10000 5.7 210 10:39 11.12.2019
6699 Clouds 4 1009 86 10000 4.1 190 10:21 11.12.2019
6700 Clouds 4 1009 86 10000 3.6 200 09:56 11.12.2019
6701 Rain 4 1009 86 10000 5.1 220 09:38 11.12.2019
6702 Rain 4 1009 86 10000 4.1 200 09:19 11.12.2019
6703 Rain 4 1010 86 10000 4.1 190 08:55 11.12.2019
6704 Rain 4 1009 80 10000 6.7 22